Wetterdaten: Freitag, 03.03.2017
Datum Zeit Temp. A. Temp. A. max Feuchte A. Luftdruck Regen Wind Richtung Richtung Sonnenschein ET UV Solar Taupunkt Windchill Windböen
03.03.2017 00:00 -2,7 °C -2,6 °C 74 % 1019,2 hPa 0,0 mm 1,9 km/h (1 Bft) S-SW 192 ° 0 min 0,000 mm 0,0 UV-I 0 W/m² -6,7 °C -2,7 °C 3,2 km/h (1 Bft)
03.03.2017 00:01 -2,7 °C -2,7 °C 74 % 1019,2 hPa 0,0 mm 0,2 km/h (0 Bft) S-SW 192 ° 0 min 0,000 mm 0,0 UV-I 0 W/m² -6,7 °C -2,7 °C 1,6 km/h (1 Bft)
03.03.2017 00:02 -2,8 °C -2,7 °C 74 % 1019,3 hPa 0,0 mm 0,1 km/h (0 Bft) S-SW 192 ° 0 min 0,000 mm 0,0 UV-I 0 W/m² -6,8 °C -2,8 °C 1,6 km/h (1 Bft)
03.03.2017 00:03 -2,8 °C -2,8 °C 74 % 1019,3 hPa 0,0 mm 0,0 km/h (0 Bft) S-SW 192 ° 0 min 0,000 mm 0,0 UV-I 0 W/m² -6,8 °C -2,8 °C 0,0 km/h (0 Bft)
03.03.2017 00:04 -2,8 °C -2,8 °C 74 % 1019,3 hPa 0,0 mm 0,3 km/h (0 Bft) S-SW 192 ° 0 min 0,000 mm 0,0 UV-I 0 W/m² -6,8 °C -2,8 °C 1,6 km/h (1 Bft)
03.03.2017 00:05 -2,7 °C -2,7 °C 74 % 1019,3 hPa 0,0 mm 0,7 km/h (0 Bft) S-SW 192 ° 0 min 0,000 mm 0,0 UV-I 0 W/m² -6,7 °C -2,7 °C 1,6 km/h (1 Bft)
03.03.2017 00:06 -2,6 °C -2,6 °C 72 % 1019,3 hPa 0,0 mm 0,8 km/h (0 Bft) S-SW 192 ° 0 min 0,000 mm 0,0 UV-I 0 W/m² -6,9 °C -2,6 °C 1,6 km/h (1 Bft)
03.03.2017 00:07 -2,4 °C -2,4 °C 72 % 1019,3 hPa 0,0 mm 0,9 km/h (0 Bft) S-SW 192 ° 0 min 0,000 mm 0,0 UV-I 0 W/m² -6,7 °C -2,4 °C 1,6 km/h (1 Bft)
03.03.2017 00:08 -2,3 °C -2,3 °C 72 % 1019,4 hPa 0,0 mm 0,4 km/h (0 Bft) S-SW 192 ° 0 min 0,000 mm 0,0 UV-I 0 W/m² -6,6 °C -2,3 °C 1,6 km/h (1 Bft)
03.03.2017 00:09 -2,2 °C -2,2 °C 72 % 1019,4 hPa 0,0 mm 1,7 km/h (1 Bft) S-SW 192 ° 0 min 0,000 mm 0,0 UV-I 0 W/m² -6,5 °C -2,2 °C 3,2 km/h (1 Bft)
03.03.2017 00:10 -2,1 °C -2,1 °C 72 % 1019,3 hPa 0,0 mm 0,9 km/h (0 Bft) S-SW 192 ° 0 min 0,000 mm 0,0 UV-I 0 W/m² -6,5 °C -2,1 °C 1,6 km/h (1 Bft)
03.03.2017 00:11 -2,1 °C -2,1 °C 71 % 1019,4 hPa 0,0 mm 0,1 km/h (0 Bft) S-SW 192 ° 0 min 0,000 mm 0,0 UV-I 0 W/m² -6,6 °C -2,1 °C 1,6 km/h (1 Bft)
03.03.2017 00:12 -2,1 °C -2,1 °C 70 % 1019,5 hPa 0,0 mm 0,0 km/h (0 Bft) S-SW 192 ° 0 min 0,000 mm 0,0 UV-I 0 W/m² -6,8 °C -2,1 °C 0,0 km/h (0 Bft)
03.03.2017 00:13 -2,2 °C -2,1 °C 70 % 1019,5 hPa 0,0 mm 0,0 km/h (0 Bft) S-SW 192 ° 0 min 0,000 mm 0,0 UV-I 0 W/m² -6,9 °C -2,2 °C 0,0 km/h (0 Bft)
03.03.2017 00:14 -2,2 °C -2,2 °C 71 % 1019,5 hPa 0,0 mm 1,0 km/h (0 Bft) S-SW 192 ° 0 min 0,000 mm 0,0 UV-I 0 W/m² -6,7 °C -2,2 °C 1,6 km/h (1 Bft)
03.03.2017 00:15 -2,3 °C -2,2 °C 70 % 1019,5 hPa 0,0 mm 0,7 km/h (0 Bft) S-SW 192 ° 0 min 0,000 mm 0,0 UV-I 0 W/m² -7,0 °C -2,3 °C 1,6 km/h (1 Bft)
03.03.2017 00:16 -2,4 °C -2,3 °C 71 % 1019,5 hPa 0,0 mm 0,9 km/h (0 Bft) S-SW 192 ° 0 min 0,000 mm 0,0 UV-I 0 W/m² -6,9 °C -2,4 °C 1,6 km/h (1 Bft)
03.03.2017 00:17 -2,4 °C -2,4 °C 71 % 1019,4 hPa 0,0 mm 0,9 km/h (0 Bft) S-SW 192 ° 0 min 0,000 mm 0,0 UV-I 0 W/m² -6,9 °C -2,4 °C 1,6 km/h (1 Bft)
03.03.2017 00:18 -2,3 °C -2,3 °C 71 % 1019,5 hPa 0,0 mm 0,9 km/h (0 Bft) S-SW 192 ° 0 min 0,000 mm 0,0 UV-I 0 W/m² -6,8 °C -2,3 °C 1,6 km/h (1 Bft)
03.03.2017 00:19 -2,3 °C -2,3 °C 71 % 1019,4 hPa 0,0 mm 0,7 km/h (0 Bft) S-SW 192 ° 0 min 0,000 mm 0,0 UV-I 0 W/m² -6,8 °C -2,3 °C 1,6 km/h (1 Bft)
03.03.2017 00:20 -2,2 °C -2,2 °C 70 % 1019,4 hPa 0,0 mm 0,5 km/h (0 Bft) S-SW 192 ° 0 min 0,000 mm 0,0 UV-I 0 W/m² -6,9 °C -2,2 °C 1,6 km/h (1 Bft)
03.03.2017 00:21 -2,1 °C -2,1 °C 70 % 1019,4 hPa 0,0 mm 0,0 km/h (0 Bft) S-SW 192 ° 0 min 0,000 mm 0,0 UV-I 0 W/m² -6,8 °C -2,1 °C 0,0 km/h (0 Bft)
03.03.2017 00:22 -1,9 °C -1,9 °C 69 % 1019,4 hPa 0,0 mm 0,0 km/h (0 Bft) S-SW 192 ° 0 min 0,000 mm 0,0 UV-I 0 W/m² -6,8 °C -1,9 °C 0,0 km/h (0 Bft)
03.03.2017 00:23 -1,9 °C -1,9 °C 69 % 1019,3 hPa 0,0 mm 0,0 km/h (0 Bft) S-SW 192 ° 0 min 0,000 mm 0,0 UV-I 0 W/m² -6,8 °C -1,9 °C 0,0 km/h (0 Bft)
03.03.2017 00:24 -1,9 °C -1,9 °C 69 % 1019,3 hPa 0,0 mm 0,0 km/h (0 Bft) S-SW 192 ° 0 min 0,000 mm 0,0 UV-I 0 W/m² -6,8 °C -1,9 °C 0,0 km/h (0 Bft)
03.03.2017 00:25 -2,1 °C -1,9 °C 69 % 1019,3 hPa 0,0 mm 0,0 km/h (0 Bft) S-SW 192 ° 0 min 0,000 mm 0,0 UV-I 0 W/m² -7,0 °C -2,1 °C 0,0 km/h (0 Bft)
03.03.2017 00:26 -2,2 °C -2,1 °C 69 % 1019,3 hPa 0,0 mm 0,0 km/h (0 Bft) S-SW 192 ° 0 min 0,000 mm 0,0 UV-I 0 W/m² -7,1 °C -2,2 °C 0,0 km/h (0 Bft)
03.03.2017 00:27 -2,3 °C -2,2 °C 69 % 1019,3 hPa 0,0 mm 0,0 km/h (0 Bft) S-SW 192 ° 0 min 0,000 mm 0,0 UV-I 0 W/m² -7,2 °C -2,3 °C 0,0 km/h (0 Bft)
03.03.2017 00:28 -2,4 °C -2,3 °C 70 % 1019,3 hPa 0,0 mm 0,0 km/h (0 Bft) S-SW 192 ° 0 min 0,000 mm 0,0 UV-I 0 W/m² -7,1 °C -2,4 °C 0,0 km/h (0 Bft)
03.03.2017 00:29 -2,5 °C -2,4 °C 71 % 1019,2 hPa 0,0 mm 0,0 km/h (0 Bft) S-SW 192 ° 0 min 0,000 mm 0,0 UV-I 0 W/m² -7,0 °C -2,5 °C 0,0 km/h (0 Bft)
03.03.2017 00:30 -2,6 °C -2,5 °C 72 % 1019,2 hPa 0,0 mm 0,1 km/h (0 Bft) S-SW 192 ° 0 min 0,000 mm 0,0 UV-I 0 W/m² -6,9 °C -2,6 °C 1,6 km/h (1 Bft)
03.03.2017 00:31 -2,7 °C -2,6 °C 72 % 1019,3 hPa 0,0 mm 0,1 km/h (0 Bft) S-SW 192 ° 0 min 0,000 mm 0,0 UV-I 0 W/m² -7,0 °C -2,7 °C 1,6 km/h (1 Bft)
03.03.2017 00:32 -2,8 °C -2,7 °C 73 % 1019,3 hPa 0,0 mm 1,0 km/h (0 Bft) S-SW 192 ° 0 min 0,000 mm 0,0 UV-I 0 W/m² -6,9 °C -2,8 °C 1,6 km/h (1 Bft)
03.03.2017 00:33 -2,9 °C -2,8 °C 74 % 1019,3 hPa 0,0 mm 0,9 km/h (0 Bft) S-SW 192 ° 0 min 0,000 mm 0,0 UV-I 0 W/m² -6,9 °C -2,9 °C 1,6 km/h (1 Bft)
03.03.2017 00:34 -2,9 °C -2,9 °C 74 % 1019,4 hPa 0,0 mm 0,9 km/h (0 Bft) S-SW 192 ° 0 min 0,000 mm 0,0 UV-I 0 W/m² -6,9 °C -2,9 °C 1,6 km/h (1 Bft)
03.03.2017 00:35 -3,0 °C -2,9 °C 75 % 1019,4 hPa 0,0 mm 1,2 km/h (1 Bft) S-SW 192 ° 0 min 0,000 mm 0,0 UV-I 0 W/m² -6,8 °C -3,0 °C 1,6 km/h (1 Bft)
03.03.2017 00:36 -2,9 °C -2,9 °C 76 % 1019,4 hPa 0,0 mm 1,4 km/h (1 Bft) S-SW 192 ° 0 min 0,000 mm 0,0 UV-I 0 W/m² -6,5 °C -2,9 °C 1,6 km/h (1 Bft)
03.03.2017 00:37 -2,9 °C -2,9 °C 76 % 1019,4 hPa 0,0 mm 0,7 km/h (0 Bft) S-SW 192 ° 0 min 0,000 mm 0,0 UV-I 0 W/m² -6,5 °C -2,9 °C 1,6 km/h (1 Bft)
03.03.2017 00:38 -2,9 °C -2,9 °C 76 % 1019,4 hPa 0,0 mm 0,0 km/h (0 Bft) S-SW 192 ° 0 min 0,000 mm 0,0 UV-I 0 W/m² -6,5 °C -2,9 °C 0,0 km/h (0 Bft)
03.03.2017 00:39 -2,9 °C -2,9 °C 75 % 1019,4 hPa 0,0 mm 0,1 km/h (0 Bft) S-SW 192 ° 0 min 0,000 mm 0,0 UV-I 0 W/m² -6,7 °C -2,9 °C 1,6 km/h (1 Bft)
03.03.2017 00:40 -2,9 °C -2,9 °C 74 % 1019,4 hPa 0,0 mm 1,2 km/h (1 Bft) S-SW 192 ° 0 min 0,000 mm 0,0 UV-I 0 W/m² -6,9 °C -2,9 °C 1,6 km/h (1 Bft)
03.03.2017 00:41 -2,8 °C -2,8 °C 74 % 1019,4 hPa 0,0 mm 0,1 km/h (0 Bft) S-SW 192 ° 0 min 0,000 mm 0,0 UV-I 0 W/m² -6,8 °C -2,8 °C 1,6 km/h (1 Bft)
03.03.2017 00:42 -2,7 °C -2,7 °C 73 % 1019,4 hPa 0,0 mm 0,0 km/h (0 Bft) S-SW 192 ° 0 min 0,000 mm 0,0 UV-I 0 W/m² -6,9 °C -2,7 °C 0,0 km/h (0 Bft)
03.03.2017 00:43 -2,7 °C -2,7 °C 72 % 1019,4 hPa 0,0 mm 0,0 km/h (0 Bft) S-SW 192 ° 0 min 0,000 mm 0,0 UV-I 0 W/m² -7,0 °C -2,7 °C 0,0 km/h (0 Bft)
03.03.2017 00:44 -2,6 °C -2,6 °C 72 % 1019,4 hPa 0,0 mm 0,0 km/h (0 Bft) S-SW 192 ° 0 min 0,000 mm 0,0 UV-I 0 W/m² -6,9 °C -2,6 °C 0,0 km/h (0 Bft)
03.03.2017 00:45 -2,6 °C -2,6 °C 72 % 1019,4 hPa 0,0 mm 0,1 km/h (0 Bft) S-SW 192 ° 0 min 0,000 mm 0,0 UV-I 0 W/m² -6,9 °C -2,6 °C 1,6 km/h (1 Bft)
03.03.2017 00:46 -2,5 °C -2,5 °C 72 % 1019,4 hPa 0,0 mm 0,0 km/h (0 Bft) S-SW 192 ° 0 min 0,000 mm 0,0 UV-I 0 W/m² -6,8 °C -2,5 °C 0,0 km/h (0 Bft)
03.03.2017 00:47 -2,4 °C -2,4 °C 71 % 1019,5 hPa 0,0 mm 0,0 km/h (0 Bft) S-SW 192 ° 0 min 0,000 mm 0,0 UV-I 0 W/m² -6,9 °C -2,4 °C 0,0 km/h (0 Bft)
03.03.2017 00:48 -2,5 °C -2,4 °C 71 % 1019,5 hPa 0,0 mm 0,0 km/h (0 Bft) S-SW 192 ° 0 min 0,000 mm 0,0 UV-I 0 W/m² -7,0 °C -2,5 °C 0,0 km/h (0 Bft)
03.03.2017 00:49 -2,6 °C -2,5 °C 70 % 1019,4 hPa 0,0 mm 0,0 km/h (0 Bft) S-SW 192 ° 0 min 0,000 mm 0,0 UV-I 0 W/m² -7,3 °C -2,6 °C 0,0 km/h (0 Bft)
03.03.2017 00:50 -2,7 °C -2,6 °C 71 % 1019,5 hPa 0,0 mm 0,0 km/h (0 Bft) S-SW 192 ° 0 min 0,000 mm 0,0 UV-I 0 W/m² -7,2 °C -2,7 °C 0,0 km/h (0 Bft)
03.03.2017 00:51 -2,8 °C -2,7 °C 71 % 1019,5 hPa 0,0 mm 0,0 km/h (0 Bft) S-SW 192 ° 0 min 0,000 mm 0,0 UV-I 0 W/m² -7,3 °C -2,8 °C 0,0 km/h (0 Bft)
03.03.2017 00:52 -2,8 °C -2,8 °C 72 % 1019,5 hPa 0,0 mm 0,0 km/h (0 Bft) S-SW 192 ° 0 min 0,000 mm 0,0 UV-I 0 W/m² -7,1 °C -2,8 °C 0,0 km/h (0 Bft)
03.03.2017 00:53 -2,9 °C -2,8 °C 72 % 1019,5 hPa 0,0 mm 0,7 km/h (0 Bft) S-SW 192 ° 0 min 0,000 mm 0,0 UV-I 0 W/m² -7,2 °C -2,9 °C 1,6 km/h (1 Bft)
03.03.2017 00:54 -2,9 °C -2,9 °C 72 % 1019,5 hPa 0,0 mm 0,9 km/h (0 Bft) S-SW 192 ° 0 min 0,000 mm 0,0 UV-I 0 W/m² -7,2 °C -2,9 °C 1,6 km/h (1 Bft)
03.03.2017 00:55 -3,1 °C -2,9 °C 73 % 1019,5 hPa 0,0 mm 1,9 km/h (1 Bft) S 191 ° 0 min 0,000 mm 0,0 UV-I 0 W/m² -7,2 °C -3,1 °C 3,2 km/h (1 Bft)
03.03.2017 00:56 -3,1 °C -3,1 °C 75 % 1019,5 hPa 0,0 mm 1,3 km/h (1 Bft) S 191 ° 0 min 0,000 mm 0,0 UV-I 0 W/m² -6,9 °C -3,1 °C 1,6 km/h (1 Bft)
03.03.2017 00:57 -3,1 °C -3,1 °C 75 % 1019,6 hPa 0,0 mm 1,1 km/h (1 Bft) S 191 ° 0 min 0,000 mm 0,0 UV-I 0 W/m² -6,9 °C -3,1 °C 1,6 km/h (1 Bft)
03.03.2017 00:58 -3,1 °C -3,1 °C 76 % 1019,6 hPa 0,0 mm 1,1 km/h (1 Bft) S 191 ° 0 min 0,000 mm 0,0 UV-I 0 W/m² -6,7 °C -3,1 °C 1,6 km/h (1 Bft)
03.03.2017 00:59 -3,1 °C -3,1 °C 75 % 1019,5 hPa 0,0 mm 1,5 km/h (1 Bft) S 191 ° 0 min 0,000 mm 0,0 UV-I 0 W/m² -6,9 °C -3,1 °C 3,2 km/h (1 Bft)
03.03.2017 01:00 -2,9 °C -2,9 °C 74 % 1019,5 hPa 0,0 mm 1,2 km/h (1 Bft) S 191 ° 0 min 0,000 mm 0,0 UV-I 0 W/m² -6,9 °C -2,9 °C 1,6 km/h (1 Bft)
03.03.2017 01:01 -2,8 °C -2,8 °C 75 % 1019,5 hPa 0,0 mm 1,0 km/h (0 Bft) S-SW 192 ° 0 min 0,000 mm 0,0 UV-I 0 W/m² -6,6 °C -2,8 °C 1,6 km/h (1 Bft)
03.03.2017 01:02 -2,7 °C -2,7 °C 75 % 1019,5 hPa 0,0 mm 0,2 km/h (0 Bft) S 191 ° 0 min 0,000 mm 0,0 UV-I 0 W/m² -6,5 °C -2,7 °C 1,6 km/h (1 Bft)
03.03.2017 01:03 -2,7 °C -2,7 °C 73 % 1019,5 hPa 0,0 mm 0,0 km/h (0 Bft) S 191 ° 0 min 0,000 mm 0,0 UV-I 0 W/m² -6,9 °C -2,7 °C 0,0 km/h (0 Bft)
03.03.2017 01:04 -2,8 °C -2,7 °C 70 % 1019,5 hPa 0,0 mm 0,0 km/h (0 Bft) S 191 ° 0 min 0,000 mm 0,0 UV-I 0 W/m² -7,5 °C -2,8 °C 0,0 km/h (0 Bft)
03.03.2017 01:05 -2,8 °C -2,8 °C 71 % 1019,5 hPa 0,0 mm 0,1 km/h (0 Bft) S 191 ° 0 min 0,000 mm 0,0 UV-I 0 W/m² -7,3 °C -2,8 °C 1,6 km/h (1 Bft)
03.03.2017 01:06 -2,8 °C -2,8 °C 71 % 1019,5 hPa 0,0 mm 0,0 km/h (0 Bft) S 191 ° 0 min 0,000 mm 0,0 UV-I 0 W/m² -7,3 °C -2,8 °C 0,0 km/h (0 Bft)
03.03.2017 01:07 -2,9 °C -2,8 °C 71 % 1019,5 hPa 0,0 mm 0,9 km/h (0 Bft) S-SW 192 ° 0 min 0,000 mm 0,0 UV-I 0 W/m² -7,4 °C -2,9 °C 1,6 km/h (1 Bft)
03.03.2017 01:08 -3,0 °C -2,9 °C 70 % 1019,5 hPa 0,0 mm 0,8 km/h (0 Bft) S-SW 192 ° 0 min 0,000 mm 0,0 UV-I 0 W/m² -7,7 °C -3,0 °C 1,6 km/h (1 Bft)
03.03.2017 01:09 -3,1 °C -3,0 °C 70 % 1019,4 hPa 0,0 mm 0,7 km/h (0 Bft) S 191 ° 0 min 0,000 mm 0,0 UV-I 0 W/m² -7,8 °C -3,1 °C 1,6 km/h (1 Bft)
03.03.2017 01:10 -3,2 °C -3,1 °C 73 % 1019,5 hPa 0,0 mm 1,1 km/h (1 Bft) S-SW 192 ° 0 min 0,000 mm 0,0 UV-I 0 W/m² -7,3 °C -3,2 °C 1,6 km/h (1 Bft)
03.03.2017 01:11 -3,2 °C -3,1 °C 73 % 1019,5 hPa 0,0 mm 0,1 km/h (0 Bft) S 191 ° 0 min 0,000 mm 0,0 UV-I 0 W/m² -7,3 °C -3,2 °C 1,6 km/h (1 Bft)
03.03.2017 01:12 -3,3 °C -3,2 °C 75 % 1019,5 hPa 0,0 mm 0,0 km/h (0 Bft) S-SW 192 ° 0 min 0,000 mm 0,0 UV-I 0 W/m² -7,1 °C -3,3 °C 0,0 km/h (0 Bft)
03.03.2017 01:13 -3,3 °C -3,3 °C 76 % 1019,5 hPa 0,0 mm 0,0 km/h (0 Bft) S-SW 192 ° 0 min 0,000 mm 0,0 UV-I 0 W/m² -6,9 °C -3,3 °C 0,0 km/h (0 Bft)
03.03.2017 01:14 -3,3 °C -3,3 °C 76 % 1019,5 hPa 0,0 mm 0,0 km/h (0 Bft) S-SW 192 ° 0 min 0,000 mm 0,0 UV-I 0 W/m² -6,9 °C -3,3 °C 0,0 km/h (0 Bft)
03.03.2017 01:15 -3,2 °C -3,2 °C 75 % 1019,5 hPa 0,0 mm 0,1 km/h (0 Bft) S 191 ° 0 min 0,000 mm 0,0 UV-I 0 W/m² -7,0 °C -3,2 °C 1,6 km/h (1 Bft)
03.03.2017 01:16 -3,1 °C -3,1 °C 73 % 1019,5 hPa 0,0 mm 0,0 km/h (0 Bft) S-SW 192 ° 0 min 0,000 mm 0,0 UV-I 0 W/m² -7,2 °C -3,1 °C 0,0 km/h (0 Bft)
03.03.2017 01:17 -3,1 °C -3,1 °C 74 % 1019,5 hPa 0,0 mm 0,0 km/h (0 Bft) S 191 ° 0 min 0,000 mm 0,0 UV-I 0 W/m² -7,1 °C -3,1 °C 0,0 km/h (0 Bft)
03.03.2017 01:18 -3,1 °C -3,0 °C 73 % 1019,5 hPa 0,0 mm 0,0 km/h (0 Bft) S-SW 192 ° 0 min 0,000 mm 0,0 UV-I 0 W/m² -7,2 °C -3,1 °C 0,0 km/h (0 Bft)
03.03.2017 01:19 -3,1 °C -3,1 °C 73 % 1019,4 hPa 0,0 mm 0,0 km/h (0 Bft) S-SW 192 ° 0 min 0,000 mm 0,0 UV-I 0 W/m² -7,2 °C -3,1 °C 0,0 km/h (0 Bft)
03.03.2017 01:20 -3,2 °C -3,1 °C 73 % 1019,4 hPa 0,0 mm 0,0 km/h (0 Bft) S 191 ° 0 min 0,000 mm 0,0 UV-I 0 W/m² -7,3 °C -3,2 °C 0,0 km/h (0 Bft)
03.03.2017 01:21 -3,2 °C -3,1 °C 74 % 1019,4 hPa 0,0 mm 0,0 km/h (0 Bft) S-SW 192 ° 0 min 0,000 mm 0,0 UV-I 0 W/m² -7,2 °C -3,2 °C 0,0 km/h (0 Bft)
03.03.2017 01:22 -3,2 °C -3,2 °C 75 % 1019,4 hPa 0,0 mm 0,0 km/h (0 Bft) S-SW 192 ° 0 min 0,000 mm 0,0 UV-I 0 W/m² -7,0 °C -3,2 °C 0,0 km/h (0 Bft)
03.03.2017 01:23 -3,2 °C -3,2 °C 75 % 1019,4 hPa 0,0 mm 0,0 km/h (0 Bft) S-SW 192 ° 0 min 0,000 mm 0,0 UV-I 0 W/m² -7,0 °C -3,2 °C 0,0 km/h (0 Bft)
03.03.2017 01:24 -3,2 °C -3,2 °C 74 % 1019,4 hPa 0,0 mm 0,0 km/h (0 Bft) S-SW 192 ° 0 min 0,000 mm 0,0 UV-I 0 W/m² -7,2 °C -3,2 °C 0,0 km/h (0 Bft)
03.03.2017 01:25 -3,3 °C -3,2 °C 74 % 1019,3 hPa 0,0 mm 0,0 km/h (0 Bft) S-SW 192 ° 0 min 0,000 mm 0,0 UV-I 0 W/m² -7,3 °C -3,3 °C 0,0 km/h (0 Bft)
03.03.2017 01:26 -3,4 °C -3,3 °C 75 % 1019,3 hPa 0,0 mm 0,0 km/h (0 Bft) S 191 ° 0 min 0,000 mm 0,0 UV-I 0 W/m² -7,2 °C -3,4 °C 0,0 km/h (0 Bft)
03.03.2017 01:27 -3,4 °C -3,4 °C 75 % 1019,3 hPa 0,0 mm 0,1 km/h (0 Bft) S-SW 192 ° 0 min 0,000 mm 0,0 UV-I 0 W/m² -7,2 °C -3,4 °C 1,6 km/h (1 Bft)
03.03.2017 01:28 -3,5 °C -3,4 °C 75 % 1019,3 hPa 0,0 mm 0,0 km/h (0 Bft) S 191 ° 0 min 0,000 mm 0,0 UV-I 0 W/m² -7,3 °C -3,5 °C 0,0 km/h (0 Bft)
03.03.2017 01:29 -3,4 °C -3,4 °C 75 % 1019,3 hPa 0,0 mm 0,0 km/h (0 Bft) S-SW 192 ° 0 min 0,000 mm 0,0 UV-I 0 W/m² -7,2 °C -3,4 °C 0,0 km/h (0 Bft)
03.03.2017 01:30 -3,4 °C -3,4 °C 75 % 1019,3 hPa 0,0 mm 0,0 km/h (0 Bft) S 191 ° 0 min 0,000 mm 0,0 UV-I 0 W/m² -7,2 °C -3,4 °C 0,0 km/h (0 Bft)
03.03.2017 01:31 -3,6 °C -3,4 °C 75 % 1019,3 hPa 0,0 mm 0,0 km/h (0 Bft) S-SW 192 ° 0 min 0,000 mm 0,0 UV-I 0 W/m² -7,4 °C -3,6 °C 0,0 km/h (0 Bft)
03.03.2017 01:32 -3,7 °C -3,6 °C 76 % 1019,2 hPa 0,0 mm 0,0 km/h (0 Bft) S-SW 192 ° 0 min 0,000 mm 0,0 UV-I 0 W/m² -7,3 °C -3,7 °C 0,0 km/h (0 Bft)
03.03.2017 01:33 -3,7 °C -3,7 °C 77 % 1019,2 hPa 0,0 mm 0,0 km/h (0 Bft) S-SW 192 ° 0 min 0,000 mm 0,0 UV-I 0 W/m² -7,1 °C -3,7 °C 0,0 km/h (0 Bft)
03.03.2017 01:34 -3,7 °C -3,7 °C 77 % 1019,2 hPa 0,0 mm 0,0 km/h (0 Bft) S-SW 192 ° 0 min 0,000 mm 0,0 UV-I 0 W/m² -7,1 °C -3,7 °C 0,0 km/h (0 Bft)
03.03.2017 01:35 -3,6 °C -3,6 °C 77 % 1019,2 hPa 0,0 mm 0,0 km/h (0 Bft) S-SW 192 ° 0 min 0,000 mm 0,0 UV-I 0 W/m² -7,0 °C -3,6 °C 0,0 km/h (0 Bft)
03.03.2017 01:36 -3,6 °C -3,6 °C 77 % 1019,2 hPa 0,0 mm 0,0 km/h (0 Bft) S 191 ° 0 min 0,000 mm 0,0 UV-I 0 W/m² -7,0 °C -3,6 °C 0,0 km/h (0 Bft)
03.03.2017 01:37 -3,6 °C -3,6 °C 76 % 1019,2 hPa 0,0 mm 0,0 km/h (0 Bft) S 191 ° 0 min 0,000 mm 0,0 UV-I 0 W/m² -7,2 °C -3,6 °C 0,0 km/h (0 Bft)
03.03.2017 01:38 -3,6 °C -3,6 °C 75 % 1019,2 hPa 0,0 mm 0,0 km/h (0 Bft) S-SW 192 ° 0 min 0,000 mm 0,0 UV-I 0 W/m² -7,4 °C -3,6 °C 0,0 km/h (0 Bft)
03.03.2017 01:39 -3,7 °C -3,6 °C 76 % 1019,2 hPa 0,0 mm 0,0 km/h (0 Bft) S-SW 192 ° 0 min 0,000 mm 0,0 UV-I 0 W/m² -7,3 °C -3,7 °C 0,0 km/h (0 Bft)
03.03.2017 01:40 -3,7 °C -3,6 °C 76 % 1019,2 hPa 0,0 mm 0,0 km/h (0 Bft) S 191 ° 0 min 0,000 mm 0,0 UV-I 0 W/m² -7,3 °C -3,7 °C 0,0 km/h (0 Bft)
03.03.2017 01:41 -3,7 °C -3,7 °C 76 % 1019,2 hPa 0,0 mm 0,2 km/h (0 Bft) S-SW 192 ° 0 min 0,000 mm 0,0 UV-I 0 W/m² -7,3 °C -3,7 °C 1,6 km/h (1 Bft)
03.03.2017 01:42 -3,8 °C -3,7 °C 77 % 1019,2 hPa 0,0 mm 1,4 km/h (1 Bft) S 191 ° 0 min 0,000 mm 0,0 UV-I 0 W/m² -7,2 °C -3,8 °C 1,6 km/h (1 Bft)
03.03.2017 01:43 -3,8 °C -3,8 °C 78 % 1019,2 hPa 0,0 mm 1,6 km/h (1 Bft) S 191 ° 0 min 0,000 mm 0,0 UV-I 0 W/m² -7,1 °C -3,8 °C 3,2 km/h (1 Bft)
03.03.2017 01:44 -3,8 °C -3,8 °C 78 % 1019,2 hPa 0,0 mm 1,7 km/h (1 Bft) S 191 ° 0 min 0,000 mm 0,0 UV-I 0 W/m² -7,1 °C -3,8 °C 3,2 km/h (1 Bft)
03.03.2017 01:45 -3,8 °C -3,8 °C 79 % 1019,2 hPa 0,0 mm 1,6 km/h (1 Bft) S 191 ° 0 min 0,000 mm 0,0 UV-I 0 W/m² -6,9 °C -3,8 °C 1,6 km/h (1 Bft)
03.03.2017 01:46 -3,7 °C -3,7 °C 79 % 1019,2 hPa 0,0 mm 1,1 km/h (1 Bft) S 191 ° 0 min 0,000 mm 0,0 UV-I 0 W/m² -6,8 °C -3,7 °C 1,6 km/h (1 Bft)
03.03.2017 01:47 -3,8 °C -3,7 °C 78 % 1019,1 hPa 0,0 mm 1,3 km/h (1 Bft) S 191 ° 0 min 0,000 mm 0,0 UV-I 0 W/m² -7,1 °C -3,8 °C 1,6 km/h (1 Bft)
03.03.2017 01:48 -3,8 °C -3,8 °C 78 % 1019,1 hPa 0,0 mm 1,1 km/h (1 Bft) S 191 ° 0 min 0,000 mm 0,0 UV-I 0 W/m² -7,1 °C -3,8 °C 1,6 km/h (1 Bft)
03.03.2017 01:49 -3,7 °C -3,7 °C 79 % 1019,1 hPa 0,0 mm 0,2 km/h (0 Bft) S 191 ° 0 min 0,000 mm 0,0 UV-I 0 W/m² -6,8 °C -3,7 °C 1,6 km/h (1 Bft)
03.03.2017 01:50 -3,6 °C -3,6 °C 79 % 1019,1 hPa 0,0 mm 0,1 km/h (0 Bft) S 191 ° 0 min 0,000 mm 0,0 UV-I 0 W/m² -6,7 °C -3,6 °C 1,6 km/h (1 Bft)
03.03.2017 01:51 -3,5 °C -3,5 °C 77 % 1019,0 hPa 0,0 mm 0,0 km/h (0 Bft) S 191 ° 0 min 0,000 mm 0,0 UV-I 0 W/m² -6,9 °C -3,5 °C 0,0 km/h (0 Bft)
03.03.2017 01:52 -3,4 °C -3,4 °C 76 % 1019,0 hPa 0,0 mm 0,0 km/h (0 Bft) S 191 ° 0 min 0,000 mm 0,0 UV-I 0 W/m² -7,0 °C -3,4 °C 0,0 km/h (0 Bft)
03.03.2017 01:53 -3,4 °C -3,4 °C 76 % 1019,0 hPa 0,0 mm 0,0 km/h (0 Bft) S 191 ° 0 min 0,000 mm 0,0 UV-I 0 W/m² -7,0 °C -3,4 °C 0,0 km/h (0 Bft)
03.03.2017 01:54 -3,4 °C -3,4 °C 75 % 1019,1 hPa 0,0 mm 0,7 km/h (0 Bft) S 191 ° 0 min 0,000 mm 0,0 UV-I 0 W/m² -7,2 °C -3,4 °C 1,6 km/h (1 Bft)
03.03.2017 01:55 -3,4 °C -3,4 °C 76 % 1019,1 hPa 0,0 mm 0,8 km/h (0 Bft) S 191 ° 0 min 0,000 mm 0,0 UV-I 0 W/m² -7,0 °C -3,4 °C 1,6 km/h (1 Bft)
03.03.2017 01:56 -3,4 °C -3,4 °C 76 % 1019,1 hPa 0,0 mm 0,7 km/h (0 Bft) S 191 ° 0 min 0,000 mm 0,0 UV-I 0 W/m² -7,0 °C -3,4 °C 1,6 km/h (1 Bft)
03.03.2017 01:57 -3,5 °C -3,4 °C 76 % 1019,1 hPa 0,0 mm 0,3 km/h (0 Bft) S 191 ° 0 min 0,000 mm 0,0 UV-I 0 W/m² -7,1 °C -3,5 °C 1,6 km/h (1 Bft)
03.03.2017 01:58 -3,5 °C -3,5 °C 76 % 1019,1 hPa 0,0 mm 0,0 km/h (0 Bft) S 191 ° 0 min 0,000 mm 0,0 UV-I 0 W/m² -7,1 °C -3,5 °C 0,0 km/h (0 Bft)
03.03.2017 01:59 -3,6 °C -3,5 °C 76 % 1019,1 hPa 0,0 mm 0,0 km/h (0 Bft) S 191 ° 0 min 0,000 mm 0,0 UV-I 0 W/m² -7,2 °C -3,6 °C 0,0 km/h (0 Bft)
03.03.2017 02:00 -3,6 °C -3,6 °C 75 % 1019,1 hPa 0,0 mm 0,0 km/h (0 Bft) S 191 ° 0 min 0,000 mm 0,0 UV-I 0 W/m² -7,4 °C -3,6 °C 0,0 km/h (0 Bft)
03.03.2017 02:01 -3,4 °C -3,4 °C 75 % 1019,1 hPa 0,0 mm 0,0 km/h (0 Bft) S 191 ° 0 min 0,000 mm 0,0 UV-I 0 W/m² -7,2 °C -3,4 °C 0,0 km/h (0 Bft)
03.03.2017 02:02 -3,4 °C -3,4 °C 74 % 1019,1 hPa 0,0 mm 0,0 km/h (0 Bft) S-SW 192 ° 0 min 0,000 mm 0,0 UV-I 0 W/m² -7,4 °C -3,4 °C 0,0 km/h (0 Bft)
03.03.2017 02:03 -3,3 °C -3,3 °C 74 % 1019,0 hPa 0,0 mm 0,1 km/h (0 Bft) S 191 ° 0 min 0,000 mm 0,0 UV-I 0 W/m² -7,3 °C -3,3 °C 1,6 km/h (1 Bft)
03.03.2017 02:04 -3,3 °C -3,3 °C 73 % 1019,0 hPa 0,0 mm 0,3 km/h (0 Bft) S-SW 192 ° 0 min 0,000 mm 0,0 UV-I 0 W/m² -7,4 °C -3,3 °C 1,6 km/h (1 Bft)
03.03.2017 02:05 -3,3 °C -3,3 °C 72 % 1018,9 hPa 0,0 mm 0,1 km/h (0 Bft) S 191 ° 0 min 0,000 mm 0,0 UV-I 0 W/m² -7,6 °C -3,3 °C 1,6 km/h (1 Bft)
03.03.2017 02:06 -3,3 °C -3,3 °C 72 % 1018,9 hPa 0,0 mm 0,0 km/h (0 Bft) S 191 ° 0 min 0,000 mm 0,0 UV-I 0 W/m² -7,6 °C -3,3 °C 0,0 km/h (0 Bft)
03.03.2017 02:07 -3,3 °C -3,3 °C 73 % 1018,9 hPa 0,0 mm 0,0 km/h (0 Bft) S 191 ° 0 min 0,000 mm 0,0 UV-I 0 W/m² -7,4 °C -3,3 °C 0,0 km/h (0 Bft)
03.03.2017 02:08 -3,4 °C -3,3 °C 74 % 1018,9 hPa 0,0 mm 0,0 km/h (0 Bft) S 191 ° 0 min 0,000 mm 0,0 UV-I 0 W/m² -7,4 °C -3,4 °C 0,0 km/h (0 Bft)
03.03.2017 02:09 -3,5 °C -3,4 °C 74 % 1018,9 hPa 0,0 mm 0,0 km/h (0 Bft) S 191 ° 0 min 0,000 mm 0,0 UV-I 0 W/m² -7,4 °C -3,5 °C 0,0 km/h (0 Bft)
03.03.2017 02:10 -3,4 °C -3,4 °C 74 % 1018,9 hPa 0,0 mm 0,0 km/h (0 Bft) S 191 ° 0 min 0,000 mm 0,0 UV-I 0 W/m² -7,4 °C -3,4 °C 0,0 km/h (0 Bft)
03.03.2017 02:11 -3,4 °C -3,4 °C 74 % 1018,9 hPa 0,0 mm 0,0 km/h (0 Bft) S 191 ° 0 min 0,000 mm 0,0 UV-I 0 W/m² -7,4 °C -3,4 °C 0,0 km/h (0 Bft)
03.03.2017 02:12 -3,4 °C -3,4 °C 73 % 1018,8 hPa 0,0 mm 0,0 km/h (0 Bft) S-SW 192 ° 0 min 0,000 mm 0,0 UV-I 0 W/m² -7,5 °C -3,4 °C 0,0 km/h (0 Bft)
03.03.2017 02:13 -3,6 °C -3,4 °C 73 % 1018,8 hPa 0,0 mm 0,0 km/h (0 Bft) S 191 ° 0 min 0,000 mm 0,0 UV-I 0 W/m² -7,7 °C -3,6 °C 0,0 km/h (0 Bft)
03.03.2017 02:14 -3,6 °C -3,5 °C 75 % 1018,8 hPa 0,0 mm 0,0 km/h (0 Bft) S 191 ° 0 min 0,000 mm 0,0 UV-I 0 W/m² -7,4 °C -3,6 °C 0,0 km/h (0 Bft)
03.03.2017 02:15 -3,6 °C -3,6 °C 75 % 1018,8 hPa 0,0 mm 0,0 km/h (0 Bft) S 191 ° 0 min 0,000 mm 0,0 UV-I 0 W/m² -7,4 °C -3,6 °C 0,0 km/h (0 Bft)
03.03.2017 02:16 -3,6 °C -3,6 °C 75 % 1018,7 hPa 0,0 mm 0,0 km/h (0 Bft) S 191 ° 0 min 0,000 mm 0,0 UV-I 0 W/m² -7,4 °C -3,6 °C 0,0 km/h (0 Bft)
03.03.2017 02:17 -3,6 °C -3,6 °C 75 % 1018,7 hPa 0,0 mm 0,0 km/h (0 Bft) S-SW 192 ° 0 min 0,000 mm 0,0 UV-I 0 W/m² -7,4 °C -3,6 °C 0,0 km/h (0 Bft)
03.03.2017 02:18 -3,7 °C -3,6 °C 75 % 1018,8 hPa 0,0 mm 0,0 km/h (0 Bft) S 191 ° 0 min 0,000 mm 0,0 UV-I 0 W/m² -7,5 °C -3,7 °C 0,0 km/h (0 Bft)
03.03.2017 02:19 -3,8 °C -3,7 °C 75 % 1018,8 hPa 0,0 mm 1,0 km/h (0 Bft) S 191 ° 0 min 0,000 mm 0,0 UV-I 0 W/m² -7,6 °C -3,8 °C 1,6 km/h (1 Bft)
03.03.2017 02:20 -3,8 °C -3,8 °C 76 % 1018,8 hPa 0,0 mm 0,1 km/h (0 Bft) S-SW 192 ° 0 min 0,000 mm 0,0 UV-I 0 W/m² -7,4 °C -3,8 °C 1,6 km/h (1 Bft)
03.03.2017 02:21 -3,8 °C -3,8 °C 77 % 1018,8 hPa 0,0 mm 0,0 km/h (0 Bft) S 191 ° 0 min 0,000 mm 0,0 UV-I 0 W/m² -7,2 °C -3,8 °C 0,0 km/h (0 Bft)
03.03.2017 02:22 -3,9 °C -3,8 °C 77 % 1018,8 hPa 0,0 mm 0,0 km/h (0 Bft) S-SW 192 ° 0 min 0,000 mm 0,0 UV-I 0 W/m² -7,3 °C -3,9 °C 0,0 km/h (0 Bft)
03.03.2017 02:23 -3,8 °C -3,8 °C 76 % 1018,8 hPa 0,0 mm 0,0 km/h (0 Bft) S-SW 192 ° 0 min 0,000 mm 0,0 UV-I 0 W/m² -7,4 °C -3,8 °C 0,0 km/h (0 Bft)
03.03.2017 02:24 -3,8 °C -3,8 °C 76 % 1018,8 hPa 0,0 mm 0,0 km/h (0 Bft) S 191 ° 0 min 0,000 mm 0,0 UV-I 0 W/m² -7,4 °C -3,8 °C 0,0 km/h (0 Bft)
03.03.2017 02:25 -3,7 °C -3,7 °C 76 % 1018,8 hPa 0,0 mm 0,0 km/h (0 Bft) S 191 ° 0 min 0,000 mm 0,0 UV-I 0 W/m² -7,3 °C -3,7 °C 0,0 km/h (0 Bft)
03.03.2017 02:26 -3,7 °C -3,7 °C 76 % 1018,8 hPa 0,0 mm 0,0 km/h (0 Bft) S-SW 192 ° 0 min 0,000 mm 0,0 UV-I 0 W/m² -7,3 °C -3,7 °C 0,0 km/h (0 Bft)
03.03.2017 02:27 -3,7 °C -3,6 °C 74 % 1018,7 hPa 0,0 mm 0,0 km/h (0 Bft) S 191 ° 0 min 0,000 mm 0,0 UV-I 0 W/m² -7,6 °C -3,7 °C 0,0 km/h (0 Bft)
03.03.2017 02:28 -3,7 °C -3,7 °C 74 % 1018,7 hPa 0,0 mm 0,0 km/h (0 Bft) S-SW 192 ° 0 min 0,000 mm 0,0 UV-I 0 W/m² -7,6 °C -3,7 °C 0,0 km/h (0 Bft)
03.03.2017 02:29 -3,8 °C -3,7 °C 75 % 1018,7 hPa 0,0 mm 0,0 km/h (0 Bft) S 191 ° 0 min 0,000 mm 0,0 UV-I 0 W/m² -7,6 °C -3,8 °C 0,0 km/h (0 Bft)
03.03.2017 02:30 -3,7 °C -3,7 °C 75 % 1018,7 hPa 0,0 mm 0,0 km/h (0 Bft) S 191 ° 0 min 0,000 mm 0,0 UV-I 0 W/m² -7,5 °C -3,7 °C 0,0 km/h (0 Bft)
03.03.2017 02:31 -3,7 °C -3,7 °C 74 % 1018,7 hPa 0,0 mm 0,0 km/h (0 Bft) S 191 ° 0 min 0,000 mm 0,0 UV-I 0 W/m² -7,6 °C -3,7 °C 0,0 km/h (0 Bft)
03.03.2017 02:32 -3,7 °C -3,7 °C 73 % 1018,7 hPa 0,0 mm 0,0 km/h (0 Bft) S-SW 192 ° 0 min 0,000 mm 0,0 UV-I 0 W/m² -7,8 °C -3,7 °C 0,0 km/h (0 Bft)
03.03.2017 02:33 -3,6 °C -3,6 °C 73 % 1018,7 hPa 0,0 mm 0,9 km/h (0 Bft) S-SW 192 ° 0 min 0,000 mm 0,0 UV-I 0 W/m² -7,7 °C -3,6 °C 1,6 km/h (1 Bft)
03.03.2017 02:34 -3,6 °C -3,6 °C 73 % 1018,7 hPa 0,0 mm 1,1 km/h (1 Bft) S-SW 192 ° 0 min 0,000 mm 0,0 UV-I 0 W/m² -7,7 °C -3,6 °C 1,6 km/h (1 Bft)
03.03.2017 02:35 -3,4 °C -3,4 °C 72 % 1018,7 hPa 0,0 mm 0,1 km/h (0 Bft) S 191 ° 0 min 0,000 mm 0,0 UV-I 0 W/m² -7,7 °C -3,4 °C 1,6 km/h (1 Bft)
03.03.2017 02:36 -3,3 °C -3,3 °C 72 % 1018,7 hPa 0,0 mm 0,0 km/h (0 Bft) S-SW 192 ° 0 min 0,000 mm 0,0 UV-I 0 W/m² -7,6 °C -3,3 °C 0,0 km/h (0 Bft)
03.03.2017 02:37 -3,4 °C -3,3 °C 72 % 1018,7 hPa 0,0 mm 0,0 km/h (0 Bft) S 191 ° 0 min 0,000 mm 0,0 UV-I 0 W/m² -7,7 °C -3,4 °C 0,0 km/h (0 Bft)
03.03.2017 02:38 -3,5 °C -3,4 °C 72 % 1018,6 hPa 0,0 mm 0,0 km/h (0 Bft) S 191 ° 0 min 0,000 mm 0,0 UV-I 0 W/m² -7,8 °C -3,5 °C 0,0 km/h (0 Bft)
03.03.2017 02:39 -3,7 °C -3,5 °C 73 % 1018,6 hPa 0,0 mm 0,0 km/h (0 Bft) S 191 ° 0 min 0,000 mm 0,0 UV-I 0 W/m² -7,8 °C -3,7 °C 0,0 km/h (0 Bft)
03.03.2017 02:40 -3,8 °C -3,7 °C 73 % 1018,6 hPa 0,0 mm 0,0 km/h (0 Bft) S-SW 192 ° 0 min 0,000 mm 0,0 UV-I 0 W/m² -7,9 °C -3,8 °C 0,0 km/h (0 Bft)
03.03.2017 02:41 -3,8 °C -3,8 °C 74 % 1018,6 hPa 0,0 mm 0,0 km/h (0 Bft) S-SW 192 ° 0 min 0,000 mm 0,0 UV-I 0 W/m² -7,7 °C -3,8 °C 0,0 km/h (0 Bft)
03.03.2017 02:42 -3,9 °C -3,8 °C 75 % 1018,7 hPa 0,0 mm 0,0 km/h (0 Bft) S-SW 192 ° 0 min 0,000 mm 0,0 UV-I 0 W/m² -7,7 °C -3,9 °C 0,0 km/h (0 Bft)
03.03.2017 02:43 -3,9 °C -3,9 °C 75 % 1018,6 hPa 0,0 mm 0,0 km/h (0 Bft) S-SW 192 ° 0 min 0,000 mm 0,0 UV-I 0 W/m² -7,7 °C -3,9 °C 0,0 km/h (0 Bft)
03.03.2017 02:44 -4,0 °C -3,9 °C 76 % 1018,6 hPa 0,0 mm 0,0 km/h (0 Bft) S 191 ° 0 min 0,000 mm 0,0 UV-I 0 W/m² -7,6 °C -4,0 °C 0,0 km/h (0 Bft)
03.03.2017 02:45 -4,1 °C -4,0 °C 76 % 1018,6 hPa 0,0 mm 0,0 km/h (0 Bft) S-SW 192 ° 0 min 0,000 mm 0,0 UV-I 0 W/m² -7,7 °C -4,1 °C 0,0 km/h (0 Bft)
03.03.2017 02:46 -4,1 °C -4,0 °C 76 % 1018,7 hPa 0,0 mm 0,0 km/h (0 Bft) S 191 ° 0 min 0,000 mm 0,0 UV-I 0 W/m² -7,7 °C -4,1 °C 0,0 km/h (0 Bft)
03.03.2017 02:47 -4,1 °C -4,1 °C 76 % 1018,7 hPa 0,0 mm 0,0 km/h (0 Bft) S-SW 192 ° 0 min 0,000 mm 0,0 UV-I 0 W/m² -7,7 °C -4,1 °C 0,0 km/h (0 Bft)
03.03.2017 02:48 -4,1 °C -4,1 °C 77 % 1018,6 hPa 0,0 mm 0,0 km/h (0 Bft) S-SW 192 ° 0 min 0,000 mm 0,0 UV-I 0 W/m² -7,5 °C -4,1 °C 0,0 km/h (0 Bft)
03.03.2017 02:49 -4,1 °C -4,1 °C 77 % 1018,5 hPa 0,0 mm 0,0 km/h (0 Bft) S 191 ° 0 min 0,000 mm 0,0 UV-I 0 W/m² -7,5 °C -4,1 °C 0,0 km/h (0 Bft)
03.03.2017 02:50 -3,9 °C -3,9 °C 77 % 1018,5 hPa 0,0 mm 0,1 km/h (0 Bft) S 191 ° 0 min 0,000 mm 0,0 UV-I 0 W/m² -7,3 °C -3,9 °C 1,6 km/h (1 Bft)
03.03.2017 02:51 -3,9 °C -3,9 °C 77 % 1018,6 hPa 0,0 mm 0,1 km/h (0 Bft) S 191 ° 0 min 0,000 mm 0,0 UV-I 0 W/m² -7,3 °C -3,9 °C 1,6 km/h (1 Bft)
03.03.2017 02:52 -3,9 °C -3,9 °C 76 % 1018,5 hPa 0,0 mm 0,7 km/h (0 Bft) S 191 ° 0 min 0,000 mm 0,0 UV-I 0 W/m² -7,5 °C -3,9 °C 1,6 km/h (1 Bft)
03.03.2017 02:53 -3,8 °C -3,8 °C 76 % 1018,5 hPa 0,0 mm 0,1 km/h (0 Bft) S-SW 192 ° 0 min 0,000 mm 0,0 UV-I 0 W/m² -7,4 °C -3,8 °C 1,6 km/h (1 Bft)
03.03.2017 02:54 -3,8 °C -3,8 °C 75 % 1018,5 hPa 0,0 mm 0,0 km/h (0 Bft) S 191 ° 0 min 0,000 mm 0,0 UV-I 0 W/m² -7,6 °C -3,8 °C 0,0 km/h (0 Bft)
03.03.2017 02:55 -3,8 °C -3,8 °C 75 % 1018,5 hPa 0,0 mm 0,0 km/h (0 Bft) S 191 ° 0 min 0,000 mm 0,0 UV-I 0 W/m² -7,6 °C -3,8 °C 0,0 km/h (0 Bft)
03.03.2017 02:56 -3,8 °C -3,8 °C 75 % 1018,5 hPa 0,0 mm 0,0 km/h (0 Bft) S 191 ° 0 min 0,000 mm 0,0 UV-I 0 W/m² -7,6 °C -3,8 °C 0,0 km/h (0 Bft)
03.03.2017 02:57 -3,9 °C -3,8 °C 75 % 1018,5 hPa 0,0 mm 0,0 km/h (0 Bft) S-SW 192 ° 0 min 0,000 mm 0,0 UV-I 0 W/m² -7,7 °C -3,9 °C 0,0 km/h (0 Bft)
03.03.2017 02:58 -3,9 °C -3,9 °C 76 % 1018,5 hPa 0,0 mm 0,0 km/h (0 Bft) S 191 ° 0 min 0,000 mm 0,0 UV-I 0 W/m² -7,5 °C -3,9 °C 0,0 km/h (0 Bft)
03.03.2017 02:59 -4,0 °C -3,9 °C 76 % 1018,6 hPa 0,0 mm 0,0 km/h (0 Bft) S-SW 192 ° 0 min 0,000 mm 0,0 UV-I 0 W/m² -7,6 °C -4,0 °C 0,0 km/h (0 Bft)
03.03.2017 03:00 -4,0 °C -4,0 °C 76 % 1018,5 hPa 0,0 mm 0,0 km/h (0 Bft) S 191 ° 0 min 0,000 mm 0,0 UV-I 0 W/m² -7,6 °C -4,0 °C 0,0 km/h (0 Bft)
03.03.2017 03:01 -4,1 °C -4,0 °C 77 % 1018,6 hPa 0,0 mm 0,0 km/h (0 Bft) S-SW 192 ° 0 min 0,000 mm 0,0 UV-I 0 W/m² -7,5 °C -4,1 °C 0,0 km/h (0 Bft)
03.03.2017 03:02 -4,1 °C -4,1 °C 76 % 1018,5 hPa 0,0 mm 0,1 km/h (0 Bft) S-SW 192 ° 0 min 0,000 mm 0,0 UV-I 0 W/m² -7,7 °C -4,1 °C 1,6 km/h (1 Bft)
03.03.2017 03:03 -4,0 °C -4,0 °C 76 % 1018,5 hPa 0,0 mm 0,3 km/h (0 Bft) S-SW 192 ° 0 min 0,000 mm 0,0 UV-I 0 W/m² -7,6 °C -4,0 °C 1,6 km/h (1 Bft)
03.03.2017 03:04 -3,9 °C -3,9 °C 75 % 1018,5 hPa 0,0 mm 0,0 km/h (0 Bft) S-SW 192 ° 0 min 0,000 mm 0,0 UV-I 0 W/m² -7,7 °C -3,9 °C 0,0 km/h (0 Bft)
03.03.2017 03:05 -3,9 °C -3,9 °C 75 % 1018,4 hPa 0,0 mm 0,0 km/h (0 Bft) S 191 ° 0 min 0,000 mm 0,0 UV-I 0 W/m² -7,7 °C -3,9 °C 0,0 km/h (0 Bft)
03.03.2017 03:06 -3,8 °C -3,8 °C 75 % 1018,5 hPa 0,0 mm 0,0 km/h (0 Bft) S 191 ° 0 min 0,000 mm 0,0 UV-I 0 W/m² -7,6 °C -3,8 °C 0,0 km/h (0 Bft)
03.03.2017 03:07 -3,8 °C -3,8 °C 75 % 1018,4 hPa 0,0 mm 0,0 km/h (0 Bft) S 191 ° 0 min 0,000 mm 0,0 UV-I 0 W/m² -7,6 °C -3,8 °C 0,0 km/h (0 Bft)
03.03.2017 03:08 -3,8 °C -3,8 °C 75 % 1018,4 hPa 0,0 mm 0,0 km/h (0 Bft) S 191 ° 0 min 0,000 mm 0,0 UV-I 0 W/m² -7,6 °C -3,8 °C 0,0 km/h (0 Bft)
03.03.2017 03:09 -3,8 °C -3,8 °C 75 % 1018,3 hPa 0,0 mm 0,0 km/h (0 Bft) S-SW 192 ° 0 min 0,000 mm 0,0 UV-I 0 W/m² -7,6 °C -3,8 °C 0,0 km/h (0 Bft)
03.03.2017 03:10 -3,8 °C -3,8 °C 76 % 1018,3 hPa 0,0 mm 0,0 km/h (0 Bft) S-SW 192 ° 0 min 0,000 mm 0,0 UV-I 0 W/m² -7,4 °C -3,8 °C 0,0 km/h (0 Bft)
03.03.2017 03:11 -3,8 °C -3,8 °C 75 % 1018,3 hPa 0,0 mm 0,5 km/h (0 Bft) S 191 ° 0 min 0,000 mm 0,0 UV-I 0 W/m² -7,6 °C -3,8 °C 1,6 km/h (1 Bft)
03.03.2017 03:12 -3,9 °C -3,8 °C 75 % 1018,3 hPa 0,0 mm 0,5 km/h (0 Bft) S-SW 192 ° 0 min 0,000 mm 0,0 UV-I 0 W/m² -7,7 °C -3,9 °C 1,6 km/h (1 Bft)
03.03.2017 03:13 -3,9 °C -3,9 °C 76 % 1018,3 hPa 0,0 mm 0,1 km/h (0 Bft) S-SW 192 ° 0 min 0,000 mm 0,0 UV-I 0 W/m² -7,5 °C -3,9 °C 1,6 km/h (1 Bft)
03.03.2017 03:14 -4,0 °C -3,9 °C 77 % 1018,3 hPa 0,0 mm 0,0 km/h (0 Bft) S 191 ° 0 min 0,000 mm 0,0 UV-I 0 W/m² -7,4 °C -4,0 °C 0,0 km/h (0 Bft)
03.03.2017 03:15 -3,9 °C -3,9 °C 77 % 1018,3 hPa 0,0 mm 0,0 km/h (0 Bft) S 191 ° 0 min 0,000 mm 0,0 UV-I 0 W/m² -7,3 °C -3,9 °C 0,0 km/h (0 Bft)
03.03.2017 03:16 -3,9 °C -3,9 °C 77 % 1018,3 hPa 0,0 mm 0,0 km/h (0 Bft) S 191 ° 0 min 0,000 mm 0,0 UV-I 0 W/m² -7,3 °C -3,9 °C 0,0 km/h (0 Bft)
03.03.2017 03:17 -3,9 °C -3,9 °C 77 % 1018,3 hPa 0,0 mm 0,0 km/h (0 Bft) S 191 ° 0 min 0,000 mm 0,0 UV-I 0 W/m² -7,3 °C -3,9 °C 0,0 km/h (0 Bft)
03.03.2017 03:18 -3,9 °C -3,8 °C 77 % 1018,3 hPa 0,0 mm 0,0 km/h (0 Bft) S 191 ° 0 min 0,000 mm 0,0 UV-I 0 W/m² -7,3 °C -3,9 °C 0,0 km/h (0 Bft)
03.03.2017 03:19 -3,9 °C -3,8 °C 76 % 1018,3 hPa 0,0 mm 0,0 km/h (0 Bft) S-SW 192 ° 0 min 0,000 mm 0,0 UV-I 0 W/m² -7,5 °C -3,9 °C 0,0 km/h (0 Bft)
03.03.2017 03:20 -3,9 °C -3,9 °C 76 % 1018,4 hPa 0,0 mm 0,0 km/h (0 Bft) S 191 ° 0 min 0,000 mm 0,0 UV-I 0 W/m² -7,5 °C -3,9 °C 0,0 km/h (0 Bft)
03.03.2017 03:21 -3,9 °C -3,9 °C 76 % 1018,4 hPa 0,0 mm 0,0 km/h (0 Bft) S-SW 192 ° 0 min 0,000 mm 0,0 UV-I 0 W/m² -7,5 °C -3,9 °C 0,0 km/h (0 Bft)
03.03.2017 03:22 -3,9 °C -3,9 °C 76 % 1018,3 hPa 0,0 mm 0,0 km/h (0 Bft) S-SW 192 ° 0 min 0,000 mm 0,0 UV-I 0 W/m² -7,5 °C -3,9 °C 0,0 km/h (0 Bft)
03.03.2017 03:23 -4,0 °C -3,9 °C 76 % 1018,3 hPa 0,0 mm 0,0 km/h (0 Bft) S 191 ° 0 min 0,000 mm 0,0 UV-I 0 W/m² -7,6 °C -4,0 °C 0,0 km/h (0 Bft)
03.03.2017 03:24 -4,0 °C -4,0 °C 77 % 1018,3 hPa 0,0 mm 0,0 km/h (0 Bft) S 191 ° 0 min 0,000 mm 0,0 UV-I 0 W/m² -7,4 °C -4,0 °C 0,0 km/h (0 Bft)
03.03.2017 03:25 -3,9 °C -3,9 °C 77 % 1018,2 hPa 0,0 mm 0,0 km/h (0 Bft) S 191 ° 0 min 0,000 mm 0,0 UV-I 0 W/m² -7,3 °C -3,9 °C 0,0 km/h (0 Bft)
03.03.2017 03:26 -3,9 °C -3,9 °C 76 % 1018,3 hPa 0,0 mm 0,0 km/h (0 Bft) S 191 ° 0 min 0,000 mm 0,0 UV-I 0 W/m² -7,5 °C -3,9 °C 0,0 km/h (0 Bft)
03.03.2017 03:27 -3,8 °C -3,8 °C 76 % 1018,2 hPa 0,0 mm 0,0 km/h (0 Bft) S 191 ° 0 min 0,000 mm 0,0 UV-I 0 W/m² -7,4 °C -3,8 °C 0,0 km/h (0 Bft)
03.03.2017 03:28 -3,8 °C -3,8 °C 76 % 1018,2 hPa 0,0 mm 0,0 km/h (0 Bft) S-SW 192 ° 0 min 0,000 mm 0,0 UV-I 0 W/m² -7,4 °C -3,8 °C 0,0 km/h (0 Bft)
03.03.2017 03:29 -3,7 °C -3,7 °C 76 % 1018,2 hPa 0,0 mm 0,0 km/h (0 Bft) S 191 ° 0 min 0,000 mm 0,0 UV-I 0 W/m² -7,3 °C -3,7 °C 0,0 km/h (0 Bft)
03.03.2017 03:30 -3,7 °C -3,7 °C 76 % 1018,2 hPa 0,0 mm 0,0 km/h (0 Bft) S 191 ° 0 min 0,000 mm 0,0 UV-I 0 W/m² -7,3 °C -3,7 °C 0,0 km/h (0 Bft)
03.03.2017 03:31 -3,7 °C -3,7 °C 76 % 1018,1 hPa 0,0 mm 0,2 km/h (0 Bft) S-SW 192 ° 0 min 0,000 mm 0,0 UV-I 0 W/m² -7,3 °C -3,7 °C 1,6 km/h (1 Bft)
03.03.2017 03:32 -3,6 °C -3,6 °C 75 % 1018,1 hPa 0,0 mm 0,1 km/h (0 Bft) S 191 ° 0 min 0,000 mm 0,0 UV-I 0 W/m² -7,4 °C -3,6 °C 1,6 km/h (1 Bft)
03.03.2017 03:33 -3,6 °C -3,6 °C 75 % 1018,0 hPa 0,0 mm 0,0 km/h (0 Bft) S 191 ° 0 min 0,000 mm 0,0 UV-I 0 W/m² -7,4 °C -3,6 °C 0,0 km/h (0 Bft)
03.03.2017 03:34 -3,5 °C -3,5 °C 75 % 1018,0 hPa 0,0 mm 0,0 km/h (0 Bft) S-SW 192 ° 0 min 0,000 mm 0,0 UV-I 0 W/m² -7,3 °C -3,5 °C 0,0 km/h (0 Bft)
03.03.2017 03:35 -3,6 °C -3,5 °C 75 % 1018,0 hPa 0,0 mm 0,0 km/h (0 Bft) S-SW 192 ° 0 min 0,000 mm 0,0 UV-I 0 W/m² -7,4 °C -3,6 °C 0,0 km/h (0 Bft)
03.03.2017 03:36 -3,6 °C -3,6 °C 75 % 1017,9 hPa 0,0 mm 0,0 km/h (0 Bft) S 191 ° 0 min 0,000 mm 0,0 UV-I 0 W/m² -7,4 °C -3,6 °C 0,0 km/h (0 Bft)
03.03.2017 03:37 -3,7 °C -3,6 °C 76 % 1017,9 hPa 0,0 mm 0,0 km/h (0 Bft) S 191 ° 0 min 0,000 mm 0,0 UV-I 0 W/m² -7,3 °C -3,7 °C 0,0 km/h (0 Bft)
03.03.2017 03:38 -3,7 °C -3,6 °C 76 % 1017,9 hPa 0,0 mm 0,0 km/h (0 Bft) S-SW 192 ° 0 min 0,000 mm 0,0 UV-I 0 W/m² -7,3 °C -3,7 °C 0,0 km/h (0 Bft)
03.03.2017 03:39 -3,6 °C -3,6 °C 76 % 1017,9 hPa 0,0 mm 0,0 km/h (0 Bft) S 191 ° 0 min 0,000 mm 0,0 UV-I 0 W/m² -7,2 °C -3,6 °C 0,0 km/h (0 Bft)
03.03.2017 03:40 -3,6 °C -3,6 °C 76 % 1017,9 hPa 0,0 mm 0,0 km/h (0 Bft) S-SW 192 ° 0 min 0,000 mm 0,0 UV-I 0 W/m² -7,2 °C -3,6 °C 0,0 km/h (0 Bft)
03.03.2017 03:41 -3,6 °C -3,6 °C 77 % 1017,9 hPa 0,0 mm 0,0 km/h (0 Bft) S-SW 192 ° 0 min 0,000 mm 0,0 UV-I 0 W/m² -7,0 °C -3,6 °C 0,0 km/h (0 Bft)
03.03.2017 03:42 -3,7 °C -3,6 °C 76 % 1017,9 hPa 0,0 mm 0,1 km/h (0 Bft) S 191 ° 0 min 0,000 mm 0,0 UV-I 0 W/m² -7,3 °C -3,7 °C 1,6 km/h (1 Bft)
03.03.2017 03:43 -3,7 °C -3,7 °C 75 % 1017,9 hPa 0,0 mm 0,1 km/h (0 Bft) S 191 ° 0 min 0,000 mm 0,0 UV-I 0 W/m² -7,5 °C -3,7 °C 1,6 km/h (1 Bft)
03.03.2017 03:44 -3,7 °C -3,7 °C 75 % 1017,9 hPa 0,0 mm 0,0 km/h (0 Bft) S-SW 192 ° 0 min 0,000 mm 0,0 UV-I 0 W/m² -7,5 °C -3,7 °C 0,0 km/h (0 Bft)
03.03.2017 03:45 -3,6 °C -3,6 °C 75 % 1017,9 hPa 0,0 mm 0,0 km/h (0 Bft) S-SW 192 ° 0 min 0,000 mm 0,0 UV-I 0 W/m² -7,4 °C -3,6 °C 0,0 km/h (0 Bft)
03.03.2017 03:46 -3,6 °C -3,6 °C 75 % 1017,9 hPa 0,0 mm 0,0 km/h (0 Bft) S 191 ° 0 min 0,000 mm 0,0 UV-I 0 W/m² -7,4 °C -3,6 °C 0,0 km/h (0 Bft)
03.03.2017 03:47 -3,6 °C -3,6 °C 75 % 1017,9 hPa 0,0 mm 0,0 km/h (0 Bft) S-SW 192 ° 0 min 0,000 mm 0,0 UV-I 0 W/m² -7,4 °C -3,6 °C 0,0 km/h (0 Bft)
03.03.2017 03:48 -3,7 °C -3,6 °C 75 % 1017,9 hPa 0,0 mm 0,0 km/h (0 Bft) S 191 ° 0 min 0,000 mm 0,0 UV-I 0 W/m² -7,5 °C -3,7 °C 0,0 km/h (0 Bft)
03.03.2017 03:49 -3,7 °C -3,7 °C 76 % 1017,9 hPa 0,0 mm 0,0 km/h (0 Bft) S 191 ° 0 min 0,000 mm 0,0 UV-I 0 W/m² -7,3 °C -3,7 °C 0,0 km/h (0 Bft)
03.03.2017 03:50 -3,7 °C -3,7 °C 76 % 1017,9 hPa 0,0 mm 0,0 km/h (0 Bft) S-SW 192 ° 0 min 0,000 mm 0,0 UV-I 0 W/m² -7,3 °C -3,7 °C 0,0 km/h (0 Bft)
03.03.2017 03:51 -3,7 °C -3,7 °C 76 % 1018,0 hPa 0,0 mm 0,0 km/h (0 Bft) S-SW 192 ° 0 min 0,000 mm 0,0 UV-I 0 W/m² -7,3 °C -3,7 °C 0,0 km/h (0 Bft)
03.03.2017 03:52 -3,8 °C -3,7 °C 76 % 1017,9 hPa 0,0 mm 0,0 km/h (0 Bft) S-SW 192 ° 0 min 0,000 mm 0,0 UV-I 0 W/m² -7,4 °C -3,8 °C 0,0 km/h (0 Bft)
03.03.2017 03:53 -3,8 °C -3,8 °C 77 % 1018,0 hPa 0,0 mm 0,0 km/h (0 Bft) S-SW 192 ° 0 min 0,000 mm 0,0 UV-I 0 W/m² -7,2 °C -3,8 °C 0,0 km/h (0 Bft)
03.03.2017 03:54 -3,8 °C -3,8 °C 77 % 1018,0 hPa 0,0 mm 0,0 km/h (0 Bft) S-SW 192 ° 0 min 0,000 mm 0,0 UV-I 0 W/m² -7,2 °C -3,8 °C 0,0 km/h (0 Bft)
03.03.2017 03:55 -3,8 °C -3,8 °C 77 % 1018,0 hPa 0,0 mm 0,0 km/h (0 Bft) S-SW 192 ° 0 min 0,000 mm 0,0 UV-I 0 W/m² -7,2 °C -3,8 °C 0,0 km/h (0 Bft)
03.03.2017 03:56 -3,8 °C -3,8 °C 78 % 1018,0 hPa 0,0 mm 0,0 km/h (0 Bft) S-SW 192 ° 0 min 0,000 mm 0,0 UV-I 0 W/m² -7,1 °C -3,8 °C 0,0 km/h (0 Bft)
03.03.2017 03:57 -3,8 °C -3,8 °C 77 % 1017,9 hPa 0,0 mm 0,0 km/h (0 Bft) S 191 ° 0 min 0,000 mm 0,0 UV-I 0 W/m² -7,2 °C -3,8 °C 0,0 km/h (0 Bft)
03.03.2017 03:58 -3,7 °C -3,7 °C 77 % 1017,9 hPa 0,0 mm 0,0 km/h (0 Bft) S-SW 192 ° 0 min 0,000 mm 0,0 UV-I 0 W/m² -7,1 °C -3,7 °C 0,0 km/h (0 Bft)
03.03.2017 03:59 -3,6 °C -3,6 °C 76 % 1017,9 hPa 0,0 mm 0,0 km/h (0 Bft) S-SW 192 ° 0 min 0,000 mm 0,0 UV-I 0 W/m² -7,2 °C -3,6 °C 0,0 km/h (0 Bft)
03.03.2017 04:00 -3,5 °C -3,5 °C 76 % 1017,9 hPa 0,0 mm 0,0 km/h (0 Bft) S 191 ° 0 min 0,000 mm 0,0 UV-I 0 W/m² -7,1 °C -3,5 °C 0,0 km/h (0 Bft)
03.03.2017 04:03 -3,6 °C -3,4 °C 76 % 1017,9 hPa 0,0 mm 0,0 km/h (0 Bft) S 191 ° 0 min 0,000 mm 0,0 UV-I 0 W/m² -7,2 °C -3,6 °C 1,6 km/h (1 Bft)
03.03.2017 04:04 -3,6 °C -3,6 °C 77 % 1017,9 hPa 0,0 mm 0,0 km/h (0 Bft) S 191 ° 0 min 0,000 mm 0,0 UV-I 0 W/m² -7,0 °C -3,6 °C 0,0 km/h (0 Bft)
03.03.2017 04:05 -3,7 °C -3,6 °C 77 % 1017,9 hPa 0,0 mm 0,0 km/h (0 Bft) S 191 ° 0 min 0,000 mm 0,0 UV-I 0 W/m² -7,1 °C -3,7 °C 0,0 km/h (0 Bft)
03.03.2017 04:06 -3,7 °C -3,7 °C 76 % 1017,8 hPa 0,0 mm 0,0 km/h (0 Bft) S 191 ° 0 min 0,000 mm 0,0 UV-I 0 W/m² -7,3 °C -3,7 °C 0,0 km/h (0 Bft)
03.03.2017 04:07 -3,7 °C -3,7 °C 76 % 1017,8 hPa 0,0 mm 0,0 km/h (0 Bft) S 191 ° 0 min 0,000 mm 0,0 UV-I 0 W/m² -7,3 °C -3,7 °C 0,0 km/h (0 Bft)
03.03.2017 04:08 -3,6 °C -3,6 °C 76 % 1017,9 hPa 0,0 mm 0,0 km/h (0 Bft) S 191 ° 0 min 0,000 mm 0,0 UV-I 0 W/m² -7,2 °C -3,6 °C 0,0 km/h (0 Bft)
03.03.2017 04:09 -3,6 °C -3,6 °C 75 % 1017,9 hPa 0,0 mm 0,0 km/h (0 Bft) S 191 ° 0 min 0,000 mm 0,0 UV-I 0 W/m² -7,4 °C -3,6 °C 0,0 km/h (0 Bft)
03.03.2017 04:10 -3,7 °C -3,6 °C 75 % 1017,8 hPa 0,0 mm 0,0 km/h (0 Bft) S-SW 192 ° 0 min 0,000 mm 0,0 UV-I 0 W/m² -7,5 °C -3,7 °C 0,0 km/h (0 Bft)
03.03.2017 04:11 -3,8 °C -3,7 °C 76 % 1017,9 hPa 0,0 mm 0,0 km/h (0 Bft) S 191 ° 0 min 0,000 mm 0,0 UV-I 0 W/m² -7,4 °C -3,8 °C 0,0 km/h (0 Bft)
03.03.2017 04:12 -3,9 °C -3,8 °C 78 % 1017,9 hPa 0,0 mm 0,0 km/h (0 Bft) S-SW 192 ° 0 min 0,000 mm 0,0 UV-I 0 W/m² -7,2 °C -3,9 °C 0,0 km/h (0 Bft)
03.03.2017 04:13 -3,9 °C -3,9 °C 78 % 1017,8 hPa 0,0 mm 0,0 km/h (0 Bft) S 191 ° 0 min 0,000 mm 0,0 UV-I 0 W/m² -7,2 °C -3,9 °C 0,0 km/h (0 Bft)
03.03.2017 04:14 -4,0 °C -3,9 °C 78 % 1017,8 hPa 0,0 mm 0,0 km/h (0 Bft) S-SW 192 ° 0 min 0,000 mm 0,0 UV-I 0 W/m² -7,3 °C -4,0 °C 0,0 km/h (0 Bft)
03.03.2017 04:15 -4,0 °C -4,0 °C 79 % 1017,7 hPa 0,0 mm 0,0 km/h (0 Bft) S-SW 192 ° 0 min 0,000 mm 0,0 UV-I 0 W/m² -7,1 °C -4,0 °C 0,0 km/h (0 Bft)
03.03.2017 04:16 -3,9 °C -3,9 °C 78 % 1017,7 hPa 0,0 mm 0,0 km/h (0 Bft) S 191 ° 0 min 0,000 mm 0,0 UV-I 0 W/m² -7,2 °C -3,9 °C 0,0 km/h (0 Bft)
03.03.2017 04:17 -3,9 °C -3,9 °C 77 % 1017,7 hPa 0,0 mm 0,3 km/h (0 Bft) S 191 ° 0 min 0,000 mm 0,0 UV-I 0 W/m² -7,3 °C -3,9 °C 1,6 km/h (1 Bft)
03.03.2017 04:18 -3,8 °C -3,8 °C 77 % 1017,8 hPa 0,0 mm 0,8 km/h (0 Bft) S 191 ° 0 min 0,000 mm 0,0 UV-I 0 W/m² -7,2 °C -3,8 °C 1,6 km/h (1 Bft)
03.03.2017 04:19 -3,9 °C -3,8 °C 77 % 1017,8 hPa 0,0 mm 0,0 km/h (0 Bft) S 191 ° 0 min 0,000 mm 0,0 UV-I 0 W/m² -7,3 °C -3,9 °C 0,0 km/h (0 Bft)
03.03.2017 04:20 -3,9 °C -3,9 °C 77 % 1017,8 hPa 0,0 mm 0,0 km/h (0 Bft) S 191 ° 0 min 0,000 mm 0,0 UV-I 0 W/m² -7,3 °C -3,9 °C 0,0 km/h (0 Bft)
03.03.2017 04:21 -3,8 °C -3,8 °C 77 % 1017,8 hPa 0,0 mm 0,0 km/h (0 Bft) S 191 ° 0 min 0,000 mm 0,0 UV-I 0 W/m² -7,2 °C -3,8 °C 0,0 km/h (0 Bft)
03.03.2017 04:22 -3,8 °C -3,8 °C 77 % 1017,8 hPa 0,0 mm 0,0 km/h (0 Bft) S-SW 192 ° 0 min 0,000 mm 0,0 UV-I 0 W/m² -7,2 °C -3,8 °C 0,0 km/h (0 Bft)
03.03.2017 04:23 -3,8 °C -3,8 °C 77 % 1017,8 hPa 0,0 mm 0,0 km/h (0 Bft) S 191 ° 0 min 0,000 mm 0,0 UV-I 0 W/m² -7,2 °C -3,8 °C 0,0 km/h (0 Bft)
03.03.2017 04:24 -3,7 °C -3,7 °C 78 % 1017,8 hPa 0,0 mm 0,0 km/h (0 Bft) S-SW 192 ° 0 min 0,000 mm 0,0 UV-I 0 W/m² -7,0 °C -3,7 °C 0,0 km/h (0 Bft)
03.03.2017 04:25 -3,6 °C -3,6 °C 77 % 1017,8 hPa 0,0 mm 0,6 km/h (0 Bft) S 191 ° 0 min 0,000 mm 0,0 UV-I 0 W/m² -7,0 °C -3,6 °C 1,6 km/h (1 Bft)
03.03.2017 04:26 -3,6 °C -3,6 °C 77 % 1017,8 hPa 0,0 mm 0,1 km/h (0 Bft) S 191 ° 0 min 0,000 mm 0,0 UV-I 0 W/m² -7,0 °C -3,6 °C 1,6 km/h (1 Bft)
03.03.2017 04:27 -3,7 °C -3,6 °C 76 % 1017,7 hPa 0,0 mm 0,0 km/h (0 Bft) S 191 ° 0 min 0,000 mm 0,0 UV-I 0 W/m² -7,3 °C -3,7 °C 0,0 km/h (0 Bft)
03.03.2017 04:28 -3,8 °C -3,7 °C 77 % 1017,8 hPa 0,0 mm 0,9 km/h (0 Bft) S-SW 192 ° 0 min 0,000 mm 0,0 UV-I 0 W/m² -7,2 °C -3,8 °C 1,6 km/h (1 Bft)
03.03.2017 04:29 -3,8 °C -3,7 °C 78 % 1017,8 hPa 0,0 mm 1,5 km/h (1 Bft) S-SW 192 ° 0 min 0,000 mm 0,0 UV-I 0 W/m² -7,1 °C -3,8 °C 3,2 km/h (1 Bft)
03.03.2017 04:30 -3,8 °C -3,8 °C 78 % 1017,7 hPa 0,0 mm 1,5 km/h (1 Bft) S-SW 192 ° 0 min 0,000 mm 0,0 UV-I 0 W/m² -7,1 °C -3,8 °C 1,6 km/h (1 Bft)
03.03.2017 04:31 -3,8 °C -3,8 °C 78 % 1017,7 hPa 0,0 mm 1,4 km/h (1 Bft) S-SW 192 ° 0 min 0,000 mm 0,0 UV-I 0 W/m² -7,1 °C -3,8 °C 1,6 km/h (1 Bft)
03.03.2017 04:32 -3,8 °C -3,8 °C 78 % 1017,7 hPa 0,0 mm 0,7 km/h (0 Bft) S 191 ° 0 min 0,000 mm 0,0 UV-I 0 W/m² -7,1 °C -3,8 °C 1,6 km/h (1 Bft)
03.03.2017 04:33 -3,7 °C -3,7 °C 78 % 1017,7 hPa 0,0 mm 0,4 km/h (0 Bft) S 191 ° 0 min 0,000 mm 0,0 UV-I 0 W/m² -7,0 °C -3,7 °C 1,6 km/h (1 Bft)
03.03.2017 04:34 -3,7 °C -3,7 °C 78 % 1017,7 hPa 0,0 mm 0,1 km/h (0 Bft) S-SW 192 ° 0 min 0,000 mm 0,0 UV-I 0 W/m² -7,0 °C -3,7 °C 1,6 km/h (1 Bft)
03.03.2017 04:35 -3,6 °C -3,6 °C 78 % 1017,6 hPa 0,0 mm 0,0 km/h (0 Bft) S-SW 192 ° 0 min 0,000 mm 0,0 UV-I 0 W/m² -6,9 °C -3,6 °C 0,0 km/h (0 Bft)
03.03.2017 04:36 -3,7 °C -3,6 °C 78 % 1017,6 hPa 0,0 mm 0,0 km/h (0 Bft) S-SW 192 ° 0 min 0,000 mm 0,0 UV-I 0 W/m² -7,0 °C -3,7 °C 0,0 km/h (0 Bft)
03.03.2017 04:37 -3,8 °C -3,7 °C 79 % 1017,6 hPa 0,0 mm 0,0 km/h (0 Bft) S-SW 192 ° 0 min 0,000 mm 0,0 UV-I 0 W/m² -6,9 °C -3,8 °C 0,0 km/h (0 Bft)
03.03.2017 04:38 -3,8 °C -3,8 °C 79 % 1017,6 hPa 0,0 mm 0,0 km/h (0 Bft) S-SW 192 ° 0 min 0,000 mm 0,0 UV-I 0 W/m² -6,9 °C -3,8 °C 0,0 km/h (0 Bft)
03.03.2017 04:39 -3,8 °C -3,8 °C 78 % 1017,5 hPa 0,0 mm 0,0 km/h (0 Bft) S-SW 192 ° 0 min 0,000 mm 0,0 UV-I 0 W/m² -7,1 °C -3,8 °C 0,0 km/h (0 Bft)
03.03.2017 04:40 -3,7 °C -3,7 °C 78 % 1017,5 hPa 0,0 mm 0,0 km/h (0 Bft) S-SW 192 ° 0 min 0,000 mm 0,0 UV-I 0 W/m² -7,0 °C -3,7 °C 0,0 km/h (0 Bft)
03.03.2017 04:41 -3,7 °C -3,7 °C 78 % 1017,5 hPa 0,0 mm 0,0 km/h (0 Bft) S-SW 192 ° 0 min 0,000 mm 0,0 UV-I 0 W/m² -7,0 °C -3,7 °C 0,0 km/h (0 Bft)
03.03.2017 04:42 -3,7 °C -3,7 °C 78 % 1017,5 hPa 0,0 mm 0,0 km/h (0 Bft) S-SW 192 ° 0 min 0,000 mm 0,0 UV-I 0 W/m² -7,0 °C -3,7 °C 0,0 km/h (0 Bft)
03.03.2017 04:43 -3,7 °C -3,7 °C 78 % 1017,5 hPa 0,0 mm 0,0 km/h (0 Bft) S-SW 192 ° 0 min 0,000 mm 0,0 UV-I 0 W/m² -7,0 °C -3,7 °C 0,0 km/h (0 Bft)
03.03.2017 04:44 -3,7 °C -3,7 °C 78 % 1017,5 hPa 0,0 mm 0,0 km/h (0 Bft) S-SW 192 ° 0 min 0,000 mm 0,0 UV-I 0 W/m² -7,0 °C -3,7 °C 0,0 km/h (0 Bft)
03.03.2017 04:45 -3,8 °C -3,7 °C 78 % 1017,5 hPa 0,0 mm 0,0 km/h (0 Bft) S 191 ° 0 min 0,000 mm 0,0 UV-I 0 W/m² -7,1 °C -3,8 °C 0,0 km/h (0 Bft)
03.03.2017 04:46 -3,8 °C -3,8 °C 78 % 1017,5 hPa 0,0 mm 0,0 km/h (0 Bft) S-SW 192 ° 0 min 0,000 mm 0,0 UV-I 0 W/m² -7,1 °C -3,8 °C 0,0 km/h (0 Bft)
03.03.2017 04:47 -3,8 °C -3,8 °C 78 % 1017,4 hPa 0,0 mm 0,0 km/h (0 Bft) S-SW 192 ° 0 min 0,000 mm 0,0 UV-I 0 W/m² -7,1 °C -3,8 °C 0,0 km/h (0 Bft)
03.03.2017 04:48 -3,8 °C -3,8 °C 78 % 1017,4 hPa 0,0 mm 0,0 km/h (0 Bft) S-SW 192 ° 0 min 0,000 mm 0,0 UV-I 0 W/m² -7,1 °C -3,8 °C 0,0 km/h (0 Bft)
03.03.2017 04:49 -3,8 °C -3,8 °C 78 % 1017,4 hPa 0,0 mm 0,0 km/h (0 Bft) S-SW 192 ° 0 min 0,000 mm 0,0 UV-I 0 W/m² -7,1 °C -3,8 °C 0,0 km/h (0 Bft)
03.03.2017 04:50 -3,8 °C -3,8 °C 78 % 1017,4 hPa 0,0 mm 0,0 km/h (0 Bft) S-SW 192 ° 0 min 0,000 mm 0,0 UV-I 0 W/m² -7,1 °C -3,8 °C 0,0 km/h (0 Bft)
03.03.2017 04:51 -3,8 °C -3,8 °C 77 % 1017,4 hPa 0,0 mm 0,0 km/h (0 Bft) S-SW 192 ° 0 min 0,000 mm 0,0 UV-I 0 W/m² -7,2 °C -3,8 °C 0,0 km/h (0 Bft)
03.03.2017 04:52 -3,8 °C -3,8 °C 76 % 1017,3 hPa 0,0 mm 0,1 km/h (0 Bft) S-SW 192 ° 0 min 0,000 mm 0,0 UV-I 0 W/m² -7,4 °C -3,8 °C 1,6 km/h (1 Bft)
03.03.2017 04:53 -3,9 °C -3,8 °C 77 % 1017,3 hPa 0,0 mm 0,0 km/h (0 Bft) S-SW 192 ° 0 min 0,000 mm 0,0 UV-I 0 W/m² -7,3 °C -3,9 °C 0,0 km/h (0 Bft)
03.03.2017 04:54 -3,9 °C -3,9 °C 77 % 1017,3 hPa 0,0 mm 0,0 km/h (0 Bft) S 191 ° 0 min 0,000 mm 0,0 UV-I 0 W/m² -7,3 °C -3,9 °C 0,0 km/h (0 Bft)
03.03.2017 04:55 -4,1 °C -3,9 °C 77 % 1017,3 hPa 0,0 mm 0,0 km/h (0 Bft) S-SW 192 ° 0 min 0,000 mm 0,0 UV-I 0 W/m² -7,5 °C -4,1 °C 0,0 km/h (0 Bft)
03.03.2017 04:56 -4,2 °C -4,1 °C 77 % 1017,3 hPa 0,0 mm 0,0 km/h (0 Bft) S-SW 192 ° 0 min 0,000 mm 0,0 UV-I 0 W/m² -7,6 °C -4,2 °C 0,0 km/h (0 Bft)
03.03.2017 04:57 -4,2 °C -4,2 °C 78 % 1017,3 hPa 0,0 mm 0,0 km/h (0 Bft) S-SW 192 ° 0 min 0,000 mm 0,0 UV-I 0 W/m² -7,4 °C -4,2 °C 0,0 km/h (0 Bft)
03.03.2017 04:58 -4,1 °C -4,1 °C 78 % 1017,3 hPa 0,0 mm 0,0 km/h (0 Bft) S-SW 192 ° 0 min 0,000 mm 0,0 UV-I 0 W/m² -7,4 °C -4,1 °C 0,0 km/h (0 Bft)
03.03.2017 04:59 -4,1 °C -4,1 °C 77 % 1017,3 hPa 0,0 mm 0,0 km/h (0 Bft) S-SW 192 ° 0 min 0,000 mm 0,0 UV-I 0 W/m² -7,5 °C -4,1 °C 0,0 km/h (0 Bft)
03.03.2017 05:00 -4,1 °C -4,1 °C 78 % 1017,3 hPa 0,0 mm 0,0 km/h (0 Bft) S-SW 192 ° 0 min 0,000 mm 0,0 UV-I 0 W/m² -7,4 °C -4,1 °C 0,0 km/h (0 Bft)
03.03.2017 05:01 -4,2 °C -4,1 °C 79 % 1017,2 hPa 0,0 mm 0,7 km/h (0 Bft) S-SW 192 ° 0 min 0,000 mm 0,0 UV-I 0 W/m² -7,3 °C -4,2 °C 1,6 km/h (1 Bft)
03.03.2017 05:02 -4,1 °C -4,1 °C 79 % 1017,2 hPa 0,0 mm 0,9 km/h (0 Bft) S 191 ° 0 min 0,000 mm 0,0 UV-I 0 W/m² -7,2 °C -4,1 °C 1,6 km/h (1 Bft)
03.03.2017 05:03 -4,0 °C -4,0 °C 79 % 1017,2 hPa 0,0 mm 0,8 km/h (0 Bft) S-SW 192 ° 0 min 0,000 mm 0,0 UV-I 0 W/m² -7,1 °C -4,0 °C 1,6 km/h (1 Bft)
03.03.2017 05:04 -3,8 °C -3,8 °C 79 % 1017,1 hPa 0,0 mm 0,2 km/h (0 Bft) S-SW 192 ° 0 min 0,000 mm 0,0 UV-I 0 W/m² -6,9 °C -3,8 °C 1,6 km/h (1 Bft)
03.03.2017 05:05 -3,8 °C -3,8 °C 78 % 1017,1 hPa 0,0 mm 0,0 km/h (0 Bft) S-SW 192 ° 0 min 0,000 mm 0,0 UV-I 0 W/m² -7,1 °C -3,8 °C 0,0 km/h (0 Bft)
03.03.2017 05:06 -3,7 °C -3,7 °C 77 % 1017,2 hPa 0,0 mm 0,0 km/h (0 Bft) S-SW 192 ° 0 min 0,000 mm 0,0 UV-I 0 W/m² -7,1 °C -3,7 °C 0,0 km/h (0 Bft)
03.03.2017 05:07 -3,7 °C -3,7 °C 77 % 1017,1 hPa 0,0 mm 1,5 km/h (1 Bft) S-SW 192 ° 0 min 0,000 mm 0,0 UV-I 0 W/m² -7,1 °C -3,7 °C 1,6 km/h (1 Bft)
03.03.2017 05:08 -3,7 °C -3,6 °C 77 % 1017,2 hPa 0,0 mm 1,4 km/h (1 Bft) S-SW 192 ° 0 min 0,000 mm 0,0 UV-I 0 W/m² -7,1 °C -3,7 °C 1,6 km/h (1 Bft)
03.03.2017 05:09 -3,8 °C -3,7 °C 77 % 1017,1 hPa 0,0 mm 0,1 km/h (0 Bft) S-SW 192 ° 0 min 0,000 mm 0,0 UV-I 0 W/m² -7,2 °C -3,8 °C 1,6 km/h (1 Bft)
03.03.2017 05:10 -3,9 °C -3,8 °C 78 % 1017,1 hPa 0,0 mm 0,1 km/h (0 Bft) S-SW 192 ° 0 min 0,000 mm 0,0 UV-I 0 W/m² -7,2 °C -3,9 °C 1,6 km/h (1 Bft)
03.03.2017 05:11 -3,9 °C -3,9 °C 78 % 1017,1 hPa 0,0 mm 0,0 km/h (0 Bft) S-SW 192 ° 0 min 0,000 mm 0,0 UV-I 0 W/m² -7,2 °C -3,9 °C 0,0 km/h (0 Bft)
03.03.2017 05:12 -3,9 °C -3,9 °C 78 % 1017,1 hPa 0,0 mm 0,0 km/h (0 Bft) S 191 ° 0 min 0,000 mm 0,0 UV-I 0 W/m² -7,2 °C -3,9 °C 0,0 km/h (0 Bft)
03.03.2017 05:13 -4,0 °C -3,9 °C 78 % 1017,2 hPa 0,0 mm 0,0 km/h (0 Bft) S-SW 192 ° 0 min 0,000 mm 0,0 UV-I 0 W/m² -7,3 °C -4,0 °C 0,0 km/h (0 Bft)
03.03.2017 05:14 -4,1 °C -4,0 °C 78 % 1017,1 hPa 0,0 mm 0,0 km/h (0 Bft) S 191 ° 0 min 0,000 mm 0,0 UV-I 0 W/m² -7,4 °C -4,1 °C 0,0 km/h (0 Bft)
03.03.2017 05:15 -4,1 °C -4,1 °C 78 % 1017,1 hPa 0,0 mm 0,0 km/h (0 Bft) S 191 ° 0 min 0,000 mm 0,0 UV-I 0 W/m² -7,4 °C -4,1 °C 0,0 km/h (0 Bft)
03.03.2017 05:16 -4,1 °C -4,1 °C 79 % 1017,0 hPa 0,0 mm 0,0 km/h (0 Bft) S-SW 192 ° 0 min 0,000 mm 0,0 UV-I 0 W/m² -7,2 °C -4,1 °C 0,0 km/h (0 Bft)
03.03.2017 05:17 -4,1 °C -4,1 °C 79 % 1017,0 hPa 0,0 mm 0,0 km/h (0 Bft) S-SW 192 ° 0 min 0,000 mm 0,0 UV-I 0 W/m² -7,2 °C -4,1 °C 0,0 km/h (0 Bft)
03.03.2017 05:18 -4,1 °C -4,1 °C 79 % 1016,9 hPa 0,0 mm 0,0 km/h (0 Bft) S-SW 192 ° 0 min 0,000 mm 0,0 UV-I 0 W/m² -7,2 °C -4,1 °C 0,0 km/h (0 Bft)
03.03.2017 05:19 -4,1 °C -4,1 °C 79 % 1016,9 hPa 0,0 mm 0,0 km/h (0 Bft) S 191 ° 0 min 0,000 mm 0,0 UV-I 0 W/m² -7,2 °C -4,1 °C 0,0 km/h (0 Bft)
03.03.2017 05:20 -4,2 °C -4,1 °C 78 % 1016,9 hPa 0,0 mm 0,0 km/h (0 Bft) S-SW 192 ° 0 min 0,000 mm 0,0 UV-I 0 W/m² -7,4 °C -4,2 °C 0,0 km/h (0 Bft)
03.03.2017 05:21 -4,2 °C -4,2 °C 79 % 1016,8 hPa 0,0 mm 0,1 km/h (0 Bft) S 191 ° 0 min 0,000 mm 0,0 UV-I 0 W/m² -7,3 °C -4,2 °C 1,6 km/h (1 Bft)
03.03.2017 05:22 -4,2 °C -4,2 °C 79 % 1016,8 hPa 0,0 mm 0,0 km/h (0 Bft) S-SW 192 ° 0 min 0,000 mm 0,0 UV-I 0 W/m² -7,3 °C -4,2 °C 0,0 km/h (0 Bft)
03.03.2017 05:23 -4,3 °C -4,2 °C 79 % 1016,8 hPa 0,0 mm 0,0 km/h (0 Bft) S-SW 192 ° 0 min 0,000 mm 0,0 UV-I 0 W/m² -7,4 °C -4,3 °C 0,0 km/h (0 Bft)
03.03.2017 05:24 -4,3 °C -4,3 °C 79 % 1016,8 hPa 0,0 mm 0,0 km/h (0 Bft) S 191 ° 0 min 0,000 mm 0,0 UV-I 0 W/m² -7,4 °C -4,3 °C 0,0 km/h (0 Bft)
03.03.2017 05:25 -4,3 °C -4,3 °C 79 % 1016,8 hPa 0,0 mm 0,0 km/h (0 Bft) S 191 ° 0 min 0,000 mm 0,0 UV-I 0 W/m² -7,4 °C -4,3 °C 0,0 km/h (0 Bft)
03.03.2017 05:26 -4,2 °C -4,2 °C 79 % 1016,8 hPa 0,0 mm 0,0 km/h (0 Bft) S 191 ° 0 min 0,000 mm 0,0 UV-I 0 W/m² -7,3 °C -4,2 °C 0,0 km/h (0 Bft)
03.03.2017 05:27 -4,2 °C -4,2 °C 79 % 1016,8 hPa 0,0 mm 0,4 km/h (0 Bft) S-SW 192 ° 0 min 0,000 mm 0,0 UV-I 0 W/m² -7,3 °C -4,2 °C 1,6 km/h (1 Bft)
03.03.2017 05:28 -4,2 °C -4,2 °C 79 % 1016,8 hPa 0,0 mm 0,2 km/h (0 Bft) S 191 ° 0 min 0,000 mm 0,0 UV-I 0 W/m² -7,3 °C -4,2 °C 1,6 km/h (1 Bft)
03.03.2017 05:29 -4,2 °C -4,2 °C 79 % 1016,7 hPa 0,0 mm 0,1 km/h (0 Bft) S-SW 192 ° 0 min 0,000 mm 0,0 UV-I 0 W/m² -7,3 °C -4,2 °C 1,6 km/h (1 Bft)
03.03.2017 05:30 -4,1 °C -4,1 °C 79 % 1016,7 hPa 0,0 mm 0,0 km/h (0 Bft) S 191 ° 0 min 0,000 mm 0,0 UV-I 0 W/m² -7,2 °C -4,1 °C 0,0 km/h (0 Bft)
03.03.2017 05:31 -4,1 °C -4,1 °C 79 % 1016,8 hPa 0,0 mm 0,0 km/h (0 Bft) S-SW 192 ° 0 min 0,000 mm 0,0 UV-I 0 W/m² -7,2 °C -4,1 °C 0,0 km/h (0 Bft)
03.03.2017 05:32 -4,2 °C -4,1 °C 79 % 1016,7 hPa 0,0 mm 0,0 km/h (0 Bft) S 191 ° 0 min 0,000 mm 0,0 UV-I 0 W/m² -7,3 °C -4,2 °C 0,0 km/h (0 Bft)
03.03.2017 05:33 -4,3 °C -4,2 °C 79 % 1016,7 hPa 0,0 mm 0,0 km/h (0 Bft) S 191 ° 0 min 0,000 mm 0,0 UV-I 0 W/m² -7,4 °C -4,3 °C 0,0 km/h (0 Bft)
03.03.2017 05:34 -4,3 °C -4,3 °C 80 % 1016,7 hPa 0,0 mm 0,0 km/h (0 Bft) S 191 ° 0 min 0,000 mm 0,0 UV-I 0 W/m² -7,2 °C -4,3 °C 0,0 km/h (0 Bft)
03.03.2017 05:35 -4,3 °C -4,3 °C 80 % 1016,6 hPa 0,0 mm 0,0 km/h (0 Bft) S 191 ° 0 min 0,000 mm 0,0 UV-I 0 W/m² -7,2 °C -4,3 °C 0,0 km/h (0 Bft)
03.03.2017 05:36 -4,3 °C -4,3 °C 80 % 1016,6 hPa 0,0 mm 0,0 km/h (0 Bft) S 191 ° 0 min 0,000 mm 0,0 UV-I 0 W/m² -7,2 °C -4,3 °C 0,0 km/h (0 Bft)
03.03.2017 05:37 -4,3 °C -4,3 °C 79 % 1016,6 hPa 0,0 mm 0,0 km/h (0 Bft) S-SW 192 ° 0 min 0,000 mm 0,0 UV-I 0 W/m² -7,4 °C -4,3 °C 0,0 km/h (0 Bft)
03.03.2017 05:38 -4,3 °C -4,3 °C 79 % 1016,6 hPa 0,0 mm 0,0 km/h (0 Bft) S 191 ° 0 min 0,000 mm 0,0 UV-I 0 W/m² -7,4 °C -4,3 °C 0,0 km/h (0 Bft)
03.03.2017 05:39 -4,3 °C -4,3 °C 79 % 1016,6 hPa 0,0 mm 0,0 km/h (0 Bft) S 191 ° 0 min 0,000 mm 0,0 UV-I 0 W/m² -7,4 °C -4,3 °C 0,0 km/h (0 Bft)
03.03.2017 05:40 -4,3 °C -4,3 °C 78 % 1016,7 hPa 0,0 mm 0,0 km/h (0 Bft) S 191 ° 0 min 0,000 mm 0,0 UV-I 0 W/m² -7,5 °C -4,3 °C 0,0 km/h (0 Bft)
03.03.2017 05:41 -4,3 °C -4,3 °C 79 % 1016,6 hPa 0,0 mm 0,0 km/h (0 Bft) S-SW 192 ° 0 min 0,000 mm 0,0 UV-I 0 W/m² -7,4 °C -4,3 °C 0,0 km/h (0 Bft)
03.03.2017 05:42 -4,4 °C -4,3 °C 79 % 1016,6 hPa 0,0 mm 0,0 km/h (0 Bft) S 191 ° 0 min 0,000 mm 0,0 UV-I 0 W/m² -7,5 °C -4,4 °C 0,0 km/h (0 Bft)
03.03.2017 05:43 -4,4 °C -4,4 °C 79 % 1016,5 hPa 0,0 mm 1,7 km/h (1 Bft) S 191 ° 0 min 0,000 mm 0,0 UV-I 0 W/m² -7,5 °C -4,4 °C 3,2 km/h (1 Bft)
03.03.2017 05:44 -4,4 °C -4,4 °C 80 % 1016,5 hPa 0,0 mm 0,4 km/h (0 Bft) S 191 ° 0 min 0,000 mm 0,0 UV-I 0 W/m² -7,3 °C -4,4 °C 1,6 km/h (1 Bft)
03.03.2017 05:45 -4,3 °C -4,3 °C 80 % 1016,4 hPa 0,0 mm 0,0 km/h (0 Bft) S-SW 192 ° 0 min 0,000 mm 0,0 UV-I 0 W/m² -7,2 °C -4,3 °C 0,0 km/h (0 Bft)
03.03.2017 05:46 -4,3 °C -4,3 °C 80 % 1016,3 hPa 0,0 mm 0,0 km/h (0 Bft) S-SW 192 ° 0 min 0,000 mm 0,0 UV-I 0 W/m² -7,2 °C -4,3 °C 0,0 km/h (0 Bft)
03.03.2017 05:47 -4,3 °C -4,3 °C 78 % 1016,2 hPa 0,0 mm 0,2 km/h (0 Bft) S-SW 192 ° 0 min 0,000 mm 0,0 UV-I 0 W/m² -7,5 °C -4,3 °C 1,6 km/h (1 Bft)
03.03.2017 05:48 -4,3 °C -4,3 °C 79 % 1016,1 hPa 0,0 mm 0,5 km/h (0 Bft) S-SW 192 ° 0 min 0,000 mm 0,0 UV-I 0 W/m² -7,4 °C -4,3 °C 1,6 km/h (1 Bft)
03.03.2017 05:49 -4,2 °C -4,2 °C 79 % 1016,2 hPa 0,0 mm 0,0 km/h (0 Bft) S-SW 192 ° 0 min 0,000 mm 0,0 UV-I 0 W/m² -7,3 °C -4,2 °C 0,0 km/h (0 Bft)
03.03.2017 05:50 -4,1 °C -4,1 °C 79 % 1016,1 hPa 0,0 mm 0,5 km/h (0 Bft) S 191 ° 0 min 0,000 mm 0,0 UV-I 0 W/m² -7,2 °C -4,1 °C 1,6 km/h (1 Bft)
03.03.2017 05:51 -3,8 °C -3,8 °C 76 % 1016,2 hPa 0,0 mm 0,7 km/h (0 Bft) S 191 ° 0 min 0,000 mm 0,0 UV-I 0 W/m² -7,4 °C -3,8 °C 1,6 km/h (1 Bft)
03.03.2017 05:52 -3,7 °C -3,7 °C 75 % 1016,2 hPa 0,0 mm 0,2 km/h (0 Bft) S 191 ° 0 min 0,000 mm 0,0 UV-I 0 W/m² -7,5 °C -3,7 °C 1,6 km/h (1 Bft)
03.03.2017 05:53 -3,8 °C -3,7 °C 76 % 1016,2 hPa 0,0 mm 0,8 km/h (0 Bft) S-SW 192 ° 0 min 0,000 mm 0,0 UV-I 0 W/m² -7,4 °C -3,8 °C 1,6 km/h (1 Bft)
03.03.2017 05:54 -3,9 °C -3,8 °C 75 % 1016,1 hPa 0,0 mm 0,2 km/h (0 Bft) S-SW 192 ° 0 min 0,000 mm 0,0 UV-I 0 W/m² -7,7 °C -3,9 °C 1,6 km/h (1 Bft)
03.03.2017 05:55 -4,1 °C -3,9 °C 76 % 1016,1 hPa 0,0 mm 0,1 km/h (0 Bft) S-SW 192 ° 0 min 0,000 mm 0,0 UV-I 0 W/m² -7,7 °C -4,1 °C 1,6 km/h (1 Bft)
03.03.2017 05:56 -4,1 °C -4,1 °C 77 % 1016,1 hPa 0,0 mm 0,0 km/h (0 Bft) S-SW 192 ° 0 min 0,000 mm 0,0 UV-I 0 W/m² -7,5 °C -4,1 °C 0,0 km/h (0 Bft)
03.03.2017 05:57 -4,2 °C -4,1 °C 77 % 1016,1 hPa 0,0 mm 0,0 km/h (0 Bft) S 191 ° 0 min 0,000 mm 0,0 UV-I 0 W/m² -7,6 °C -4,2 °C 0,0 km/h (0 Bft)
03.03.2017 05:58 -4,3 °C -4,2 °C 77 % 1016,1 hPa 0,0 mm 0,0 km/h (0 Bft) S-SW 192 ° 0 min 0,000 mm 0,0 UV-I 0 W/m² -7,7 °C -4,3 °C 0,0 km/h (0 Bft)
03.03.2017 05:59 -4,4 °C -4,3 °C 78 % 1016,1 hPa 0,0 mm 0,0 km/h (0 Bft) S-SW 192 ° 0 min 0,000 mm 0,0 UV-I 0 W/m² -7,6 °C -4,4 °C 0,0 km/h (0 Bft)
03.03.2017 06:00 -4,4 °C -4,4 °C 78 % 1015,9 hPa 0,0 mm 0,6 km/h (0 Bft) S 191 ° 0 min 0,000 mm 0,0 UV-I 0 W/m² -7,6 °C -4,4 °C 3,2 km/h (1 Bft)
03.03.2017 06:01 -4,4 °C -4,4 °C 79 % 1015,9 hPa 0,0 mm 2,2 km/h (1 Bft) S 191 ° 0 min 0,000 mm 0,0 UV-I 0 W/m² -7,5 °C -4,4 °C 3,2 km/h (1 Bft)
03.03.2017 06:02 -4,4 °C -4,4 °C 79 % 1015,8 hPa 0,0 mm 1,6 km/h (1 Bft) S 191 ° 0 min 0,000 mm 0,0 UV-I 0 W/m² -7,5 °C -4,4 °C 1,6 km/h (1 Bft)
03.03.2017 06:03 -4,3 °C -4,3 °C 78 % 1015,8 hPa 0,0 mm 0,9 km/h (0 Bft) S 191 ° 0 min 0,000 mm 0,0 UV-I 0 W/m² -7,5 °C -4,3 °C 1,6 km/h (1 Bft)
03.03.2017 06:04 -4,2 °C -4,2 °C 78 % 1015,9 hPa 0,0 mm 0,0 km/h (0 Bft) S 191 ° 0 min 0,000 mm 0,0 UV-I 0 W/m² -7,4 °C -4,2 °C 0,0 km/h (0 Bft)
03.03.2017 06:05 -4,1 °C -4,1 °C 77 % 1015,9 hPa 0,0 mm 1,0 km/h (0 Bft) S-SW 192 ° 0 min 0,000 mm 0,0 UV-I 0 W/m² -7,5 °C -4,1 °C 1,6 km/h (1 Bft)
03.03.2017 06:06 -4,1 °C -4,1 °C 77 % 1015,8 hPa 0,0 mm 0,2 km/h (0 Bft) S-SW 192 ° 0 min 0,000 mm 0,0 UV-I 0 W/m² -7,5 °C -4,1 °C 1,6 km/h (1 Bft)
03.03.2017 06:07 -4,1 °C -4,1 °C 76 % 1015,8 hPa 0,0 mm 1,3 km/h (1 Bft) S-SW 192 ° 0 min 0,000 mm 0,0 UV-I 0 W/m² -7,7 °C -4,1 °C 3,2 km/h (1 Bft)
03.03.2017 06:08 -4,2 °C -4,1 °C 77 % 1015,8 hPa 0,0 mm 2,1 km/h (1 Bft) S-SW 192 ° 0 min 0,000 mm 0,0 UV-I 0 W/m² -7,6 °C -4,2 °C 3,2 km/h (1 Bft)
03.03.2017 06:09 -4,3 °C -4,2 °C 78 % 1015,7 hPa 0,0 mm 1,7 km/h (1 Bft) S-SW 192 ° 0 min 0,000 mm 0,0 UV-I 0 W/m² -7,5 °C -4,3 °C 3,2 km/h (1 Bft)
03.03.2017 06:10 -4,4 °C -4,3 °C 78 % 1015,7 hPa 0,0 mm 1,3 km/h (1 Bft) S-SW 192 ° 0 min 0,000 mm 0,0 UV-I 0 W/m² -7,6 °C -4,4 °C 1,6 km/h (1 Bft)
03.03.2017 06:11 -4,6 °C -4,4 °C 79 % 1015,7 hPa 0,0 mm 1,1 km/h (1 Bft) S-SW 192 ° 0 min 0,000 mm 0,0 UV-I 0 W/m² -7,7 °C -4,6 °C 1,6 km/h (1 Bft)
03.03.2017 06:12 -4,6 °C -4,6 °C 79 % 1015,8 hPa 0,0 mm 0,5 km/h (0 Bft) S-SW 192 ° 0 min 0,000 mm 0,0 UV-I 0 W/m² -7,7 °C -4,6 °C 1,6 km/h (1 Bft)
03.03.2017 06:13 -4,6 °C -4,6 °C 79 % 1015,8 hPa 0,0 mm 0,0 km/h (0 Bft) S-SW 192 ° 0 min 0,000 mm 0,0 UV-I 0 W/m² -7,7 °C -4,6 °C 0,0 km/h (0 Bft)
03.03.2017 06:14 -4,6 °C -4,6 °C 78 % 1015,9 hPa 0,0 mm 0,9 km/h (0 Bft) S-SW 192 ° 0 min 0,000 mm 0,0 UV-I 0 W/m² -7,8 °C -4,6 °C 1,6 km/h (1 Bft)
03.03.2017 06:15 -4,6 °C -4,5 °C 78 % 1015,9 hPa 0,0 mm 1,6 km/h (1 Bft) S-SW 192 ° 0 min 0,000 mm 0,0 UV-I 0 W/m² -7,8 °C -4,6 °C 3,2 km/h (1 Bft)
03.03.2017 06:16 -4,6 °C -4,6 °C 78 % 1016,0 hPa 0,0 mm 0,1 km/h (0 Bft) S-SW 192 ° 0 min 0,000 mm 0,0 UV-I 0 W/m² -7,8 °C -4,6 °C 1,6 km/h (1 Bft)
03.03.2017 06:17 -4,7 °C -4,6 °C 78 % 1016,1 hPa 0,0 mm 0,0 km/h (0 Bft) S-SW 192 ° 0 min 0,000 mm 0,0 UV-I 0 W/m² -7,9 °C -4,7 °C 0,0 km/h (0 Bft)
03.03.2017 06:18 -4,7 °C -4,7 °C 79 % 1016,1 hPa 0,0 mm 0,0 km/h (0 Bft) S-SW 192 ° 0 min 0,000 mm 0,0 UV-I 0 W/m² -7,8 °C -4,7 °C 0,0 km/h (0 Bft)
03.03.2017 06:19 -4,7 °C -4,7 °C 79 % 1016,1 hPa 0,0 mm 0,0 km/h (0 Bft) S-SW 192 ° 0 min 0,000 mm 0,0 UV-I 0 W/m² -7,8 °C -4,7 °C 0,0 km/h (0 Bft)
03.03.2017 06:20 -4,7 °C -4,7 °C 79 % 1016,2 hPa 0,0 mm 0,5 km/h (0 Bft) S-SW 192 ° 0 min 0,000 mm 0,0 UV-I 0 W/m² -7,8 °C -4,7 °C 1,6 km/h (1 Bft)
03.03.2017 06:21 -4,6 °C -4,6 °C 80 % 1016,1 hPa 0,0 mm 0,3 km/h (0 Bft) S-SW 192 ° 0 min 0,000 mm 0,0 UV-I 0 W/m² -7,5 °C -4,6 °C 1,6 km/h (1 Bft)
03.03.2017 06:22 -4,6 °C -4,6 °C 80 % 1016,1 hPa 0,0 mm 0,5 km/h (0 Bft) S-SW 192 ° 0 min 0,000 mm 0,0 UV-I 0 W/m² -7,5 °C -4,6 °C 1,6 km/h (1 Bft)
03.03.2017 06:23 -4,5 °C -4,5 °C 79 % 1016,0 hPa 0,0 mm 0,1 km/h (0 Bft) S-SW 192 ° 0 min 0,000 mm 0,0 UV-I 0 W/m² -7,6 °C -4,5 °C 1,6 km/h (1 Bft)
03.03.2017 06:24 -4,5 °C -4,5 °C 79 % 1016,0 hPa 0,0 mm 0,1 km/h (0 Bft) S-SW 192 ° 0 min 0,000 mm 0,0 UV-I 0 W/m² -7,6 °C -4,5 °C 1,6 km/h (1 Bft)
03.03.2017 06:25 -4,6 °C -4,5 °C 80 % 1015,9 hPa 0,0 mm 0,0 km/h (0 Bft) S-SW 192 ° 0 min 0,000 mm 0,0 UV-I 0 W/m² -7,5 °C -4,6 °C 0,0 km/h (0 Bft)
03.03.2017 06:26 -4,6 °C -4,6 °C 80 % 1015,9 hPa 0,0 mm 0,0 km/h (0 Bft) S-SW 192 ° 0 min 0,000 mm 0,0 UV-I 0 W/m² -7,5 °C -4,6 °C 0,0 km/h (0 Bft)
03.03.2017 06:27 -4,7 °C -4,6 °C 80 % 1016,0 hPa 0,0 mm 0,1 km/h (0 Bft) S-SW 192 ° 0 min 0,000 mm 0,0 UV-I 0 W/m² -7,6 °C -4,7 °C 1,6 km/h (1 Bft)
03.03.2017 06:28 -4,7 °C -4,7 °C 80 % 1016,1 hPa 0,0 mm 0,0 km/h (0 Bft) S-SW 192 ° 0 min 0,000 mm 0,0 UV-I 0 W/m² -7,6 °C -4,7 °C 0,0 km/h (0 Bft)
03.03.2017 06:29 -4,7 °C -4,7 °C 80 % 1016,0 hPa 0,0 mm 0,0 km/h (0 Bft) S-SW 192 ° 0 min 0,000 mm 0,0 UV-I 0 W/m² -7,6 °C -4,7 °C 0,0 km/h (0 Bft)
03.03.2017 06:30 -4,6 °C -4,6 °C 80 % 1016,0 hPa 0,0 mm 0,1 km/h (0 Bft) S-SW 192 ° 0 min 0,000 mm 0,0 UV-I 0 W/m² -7,5 °C -4,6 °C 1,6 km/h (1 Bft)
03.03.2017 06:31 -4,6 °C -4,6 °C 79 % 1015,9 hPa 0,0 mm 1,6 km/h (1 Bft) S-SW 192 ° 0 min 0,000 mm 0,0 UV-I 0 W/m² -7,7 °C -4,6 °C 3,2 km/h (1 Bft)
03.03.2017 06:32 -4,5 °C -4,5 °C 79 % 1015,8 hPa 0,0 mm 3,1 km/h (1 Bft) S-SW 192 ° 0 min 0,000 mm 0,0 UV-I 0 W/m² -7,6 °C -4,5 °C 3,2 km/h (1 Bft)
03.03.2017 06:33 -4,4 °C -4,4 °C 79 % 1015,9 hPa 0,0 mm 4,2 km/h (1 Bft) S-SW 192 ° 0 min 0,000 mm 0,0 UV-I 0 W/m² -7,5 °C -4,4 °C 4,8 km/h (1 Bft)
03.03.2017 06:34 -4,3 °C -4,3 °C 78 % 1015,8 hPa 0,0 mm 3,2 km/h (1 Bft) S-SW 192 ° 0 min 0,000 mm 0,0 UV-I 0 W/m² -7,5 °C -4,3 °C 4,8 km/h (1 Bft)
03.03.2017 06:35 -4,1 °C -4,1 °C 78 % 1015,8 hPa 0,0 mm 3,4 km/h (1 Bft) SW 228 ° 0 min 0,000 mm 0,0 UV-I 0 W/m² -7,4 °C -4,1 °C 4,8 km/h (1 Bft)
03.03.2017 06:36 -3,9 °C -3,9 °C 77 % 1015,8 hPa 0,0 mm 3,2 km/h (1 Bft) SW 228 ° 0 min 0,000 mm 0,0 UV-I 0 W/m² -7,3 °C -3,9 °C 4,8 km/h (1 Bft)
03.03.2017 06:37 -3,8 °C -3,8 °C 76 % 1015,8 hPa 0,0 mm 5,2 km/h (1 Bft) S-SW 204 ° 0 min 0,000 mm 0,0 UV-I 0 W/m² -7,4 °C -6,0 °C 8,0 km/h (2 Bft)
03.03.2017 06:38 -3,7 °C -3,7 °C 77 % 1015,8 hPa 0,0 mm 3,0 km/h (1 Bft) S-SW 204 ° 0 min 0,000 mm 0,0 UV-I 0 W/m² -7,1 °C -3,7 °C 4,8 km/h (1 Bft)
03.03.2017 06:39 -3,7 °C -3,7 °C 78 % 1015,8 hPa 0,0 mm 3,0 km/h (1 Bft) S-SW 203 ° 0 min 0,000 mm 0,0 UV-I 0 W/m² -7,0 °C -3,7 °C 4,8 km/h (1 Bft)
03.03.2017 06:40 -3,6 °C -3,6 °C 78 % 1015,8 hPa 0,0 mm 4,3 km/h (1 Bft) S-SW 203 ° 0 min 0,000 mm 0,0 UV-I 0 W/m² -6,9 °C -3,6 °C 4,8 km/h (1 Bft)
03.03.2017 06:41 -3,5 °C -3,5 °C 78 % 1015,8 hPa 0,0 mm 5,2 km/h (1 Bft) S-SO 164 ° 0 min 0,000 mm 0,0 UV-I 0 W/m² -6,8 °C -5,7 °C 8,0 km/h (2 Bft)
03.03.2017 06:42 -3,4 °C -3,4 °C 78 % 1015,7 hPa 0,0 mm 5,5 km/h (1 Bft) S-SO 164 ° 0 min 0,000 mm 0,0 UV-I 0 W/m² -6,7 °C -5,7 °C 6,4 km/h (2 Bft)
03.03.2017 06:43 -3,2 °C -3,2 °C 77 % 1015,8 hPa 0,0 mm 4,2 km/h (1 Bft) S-SO 164 ° 0 min 0,000 mm 0,0 UV-I 0 W/m² -6,6 °C -3,2 °C 6,4 km/h (2 Bft)
03.03.2017 06:44 -3,2 °C -3,2 °C 74 % 1015,8 hPa 0,0 mm 2,7 km/h (1 Bft) S-SO 164 ° 0 min 0,000 mm 0,0 UV-I 0 W/m² -7,2 °C -3,2 °C 3,2 km/h (1 Bft)
03.03.2017 06:45 -3,1 °C -3,1 °C 74 % 1015,7 hPa 0,0 mm 0,0 km/h (0 Bft) S-SO 164 ° 0 min 0,000 mm 0,0 UV-I 0 W/m² -7,1 °C -3,1 °C 0,0 km/h (0 Bft)
03.03.2017 06:46 -2,9 °C -2,9 °C 73 % 1015,8 hPa 0,0 mm 0,3 km/h (0 Bft) S-SO 164 ° 0 min 0,000 mm 0,0 UV-I 0 W/m² -7,0 °C -2,9 °C 1,6 km/h (1 Bft)
03.03.2017 06:47 -3,1 °C -2,9 °C 74 % 1015,7 hPa 0,0 mm 2,5 km/h (1 Bft) S-SO 165 ° 0 min 0,000 mm 0,0 UV-I 0 W/m² -7,1 °C -3,1 °C 3,2 km/h (1 Bft)
03.03.2017 06:48 -3,3 °C -3,1 °C 75 % 1015,7 hPa 0,0 mm 2,1 km/h (1 Bft) S-SO 165 ° 0 min 0,000 mm 0,0 UV-I 0 W/m² -7,1 °C -3,3 °C 3,2 km/h (1 Bft)
03.03.2017 06:49 -3,4 °C -3,3 °C 76 % 1015,7 hPa 0,0 mm 1,7 km/h (1 Bft) S-SO 165 ° 0 min 0,000 mm 0,0 UV-I 0 W/m² -7,0 °C -3,4 °C 3,2 km/h (1 Bft)
03.03.2017 06:50 -3,5 °C -3,4 °C 76 % 1015,7 hPa 0,0 mm 1,5 km/h (1 Bft) S-SO 165 ° 0 min 0,000 mm 0,0 UV-I 0 W/m² -7,1 °C -3,5 °C 3,2 km/h (1 Bft)
03.03.2017 06:51 -3,6 °C -3,5 °C 77 % 1015,6 hPa 0,0 mm 0,1 km/h (0 Bft) S-SO 165 ° 0 min 0,000 mm 0,0 UV-I 0 W/m² -7,0 °C -3,6 °C 1,6 km/h (1 Bft)
03.03.2017 06:52 -3,8 °C -3,6 °C 77 % 1015,6 hPa 0,0 mm 1,7 km/h (1 Bft) S-SO 165 ° 0 min 0,000 mm 0,0 UV-I 0 W/m² -7,2 °C -3,8 °C 3,2 km/h (1 Bft)
03.03.2017 06:53 -3,8 °C -3,8 °C 78 % 1015,6 hPa 0,0 mm 2,5 km/h (1 Bft) S-SO 165 ° 0 min 0,000 mm 0,0 UV-I 0 W/m² -7,1 °C -3,8 °C 3,2 km/h (1 Bft)
03.03.2017 06:54 -3,7 °C -3,7 °C 78 % 1015,7 hPa 0,0 mm 1,8 km/h (1 Bft) S-SO 165 ° 0 min 0,000 mm 0,0 UV-I 0 W/m² -7,0 °C -3,7 °C 3,2 km/h (1 Bft)
03.03.2017 06:55 -3,5 °C -3,5 °C 77 % 1015,6 hPa 0,0 mm 2,5 km/h (1 Bft) S-SO 165 ° 0 min 0,000 mm 0,0 UV-I 5 W/m² -6,9 °C -3,5 °C 3,2 km/h (1 Bft)
03.03.2017 06:56 -3,6 °C -3,5 °C 78 % 1015,6 hPa 0,0 mm 0,9 km/h (0 Bft) S-SO 165 ° 0 min 0,000 mm 0,0 UV-I 5 W/m² -6,9 °C -3,6 °C 1,6 km/h (1 Bft)
03.03.2017 06:57 -3,7 °C -3,6 °C 78 % 1015,5 hPa 0,0 mm 0,2 km/h (0 Bft) S-SO 165 ° 0 min 0,000 mm 0,0 UV-I 5 W/m² -7,0 °C -3,7 °C 1,6 km/h (1 Bft)
03.03.2017 06:58 -3,8 °C -3,7 °C 78 % 1015,7 hPa 0,0 mm 2,2 km/h (1 Bft) S-SO 165 ° 0 min 0,000 mm 0,0 UV-I 5 W/m² -7,1 °C -3,8 °C 3,2 km/h (1 Bft)
03.03.2017 06:59 -3,9 °C -3,8 °C 78 % 1015,7 hPa 0,0 mm 2,0 km/h (1 Bft) S-SO 165 ° 0 min 0,000 mm 0,0 UV-I 7 W/m² -7,2 °C -3,9 °C 3,2 km/h (1 Bft)
03.03.2017 07:00 -4,2 °C -3,9 °C 79 % 1015,7 hPa 0,0 mm 0,9 km/h (0 Bft) S-SO 165 ° 0 min 0,000 mm 0,0 UV-I 7 W/m² -7,3 °C -4,2 °C 1,6 km/h (1 Bft)
03.03.2017 07:01 -4,3 °C -4,2 °C 79 % 1015,7 hPa 0,0 mm 1,5 km/h (1 Bft) S-SO 165 ° 0 min 0,000 mm 0,0 UV-I 9 W/m² -7,4 °C -4,3 °C 3,2 km/h (1 Bft)
03.03.2017 07:02 -4,2 °C -4,2 °C 79 % 1015,7 hPa 0,0 mm 0,4 km/h (0 Bft) S-SO 165 ° 0 min 0,000 mm 0,0 UV-I 9 W/m² -7,3 °C -4,2 °C 1,6 km/h (1 Bft)
03.03.2017 07:03 -4,2 °C -4,2 °C 79 % 1015,7 hPa 0,0 mm 1,9 km/h (1 Bft) S-SO 165 ° 0 min 0,000 mm 0,0 UV-I 11 W/m² -7,3 °C -4,2 °C 3,2 km/h (1 Bft)
03.03.2017 07:04 -4,3 °C -4,2 °C 80 % 1015,7 hPa 0,0 mm 1,9 km/h (1 Bft) S-SO 165 ° 0 min 0,000 mm 0,0 UV-I 11 W/m² -7,2 °C -4,3 °C 3,2 km/h (1 Bft)
03.03.2017 07:05 -4,3 °C -4,3 °C 80 % 1015,7 hPa 0,0 mm 1,5 km/h (1 Bft) S-SO 165 ° 0 min 0,000 mm 0,0 UV-I 12 W/m² -7,2 °C -4,3 °C 3,2 km/h (1 Bft)
03.03.2017 07:06 -4,3 °C -4,3 °C 80 % 1015,6 hPa 0,0 mm 2,8 km/h (1 Bft) S-SO 165 ° 0 min 0,000 mm 0,0 UV-I 12 W/m² -7,2 °C -4,3 °C 3,2 km/h (1 Bft)
03.03.2017 07:07 -4,2 °C -4,2 °C 80 % 1015,5 hPa 0,0 mm 2,3 km/h (1 Bft) S-SO 165 ° 0 min 0,000 mm 0,0 UV-I 12 W/m² -7,1 °C -4,2 °C 3,2 km/h (1 Bft)
03.03.2017 07:08 -3,9 °C -3,9 °C 80 % 1015,4 hPa 0,0 mm 1,3 km/h (1 Bft) S-SO 165 ° 0 min 0,000 mm 0,0 UV-I 12 W/m² -6,8 °C -3,9 °C 1,6 km/h (1 Bft)
03.03.2017 07:09 -3,7 °C -3,7 °C 79 % 1015,3 hPa 0,0 mm 0,4 km/h (0 Bft) S-SO 165 ° 0 min 0,000 mm 0,0 UV-I 12 W/m² -6,8 °C -3,7 °C 1,6 km/h (1 Bft)
03.03.2017 07:10 -3,6 °C -3,6 °C 79 % 1015,2 hPa 0,0 mm 1,7 km/h (1 Bft) S-SO 165 ° 0 min 0,000 mm 0,0 UV-I 16 W/m² -6,7 °C -3,6 °C 3,2 km/h (1 Bft)
03.03.2017 07:11 -3,6 °C -3,6 °C 79 % 1015,1 hPa 0,0 mm 2,1 km/h (1 Bft) S-SO 165 ° 0 min 0,000 mm 0,0 UV-I 18 W/m² -6,7 °C -3,6 °C 3,2 km/h (1 Bft)
03.03.2017 07:12 -3,7 °C -3,6 °C 79 % 1015,1 hPa 0,0 mm 0,5 km/h (0 Bft) S-SO 165 ° 0 min 0,000 mm 0,0 UV-I 19 W/m² -6,8 °C -3,7 °C 1,6 km/h (1 Bft)
03.03.2017 07:13 -3,8 °C -3,7 °C 79 % 1015,1 hPa 0,0 mm 0,3 km/h (0 Bft) S-SO 165 ° 0 min 0,000 mm 0,0 UV-I 21 W/m² -6,9 °C -3,8 °C 1,6 km/h (1 Bft)
03.03.2017 07:14 -3,9 °C -3,8 °C 79 % 1015,1 hPa 0,0 mm 0,1 km/h (0 Bft) S-SO 165 ° 0 min 0,000 mm 0,0 UV-I 23 W/m² -7,0 °C -3,9 °C 1,6 km/h (1 Bft)
03.03.2017 07:15 -3,9 °C -3,9 °C 79 % 1015,1 hPa 0,0 mm 0,0 km/h (0 Bft) S-SO 165 ° 0 min 0,000 mm 0,0 UV-I 25 W/m² -7,0 °C -3,9 °C 0,0 km/h (0 Bft)
03.03.2017 07:16 -4,1 °C -3,9 °C 79 % 1015,1 hPa 0,0 mm 0,0 km/h (0 Bft) S-SO 165 ° 0 min 0,000 mm 0,0 UV-I 26 W/m² -7,2 °C -4,1 °C 0,0 km/h (0 Bft)
03.03.2017 07:17 -4,2 °C -4,1 °C 79 % 1015,1 hPa 0,0 mm 0,0 km/h (0 Bft) S-SO 165 ° 0 min 0,000 mm 0,0 UV-I 28 W/m² -7,3 °C -4,2 °C 0,0 km/h (0 Bft)
03.03.2017 07:18 -4,2 °C -4,2 °C 79 % 1015,3 hPa 0,0 mm 0,0 km/h (0 Bft) S-SO 165 ° 0 min 0,000 mm 0,0 UV-I 28 W/m² -7,3 °C -4,2 °C 0,0 km/h (0 Bft)
03.03.2017 07:19 -4,2 °C -4,1 °C 80 % 1015,2 hPa 0,0 mm 0,5 km/h (0 Bft) S-SO 165 ° 0 min 0,000 mm 0,0 UV-I 28 W/m² -7,1 °C -4,2 °C 1,6 km/h (1 Bft)
03.03.2017 07:20 -4,1 °C -4,1 °C 79 % 1015,2 hPa 0,0 mm 0,3 km/h (0 Bft) S-SO 165 ° 0 min 0,000 mm 0,0 UV-I 28 W/m² -7,2 °C -4,1 °C 1,6 km/h (1 Bft)
03.03.2017 07:21 -3,9 °C -3,9 °C 79 % 1015,3 hPa 0,0 mm 0,0 km/h (0 Bft) S-SO 165 ° 0 min 0,000 mm 0,0 UV-I 28 W/m² -7,0 °C -3,9 °C 0,0 km/h (0 Bft)
03.03.2017 07:22 -3,9 °C -3,9 °C 79 % 1015,2 hPa 0,0 mm 0,0 km/h (0 Bft) S-SO 165 ° 0 min 0,000 mm 0,0 UV-I 28 W/m² -7,0 °C -3,9 °C 0,0 km/h (0 Bft)
03.03.2017 07:23 -3,8 °C -3,8 °C 79 % 1015,2 hPa 0,0 mm 0,0 km/h (0 Bft) S-SO 165 ° 0 min 0,000 mm 0,0 UV-I 28 W/m² -6,9 °C -3,8 °C 0,0 km/h (0 Bft)
03.03.2017 07:24 -3,8 °C -3,8 °C 78 % 1015,2 hPa 0,0 mm 0,1 km/h (0 Bft) S-SO 165 ° 0 min 0,000 mm 0,0 UV-I 28 W/m² -7,1 °C -3,8 °C 1,6 km/h (1 Bft)
03.03.2017 07:25 -3,8 °C -3,8 °C 78 % 1015,1 hPa 0,0 mm 1,0 km/h (0 Bft) S-SO 165 ° 0 min 0,000 mm 0,0 UV-I 30 W/m² -7,1 °C -3,8 °C 1,6 km/h (1 Bft)
03.03.2017 07:26 -3,8 °C -3,8 °C 79 % 1015,2 hPa 0,0 mm 0,5 km/h (0 Bft) S-SO 165 ° 0 min 0,000 mm 0,0 UV-I 30 W/m² -6,9 °C -3,8 °C 1,6 km/h (1 Bft)
03.03.2017 07:27 -3,9 °C -3,8 °C 79 % 1015,2 hPa 0,0 mm 0,0 km/h (0 Bft) S-SO 165 ° 0 min 0,000 mm 0,0 UV-I 30 W/m² -7,0 °C -3,9 °C 0,0 km/h (0 Bft)
03.03.2017 07:28 -4,0 °C -3,9 °C 79 % 1015,3 hPa 0,0 mm 0,0 km/h (0 Bft) S-SO 165 ° 0 min 0,000 mm 0,0 UV-I 30 W/m² -7,1 °C -4,0 °C 0,0 km/h (0 Bft)
03.03.2017 07:29 -4,1 °C -4,0 °C 80 % 1015,2 hPa 0,0 mm 0,2 km/h (0 Bft) S-SO 165 ° 0 min 0,000 mm 0,0 UV-I 30 W/m² -7,0 °C -4,1 °C 1,6 km/h (1 Bft)
03.03.2017 07:30 -4,1 °C -4,1 °C 80 % 1015,2 hPa 0,0 mm 0,6 km/h (0 Bft) S-SO 165 ° 0 min 0,000 mm 0,0 UV-I 32 W/m² -7,0 °C -4,1 °C 1,6 km/h (1 Bft)
03.03.2017 07:31 -4,1 °C -4,0 °C 80 % 1015,2 hPa 0,0 mm 0,0 km/h (0 Bft) S-SO 165 ° 0 min 0,000 mm 0,0 UV-I 32 W/m² -7,0 °C -4,1 °C 0,0 km/h (0 Bft)
03.03.2017 07:32 -4,1 °C -4,0 °C 80 % 1015,2 hPa 0,0 mm 0,0 km/h (0 Bft) S-SO 165 ° 0 min 0,000 mm 0,0 UV-I 33 W/m² -7,0 °C -4,1 °C 0,0 km/h (0 Bft)
03.03.2017 07:33 -4,1 °C -4,0 °C 80 % 1015,2 hPa 0,0 mm 0,0 km/h (0 Bft) S-SO 165 ° 0 min 0,000 mm 0,0 UV-I 33 W/m² -7,0 °C -4,1 °C 0,0 km/h (0 Bft)
03.03.2017 07:34 -4,1 °C -4,0 °C 80 % 1015,2 hPa 0,0 mm 0,0 km/h (0 Bft) S-SO 165 ° 0 min 0,000 mm 0,0 UV-I 32 W/m² -7,0 °C -4,1 °C 0,0 km/h (0 Bft)
03.03.2017 07:35 -4,0 °C -4,0 °C 79 % 1015,1 hPa 0,0 mm 0,0 km/h (0 Bft) S-SO 165 ° 0 min 0,000 mm 0,0 UV-I 32 W/m² -7,1 °C -4,0 °C 0,0 km/h (0 Bft)
03.03.2017 07:36 -4,0 °C -3,9 °C 79 % 1015,1 hPa 0,0 mm 0,3 km/h (0 Bft) S-SO 165 ° 0 min 0,000 mm 0,0 UV-I 30 W/m² -7,1 °C -4,0 °C 1,6 km/h (1 Bft)
03.03.2017 07:37 -4,0 °C -3,9 °C 81 % 1015,1 hPa 0,0 mm 0,0 km/h (0 Bft) S-SO 165 ° 0 min 0,000 mm 0,0 UV-I 30 W/m² -6,8 °C -4,0 °C 0,0 km/h (0 Bft)
03.03.2017 07:38 -4,0 °C -3,9 °C 80 % 1015,0 hPa 0,0 mm 0,0 km/h (0 Bft) S-SO 165 ° 0 min 0,000 mm 0,0 UV-I 28 W/m² -6,9 °C -4,0 °C 0,0 km/h (0 Bft)
03.03.2017 07:39 -4,0 °C -4,0 °C 80 % 1015,0 hPa 0,0 mm 0,0 km/h (0 Bft) S-SO 165 ° 0 min 0,000 mm 0,0 UV-I 26 W/m² -6,9 °C -4,0 °C 0,0 km/h (0 Bft)
03.03.2017 07:40 -4,0 °C -4,0 °C 80 % 1015,0 hPa 0,0 mm 0,3 km/h (0 Bft) S-SO 165 ° 0 min 0,000 mm 0,0 UV-I 25 W/m² -6,9 °C -4,0 °C 1,6 km/h (1 Bft)
03.03.2017 07:41 -3,9 °C -3,9 °C 80 % 1015,1 hPa 0,0 mm 0,4 km/h (0 Bft) S-SO 165 ° 0 min 0,000 mm 0,0 UV-I 25 W/m² -6,8 °C -3,9 °C 1,6 km/h (1 Bft)
03.03.2017 07:42 -3,9 °C -3,9 °C 81 % 1015,1 hPa 0,0 mm 0,0 km/h (0 Bft) S-SO 165 ° 0 min 0,000 mm 0,0 UV-I 25 W/m² -6,7 °C -3,9 °C 0,0 km/h (0 Bft)
03.03.2017 07:43 -3,9 °C -3,9 °C 81 % 1015,1 hPa 0,0 mm 0,1 km/h (0 Bft) S-SO 165 ° 0 min 0,000 mm 0,0 UV-I 26 W/m² -6,7 °C -3,9 °C 1,6 km/h (1 Bft)
03.03.2017 07:44 -3,9 °C -3,8 °C 81 % 1015,1 hPa 0,0 mm 1,3 km/h (1 Bft) S-SO 165 ° 0 min 0,000 mm 0,0 UV-I 28 W/m² -6,7 °C -3,9 °C 1,6 km/h (1 Bft)
03.03.2017 07:45 -3,8 °C -3,8 °C 81 % 1015,1 hPa 0,0 mm 0,3 km/h (0 Bft) S-SO 165 ° 0 min 0,000 mm 0,0 UV-I 35 W/m² -6,6 °C -3,8 °C 1,6 km/h (1 Bft)
03.03.2017 07:46 -3,9 °C -3,8 °C 80 % 1015,2 hPa 0,0 mm 0,3 km/h (0 Bft) S-SO 165 ° 0 min 0,000 mm 0,0 UV-I 40 W/m² -6,8 °C -3,9 °C 1,6 km/h (1 Bft)
03.03.2017 07:47 -3,9 °C -3,8 °C 80 % 1015,2 hPa 0,0 mm 0,1 km/h (0 Bft) S-SO 165 ° 0 min 0,000 mm 0,0 UV-I 46 W/m² -6,8 °C -3,9 °C 1,6 km/h (1 Bft)
03.03.2017 07:48 -3,8 °C -3,8 °C 80 % 1015,2 hPa 0,0 mm 0,1 km/h (0 Bft) S-SO 165 ° 0 min 0,000 mm 0,0 UV-I 51 W/m² -6,7 °C -3,8 °C 1,6 km/h (1 Bft)
03.03.2017 07:49 -3,8 °C -3,8 °C 81 % 1015,1 hPa 0,0 mm 0,0 km/h (0 Bft) S-SO 165 ° 0 min 0,000 mm 0,0 UV-I 56 W/m² -6,6 °C -3,8 °C 0,0 km/h (0 Bft)
03.03.2017 07:50 -3,8 °C -3,8 °C 81 % 1015,2 hPa 0,0 mm 0,9 km/h (0 Bft) S-SO 165 ° 0 min 0,000 mm 0,0 UV-I 62 W/m² -6,6 °C -3,8 °C 1,6 km/h (1 Bft)
03.03.2017 07:51 -3,8 °C -3,8 °C 81 % 1015,1 hPa 0,0 mm 0,3 km/h (0 Bft) S-SO 165 ° 0 min 0,000 mm 0,0 UV-I 67 W/m² -6,6 °C -3,8 °C 1,6 km/h (1 Bft)
03.03.2017 07:52 -3,8 °C -3,8 °C 81 % 1015,1 hPa 0,0 mm 0,0 km/h (0 Bft) S-SO 165 ° 0 min 0,000 mm 0,0 UV-I 70 W/m² -6,6 °C -3,8 °C 0,0 km/h (0 Bft)
03.03.2017 07:53 -3,8 °C -3,8 °C 81 % 1015,1 hPa 0,0 mm 0,4 km/h (0 Bft) S-SO 165 ° 0 min 0,000 mm 0,0 UV-I 72 W/m² -6,6 °C -3,8 °C 1,6 km/h (1 Bft)
03.03.2017 07:54 -3,8 °C -3,8 °C 81 % 1015,1 hPa 0,0 mm 0,3 km/h (0 Bft) S-SO 165 ° 0 min 0,000 mm 0,0 UV-I 76 W/m² -6,6 °C -3,8 °C 1,6 km/h (1 Bft)
03.03.2017 07:55 -3,8 °C -3,8 °C 81 % 1015,1 hPa 0,0 mm 0,0 km/h (0 Bft) S-SO 165 ° 0 min 0,000 mm 0,0 UV-I 77 W/m² -6,6 °C -3,8 °C 0,0 km/h (0 Bft)
03.03.2017 07:56 -3,8 °C -3,8 °C 81 % 1015,1 hPa 0,0 mm 0,0 km/h (0 Bft) S-SO 165 ° 0 min 0,000 mm 0,0 UV-I 77 W/m² -6,6 °C -3,8 °C 0,0 km/h (0 Bft)
03.03.2017 07:57 -3,7 °C -3,7 °C 82 % 1015,0 hPa 0,0 mm 0,4 km/h (0 Bft) S-SO 165 ° 0 min 0,000 mm 0,0 UV-I 76 W/m² -6,3 °C -3,7 °C 1,6 km/h (1 Bft)
03.03.2017 07:58 -3,6 °C -3,6 °C 81 % 1015,0 hPa 0,0 mm 0,1 km/h (0 Bft) S-SO 165 ° 0 min 0,000 mm 0,0 UV-I 76 W/m² -6,4 °C -3,6 °C 1,6 km/h (1 Bft)
03.03.2017 07:59 -3,6 °C -3,6 °C 81 % 1015,0 hPa 0,0 mm 2,3 km/h (1 Bft) S-SO 165 ° 0 min 0,000 mm 0,0 UV-I 77 W/m² -6,4 °C -3,6 °C 3,2 km/h (1 Bft)
03.03.2017 08:00 -3,6 °C -3,6 °C 81 % 1015,0 hPa 0,0 mm 2,4 km/h (1 Bft) S-SO 165 ° 0 min 0,000 mm 0,0 UV-I 79 W/m² -6,4 °C -3,6 °C 3,2 km/h (1 Bft)
03.03.2017 08:01 -3,6 °C -3,6 °C 81 % 1015,0 hPa 0,0 mm 1,7 km/h (1 Bft) S-SO 165 ° 0 min 0,000 mm 0,0 UV-I 83 W/m² -6,4 °C -3,6 °C 3,2 km/h (1 Bft)
03.03.2017 08:02 -3,5 °C -3,5 °C 81 % 1015,0 hPa 0,0 mm 1,9 km/h (1 Bft) S-SO 165 ° 0 min 0,000 mm 0,5 UV-I 86 W/m² -6,3 °C -3,5 °C 3,2 km/h (1 Bft)
03.03.2017 08:03 -3,4 °C -3,4 °C 81 % 1015,0 hPa 0,0 mm 1,8 km/h (1 Bft) S-SO 165 ° 0 min 0,000 mm 0,5 UV-I 91 W/m² -6,2 °C -3,4 °C 3,2 km/h (1 Bft)
03.03.2017 08:04 -3,4 °C -3,4 °C 81 % 1015,0 hPa 0,0 mm 0,3 km/h (0 Bft) S-SO 165 ° 0 min 0,000 mm 0,5 UV-I 90 W/m² -6,2 °C -3,4 °C 1,6 km/h (1 Bft)
03.03.2017 08:05 -3,4 °C -3,4 °C 81 % 1015,0 hPa 0,0 mm 0,7 km/h (0 Bft) S-SO 165 ° 0 min 0,000 mm 0,5 UV-I 86 W/m² -6,2 °C -3,4 °C 1,6 km/h (1 Bft)
03.03.2017 08:06 -3,3 °C -3,3 °C 80 % 1015,0 hPa 0,0 mm 1,6 km/h (1 Bft) S-SO 165 ° 0 min 0,000 mm 0,5 UV-I 84 W/m² -6,2 °C -3,3 °C 1,6 km/h (1 Bft)
03.03.2017 08:07 -3,3 °C -3,3 °C 80 % 1015,0 hPa 0,0 mm 0,6 km/h (0 Bft) S-SO 165 ° 0 min 0,000 mm 0,5 UV-I 83 W/m² -6,2 °C -3,3 °C 1,6 km/h (1 Bft)
03.03.2017 08:08 -3,2 °C -3,2 °C 80 % 1015,0 hPa 0,0 mm 1,2 km/h (1 Bft) S-SO 165 ° 0 min 0,000 mm 0,5 UV-I 83 W/m² -6,1 °C -3,2 °C 1,6 km/h (1 Bft)
03.03.2017 08:09 -3,2 °C -3,2 °C 80 % 1015,0 hPa 0,0 mm 0,3 km/h (0 Bft) S-SO 165 ° 0 min 0,000 mm 0,5 UV-I 84 W/m² -6,1 °C -3,2 °C 1,6 km/h (1 Bft)
03.03.2017 08:10 -3,1 °C -3,1 °C 80 % 1015,0 hPa 0,0 mm 0,2 km/h (0 Bft) S-SO 165 ° 0 min 0,000 mm 0,5 UV-I 86 W/m² -6,0 °C -3,1 °C 1,6 km/h (1 Bft)
03.03.2017 08:11 -3,0 °C -3,0 °C 80 % 1015,0 hPa 0,0 mm 0,7 km/h (0 Bft) S-SO 165 ° 0 min 0,000 mm 0,5 UV-I 88 W/m² -6,0 °C -3,0 °C 1,6 km/h (1 Bft)
03.03.2017 08:12 -3,0 °C -3,0 °C 80 % 1015,0 hPa 0,0 mm 1,9 km/h (1 Bft) S-SO 165 ° 0 min 0,000 mm 0,5 UV-I 90 W/m² -6,0 °C -3,0 °C 3,2 km/h (1 Bft)
03.03.2017 08:13 -2,9 °C -2,9 °C 80 % 1014,9 hPa 0,0 mm 1,9 km/h (1 Bft) S-SO 165 ° 0 min 0,000 mm 0,5 UV-I 90 W/m² -5,9 °C -2,9 °C 3,2 km/h (1 Bft)
03.03.2017 08:14 -2,9 °C -2,9 °C 80 % 1014,9 hPa 0,0 mm 1,6 km/h (1 Bft) S-SO 165 ° 0 min 0,000 mm 0,6 UV-I 93 W/m² -5,9 °C -2,9 °C 3,2 km/h (1 Bft)
03.03.2017 08:15 -2,8 °C -2,8 °C 80 % 1015,0 hPa 0,0 mm 0,3 km/h (0 Bft) S-SO 165 ° 0 min 0,000 mm 0,6 UV-I 95 W/m² -5,8 °C -2,8 °C 1,6 km/h (1 Bft)
03.03.2017 08:16 -2,8 °C -2,8 °C 80 % 1014,9 hPa 0,0 mm 0,0 km/h (0 Bft) S-SO 165 ° 0 min 0,000 mm 0,6 UV-I 97 W/m² -5,8 °C -2,8 °C 0,0 km/h (0 Bft)
03.03.2017 08:17 -2,7 °C -2,7 °C 79 % 1015,0 hPa 0,0 mm 0,0 km/h (0 Bft) S-SO 165 ° 0 min 0,000 mm 0,6 UV-I 97 W/m² -5,8 °C -2,7 °C 0,0 km/h (0 Bft)
03.03.2017 08:18 -2,6 °C -2,6 °C 77 % 1015,0 hPa 0,0 mm 0,3 km/h (0 Bft) S-SO 165 ° 0 min 0,000 mm 0,6 UV-I 95 W/m² -6,1 °C -2,6 °C 1,6 km/h (1 Bft)
03.03.2017 08:19 -2,5 °C -2,5 °C 76 % 1014,9 hPa 0,0 mm 0,0 km/h (0 Bft) S-SO 165 ° 0 min 0,000 mm 0,6 UV-I 91 W/m² -6,1 °C -2,5 °C 0,0 km/h (0 Bft)
03.03.2017 08:20 -2,4 °C -2,4 °C 76 % 1014,9 hPa 0,0 mm 0,0 km/h (0 Bft) S-SO 165 ° 0 min 0,000 mm 0,6 UV-I 86 W/m² -6,0 °C -2,4 °C 0,0 km/h (0 Bft)
03.03.2017 08:21 -2,3 °C -2,3 °C 76 % 1014,9 hPa 0,0 mm 0,0 km/h (0 Bft) S-SO 165 ° 0 min 0,000 mm 0,6 UV-I 84 W/m² -5,9 °C -2,3 °C 0,0 km/h (0 Bft)
03.03.2017 08:22 -2,2 °C -2,2 °C 75 % 1014,8 hPa 0,0 mm 0,0 km/h (0 Bft) S-SO 165 ° 0 min 0,000 mm 0,6 UV-I 83 W/m² -6,0 °C -2,2 °C 0,0 km/h (0 Bft)
03.03.2017 08:23 -2,1 °C -2,1 °C 75 % 1014,9 hPa 0,0 mm 0,0 km/h (0 Bft) S-SO 165 ° 0 min 0,000 mm 0,6 UV-I 83 W/m² -5,9 °C -2,1 °C 0,0 km/h (0 Bft)
03.03.2017 08:24 -2,1 °C -2,1 °C 76 % 1014,8 hPa 0,0 mm 0,1 km/h (0 Bft) S-SO 165 ° 0 min 0,000 mm 0,6 UV-I 83 W/m² -5,7 °C -2,1 °C 1,6 km/h (1 Bft)
03.03.2017 08:25 -2,1 °C -2,1 °C 76 % 1014,7 hPa 0,0 mm 0,0 km/h (0 Bft) S-SO 165 ° 0 min 0,000 mm 0,6 UV-I 83 W/m² -5,7 °C -2,1 °C 0,0 km/h (0 Bft)
03.03.2017 08:26 -2,1 °C -2,1 °C 75 % 1014,7 hPa 0,0 mm 0,0 km/h (0 Bft) S-SO 165 ° 0 min 0,000 mm 0,6 UV-I 86 W/m² -5,9 °C -2,1 °C 0,0 km/h (0 Bft)
03.03.2017 08:27 -2,0 °C -2,0 °C 75 % 1014,8 hPa 0,0 mm 0,1 km/h (0 Bft) S-SO 165 ° 0 min 0,000 mm 0,6 UV-I 86 W/m² -5,8 °C -2,0 °C 1,6 km/h (1 Bft)
03.03.2017 08:28 -2,0 °C -2,0 °C 74 % 1014,8 hPa 0,0 mm 0,0 km/h (0 Bft) S-SO 165 ° 0 min 0,000 mm 0,6 UV-I 88 W/m² -6,0 °C -2,0 °C 0,0 km/h (0 Bft)
03.03.2017 08:29 -2,0 °C -2,0 °C 75 % 1014,8 hPa 0,0 mm 0,2 km/h (0 Bft) S-SO 165 ° 0 min 0,000 mm 0,7 UV-I 90 W/m² -5,8 °C -2,0 °C 1,6 km/h (1 Bft)
03.03.2017 08:30 -1,9 °C -1,9 °C 76 % 1014,8 hPa 0,0 mm 1,3 km/h (1 Bft) S-SO 165 ° 0 min 0,000 mm 0,7 UV-I 90 W/m² -5,6 °C -1,9 °C 1,6 km/h (1 Bft)
03.03.2017 08:31 -1,9 °C -1,9 °C 77 % 1014,8 hPa 0,0 mm 0,1 km/h (0 Bft) S-SO 165 ° 0 min 0,000 mm 0,7 UV-I 91 W/m² -5,4 °C -1,9 °C 1,6 km/h (1 Bft)
03.03.2017 08:32 -1,9 °C -1,9 °C 77 % 1014,8 hPa 0,0 mm 0,0 km/h (0 Bft) S-SO 165 ° 0 min 0,000 mm 0,7 UV-I 93 W/m² -5,4 °C -1,9 °C 0,0 km/h (0 Bft)
03.03.2017 08:33 -1,9 °C -1,9 °C 76 % 1014,8 hPa 0,0 mm 0,1 km/h (0 Bft) S-SO 165 ° 0 min 0,000 mm 0,7 UV-I 95 W/m² -5,6 °C -1,9 °C 1,6 km/h (1 Bft)
03.03.2017 08:34 -1,9 °C -1,8 °C 75 % 1014,8 hPa 0,0 mm 1,2 km/h (1 Bft) S-SO 165 ° 0 min 0,000 mm 0,7 UV-I 97 W/m² -5,7 °C -1,9 °C 1,6 km/h (1 Bft)
03.03.2017 08:35 -1,9 °C -1,9 °C 76 % 1014,8 hPa 0,0 mm 1,6 km/h (1 Bft) S-SO 165 ° 0 min 0,000 mm 0,7 UV-I 97 W/m² -5,6 °C -1,9 °C 3,2 km/h (1 Bft)
03.03.2017 08:36 -1,9 °C -1,9 °C 73 % 1014,8 hPa 0,0 mm 0,7 km/h (0 Bft) S-SO 165 ° 0 min 0,000 mm 0,7 UV-I 98 W/m² -6,1 °C -1,9 °C 1,6 km/h (1 Bft)
03.03.2017 08:37 -1,9 °C -1,9 °C 73 % 1014,8 hPa 0,0 mm 0,0 km/h (0 Bft) S-SO 165 ° 0 min 0,000 mm 0,7 UV-I 98 W/m² -6,1 °C -1,9 °C 0,0 km/h (0 Bft)
03.03.2017 08:38 -1,8 °C -1,8 °C 74 % 1014,7 hPa 0,0 mm 0,0 km/h (0 Bft) S-SO 165 ° 0 min 0,000 mm 0,7 UV-I 98 W/m² -5,8 °C -1,8 °C 0,0 km/h (0 Bft)
03.03.2017 08:39 -1,8 °C -1,8 °C 74 % 1014,7 hPa 0,0 mm 0,0 km/h (0 Bft) S-SO 165 ° 0 min 0,000 mm 0,7 UV-I 98 W/m² -5,8 °C -1,8 °C 0,0 km/h (0 Bft)
03.03.2017 08:40 -1,8 °C -1,8 °C 76 % 1014,7 hPa 0,0 mm 0,0 km/h (0 Bft) S-SO 165 ° 0 min 0,000 mm 0,7 UV-I 98 W/m² -5,5 °C -1,8 °C 0,0 km/h (0 Bft)
03.03.2017 08:41 -1,7 °C -1,7 °C 75 % 1014,6 hPa 0,0 mm 0,0 km/h (0 Bft) S-SO 165 ° 0 min 0,000 mm 0,8 UV-I 100 W/m² -5,5 °C -1,7 °C 0,0 km/h (0 Bft)
03.03.2017 08:42 -1,6 °C -1,6 °C 75 % 1014,6 hPa 0,0 mm 0,0 km/h (0 Bft) S-SO 165 ° 0 min 0,000 mm 0,8 UV-I 100 W/m² -5,4 °C -1,6 °C 0,0 km/h (0 Bft)
03.03.2017 08:43 -1,6 °C -1,6 °C 76 % 1014,7 hPa 0,0 mm 0,0 km/h (0 Bft) S-SO 165 ° 0 min 0,000 mm 0,8 UV-I 102 W/m² -5,3 °C -1,6 °C 0,0 km/h (0 Bft)
03.03.2017 08:44 -1,5 °C -1,5 °C 77 % 1014,6 hPa 0,0 mm 0,0 km/h (0 Bft) S-SO 165 ° 0 min 0,000 mm 0,8 UV-I 109 W/m² -5,0 °C -1,5 °C 0,0 km/h (0 Bft)
03.03.2017 08:45 -1,4 °C -1,4 °C 77 % 1014,6 hPa 0,0 mm 0,0 km/h (0 Bft) S-SO 165 ° 0 min 0,000 mm 0,8 UV-I 114 W/m² -4,9 °C -1,4 °C 0,0 km/h (0 Bft)
03.03.2017 08:46 -1,4 °C -1,4 °C 76 % 1014,6 hPa 0,0 mm 0,7 km/h (0 Bft) S-SO 165 ° 0 min 0,000 mm 0,9 UV-I 118 W/m² -5,1 °C -1,4 °C 1,6 km/h (1 Bft)
03.03.2017 08:47 -1,4 °C -1,4 °C 76 % 1014,6 hPa 0,0 mm 1,1 km/h (1 Bft) S-SO 165 ° 0 min 0,000 mm 0,9 UV-I 121 W/m² -5,1 °C -1,4 °C 1,6 km/h (1 Bft)
03.03.2017 08:48 -1,4 °C -1,4 °C 77 % 1014,6 hPa 0,0 mm 1,1 km/h (1 Bft) S-SO 165 ° 0 min 0,000 mm 0,9 UV-I 125 W/m² -4,9 °C -1,4 °C 1,6 km/h (1 Bft)
03.03.2017 08:49 -1,4 °C -1,4 °C 77 % 1014,6 hPa 0,0 mm 0,0 km/h (0 Bft) S-SO 165 ° 0 min 0,000 mm 0,9 UV-I 127 W/m² -4,9 °C -1,4 °C 0,0 km/h (0 Bft)
03.03.2017 08:50 -1,4 °C -1,4 °C 75 % 1014,5 hPa 0,0 mm 0,1 km/h (0 Bft) S-SO 165 ° 0 min 0,000 mm 0,9 UV-I 127 W/m² -5,2 °C -1,4 °C 1,6 km/h (1 Bft)
03.03.2017 08:51 -1,4 °C -1,4 °C 75 % 1014,6 hPa 0,0 mm 0,0 km/h (0 Bft) S-SO 165 ° 0 min 0,000 mm 0,9 UV-I 127 W/m² -5,2 °C -1,4 °C 0,0 km/h (0 Bft)
03.03.2017 08:52 -1,3 °C -1,3 °C 74 % 1014,6 hPa 0,0 mm 0,0 km/h (0 Bft) S-SO 165 ° 0 min 0,000 mm 0,9 UV-I 128 W/m² -5,3 °C -1,3 °C 0,0 km/h (0 Bft)
03.03.2017 08:53 -1,3 °C -1,3 °C 75 % 1014,6 hPa 0,0 mm 0,0 km/h (0 Bft) S-SO 165 ° 0 min 0,000 mm 0,9 UV-I 128 W/m² -5,1 °C -1,3 °C 0,0 km/h (0 Bft)
03.03.2017 08:54 -1,3 °C -1,3 °C 75 % 1014,5 hPa 0,0 mm 0,4 km/h (0 Bft) S-SO 165 ° 0 min 0,000 mm 0,9 UV-I 128 W/m² -5,1 °C -1,3 °C 1,6 km/h (1 Bft)
03.03.2017 08:55 -1,2 °C -1,2 °C 76 % 1014,5 hPa 0,0 mm 0,1 km/h (0 Bft) S-SO 165 ° 0 min 0,000 mm 0,9 UV-I 130 W/m² -4,9 °C -1,2 °C 1,6 km/h (1 Bft)
03.03.2017 08:56 -1,2 °C -1,2 °C 75 % 1014,5 hPa 0,0 mm 0,0 km/h (0 Bft) S-SO 165 ° 0 min 0,000 mm 0,9 UV-I 125 W/m² -5,0 °C -1,2 °C 0,0 km/h (0 Bft)
03.03.2017 08:57 -1,1 °C -1,1 °C 76 % 1014,5 hPa 0,0 mm 0,0 km/h (0 Bft) S-SO 165 ° 0 min 0,000 mm 0,9 UV-I 125 W/m² -4,8 °C -1,1 °C 0,0 km/h (0 Bft)
03.03.2017 08:58 -1,1 °C -1,1 °C 77 % 1014,4 hPa 0,0 mm 0,0 km/h (0 Bft) S-SO 165 ° 0 min 0,000 mm 0,9 UV-I 127 W/m² -4,6 °C -1,1 °C 0,0 km/h (0 Bft)
03.03.2017 08:59 -1,0 °C -1,0 °C 75 % 1014,5 hPa 0,0 mm 0,0 km/h (0 Bft) S-SO 165 ° 0 min 0,000 mm 0,9 UV-I 128 W/m² -4,9 °C -1,0 °C 0,0 km/h (0 Bft)
03.03.2017 09:00 -0,9 °C -0,9 °C 75 % 1014,5 hPa 0,0 mm 0,0 km/h (0 Bft) S-SO 165 ° 0 min 0,000 mm 0,9 UV-I 128 W/m² -4,8 °C -0,9 °C 0,0 km/h (0 Bft)
03.03.2017 09:01 -0,9 °C -0,9 °C 74 % 1014,5 hPa 0,0 mm 0,0 km/h (0 Bft) S-SO 165 ° 0 min 0,025 mm 0,9 UV-I 130 W/m² -4,9 °C -0,9 °C 0,0 km/h (0 Bft)
03.03.2017 09:02 -0,8 °C -0,8 °C 73 % 1014,5 hPa 0,0 mm 0,0 km/h (0 Bft) S-SO 165 ° 0 min 0,000 mm 0,9 UV-I 134 W/m² -5,0 °C -0,8 °C 0,0 km/h (0 Bft)
03.03.2017 09:03 -0,8 °C -0,8 °C 74 % 1014,4 hPa 0,0 mm 0,0 km/h (0 Bft) S-SO 165 ° 0 min 0,000 mm 1,0 UV-I 137 W/m² -4,8 °C -0,8 °C 0,0 km/h (0 Bft)
03.03.2017 09:04 -0,8 °C -0,8 °C 75 % 1014,4 hPa 0,0 mm 0,0 km/h (0 Bft) S-SO 165 ° 0 min 0,000 mm 1,0 UV-I 139 W/m² -4,7 °C -0,8 °C 0,0 km/h (0 Bft)
03.03.2017 09:05 -0,8 °C -0,8 °C 75 % 1014,4 hPa 0,0 mm 0,0 km/h (0 Bft) S-SO 165 ° 0 min 0,000 mm 1,0 UV-I 142 W/m² -4,7 °C -0,8 °C 0,0 km/h (0 Bft)
03.03.2017 09:06 -0,7 °C -0,7 °C 75 % 1014,3 hPa 0,0 mm 0,0 km/h (0 Bft) S-SO 165 ° 0 min 0,000 mm 1,0 UV-I 146 W/m² -4,6 °C -0,7 °C 0,0 km/h (0 Bft)
03.03.2017 09:07 -0,7 °C -0,7 °C 75 % 1014,4 hPa 0,0 mm 0,0 km/h (0 Bft) S-SO 165 ° 0 min 0,000 mm 1,0 UV-I 153 W/m² -4,6 °C -0,7 °C 0,0 km/h (0 Bft)
03.03.2017 09:08 -0,6 °C -0,6 °C 75 % 1014,3 hPa 0,0 mm 0,0 km/h (0 Bft) S-SO 165 ° 0 min 0,000 mm 1,0 UV-I 153 W/m² -4,5 °C -0,6 °C 0,0 km/h (0 Bft)
03.03.2017 09:09 -0,6 °C -0,6 °C 75 % 1014,3 hPa 0,0 mm 0,0 km/h (0 Bft) S-SO 165 ° 0 min 0,000 mm 1,0 UV-I 151 W/m² -4,5 °C -0,6 °C 0,0 km/h (0 Bft)
03.03.2017 09:10 -0,6 °C -0,6 °C 74 % 1014,3 hPa 0,0 mm 0,0 km/h (0 Bft) S-SO 165 ° 0 min 0,000 mm 1,0 UV-I 153 W/m² -4,6 °C -0,6 °C 0,0 km/h (0 Bft)
03.03.2017 09:11 -0,5 °C -0,5 °C 74 % 1014,3 hPa 0,0 mm 0,0 km/h (0 Bft) S-SO 165 ° 0 min 0,000 mm 1,0 UV-I 153 W/m² -4,5 °C -0,5 °C 0,0 km/h (0 Bft)
03.03.2017 09:12 -0,5 °C -0,5 °C 76 % 1014,3 hPa 0,0 mm 0,0 km/h (0 Bft) S-SO 165 ° 0 min 0,000 mm 1,0 UV-I 151 W/m² -4,2 °C -0,5 °C 0,0 km/h (0 Bft)
03.03.2017 09:13 -0,4 °C -0,4 °C 75 % 1014,3 hPa 0,0 mm 0,0 km/h (0 Bft) S-SO 165 ° 0 min 0,000 mm 1,0 UV-I 151 W/m² -4,3 °C -0,4 °C 0,0 km/h (0 Bft)
03.03.2017 09:14 -0,4 °C -0,4 °C 74 % 1014,3 hPa 0,0 mm 0,5 km/h (0 Bft) S-SO 165 ° 0 min 0,000 mm 1,1 UV-I 155 W/m² -4,5 °C -0,4 °C 1,6 km/h (1 Bft)
03.03.2017 09:15 -0,3 °C -0,3 °C 73 % 1014,3 hPa 0,0 mm 0,0 km/h (0 Bft) S-SO 165 ° 0 min 0,000 mm 1,1 UV-I 156 W/m² -4,5 °C -0,3 °C 0,0 km/h (0 Bft)
03.03.2017 09:16 -0,1 °C -0,1 °C 75 % 1014,3 hPa 0,0 mm 0,0 km/h (0 Bft) S-SO 165 ° 0 min 0,000 mm 1,1 UV-I 158 W/m² -4,0 °C -0,1 °C 0,0 km/h (0 Bft)
03.03.2017 09:17 -0,1 °C -0,1 °C 75 % 1014,3 hPa 0,0 mm 0,0 km/h (0 Bft) S-SO 165 ° 0 min 0,000 mm 1,1 UV-I 160 W/m² -4,0 °C -0,1 °C 0,0 km/h (0 Bft)
03.03.2017 09:18 0,0 °C 0,1 °C 73 % 1014,3 hPa 0,0 mm 0,0 km/h (0 Bft) S-SO 165 ° 0 min 0,000 mm 1,1 UV-I 158 W/m² -4,2 °C 0,0 °C 0,0 km/h (0 Bft)
03.03.2017 09:19 0,1 °C 0,1 °C 73 % 1014,3 hPa 0,0 mm 0,0 km/h (0 Bft) S-SO 165 ° 0 min 0,000 mm 1,1 UV-I 158 W/m² -4,2 °C 0,1 °C 0,0 km/h (0 Bft)
03.03.2017 09:20 0,1 °C 0,2 °C 74 % 1014,3 hPa 0,0 mm 0,0 km/h (0 Bft) S-SO 165 ° 0 min 0,000 mm 1,1 UV-I 160 W/m² -4,0 °C 0,1 °C 0,0 km/h (0 Bft)
03.03.2017 09:21 0,1 °C 0,2 °C 73 % 1014,3 hPa 0,0 mm 0,0 km/h (0 Bft) S-SO 165 ° 0 min 0,000 mm 1,1 UV-I 167 W/m² -4,2 °C 0,1 °C 0,0 km/h (0 Bft)
03.03.2017 09:22 0,1 °C 0,1 °C 72 % 1014,3 hPa 0,0 mm 1,8 km/h (1 Bft) S-SO 165 ° 0 min 0,000 mm 1,2 UV-I 169 W/m² -4,3 °C 0,1 °C 3,2 km/h (1 Bft)
03.03.2017 09:23 0,2 °C 0,2 °C 71 % 1014,3 hPa 0,0 mm 0,3 km/h (0 Bft) S-SO 165 ° 0 min 0,000 mm 1,2 UV-I 174 W/m² -4,4 °C 0,2 °C 1,6 km/h (1 Bft)
03.03.2017 09:24 0,2 °C 0,2 °C 73 % 1014,3 hPa 0,0 mm 0,0 km/h (0 Bft) S-SO 165 ° 0 min 0,000 mm 1,2 UV-I 174 W/m² -4,1 °C 0,2 °C 0,0 km/h (0 Bft)
03.03.2017 09:25 0,2 °C 0,2 °C 73 % 1014,3 hPa 0,0 mm 0,0 km/h (0 Bft) S-SO 165 ° 0 min 0,000 mm 1,2 UV-I 178 W/m² -4,1 °C 0,2 °C 0,0 km/h (0 Bft)
03.03.2017 09:26 0,3 °C 0,3 °C 71 % 1014,3 hPa 0,0 mm 0,0 km/h (0 Bft) S-SO 165 ° 0 min 0,000 mm 1,2 UV-I 181 W/m² -4,3 °C 0,3 °C 0,0 km/h (0 Bft)
03.03.2017 09:27 0,4 °C 0,4 °C 70 % 1014,3 hPa 0,0 mm 0,0 km/h (0 Bft) S-SO 165 ° 0 min 0,000 mm 1,3 UV-I 183 W/m² -4,4 °C 0,4 °C 0,0 km/h (0 Bft)
03.03.2017 09:28 0,4 °C 0,4 °C 73 % 1014,3 hPa 0,0 mm 0,0 km/h (0 Bft) S-SO 165 ° 0 min 0,000 mm 1,3 UV-I 185 W/m² -3,9 °C 0,4 °C 0,0 km/h (0 Bft)
03.03.2017 09:29 0,5 °C 0,5 °C 70 % 1014,3 hPa 0,0 mm 0,0 km/h (0 Bft) S-SO 165 ° 0 min 0,000 mm 1,3 UV-I 190 W/m² -4,3 °C 0,5 °C 0,0 km/h (0 Bft)
03.03.2017 09:30 0,6 °C 0,6 °C 70 % 1014,3 hPa 0,0 mm 0,5 km/h (0 Bft) S-SO 165 ° 0 min 0,000 mm 1,3 UV-I 186 W/m² -4,2 °C 0,6 °C 1,6 km/h (1 Bft)
03.03.2017 09:31 0,6 °C 0,6 °C 71 % 1014,2 hPa 0,0 mm 0,9 km/h (0 Bft) S-SO 165 ° 0 min 0,000 mm 1,3 UV-I 190 W/m² -4,0 °C 0,6 °C 1,6 km/h (1 Bft)
03.03.2017 09:32 0,6 °C 0,6 °C 71 % 1014,2 hPa 0,0 mm 0,1 km/h (0 Bft) S-SO 165 ° 0 min 0,000 mm 1,3 UV-I 190 W/m² -4,0 °C 0,6 °C 1,6 km/h (1 Bft)
03.03.2017 09:33 0,7 °C 0,7 °C 70 % 1014,2 hPa 0,0 mm 0,0 km/h (0 Bft) S-SO 165 ° 0 min 0,000 mm 1,3 UV-I 192 W/m² -4,1 °C 0,7 °C 0,0 km/h (0 Bft)
03.03.2017 09:34 0,7 °C 0,7 °C 71 % 1014,3 hPa 0,0 mm 0,0 km/h (0 Bft) S-SO 165 ° 0 min 0,000 mm 1,3 UV-I 181 W/m² -3,9 °C 0,7 °C 0,0 km/h (0 Bft)
03.03.2017 09:35 0,8 °C 0,8 °C 72 % 1014,3 hPa 0,0 mm 0,1 km/h (0 Bft) S-SO 165 ° 0 min 0,000 mm 1,3 UV-I 185 W/m² -3,7 °C 0,8 °C 1,6 km/h (1 Bft)
03.03.2017 09:36 0,8 °C 0,8 °C 70 % 1014,2 hPa 0,0 mm 0,0 km/h (0 Bft) S-SO 165 ° 0 min 0,000 mm 1,3 UV-I 197 W/m² -4,0 °C 0,8 °C 0,0 km/h (0 Bft)
03.03.2017 09:37 0,9 °C 0,9 °C 70 % 1014,2 hPa 0,0 mm 1,1 km/h (1 Bft) S-SO 165 ° 1 min 0,000 mm 1,4 UV-I 229 W/m² -3,9 °C 0,9 °C 3,2 km/h (1 Bft)
03.03.2017 09:38 0,9 °C 1,0 °C 70 % 1014,2 hPa 0,0 mm 1,0 km/h (0 Bft) S-SO 165 ° 1 min 0,000 mm 1,5 UV-I 229 W/m² -3,9 °C 0,9 °C 1,6 km/h (1 Bft)
03.03.2017 09:39 1,1 °C 1,1 °C 69 % 1014,1 hPa 0,0 mm 0,5 km/h (0 Bft) S-SO 165 ° 1 min 0,000 mm 1,5 UV-I 232 W/m² -3,9 °C 1,1 °C 1,6 km/h (1 Bft)
03.03.2017 09:40 1,1 °C 1,1 °C 70 % 1014,1 hPa 0,0 mm 1,1 km/h (1 Bft) S-SO 165 ° 1 min 0,000 mm 1,5 UV-I 234 W/m² -3,7 °C 1,1 °C 1,6 km/h (1 Bft)
03.03.2017 09:41 1,1 °C 1,1 °C 72 % 1014,0 hPa 0,0 mm 0,3 km/h (0 Bft) S-SO 165 ° 1 min 0,000 mm 1,5 UV-I 225 W/m² -3,4 °C 1,1 °C 1,6 km/h (1 Bft)
03.03.2017 09:42 1,2 °C 1,2 °C 72 % 1014,0 hPa 0,0 mm 0,0 km/h (0 Bft) S-SO 165 ° 1 min 0,000 mm 1,5 UV-I 206 W/m² -3,3 °C 1,2 °C 0,0 km/h (0 Bft)
03.03.2017 09:43 1,3 °C 1,3 °C 70 % 1014,0 hPa 0,0 mm 0,0 km/h (0 Bft) S-SO 165 ° 0 min 0,000 mm 1,5 UV-I 199 W/m² -3,6 °C 1,3 °C 0,0 km/h (0 Bft)
03.03.2017 09:44 1,3 °C 1,3 °C 69 % 1014,0 hPa 0,0 mm 0,1 km/h (0 Bft) S-SO 165 ° 1 min 0,000 mm 1,4 UV-I 206 W/m² -3,7 °C 1,3 °C 1,6 km/h (1 Bft)
03.03.2017 09:45 1,4 °C 1,4 °C 69 % 1014,0 hPa 0,0 mm 0,5 km/h (0 Bft) S-SO 165 ° 1 min 0,000 mm 1,5 UV-I 213 W/m² -3,7 °C 1,4 °C 1,6 km/h (1 Bft)
03.03.2017 09:46 1,4 °C 1,4 °C 68 % 1014,0 hPa 0,0 mm 0,6 km/h (0 Bft) S-SO 165 ° 1 min 0,000 mm 1,5 UV-I 211 W/m² -3,8 °C 1,4 °C 1,6 km/h (1 Bft)
03.03.2017 09:47 1,6 °C 1,6 °C 69 % 1014,0 hPa 0,0 mm 0,0 km/h (0 Bft) S-SO 165 ° 1 min 0,000 mm 1,5 UV-I 209 W/m² -3,5 °C 1,6 °C 0,0 km/h (0 Bft)
03.03.2017 09:48 1,7 °C 1,7 °C 67 % 1014,0 hPa 0,0 mm 0,0 km/h (0 Bft) S-SO 165 ° 1 min 0,000 mm 1,5 UV-I 221 W/m² -3,8 °C 1,7 °C 0,0 km/h (0 Bft)
03.03.2017 09:49 1,8 °C 1,8 °C 66 % 1014,0 hPa 0,0 mm 0,0 km/h (0 Bft) S-SO 165 ° 1 min 0,000 mm 1,5 UV-I 255 W/m² -3,9 °C 1,8 °C 0,0 km/h (0 Bft)
03.03.2017 09:50 1,9 °C 1,9 °C 66 % 1014,0 hPa 0,0 mm 0,0 km/h (0 Bft) S-SO 165 ° 1 min 0,000 mm 1,6 UV-I 287 W/m² -3,8 °C 1,9 °C 0,0 km/h (0 Bft)
03.03.2017 09:51 2,0 °C 2,0 °C 66 % 1013,9 hPa 0,0 mm 0,0 km/h (0 Bft) S-SO 165 ° 1 min 0,000 mm 1,7 UV-I 276 W/m² -3,7 °C 2,0 °C 0,0 km/h (0 Bft)
03.03.2017 09:52 2,1 °C 2,1 °C 65 % 1013,9 hPa 0,0 mm 1,1 km/h (1 Bft) S-SO 165 ° 1 min 0,000 mm 1,7 UV-I 283 W/m² -3,8 °C 2,1 °C 1,6 km/h (1 Bft)
03.03.2017 09:53 2,2 °C 2,2 °C 65 % 1013,9 hPa 0,0 mm 0,3 km/h (0 Bft) S-SO 165 ° 1 min 0,000 mm 1,7 UV-I 287 W/m² -3,7 °C 2,2 °C 1,6 km/h (1 Bft)
03.03.2017 09:54 2,2 °C 2,3 °C 66 % 1013,9 hPa 0,0 mm 1,1 km/h (1 Bft) S-SO 165 ° 1 min 0,000 mm 1,7 UV-I 253 W/m² -3,5 °C 2,2 °C 1,6 km/h (1 Bft)
03.03.2017 09:55 2,3 °C 2,3 °C 65 % 1013,8 hPa 0,0 mm 0,0 km/h (0 Bft) S-SO 165 ° 1 min 0,000 mm 1,7 UV-I 239 W/m² -3,6 °C 2,3 °C 0,0 km/h (0 Bft)
03.03.2017 09:56 2,3 °C 2,3 °C 65 % 1013,8 hPa 0,0 mm 0,0 km/h (0 Bft) S-SO 165 ° 1 min 0,000 mm 1,6 UV-I 209 W/m² -3,6 °C 2,3 °C 0,0 km/h (0 Bft)
03.03.2017 09:57 2,3 °C 2,3 °C 65 % 1013,8 hPa 0,0 mm 0,1 km/h (0 Bft) S-SO 165 ° 1 min 0,000 mm 1,6 UV-I 200 W/m² -3,6 °C 2,3 °C 1,6 km/h (1 Bft)
03.03.2017 09:58 2,3 °C 2,3 °C 64 % 1013,8 hPa 0,0 mm 0,1 km/h (0 Bft) S-SO 165 ° 1 min 0,000 mm 1,6 UV-I 200 W/m² -3,8 °C 2,3 °C 1,6 km/h (1 Bft)
03.03.2017 09:59 2,4 °C 2,4 °C 63 % 1013,8 hPa 0,0 mm 0,0 km/h (0 Bft) S-SO 165 ° 1 min 0,000 mm 1,6 UV-I 204 W/m² -3,9 °C 2,4 °C 0,0 km/h (0 Bft)
03.03.2017 10:00 2,4 °C 2,4 °C 63 % 1013,8 hPa 0,0 mm 0,0 km/h (0 Bft) S-SO 165 ° 1 min 0,000 mm 1,6 UV-I 258 W/m² -3,9 °C 2,4 °C 0,0 km/h (0 Bft)
03.03.2017 10:01 2,7 °C 2,7 °C 63 % 1013,8 hPa 0,0 mm 0,1 km/h (0 Bft) S-SO 165 ° 1 min 0,077 mm 1,8 UV-I 255 W/m² -3,6 °C 2,7 °C 1,6 km/h (1 Bft)
03.03.2017 10:02 2,8 °C 2,8 °C 63 % 1013,8 hPa 0,0 mm 1,0 km/h (0 Bft) S-SO 165 ° 1 min 0,000 mm 1,7 UV-I 241 W/m² -3,5 °C 2,8 °C 1,6 km/h (1 Bft)
03.03.2017 10:03 3,0 °C 3,0 °C 61 % 1013,7 hPa 0,0 mm 1,0 km/h (0 Bft) S-SO 165 ° 1 min 0,000 mm 1,7 UV-I 234 W/m² -3,8 °C 3,0 °C 3,2 km/h (1 Bft)
03.03.2017 10:04 3,1 °C 3,1 °C 60 % 1013,8 hPa 0,0 mm 2,4 km/h (1 Bft) S-SO 165 ° 1 min 0,000 mm 1,7 UV-I 229 W/m² -3,9 °C 3,1 °C 3,2 km/h (1 Bft)
03.03.2017 10:05 3,2 °C 3,2 °C 60 % 1013,7 hPa 0,0 mm 2,5 km/h (1 Bft) S-SO 165 ° 1 min 0,000 mm 1,7 UV-I 229 W/m² -3,8 °C 3,2 °C 3,2 km/h (1 Bft)
03.03.2017 10:06 3,3 °C 3,3 °C 60 % 1013,7 hPa 0,0 mm 2,0 km/h (1 Bft) S-SO 165 ° 1 min 0,000 mm 1,7 UV-I 241 W/m² -3,7 °C 3,3 °C 3,2 km/h (1 Bft)
03.03.2017 10:07 3,5 °C 3,5 °C 59 % 1013,7 hPa 0,0 mm 1,7 km/h (1 Bft) S-SO 165 ° 1 min 0,000 mm 1,8 UV-I 241 W/m² -3,7 °C 3,5 °C 3,2 km/h (1 Bft)
03.03.2017 10:08 3,6 °C 3,6 °C 58 % 1013,6 hPa 0,0 mm 1,7 km/h (1 Bft) S-SO 165 ° 1 min 0,000 mm 1,8 UV-I 257 W/m² -3,9 °C 3,6 °C 3,2 km/h (1 Bft)
03.03.2017 10:09 3,7 °C 3,7 °C 58 % 1013,6 hPa 0,0 mm 1,3 km/h (1 Bft) S-SO 165 ° 1 min 0,000 mm 1,8 UV-I 278 W/m² -3,8 °C 3,7 °C 3,2 km/h (1 Bft)
03.03.2017 10:10 3,7 °C 3,7 °C 57 % 1013,6 hPa 0,0 mm 0,7 km/h (0 Bft) S-SO 165 ° 1 min 0,000 mm 1,8 UV-I 274 W/m² -4,0 °C 3,7 °C 1,6 km/h (1 Bft)
03.03.2017 10:11 3,7 °C 3,7 °C 57 % 1013,6 hPa 0,0 mm 0,1 km/h (0 Bft) S-SO 165 ° 1 min 0,000 mm 1,8 UV-I 264 W/m² -4,0 °C 3,7 °C 1,6 km/h (1 Bft)
03.03.2017 10:12 3,8 °C 3,8 °C 60 % 1013,6 hPa 0,0 mm 0,2 km/h (0 Bft) S-SO 165 ° 1 min 0,000 mm 1,8 UV-I 290 W/m² -3,2 °C 3,8 °C 1,6 km/h (1 Bft)
03.03.2017 10:13 3,9 °C 3,9 °C 57 % 1013,6 hPa 0,0 mm 0,0 km/h (0 Bft) S-SO 165 ° 1 min 0,000 mm 1,9 UV-I 315 W/m² -3,8 °C 3,9 °C 0,0 km/h (0 Bft)
03.03.2017 10:14 4,1 °C 4,1 °C 56 % 1013,6 hPa 0,0 mm 0,0 km/h (0 Bft) S-SO 165 ° 1 min 0,000 mm 2,0 UV-I 336 W/m² -3,9 °C 4,1 °C 0,0 km/h (0 Bft)
03.03.2017 10:15 4,2 °C 4,2 °C 57 % 1013,6 hPa 0,0 mm 0,5 km/h (0 Bft) S-SO 165 ° 1 min 0,000 mm 2,0 UV-I 336 W/m² -3,5 °C 4,2 °C 1,6 km/h (1 Bft)
03.03.2017 10:16 4,4 °C 4,4 °C 58 % 1013,5 hPa 0,0 mm 2,7 km/h (1 Bft) S-SO 165 ° 1 min 0,000 mm 2,0 UV-I 348 W/m² -3,1 °C 4,4 °C 6,4 km/h (2 Bft)
03.03.2017 10:17 4,4 °C 4,4 °C 62 % 1013,5 hPa 0,0 mm 0,2 km/h (0 Bft) S-SO 165 ° 1 min 0,000 mm 2,0 UV-I 364 W/m² -2,2 °C 4,4 °C 1,6 km/h (1 Bft)
03.03.2017 10:18 4,6 °C 4,6 °C 61 % 1013,5 hPa 0,0 mm 0,2 km/h (0 Bft) S-SO 165 ° 1 min 0,000 mm 2,1 UV-I 360 W/m² -2,3 °C 4,6 °C 1,6 km/h (1 Bft)
03.03.2017 10:19 4,8 °C 4,8 °C 58 % 1013,5 hPa 0,0 mm 0,1 km/h (0 Bft) S-SO 165 ° 1 min 0,000 mm 2,1 UV-I 369 W/m² -2,7 °C 4,8 °C 1,6 km/h (1 Bft)
03.03.2017 10:20 4,9 °C 4,9 °C 60 % 1013,5 hPa 0,0 mm 0,0 km/h (0 Bft) S-SO 165 ° 1 min 0,000 mm 2,2 UV-I 383 W/m² -2,2 °C 4,9 °C 0,0 km/h (0 Bft)
03.03.2017 10:21 4,9 °C 4,9 °C 58 % 1013,5 hPa 0,0 mm 1,7 km/h (1 Bft) S-SO 165 ° 1 min 0,000 mm 2,2 UV-I 396 W/m² -2,7 °C 4,9 °C 3,2 km/h (1 Bft)
03.03.2017 10:22 5,0 °C 5,0 °C 56 % 1013,5 hPa 0,0 mm 0,4 km/h (0 Bft) S-SO 165 ° 1 min 0,000 mm 2,2 UV-I 394 W/m² -3,0 °C 5,0 °C 1,6 km/h (1 Bft)
03.03.2017 10:23 5,0 °C 5,0 °C 56 % 1013,5 hPa 0,0 mm 0,9 km/h (0 Bft) S-SO 165 ° 1 min 0,000 mm 2,1 UV-I 385 W/m² -3,0 °C 5,0 °C 1,6 km/h (1 Bft)
03.03.2017 10:24 5,1 °C 5,1 °C 58 % 1013,4 hPa 0,0 mm 0,3 km/h (0 Bft) S-SO 165 ° 1 min 0,000 mm 2,1 UV-I 383 W/m² -2,5 °C 5,1 °C 1,6 km/h (1 Bft)
03.03.2017 10:25 5,1 °C 5,1 °C 56 % 1013,5 hPa 0,0 mm 0,9 km/h (0 Bft) S-SO 165 ° 1 min 0,000 mm 2,0 UV-I 346 W/m² -2,9 °C 5,1 °C 1,6 km/h (1 Bft)
03.03.2017 10:26 5,2 °C 5,2 °C 56 % 1013,4 hPa 0,0 mm 0,1 km/h (0 Bft) S-SO 165 ° 1 min 0,000 mm 2,0 UV-I 343 W/m² -2,8 °C 5,2 °C 1,6 km/h (1 Bft)
03.03.2017 10:27 5,2 °C 5,2 °C 60 % 1013,5 hPa 0,0 mm 2,0 km/h (1 Bft) S-SO 165 ° 1 min 0,000 mm 1,9 UV-I 323 W/m² -1,9 °C 5,2 °C 3,2 km/h (1 Bft)
03.03.2017 10:28 5,3 °C 5,3 °C 60 % 1013,5 hPa 0,0 mm 2,8 km/h (1 Bft) O-NO 71 ° 1 min 0,000 mm 2,0 UV-I 316 W/m² -1,8 °C 5,3 °C 3,2 km/h (1 Bft)
03.03.2017 10:29 5,4 °C 5,4 °C 58 % 1013,4 hPa 0,0 mm 2,1 km/h (1 Bft) O-NO 71 ° 1 min 0,000 mm 1,9 UV-I 306 W/m² -2,2 °C 5,4 °C 3,2 km/h (1 Bft)
03.03.2017 10:30 5,6 °C 5,6 °C 57 % 1013,4 hPa 0,0 mm 2,5 km/h (1 Bft) O-NO 71 ° 1 min 0,000 mm 1,9 UV-I 322 W/m² -2,2 °C 5,6 °C 3,2 km/h (1 Bft)
03.03.2017 10:31 5,5 °C 5,6 °C 56 % 1013,4 hPa 0,0 mm 1,3 km/h (1 Bft) O-NO 71 ° 1 min 0,000 mm 2,0 UV-I 311 W/m² -2,6 °C 5,5 °C 3,2 km/h (1 Bft)
03.03.2017 10:32 5,5 °C 5,6 °C 55 % 1013,4 hPa 0,0 mm 3,5 km/h (1 Bft) O-NO 71 ° 1 min 0,000 mm 2,0 UV-I 322 W/m² -2,8 °C 5,5 °C 4,8 km/h (1 Bft)
03.03.2017 10:33 5,6 °C 5,6 °C 57 % 1013,4 hPa 0,0 mm 2,5 km/h (1 Bft) O-NO 71 ° 1 min 0,000 mm 2,0 UV-I 336 W/m² -2,2 °C 5,6 °C 4,8 km/h (1 Bft)
03.03.2017 10:34 5,6 °C 5,6 °C 54 % 1013,4 hPa 0,0 mm 1,9 km/h (1 Bft) O-NO 71 ° 1 min 0,000 mm 2,0 UV-I 336 W/m² -3,0 °C 5,6 °C 3,2 km/h (1 Bft)
03.03.2017 10:35 5,7 °C 5,7 °C 55 % 1013,4 hPa 0,0 mm 1,9 km/h (1 Bft) O-NO 71 ° 1 min 0,000 mm 2,1 UV-I 308 W/m² -2,6 °C 5,7 °C 3,2 km/h (1 Bft)
03.03.2017 10:36 5,7 °C 5,7 °C 53 % 1013,4 hPa 0,0 mm 1,6 km/h (1 Bft) O-NO 71 ° 1 min 0,000 mm 2,1 UV-I 318 W/m² -3,1 °C 5,7 °C 3,2 km/h (1 Bft)
03.03.2017 10:37 5,8 °C 5,8 °C 53 % 1013,4 hPa 0,0 mm 0,9 km/h (0 Bft) O-NO 71 ° 1 min 0,000 mm 2,1 UV-I 345 W/m² -3,0 °C 5,8 °C 1,6 km/h (1 Bft)
03.03.2017 10:38 5,7 °C 5,8 °C 53 % 1013,4 hPa 0,0 mm 1,7 km/h (1 Bft) O-NO 71 ° 1 min 0,000 mm 2,0 UV-I 309 W/m² -3,1 °C 5,7 °C 3,2 km/h (1 Bft)
03.03.2017 10:39 5,8 °C 5,8 °C 51 % 1013,4 hPa 0,0 mm 2,2 km/h (1 Bft) O-NO 71 ° 1 min 0,000 mm 2,1 UV-I 320 W/m² -3,5 °C 5,8 °C 3,2 km/h (1 Bft)
03.03.2017 10:40 5,7 °C 5,8 °C 51 % 1013,4 hPa 0,0 mm 1,4 km/h (1 Bft) O-NO 71 ° 1 min 0,000 mm 2,0 UV-I 304 W/m² -3,6 °C 5,7 °C 3,2 km/h (1 Bft)
03.03.2017 10:41 5,8 °C 5,8 °C 52 % 1013,4 hPa 0,0 mm 1,5 km/h (1 Bft) O-NO 71 ° 1 min 0,000 mm 2,0 UV-I 301 W/m² -3,3 °C 5,8 °C 1,6 km/h (1 Bft)
03.03.2017 10:42 5,9 °C 5,9 °C 53 % 1013,4 hPa 0,0 mm 1,7 km/h (1 Bft) O-NO 71 ° 1 min 0,000 mm 2,0 UV-I 295 W/m² -2,9 °C 5,9 °C 3,2 km/h (1 Bft)
03.03.2017 10:43 6,0 °C 6,0 °C 54 % 1013,4 hPa 0,0 mm 0,9 km/h (0 Bft) O-NO 71 ° 1 min 0,000 mm 2,0 UV-I 295 W/m² -2,6 °C 6,0 °C 1,6 km/h (1 Bft)
03.03.2017 10:44 6,2 °C 6,2 °C 52 % 1013,4 hPa 0,0 mm 1,0 km/h (0 Bft) O-NO 71 ° 1 min 0,000 mm 2,0 UV-I 302 W/m² -2,9 °C 6,2 °C 1,6 km/h (1 Bft)
03.03.2017 10:45 6,2 °C 6,2 °C 52 % 1013,3 hPa 0,0 mm 3,0 km/h (1 Bft) O-NO 71 ° 1 min 0,000 mm 2,1 UV-I 329 W/m² -2,9 °C 6,2 °C 4,8 km/h (1 Bft)
03.03.2017 10:46 6,2 °C 6,2 °C 55 % 1013,4 hPa 0,0 mm 2,8 km/h (1 Bft) O-NO 71 ° 1 min 0,000 mm 2,1 UV-I 329 W/m² -2,2 °C 6,2 °C 4,8 km/h (1 Bft)
03.03.2017 10:47 6,1 °C 6,2 °C 52 % 1013,4 hPa 0,0 mm 1,9 km/h (1 Bft) O-NO 71 ° 1 min 0,000 mm 2,1 UV-I 341 W/m² -3,0 °C 6,1 °C 3,2 km/h (1 Bft)
03.03.2017 10:48 6,2 °C 6,2 °C 56 % 1013,3 hPa 0,0 mm 0,6 km/h (0 Bft) O-NO 71 ° 1 min 0,000 mm 2,2 UV-I 353 W/m² -1,9 °C 6,2 °C 1,6 km/h (1 Bft)
03.03.2017 10:49 6,2 °C 6,2 °C 54 % 1013,4 hPa 0,0 mm 0,8 km/h (0 Bft) O-NO 71 ° 1 min 0,000 mm 2,2 UV-I 376 W/m² -2,4 °C 6,2 °C 1,6 km/h (1 Bft)
03.03.2017 10:50 6,3 °C 6,3 °C 52 % 1013,4 hPa 0,0 mm 0,0 km/h (0 Bft) O-NO 71 ° 1 min 0,000 mm 2,2 UV-I 362 W/m² -2,8 °C 6,3 °C 0,0 km/h (0 Bft)
03.03.2017 10:51 6,4 °C 6,4 °C 50 % 1013,4 hPa 0,0 mm 0,7 km/h (0 Bft) O-NO 71 ° 1 min 0,000 mm 2,3 UV-I 369 W/m² -3,2 °C 6,4 °C 1,6 km/h (1 Bft)
03.03.2017 10:52 6,6 °C 6,6 °C 50 % 1013,4 hPa 0,0 mm 1,1 km/h (1 Bft) O-NO 71 ° 1 min 0,000 mm 2,3 UV-I 366 W/m² -3,1 °C 6,6 °C 3,2 km/h (1 Bft)
03.03.2017 10:53 6,6 °C 6,6 °C 50 % 1013,4 hPa 0,0 mm 0,1 km/h (0 Bft) O-NO 71 ° 1 min 0,000 mm 2,3 UV-I 378 W/m² -3,1 °C 6,6 °C 1,6 km/h (1 Bft)
03.03.2017 10:54 6,6 °C 6,6 °C 50 % 1013,4 hPa 0,0 mm 0,0 km/h (0 Bft) O-NO 71 ° 1 min 0,000 mm 2,3 UV-I 359 W/m² -3,1 °C 6,6 °C 0,0 km/h (0 Bft)
03.03.2017 10:55 6,7 °C 6,7 °C 48 % 1013,4 hPa 0,0 mm 0,0 km/h (0 Bft) O-NO 71 ° 1 min 0,000 mm 2,3 UV-I 369 W/m² -3,5 °C 6,7 °C 0,0 km/h (0 Bft)
03.03.2017 10:56 6,8 °C 6,8 °C 49 % 1013,4 hPa 0,0 mm 0,1 km/h (0 Bft) O-NO 71 ° 1 min 0,000 mm 2,3 UV-I 353 W/m² -3,2 °C 6,8 °C 1,6 km/h (1 Bft)
03.03.2017 10:57 6,8 °C 6,8 °C 50 % 1013,4 hPa 0,0 mm 0,0 km/h (0 Bft) O-NO 71 ° 1 min 0,000 mm 2,4 UV-I 385 W/m² -2,9 °C 6,8 °C 0,0 km/h (0 Bft)
03.03.2017 10:58 6,8 °C 6,8 °C 50 % 1013,4 hPa 0,0 mm 0,0 km/h (0 Bft) O-NO 71 ° 1 min 0,000 mm 2,5 UV-I 422 W/m² -2,9 °C 6,8 °C 0,0 km/h (0 Bft)
03.03.2017 10:59 6,8 °C 6,8 °C 49 % 1013,4 hPa 0,0 mm 0,4 km/h (0 Bft) O-NO 71 ° 1 min 0,000 mm 2,4 UV-I 396 W/m² -3,2 °C 6,8 °C 1,6 km/h (1 Bft)
03.03.2017 11:00 6,9 °C 6,9 °C 50 % 1013,4 hPa 0,0 mm 0,0 km/h (0 Bft) O-NO 71 ° 1 min 0,000 mm 2,4 UV-I 390 W/m² -2,8 °C 6,9 °C 0,0 km/h (0 Bft)
03.03.2017 11:01 6,9 °C 6,9 °C 48 % 1013,3 hPa 0,0 mm 0,2 km/h (0 Bft) O-NO 71 ° 1 min 0,127 mm 2,5 UV-I 403 W/m² -3,3 °C 6,9 °C 1,6 km/h (1 Bft)
03.03.2017 11:02 7,1 °C 7,1 °C 48 % 1013,4 hPa 0,0 mm 1,2 km/h (1 Bft) O-NO 71 ° 1 min 0,000 mm 2,4 UV-I 473 W/m² -3,2 °C 7,1 °C 1,6 km/h (1 Bft)
03.03.2017 11:03 7,1 °C 7,1 °C 49 % 1013,3 hPa 0,0 mm 2,4 km/h (1 Bft) O-NO 71 ° 1 min 0,000 mm 2,2 UV-I 473 W/m² -2,9 °C 7,1 °C 3,2 km/h (1 Bft)
03.03.2017 11:04 7,1 °C 7,2 °C 47 % 1013,3 hPa 0,0 mm 2,5 km/h (1 Bft) O-NO 71 ° 1 min 0,000 mm 2,3 UV-I 348 W/m² -3,4 °C 7,1 °C 3,2 km/h (1 Bft)
03.03.2017 11:05 7,2 °C 7,2 °C 48 % 1013,3 hPa 0,0 mm 1,9 km/h (1 Bft) O-NO 71 ° 1 min 0,000 mm 2,5 UV-I 366 W/m² -3,1 °C 7,2 °C 3,2 km/h (1 Bft)
03.03.2017 11:06 7,3 °C 7,3 °C 50 % 1013,3 hPa 0,0 mm 0,7 km/h (0 Bft) O-NO 71 ° 1 min 0,000 mm 2,4 UV-I 388 W/m² -2,4 °C 7,3 °C 1,6 km/h (1 Bft)
03.03.2017 11:07 7,3 °C 7,3 °C 47 % 1013,2 hPa 0,0 mm 0,0 km/h (0 Bft) O-NO 71 ° 1 min 0,000 mm 2,4 UV-I 378 W/m² -3,3 °C 7,3 °C 0,0 km/h (0 Bft)
03.03.2017 11:08 7,4 °C 7,4 °C 46 % 1013,3 hPa 0,0 mm 0,1 km/h (0 Bft) O-NO 71 ° 1 min 0,000 mm 2,5 UV-I 376 W/m² -3,4 °C 7,4 °C 1,6 km/h (1 Bft)
03.03.2017 11:09 7,6 °C 7,6 °C 46 % 1013,3 hPa 0,0 mm 0,9 km/h (0 Bft) O-NO 71 ° 1 min 0,000 mm 2,5 UV-I 418 W/m² -3,3 °C 7,6 °C 1,6 km/h (1 Bft)
03.03.2017 11:10 7,7 °C 7,7 °C 47 % 1013,2 hPa 0,0 mm 0,5 km/h (0 Bft) O-NO 71 ° 1 min 0,000 mm 2,5 UV-I 406 W/m² -2,9 °C 7,7 °C 1,6 km/h (1 Bft)
03.03.2017 11:11 7,8 °C 7,8 °C 45 % 1013,2 hPa 0,0 mm 0,3 km/h (0 Bft) O-NO 71 ° 1 min 0,000 mm 2,6 UV-I 429 W/m² -3,4 °C 7,8 °C 1,6 km/h (1 Bft)
03.03.2017 11:12 7,8 °C 7,8 °C 47 % 1013,2 hPa 0,0 mm 1,1 km/h (1 Bft) O-NO 71 ° 1 min 0,000 mm 2,7 UV-I 457 W/m² -2,8 °C 7,8 °C 1,6 km/h (1 Bft)
03.03.2017 11:13 7,8 °C 7,8 °C 46 % 1013,2 hPa 0,0 mm 0,5 km/h (0 Bft) O-NO 71 ° 1 min 0,000 mm 2,8 UV-I 462 W/m² -3,1 °C 7,8 °C 1,6 km/h (1 Bft)
03.03.2017 11:14 7,9 °C 7,9 °C 45 % 1013,2 hPa 0,0 mm 0,1 km/h (0 Bft) O-NO 71 ° 1 min 0,000 mm 2,8 UV-I 487 W/m² -3,3 °C 7,9 °C 1,6 km/h (1 Bft)
03.03.2017 11:15 8,1 °C 8,1 °C 47 % 1013,2 hPa 0,0 mm 2,1 km/h (1 Bft) O-NO 71 ° 1 min 0,000 mm 2,8 UV-I 476 W/m² -2,5 °C 8,1 °C 3,2 km/h (1 Bft)
03.03.2017 11:16 8,2 °C 8,2 °C 47 % 1013,1 hPa 0,0 mm 2,6 km/h (1 Bft) O-NO 71 ° 1 min 0,000 mm 2,8 UV-I 461 W/m² -2,4 °C 8,2 °C 4,8 km/h (1 Bft)
03.03.2017 11:17 8,3 °C 8,3 °C 48 % 1013,1 hPa 0,0 mm 3,9 km/h (1 Bft) O-NO 71 ° 1 min 0,000 mm 2,8 UV-I 483 W/m² -2,1 °C 8,3 °C 4,8 km/h (1 Bft)
03.03.2017 11:18 8,3 °C 8,3 °C 51 % 1013,1 hPa 0,0 mm 3,4 km/h (1 Bft) O-NO 71 ° 1 min 0,000 mm 2,6 UV-I 404 W/m² -1,2 °C 8,3 °C 4,8 km/h (1 Bft)
03.03.2017 11:19 8,4 °C 8,4 °C 48 % 1013,1 hPa 0,0 mm 4,4 km/h (1 Bft) O-NO 77 ° 1 min 0,000 mm 2,8 UV-I 452 W/m² -2,0 °C 8,4 °C 8,0 km/h (2 Bft)
03.03.2017 11:20 8,5 °C 8,5 °C 46 % 1013,1 hPa 0,0 mm 4,8 km/h (1 Bft) O-NO 78 ° 1 min 0,000 mm 2,9 UV-I 489 W/m² -2,4 °C 8,1 °C 6,4 km/h (2 Bft)
03.03.2017 11:21 8,6 °C 8,6 °C 45 % 1013,1 hPa 0,0 mm 4,1 km/h (1 Bft) O-NO 78 ° 1 min 0,000 mm 2,9 UV-I 443 W/m² -2,6 °C 8,6 °C 4,8 km/h (1 Bft)
03.03.2017 11:22 8,7 °C 8,7 °C 44 % 1013,1 hPa 0,0 mm 4,4 km/h (1 Bft) O-NO 78 ° 1 min 0,000 mm 2,9 UV-I 504 W/m² -2,9 °C 8,7 °C 6,4 km/h (2 Bft)
03.03.2017 11:23 8,8 °C 8,8 °C 42 % 1013,0 hPa 0,0 mm 2,5 km/h (1 Bft) O-NO 78 ° 1 min 0,000 mm 3,0 UV-I 529 W/m² -3,4 °C 8,8 °C 3,2 km/h (1 Bft)
03.03.2017 11:24 8,8 °C 8,8 °C 42 % 1013,0 hPa 0,0 mm 1,0 km/h (0 Bft) O-NO 78 ° 1 min 0,000 mm 3,1 UV-I 531 W/m² -3,4 °C 8,8 °C 1,6 km/h (1 Bft)
03.03.2017 11:25 8,9 °C 8,9 °C 43 % 1013,0 hPa 0,0 mm 2,7 km/h (1 Bft) O-NO 77 ° 1 min 0,000 mm 3,1 UV-I 529 W/m² -3,0 °C 8,9 °C 4,8 km/h (1 Bft)
03.03.2017 11:26 9,1 °C 9,1 °C 43 % 1013,0 hPa 0,0 mm 1,5 km/h (1 Bft) O-NO 77 ° 1 min 0,000 mm 3,0 UV-I 529 W/m² -2,8 °C 9,1 °C 3,2 km/h (1 Bft)
03.03.2017 11:27 9,2 °C 9,2 °C 40 % 1013,0 hPa 0,0 mm 0,4 km/h (0 Bft) O-NO 77 ° 1 min 0,000 mm 3,0 UV-I 504 W/m² -3,7 °C 9,2 °C 1,6 km/h (1 Bft)
03.03.2017 11:28 9,1 °C 9,2 °C 39 % 1012,9 hPa 0,0 mm 2,5 km/h (1 Bft) N 5 ° 1 min 0,000 mm 3,0 UV-I 533 W/m² -4,1 °C 9,1 °C 4,8 km/h (1 Bft)
03.03.2017 11:29 9,2 °C 9,2 °C 40 % 1013,0 hPa 0,0 mm 5,2 km/h (1 Bft) N-NO 15 ° 1 min 0,000 mm 3,1 UV-I 534 W/m² -3,7 °C 8,8 °C 6,4 km/h (2 Bft)
03.03.2017 11:30 9,3 °C 9,3 °C 40 % 1012,9 hPa 0,0 mm 2,5 km/h (1 Bft) N-NO 15 ° 1 min 0,000 mm 3,1 UV-I 524 W/m² -3,6 °C 9,3 °C 4,8 km/h (1 Bft)
03.03.2017 11:31 9,3 °C 9,3 °C 40 % 1012,9 hPa 0,0 mm 1,9 km/h (1 Bft) N-NO 15 ° 1 min 0,000 mm 3,2 UV-I 550 W/m² -3,6 °C 9,3 °C 4,8 km/h (1 Bft)
03.03.2017 11:32 9,4 °C 9,4 °C 40 % 1012,8 hPa 0,0 mm 1,6 km/h (1 Bft) NO 47 ° 1 min 0,000 mm 3,2 UV-I 561 W/m² -3,5 °C 9,4 °C 3,2 km/h (1 Bft)
03.03.2017 11:33 9,4 °C 9,4 °C 42 % 1012,9 hPa 0,0 mm 2,9 km/h (1 Bft) NO 47 ° 1 min 0,000 mm 3,1 UV-I 559 W/m² -2,8 °C 9,4 °C 4,8 km/h (1 Bft)
03.03.2017 11:34 9,6 °C 9,6 °C 45 % 1012,9 hPa 0,0 mm 2,5 km/h (1 Bft) NO 47 ° 1 min 0,000 mm 3,1 UV-I 522 W/m² -1,7 °C 9,6 °C 3,2 km/h (1 Bft)
03.03.2017 11:35 9,6 °C 9,6 °C 40 % 1012,8 hPa 0,0 mm 1,3 km/h (1 Bft) NO 47 ° 1 min 0,000 mm 3,1 UV-I 517 W/m² -3,3 °C 9,6 °C 3,2 km/h (1 Bft)
03.03.2017 11:36 9,6 °C 9,6 °C 41 % 1012,8 hPa 0,0 mm 1,7 km/h (1 Bft) NO 47 ° 1 min 0,000 mm 3,1 UV-I 522 W/m² -3,0 °C 9,6 °C 3,2 km/h (1 Bft)
03.03.2017 11:37 9,7 °C 9,7 °C 40 % 1012,8 hPa 0,0 mm 0,9 km/h (0 Bft) NO 47 ° 1 min 0,000 mm 3,0 UV-I 499 W/m² -3,2 °C 9,7 °C 3,2 km/h (1 Bft)
03.03.2017 11:38 9,7 °C 9,7 °C 40 % 1012,8 hPa 0,0 mm 0,7 km/h (0 Bft) N-NO 28 ° 1 min 0,000 mm 3,0 UV-I 490 W/m² -3,2 °C 9,7 °C 3,2 km/h (1 Bft)
03.03.2017 11:39 9,8 °C 9,8 °C 39 % 1012,8 hPa 0,0 mm 3,0 km/h (1 Bft) N-NO 28 ° 1 min 0,000 mm 3,1 UV-I 526 W/m² -3,5 °C 9,8 °C 4,8 km/h (1 Bft)
03.03.2017 11:40 9,9 °C 9,9 °C 41 % 1012,8 hPa 0,0 mm 2,5 km/h (1 Bft) N-NO 28 ° 1 min 0,000 mm 3,0 UV-I 501 W/m² -2,7 °C 9,9 °C 3,2 km/h (1 Bft)
03.03.2017 11:41 10,1 °C 10,1 °C 38 % 1012,8 hPa 0,0 mm 2,5 km/h (1 Bft) N-NO 28 ° 1 min 0,000 mm 3,0 UV-I 489 W/m² -3,6 °C 10,1 °C 3,2 km/h (1 Bft)
03.03.2017 11:42 10,3 °C 10,3 °C 42 % 1012,8 hPa 0,0 mm 3,2 km/h (1 Bft) N-NO 28 ° 1 min 0,000 mm 2,9 UV-I 490 W/m² -2,0 °C 10,3 °C 4,8 km/h (1 Bft)
03.03.2017 11:43 10,3 °C 10,3 °C 37 % 1012,8 hPa 0,0 mm 2,1 km/h (1 Bft) N-NO 28 ° 1 min 0,000 mm 3,0 UV-I 501 W/m² -3,7 °C 10,3 °C 3,2 km/h (1 Bft)
03.03.2017 11:44 10,4 °C 10,4 °C 38 % 1012,8 hPa 0,0 mm 3,3 km/h (1 Bft) N-NO 26 ° 1 min 0,000 mm 3,1 UV-I 485 W/m² -3,3 °C 10,4 °C 4,8 km/h (1 Bft)
03.03.2017 11:45 10,4 °C 10,4 °C 37 % 1012,7 hPa 0,0 mm 1,7 km/h (1 Bft) N-NO 26 ° 1 min 0,000 mm 3,1 UV-I 512 W/m² -3,6 °C 10,4 °C 3,2 km/h (1 Bft)
03.03.2017 11:46 10,4 °C 10,4 °C 40 % 1012,7 hPa 0,0 mm 1,0 km/h (0 Bft) N-NO 26 ° 1 min 0,000 mm 3,1 UV-I 483 W/m² -2,6 °C 10,4 °C 1,6 km/h (1 Bft)
03.03.2017 11:47 10,3 °C 10,4 °C 37 % 1012,7 hPa 0,0 mm 0,6 km/h (0 Bft) N-NO 26 ° 1 min 0,000 mm 3,0 UV-I 468 W/m² -3,7 °C 10,3 °C 1,6 km/h (1 Bft)
03.03.2017 11:48 10,3 °C 10,3 °C 40 % 1012,7 hPa 0,0 mm 3,0 km/h (1 Bft) N-NO 26 ° 1 min 0,000 mm 2,9 UV-I 425 W/m² -2,7 °C 10,3 °C 4,8 km/h (1 Bft)
03.03.2017 11:49 10,3 °C 10,3 °C 40 % 1012,7 hPa 0,0 mm 0,5 km/h (0 Bft) N-NO 26 ° 1 min 0,000 mm 2,9 UV-I 431 W/m² -2,7 °C 10,3 °C 1,6 km/h (1 Bft)
03.03.2017 11:50 10,3 °C 10,3 °C 39 % 1012,6 hPa 0,0 mm 0,1 km/h (0 Bft) N-NO 26 ° 1 min 0,000 mm 2,9 UV-I 441 W/m² -3,0 °C 10,3 °C 1,6 km/h (1 Bft)
03.03.2017 11:51 10,3 °C 10,3 °C 39 % 1012,7 hPa 0,0 mm 0,0 km/h (0 Bft) N-NO 26 ° 1 min 0,000 mm 2,9 UV-I 422 W/m² -3,0 °C 10,3 °C 0,0 km/h (0 Bft)
03.03.2017 11:52 10,4 °C 10,4 °C 43 % 1012,6 hPa 0,0 mm 0,0 km/h (0 Bft) N-NO 26 ° 1 min 0,000 mm 2,8 UV-I 418 W/m² -1,6 °C 10,4 °C 0,0 km/h (0 Bft)
03.03.2017 11:53 10,4 °C 10,4 °C 40 % 1012,6 hPa 0,0 mm 0,1 km/h (0 Bft) N-NO 26 ° 1 min 0,000 mm 3,2 UV-I 517 W/m² -2,6 °C 10,4 °C 1,6 km/h (1 Bft)
03.03.2017 11:54 10,4 °C 10,4 °C 40 % 1012,6 hPa 0,0 mm 1,5 km/h (1 Bft) N-NO 26 ° 1 min 0,000 mm 3,0 UV-I 485 W/m² -2,6 °C 10,4 °C 3,2 km/h (1 Bft)
03.03.2017 11:55 10,4 °C 10,4 °C 43 % 1012,7 hPa 0,0 mm 4,2 km/h (1 Bft) N-NO 26 ° 1 min 0,000 mm 2,8 UV-I 427 W/m² -1,6 °C 10,4 °C 4,8 km/h (1 Bft)
03.03.2017 11:56 10,6 °C 10,6 °C 41 % 1012,7 hPa 0,0 mm 2,9 km/h (1 Bft) N-NO 26 ° 1 min 0,000 mm 2,9 UV-I 436 W/m² -2,1 °C 10,6 °C 4,8 km/h (1 Bft)
03.03.2017 11:57 10,8 °C 10,8 °C 44 % 1012,6 hPa 0,0 mm 2,1 km/h (1 Bft) N-NO 26 ° 1 min 0,000 mm 3,0 UV-I 413 W/m² -1,0 °C 10,8 °C 3,2 km/h (1 Bft)
03.03.2017 11:58 10,9 °C 10,9 °C 42 % 1012,6 hPa 0,0 mm 3,8 km/h (1 Bft) N-NO 26 ° 1 min 0,000 mm 3,0 UV-I 452 W/m² -1,5 °C 10,9 °C 4,8 km/h (1 Bft)
03.03.2017 11:59 11,0 °C 11,0 °C 42 % 1012,6 hPa 0,0 mm 1,4 km/h (1 Bft) N-NO 26 ° 1 min 0,000 mm 3,1 UV-I 485 W/m² -1,4 °C 11,0 °C 3,2 km/h (1 Bft)
03.03.2017 12:00 11,1 °C 11,1 °C 39 % 1012,6 hPa 0,0 mm 1,0 km/h (0 Bft) N-NO 26 ° 1 min 0,000 mm 3,1 UV-I 480 W/m² -2,3 °C 11,1 °C 1,6 km/h (1 Bft)
03.03.2017 12:01 11,2 °C 11,2 °C 40 % 1012,6 hPa 0,0 mm 1,4 km/h (1 Bft) N-NO 26 ° 1 min 0,228 mm 3,2 UV-I 508 W/m² -1,9 °C 11,2 °C 3,2 km/h (1 Bft)
03.03.2017 12:02 11,2 °C 11,2 °C 43 % 1012,6 hPa 0,0 mm 1,6 km/h (1 Bft) N-NO 26 ° 1 min 0,000 mm 3,2 UV-I 503 W/m² -0,9 °C 11,2 °C 3,2 km/h (1 Bft)
03.03.2017 12:03 11,2 °C 11,2 °C 39 % 1012,6 hPa 0,0 mm 2,5 km/h (1 Bft) N-NO 26 ° 1 min 0,000 mm 3,3 UV-I 547 W/m² -2,2 °C 11,2 °C 4,8 km/h (1 Bft)
03.03.2017 12:04 11,3 °C 11,3 °C 43 % 1012,5 hPa 0,0 mm 2,5 km/h (1 Bft) N-NO 26 ° 1 min 0,000 mm 3,2 UV-I 503 W/m² -0,8 °C 11,3 °C 4,8 km/h (1 Bft)
03.03.2017 12:05 11,4 °C 11,4 °C 39 % 1012,5 hPa 0,0 mm 2,4 km/h (1 Bft) N-NO 26 ° 1 min 0,000 mm 3,3 UV-I 531 W/m² -2,0 °C 11,4 °C 3,2 km/h (1 Bft)
03.03.2017 12:06 11,6 °C 11,6 °C 42 % 1012,5 hPa 0,0 mm 1,5 km/h (1 Bft) N-NO 26 ° 1 min 0,000 mm 3,1 UV-I 527 W/m² -0,9 °C 11,6 °C 3,2 km/h (1 Bft)
03.03.2017 12:07 11,6 °C 11,6 °C 43 % 1012,5 hPa 0,0 mm 2,8 km/h (1 Bft) N-NO 26 ° 1 min 0,000 mm 3,1 UV-I 478 W/m² -0,5 °C 11,6 °C 4,8 km/h (1 Bft)
03.03.2017 12:08 11,6 °C 11,6 °C 43 % 1012,4 hPa 0,0 mm 1,9 km/h (1 Bft) N-NO 26 ° 1 min 0,000 mm 3,1 UV-I 473 W/m² -0,5 °C 11,6 °C 3,2 km/h (1 Bft)
03.03.2017 12:09 11,5 °C 11,6 °C 43 % 1012,5 hPa 0,0 mm 2,9 km/h (1 Bft) N-NO 26 ° 1 min 0,000 mm 2,9 UV-I 452 W/m² -0,6 °C 11,5 °C 3,2 km/h (1 Bft)
03.03.2017 12:10 11,6 °C 11,6 °C 38 % 1012,5 hPa 0,0 mm 3,8 km/h (1 Bft) N-NW 348 ° 1 min 0,000 mm 3,1 UV-I 476 W/m² -2,2 °C 11,6 °C 4,8 km/h (1 Bft)
03.03.2017 12:11 11,7 °C 11,7 °C 38 % 1012,5 hPa 0,0 mm 2,5 km/h (1 Bft) N-NW 348 ° 1 min 0,000 mm 3,1 UV-I 492 W/m² -2,1 °C 11,7 °C 3,2 km/h (1 Bft)
03.03.2017 12:12 11,9 °C 11,9 °C 38 % 1012,5 hPa 0,0 mm 2,1 km/h (1 Bft) N-NW 348 ° 1 min 0,000 mm 3,2 UV-I 501 W/m² -2,0 °C 11,9 °C 3,2 km/h (1 Bft)
03.03.2017 12:13 11,9 °C 11,9 °C 38 % 1012,5 hPa 0,0 mm 3,9 km/h (1 Bft) N-NO 16 ° 1 min 0,000 mm 3,3 UV-I 519 W/m² -2,0 °C 11,9 °C 6,4 km/h (2 Bft)
03.03.2017 12:14 12,1 °C 12,1 °C 38 % 1012,5 hPa 0,0 mm 2,9 km/h (1 Bft) N-NO 16 ° 1 min 0,000 mm 3,3 UV-I 524 W/m² -1,8 °C 12,1 °C 4,8 km/h (1 Bft)
03.03.2017 12:15 12,1 °C 12,1 °C 36 % 1012,5 hPa 0,0 mm 5,0 km/h (1 Bft) N 5 ° 1 min 0,000 mm 3,3 UV-I 541 W/m² -2,5 °C 12,1 °C 6,4 km/h (2 Bft)
03.03.2017 12:16 11,9 °C 12,1 °C 36 % 1012,5 hPa 0,0 mm 3,8 km/h (1 Bft) N 5 ° 1 min 0,000 mm 3,4 UV-I 568 W/m² -2,7 °C 11,9 °C 4,8 km/h (1 Bft)
03.03.2017 12:17 12,0 °C 12,0 °C 36 % 1012,5 hPa 0,0 mm 2,5 km/h (1 Bft) N 5 ° 1 min 0,000 mm 3,4 UV-I 561 W/m² -2,6 °C 12,0 °C 3,2 km/h (1 Bft)
03.03.2017 12:18 12,1 °C 12,1 °C 38 % 1012,4 hPa 0,0 mm 1,5 km/h (1 Bft) N 5 ° 1 min 0,000 mm 3,4 UV-I 540 W/m² -1,8 °C 12,1 °C 4,8 km/h (1 Bft)
03.03.2017 12:19 12,2 °C 12,2 °C 36 % 1012,4 hPa 0,0 mm 5,0 km/h (1 Bft) N 5 ° 1 min 0,000 mm 3,5 UV-I 573 W/m² -2,4 °C 12,2 °C 6,4 km/h (2 Bft)
03.03.2017 12:20 12,2 °C 12,2 °C 35 % 1012,3 hPa 0,0 mm 3,8 km/h (1 Bft) N 5 ° 1 min 0,000 mm 3,5 UV-I 584 W/m² -2,8 °C 12,2 °C 4,8 km/h (1 Bft)
03.03.2017 12:21 12,1 °C 12,2 °C 35 % 1012,3 hPa 0,0 mm 4,0 km/h (1 Bft) N 5 ° 1 min 0,000 mm 3,5 UV-I 589 W/m² -2,9 °C 12,1 °C 4,8 km/h (1 Bft)
03.03.2017 12:22 12,2 °C 12,2 °C 36 % 1012,3 hPa 0,0 mm 1,4 km/h (1 Bft) N 5 ° 1 min 0,000 mm 3,5 UV-I 577 W/m² -2,4 °C 12,2 °C 4,8 km/h (1 Bft)
03.03.2017 12:23 12,3 °C 12,3 °C 36 % 1012,3 hPa 0,0 mm 0,9 km/h (0 Bft) W-NW 298 ° 1 min 0,000 mm 3,5 UV-I 596 W/m² -2,3 °C 12,3 °C 6,4 km/h (2 Bft)
03.03.2017 12:24 12,4 °C 12,4 °C 40 % 1012,3 hPa 0,0 mm 2,6 km/h (1 Bft) NW 320 ° 1 min 0,000 mm 3,6 UV-I 601 W/m² -0,8 °C 12,4 °C 4,8 km/h (1 Bft)
03.03.2017 12:25 12,6 °C 12,6 °C 41 % 1012,3 hPa 0,0 mm 3,2 km/h (1 Bft) NW 304 ° 1 min 0,000 mm 3,6 UV-I 608 W/m² -0,3 °C 12,6 °C 4,8 km/h (1 Bft)
03.03.2017 12:26 12,6 °C 12,6 °C 39 % 1012,3 hPa 0,0 mm 3,7 km/h (1 Bft) NW 311 ° 1 min 0,000 mm 3,6 UV-I 601 W/m² -1,0 °C 12,6 °C 4,8 km/h (1 Bft)
03.03.2017 12:27 12,6 °C 12,6 °C 42 % 1012,3 hPa 0,0 mm 4,9 km/h (1 Bft) W-NW 297 ° 1 min 0,000 mm 3,6 UV-I 601 W/m² 0,0 °C 12,6 °C 6,4 km/h (2 Bft)
03.03.2017 12:28 12,5 °C 12,6 °C 40 % 1012,3 hPa 0,0 mm 4,2 km/h (1 Bft) W-NW 294 ° 1 min 0,000 mm 3,6 UV-I 596 W/m² -0,7 °C 12,5 °C 6,4 km/h (2 Bft)
03.03.2017 12:29 12,4 °C 12,5 °C 40 % 1012,2 hPa 0,0 mm 3,7 km/h (1 Bft) W-NW 294 ° 1 min 0,000 mm 3,6 UV-I 598 W/m² -0,8 °C 12,4 °C 4,8 km/h (1 Bft)
03.03.2017 12:30 12,5 °C 12,5 °C 41 % 1012,2 hPa 0,0 mm 1,3 km/h (1 Bft) W-NW 294 ° 1 min 0,000 mm 3,6 UV-I 603 W/m² -0,4 °C 12,5 °C 3,2 km/h (1 Bft)
03.03.2017 12:31 12,6 °C 12,6 °C 41 % 1012,2 hPa 0,0 mm 2,5 km/h (1 Bft) N-NW 340 ° 1 min 0,000 mm 3,7 UV-I 613 W/m² -0,3 °C 12,6 °C 4,8 km/h (1 Bft)
03.03.2017 12:32 12,7 °C 12,7 °C 45 % 1012,2 hPa 0,0 mm 3,0 km/h (1 Bft) N-NW 336 ° 1 min 0,000 mm 3,7 UV-I 619 W/m² 1,1 °C 12,7 °C 6,4 km/h (2 Bft)
03.03.2017 12:33 12,7 °C 12,7 °C 45 % 1012,1 hPa 0,0 mm 4,3 km/h (1 Bft) NW 309 ° 1 min 0,000 mm 3,8 UV-I 629 W/m² 1,1 °C 12,7 °C 8,0 km/h (2 Bft)
03.03.2017 12:34 12,7 °C 12,7 °C 42 % 1012,1 hPa 0,0 mm 2,9 km/h (1 Bft) NW 309 ° 1 min 0,000 mm 3,7 UV-I 624 W/m² 0,1 °C 12,7 °C 4,8 km/h (1 Bft)
03.03.2017 12:35 12,8 °C 12,8 °C 41 % 1012,1 hPa 0,0 mm 0,5 km/h (0 Bft) NW 309 ° 1 min 0,000 mm 3,7 UV-I 622 W/m² -0,1 °C 12,8 °C 1,6 km/h (1 Bft)
03.03.2017 12:36 12,8 °C 12,8 °C 39 % 1012,0 hPa 0,0 mm 0,0 km/h (0 Bft) NW 309 ° 1 min 0,000 mm 3,7 UV-I 599 W/m² -0,8 °C 12,8 °C 0,0 km/h (0 Bft)
03.03.2017 12:37 12,9 °C 12,9 °C 42 % 1012,1 hPa 0,0 mm 0,0 km/h (0 Bft) NW 309 ° 1 min 0,000 mm 3,6 UV-I 596 W/m² 0,3 °C 12,9 °C 0,0 km/h (0 Bft)
03.03.2017 12:38 13,0 °C 13,0 °C 40 % 1012,0 hPa 0,0 mm 2,3 km/h (1 Bft) NW 307 ° 1 min 0,000 mm 3,7 UV-I 619 W/m² -0,3 °C 13,0 °C 6,4 km/h (2 Bft)
03.03.2017 12:39 13,1 °C 13,1 °C 41 % 1012,0 hPa 0,0 mm 4,2 km/h (1 Bft) W 281 ° 1 min 0,000 mm 3,8 UV-I 629 W/m² 0,2 °C 13,1 °C 6,4 km/h (2 Bft)
03.03.2017 12:40 13,1 °C 13,2 °C 43 % 1012,0 hPa 0,0 mm 4,6 km/h (1 Bft) W 277 ° 1 min 0,000 mm 3,8 UV-I 610 W/m² 0,8 °C 13,1 °C 6,4 km/h (2 Bft)
03.03.2017 12:41 13,2 °C 13,2 °C 44 % 1012,0 hPa 0,0 mm 4,8 km/h (1 Bft) W 274 ° 1 min 0,000 mm 3,6 UV-I 591 W/m² 1,2 °C 13,2 °C 8,0 km/h (2 Bft)
03.03.2017 12:42 13,3 °C 13,3 °C 41 % 1012,0 hPa 0,0 mm 5,1 km/h (1 Bft) NW 315 ° 1 min 0,000 mm 3,8 UV-I 617 W/m² 0,3 °C 13,3 °C 6,4 km/h (2 Bft)
03.03.2017 12:43 13,3 °C 13,3 °C 42 % 1011,9 hPa 0,0 mm 5,9 km/h (2 Bft) NW 310 ° 1 min 0,000 mm 3,6 UV-I 624 W/m² 0,7 °C 13,3 °C 8,0 km/h (2 Bft)
03.03.2017 12:44 13,3 °C 13,3 °C 41 % 1011,9 hPa 0,0 mm 4,8 km/h (1 Bft) W 281 ° 1 min 0,000 mm 3,7 UV-I 621 W/m² 0,3 °C 13,3 °C 6,4 km/h (2 Bft)
03.03.2017 12:45 13,3 °C 13,3 °C 42 % 1011,8 hPa 0,0 mm 4,2 km/h (1 Bft) W 265 ° 1 min 0,000 mm 3,7 UV-I 624 W/m² 0,7 °C 13,3 °C 6,4 km/h (2 Bft)
03.03.2017 12:46 13,1 °C 13,3 °C 41 % 1011,8 hPa 0,0 mm 6,0 km/h (2 Bft) W 269 ° 1 min 0,000 mm 3,8 UV-I 622 W/m² 0,2 °C 13,1 °C 8,0 km/h (2 Bft)
03.03.2017 12:47 13,0 °C 13,1 °C 43 % 1011,8 hPa 0,0 mm 5,4 km/h (1 Bft) W 273 ° 1 min 0,000 mm 3,7 UV-I 619 W/m² 0,7 °C 13,0 °C 11,3 km/h (2 Bft)
03.03.2017 12:48 12,9 °C 13,0 °C 44 % 1011,8 hPa 0,0 mm 8,9 km/h (2 Bft) W-SW 257 ° 1 min 0,000 mm 3,7 UV-I 619 W/m² 1,0 °C 12,9 °C 12,9 km/h (3 Bft)
03.03.2017 12:49 13,1 °C 13,1 °C 45 % 1011,7 hPa 0,0 mm 6,0 km/h (2 Bft) W-NW 286 ° 1 min 0,000 mm 3,7 UV-I 612 W/m² 1,4 °C 13,1 °C 9,7 km/h (2 Bft)
03.03.2017 12:50 13,1 °C 13,1 °C 42 % 1011,7 hPa 0,0 mm 5,3 km/h (1 Bft) W-NW 300 ° 1 min 0,000 mm 3,7 UV-I 613 W/m² 0,5 °C 13,1 °C 6,4 km/h (2 Bft)
03.03.2017 12:51 13,1 °C 13,1 °C 43 % 1011,7 hPa 0,0 mm 5,6 km/h (1 Bft) W 274 ° 1 min 0,000 mm 3,7 UV-I 619 W/m² 0,8 °C 13,1 °C 9,7 km/h (2 Bft)
03.03.2017 12:52 13,1 °C 13,1 °C 42 % 1011,6 hPa 0,0 mm 4,4 km/h (1 Bft) W 269 ° 1 min 0,000 mm 3,6 UV-I 575 W/m² 0,5 °C 13,1 °C 6,4 km/h (2 Bft)
03.03.2017 12:53 13,1 °C 13,1 °C 44 % 1011,6 hPa 0,0 mm 5,3 km/h (1 Bft) W 279 ° 1 min 0,000 mm 3,7 UV-I 612 W/m² 1,1 °C 13,1 °C 9,7 km/h (2 Bft)
03.03.2017 12:54 13,1 °C 13,1 °C 42 % 1011,6 hPa 0,0 mm 4,5 km/h (1 Bft) W 274 ° 1 min 0,000 mm 3,6 UV-I 601 W/m² 0,5 °C 13,1 °C 6,4 km/h (2 Bft)
03.03.2017 12:55 13,1 °C 13,1 °C 43 % 1011,5 hPa 0,0 mm 5,2 km/h (1 Bft) W-NW 298 ° 1 min 0,000 mm 3,6 UV-I 592 W/m² 0,8 °C 13,1 °C 6,4 km/h (2 Bft)
03.03.2017 12:56 13,1 °C 13,1 °C 42 % 1011,5 hPa 0,0 mm 4,6 km/h (1 Bft) W 279 ° 1 min 0,000 mm 3,7 UV-I 613 W/m² 0,5 °C 13,1 °C 6,4 km/h (2 Bft)
03.03.2017 12:57 13,1 °C 13,1 °C 43 % 1011,5 hPa 0,0 mm 3,8 km/h (1 Bft) W-NW 300 ° 1 min 0,000 mm 3,7 UV-I 615 W/m² 0,8 °C 13,1 °C 6,4 km/h (2 Bft)
03.03.2017 12:58 13,1 °C 13,1 °C 43 % 1011,4 hPa 0,0 mm 4,0 km/h (1 Bft) NW 306 ° 1 min 0,000 mm 3,7 UV-I 610 W/m² 0,8 °C 13,1 °C 6,4 km/h (2 Bft)
03.03.2017 12:59 13,2 °C 13,2 °C 42 % 1011,4 hPa 0,0 mm 3,9 km/h (1 Bft) W-NW 300 ° 1 min 0,000 mm 3,7 UV-I 608 W/m² 0,6 °C 13,2 °C 6,4 km/h (2 Bft)
03.03.2017 13:00 13,3 °C 13,3 °C 44 % 1011,4 hPa 0,0 mm 4,2 km/h (1 Bft) W-NW 302 ° 1 min 0,000 mm 3,7 UV-I 610 W/m² 1,3 °C 13,3 °C 6,4 km/h (2 Bft)
03.03.2017 13:01 13,4 °C 13,4 °C 43 % 1011,4 hPa 0,0 mm 2,7 km/h (1 Bft) NW 304 ° 1 min 0,305 mm 3,6 UV-I 606 W/m² 1,1 °C 13,4 °C 4,8 km/h (1 Bft)
03.03.2017 13:02 13,4 °C 13,4 °C 42 % 1011,4 hPa 0,0 mm 2,8 km/h (1 Bft) NW 304 ° 1 min 0,000 mm 3,6 UV-I 571 W/m² 0,8 °C 13,4 °C 3,2 km/h (1 Bft)
03.03.2017 13:03 13,4 °C 13,4 °C 42 % 1011,3 hPa 0,0 mm 3,5 km/h (1 Bft) NW 304 ° 1 min 0,000 mm 3,6 UV-I 580 W/m² 0,8 °C 13,4 °C 6,4 km/h (2 Bft)
03.03.2017 13:04 13,5 °C 13,5 °C 43 % 1011,3 hPa 0,0 mm 3,2 km/h (1 Bft) W-NW 298 ° 1 min 0,000 mm 3,6 UV-I 613 W/m² 1,2 °C 13,5 °C 4,8 km/h (1 Bft)
03.03.2017 13:05 13,7 °C 13,7 °C 42 % 1011,2 hPa 0,0 mm 2,7 km/h (1 Bft) W-NW 298 ° 1 min 0,000 mm 3,6 UV-I 613 W/m² 1,0 °C 13,7 °C 4,8 km/h (1 Bft)
03.03.2017 13:06 13,7 °C 13,7 °C 43 % 1011,3 hPa 0,0 mm 3,2 km/h (1 Bft) W 269 ° 1 min 0,000 mm 3,6 UV-I 606 W/m² 1,4 °C 13,7 °C 6,4 km/h (2 Bft)
03.03.2017 13:07 13,8 °C 13,8 °C 45 % 1011,2 hPa 0,0 mm 4,8 km/h (1 Bft) W-NW 294 ° 1 min 0,000 mm 3,4 UV-I 606 W/m² 2,1 °C 13,8 °C 6,4 km/h (2 Bft)
03.03.2017 13:08 13,9 °C 13,9 °C 43 % 1011,2 hPa 0,0 mm 3,2 km/h (1 Bft) W 267 ° 1 min 0,000 mm 3,6 UV-I 601 W/m² 1,5 °C 13,9 °C 4,8 km/h (1 Bft)
03.03.2017 13:09 13,9 °C 13,9 °C 43 % 1011,2 hPa 0,0 mm 2,5 km/h (1 Bft) W-NW 291 ° 1 min 0,000 mm 3,6 UV-I 592 W/m² 1,5 °C 13,9 °C 4,8 km/h (1 Bft)
03.03.2017 13:10 14,1 °C 14,1 °C 43 % 1011,2 hPa 0,0 mm 3,4 km/h (1 Bft) W-NW 292 ° 1 min 0,000 mm 3,6 UV-I 606 W/m² 1,7 °C 14,1 °C 4,8 km/h (1 Bft)
03.03.2017 13:11 14,2 °C 14,2 °C 38 % 1011,1 hPa 0,0 mm 4,2 km/h (1 Bft) N 360 ° 1 min 0,000 mm 3,6 UV-I 601 W/m² 0,1 °C 14,2 °C 6,4 km/h (2 Bft)
03.03.2017 13:12 14,3 °C 14,3 °C 40 % 1011,1 hPa 0,0 mm 5,0 km/h (1 Bft) N 355 ° 1 min 0,000 mm 3,6 UV-I 599 W/m² 0,9 °C 14,3 °C 8,0 km/h (2 Bft)
03.03.2017 13:13 14,3 °C 14,3 °C 30 % 1011,1 hPa 0,0 mm 6,0 km/h (2 Bft) N 355 ° 1 min 0,000 mm 3,6 UV-I 596 W/m² -3,0 °C 14,3 °C 6,4 km/h (2 Bft)
03.03.2017 13:14 14,4 °C 14,4 °C 30 % 1011,1 hPa 0,0 mm 5,1 km/h (1 Bft) N 355 ° 1 min 0,000 mm 3,6 UV-I 598 W/m² -2,9 °C 14,4 °C 6,4 km/h (2 Bft)
03.03.2017 13:15 14,5 °C 14,5 °C 29 % 1011,0 hPa 0,0 mm 4,1 km/h (1 Bft) N 355 ° 1 min 0,000 mm 3,6 UV-I 592 W/m² -3,3 °C 14,5 °C 6,4 km/h (2 Bft)
03.03.2017 13:16 14,7 °C 14,7 °C 29 % 1011,0 hPa 0,0 mm 4,8 km/h (1 Bft) NW 323 ° 1 min 0,000 mm 3,5 UV-I 587 W/m² -3,1 °C 14,7 °C 8,0 km/h (2 Bft)
03.03.2017 13:17 14,7 °C 14,7 °C 31 % 1011,0 hPa 0,0 mm 2,2 km/h (1 Bft) NW 323 ° 1 min 0,000 mm 3,5 UV-I 573 W/m² -2,2 °C 14,7 °C 4,8 km/h (1 Bft)
03.03.2017 13:18 14,8 °C 14,8 °C 30 % 1011,0 hPa 0,0 mm 2,4 km/h (1 Bft) NW 308 ° 1 min 0,000 mm 3,5 UV-I 573 W/m² -2,6 °C 14,8 °C 4,8 km/h (1 Bft)
03.03.2017 13:19 15,0 °C 15,0 °C 32 % 1011,0 hPa 0,0 mm 4,4 km/h (1 Bft) NW 304 ° 1 min 0,000 mm 3,4 UV-I 570 W/m² -1,5 °C 15,0 °C 9,7 km/h (2 Bft)
03.03.2017 13:20 15,1 °C 15,1 °C 32 % 1011,0 hPa 0,0 mm 4,7 km/h (1 Bft) N 355 ° 1 min 0,000 mm 3,5 UV-I 591 W/m² -1,5 °C 15,1 °C 8,0 km/h (2 Bft)
03.03.2017 13:21 15,1 °C 15,1 °C 33 % 1010,9 hPa 0,0 mm 4,1 km/h (1 Bft) NW 321 ° 1 min 0,000 mm 3,5 UV-I 587 W/m² -1,0 °C 15,1 °C 6,4 km/h (2 Bft)
03.03.2017 13:22 15,1 °C 15,1 °C 30 % 1010,9 hPa 0,0 mm 4,5 km/h (1 Bft) NW 313 ° 1 min 0,000 mm 3,5 UV-I 587 W/m² -2,3 °C 15,1 °C 9,7 km/h (2 Bft)
03.03.2017 13:23 15,0 °C 15,1 °C 30 % 1010,9 hPa 0,0 mm 7,0 km/h (2 Bft) N-NW 331 ° 1 min 0,000 mm 3,5 UV-I 587 W/m² -2,4 °C 15,0 °C 12,9 km/h (3 Bft)
03.03.2017 13:24 14,9 °C 15,0 °C 30 % 1010,9 hPa 0,0 mm 4,3 km/h (1 Bft) N 349 ° 1 min 0,000 mm 3,5 UV-I 585 W/m² -2,5 °C 14,9 °C 6,4 km/h (2 Bft)
03.03.2017 13:25 14,9 °C 14,9 °C 29 % 1010,9 hPa 0,0 mm 6,0 km/h (2 Bft) NW 314 ° 1 min 0,000 mm 3,5 UV-I 591 W/m² -3,0 °C 14,9 °C 8,0 km/h (2 Bft)
03.03.2017 13:26 15,1 °C 15,1 °C 35 % 1010,9 hPa 0,0 mm 5,8 km/h (2 Bft) W 279 ° 1 min 0,000 mm 3,4 UV-I 563 W/m² -0,2 °C 15,1 °C 11,3 km/h (2 Bft)
03.03.2017 13:27 14,8 °C 15,1 °C 38 % 1010,9 hPa 0,0 mm 7,0 km/h (2 Bft) W-NW 302 ° 1 min 0,000 mm 3,4 UV-I 550 W/m² 0,6 °C 14,8 °C 11,3 km/h (2 Bft)
03.03.2017 13:28 14,8 °C 14,8 °C 39 % 1010,9 hPa 0,0 mm 7,3 km/h (2 Bft) W-NW 299 ° 1 min 0,000 mm 3,3 UV-I 540 W/m² 1,0 °C 14,8 °C 12,9 km/h (3 Bft)
03.03.2017 13:29 14,7 °C 14,8 °C 39 % 1010,8 hPa 0,0 mm 7,7 km/h (2 Bft) W-NW 292 ° 1 min 0,000 mm 3,3 UV-I 561 W/m² 0,9 °C 14,7 °C 11,3 km/h (2 Bft)
03.03.2017 13:30 14,6 °C 14,7 °C 37 % 1010,9 hPa 0,0 mm 7,6 km/h (2 Bft) W-NW 286 ° 1 min 0,000 mm 3,3 UV-I 552 W/m² 0,1 °C 14,6 °C 11,3 km/h (2 Bft)
03.03.2017 13:31 14,4 °C 14,6 °C 37 % 1010,8 hPa 0,0 mm 6,2 km/h (2 Bft) W-NW 299 ° 1 min 0,000 mm 3,2 UV-I 533 W/m² -0,1 °C 14,4 °C 9,7 km/h (2 Bft)
03.03.2017 13:32 14,4 °C 14,4 °C 36 % 1010,8 hPa 0,0 mm 5,5 km/h (1 Bft) W-NW 300 ° 1 min 0,000 mm 3,2 UV-I 526 W/m² -0,5 °C 14,4 °C 8,0 km/h (2 Bft)
03.03.2017 13:33 14,4 °C 14,4 °C 38 % 1010,8 hPa 0,0 mm 9,3 km/h (2 Bft) W 279 ° 1 min 0,000 mm 3,2 UV-I 547 W/m² 0,3 °C 14,4 °C 12,9 km/h (3 Bft)
03.03.2017 13:34 14,3 °C 14,4 °C 36 % 1010,8 hPa 0,0 mm 8,7 km/h (2 Bft) W-NW 288 ° 1 min 0,000 mm 3,2 UV-I 540 W/m² -0,6 °C 14,3 °C 12,9 km/h (3 Bft)
03.03.2017 13:35 14,3 °C 14,3 °C 37 % 1010,8 hPa 0,0 mm 5,7 km/h (1 Bft) N 5 ° 1 min 0,000 mm 3,2 UV-I 524 W/m² -0,2 °C 14,3 °C 9,7 km/h (2 Bft)
03.03.2017 13:36 14,4 °C 14,4 °C 38 % 1010,8 hPa 0,0 mm 5,4 km/h (1 Bft) W-NW 302 ° 1 min 0,000 mm 3,1 UV-I 489 W/m² 0,3 °C 14,4 °C 11,3 km/h (2 Bft)
03.03.2017 13:37 14,6 °C 14,6 °C 37 % 1010,8 hPa 0,0 mm 10,7 km/h (2 Bft) NW 306 ° 1 min 0,000 mm 3,2 UV-I 527 W/m² 0,1 °C 14,6 °C 14,5 km/h (3 Bft)
03.03.2017 13:38 14,6 °C 14,7 °C 39 % 1010,8 hPa 0,0 mm 9,9 km/h (2 Bft) NW 321 ° 1 min 0,000 mm 3,2 UV-I 508 W/m² 0,8 °C 14,6 °C 16,1 km/h (3 Bft)
03.03.2017 13:39 14,7 °C 14,7 °C 39 % 1010,8 hPa 0,0 mm 8,6 km/h (2 Bft) NW 304 ° 1 min 0,000 mm 3,2 UV-I 499 W/m² 0,9 °C 14,7 °C 12,9 km/h (3 Bft)
03.03.2017 13:40 14,6 °C 14,7 °C 37 % 1010,7 hPa 0,0 mm 7,5 km/h (2 Bft) W-SW 251 ° 1 min 0,000 mm 3,2 UV-I 538 W/m² 0,1 °C 14,6 °C 12,9 km/h (3 Bft)
03.03.2017 13:41 14,4 °C 14,6 °C 38 % 1010,7 hPa 0,0 mm 10,8 km/h (2 Bft) W-NW 295 ° 1 min 0,000 mm 3,3 UV-I 550 W/m² 0,3 °C 14,4 °C 17,7 km/h (3 Bft)
03.03.2017 13:42 14,3 °C 14,4 °C 39 % 1010,7 hPa 0,0 mm 9,7 km/h (2 Bft) W-NW 300 ° 1 min 0,000 mm 3,2 UV-I 557 W/m² 0,5 °C 14,3 °C 14,5 km/h (3 Bft)
03.03.2017 13:43 14,2 °C 14,3 °C 39 % 1010,7 hPa 0,0 mm 7,3 km/h (2 Bft) W 260 ° 1 min 0,000 mm 3,2 UV-I 561 W/m² 0,5 °C 14,2 °C 11,3 km/h (2 Bft)
03.03.2017 13:44 14,2 °C 14,2 °C 40 % 1010,7 hPa 0,0 mm 8,9 km/h (2 Bft) W 269 ° 1 min 0,000 mm 3,1 UV-I 541 W/m² 0,8 °C 14,2 °C 12,9 km/h (3 Bft)
03.03.2017 13:45 14,1 °C 14,2 °C 39 % 1010,7 hPa 0,0 mm 7,0 km/h (2 Bft) W-NW 301 ° 1 min 0,000 mm 3,2 UV-I 561 W/m² 0,4 °C 14,1 °C 11,3 km/h (2 Bft)
03.03.2017 13:46 14,1 °C 14,1 °C 41 % 1010,7 hPa 0,0 mm 5,6 km/h (1 Bft) NW 317 ° 1 min 0,000 mm 3,1 UV-I 503 W/m² 1,1 °C 14,1 °C 8,0 km/h (2 Bft)
03.03.2017 13:47 14,2 °C 14,2 °C 40 % 1010,7 hPa 0,0 mm 10,0 km/h (2 Bft) NW 315 ° 1 min 0,000 mm 3,0 UV-I 508 W/m² 0,8 °C 14,2 °C 14,5 km/h (3 Bft)
03.03.2017 13:48 14,3 °C 14,3 °C 42 % 1010,7 hPa 0,0 mm 8,5 km/h (2 Bft) N-NW 347 ° 1 min 0,000 mm 3,0 UV-I 512 W/m² 1,6 °C 14,3 °C 12,9 km/h (3 Bft)
03.03.2017 13:49 14,4 °C 14,4 °C 39 % 1010,7 hPa 0,0 mm 5,9 km/h (2 Bft) NW 311 ° 1 min 0,000 mm 2,9 UV-I 480 W/m² 0,6 °C 14,4 °C 12,9 km/h (3 Bft)
03.03.2017 13:50 14,4 °C 14,4 °C 41 % 1010,7 hPa 0,0 mm 6,0 km/h (2 Bft) W-NW 300 ° 1 min 0,000 mm 2,8 UV-I 445 W/m² 1,3 °C 14,4 °C 12,9 km/h (3 Bft)
03.03.2017 13:51 14,6 °C 14,6 °C 41 % 1010,6 hPa 0,0 mm 6,4 km/h (2 Bft) NW 304 ° 1 min 0,000 mm 2,9 UV-I 459 W/m² 1,5 °C 14,6 °C 8,0 km/h (2 Bft)
03.03.2017 13:52 14,6 °C 14,6 °C 39 % 1010,6 hPa 0,0 mm 4,6 km/h (1 Bft) N 360 ° 1 min 0,000 mm 2,9 UV-I 506 W/m² 0,8 °C 14,6 °C 6,4 km/h (2 Bft)
03.03.2017 13:53 14,7 °C 14,7 °C 37 % 1010,6 hPa 0,0 mm 6,1 km/h (2 Bft) N-NW 328 ° 1 min 0,000 mm 2,8 UV-I 469 W/m² 0,2 °C 14,7 °C 9,7 km/h (2 Bft)
03.03.2017 13:54 14,7 °C 14,7 °C 36 % 1010,6 hPa 0,0 mm 5,8 km/h (2 Bft) NW 310 ° 1 min 0,000 mm 2,9 UV-I 466 W/m² -0,2 °C 14,7 °C 8,0 km/h (2 Bft)
03.03.2017 13:55 14,8 °C 14,8 °C 35 % 1010,6 hPa 0,0 mm 7,0 km/h (2 Bft) NW 304 ° 1 min 0,000 mm 2,8 UV-I 512 W/m² -0,5 °C 14,8 °C 11,3 km/h (2 Bft)
03.03.2017 13:56 14,8 °C 14,8 °C 36 % 1010,6 hPa 0,0 mm 7,5 km/h (2 Bft) NW 304 ° 1 min 0,000 mm 2,7 UV-I 452 W/m² -0,1 °C 14,8 °C 11,3 km/h (2 Bft)
03.03.2017 13:57 14,7 °C 14,8 °C 36 % 1010,6 hPa 0,0 mm 4,5 km/h (1 Bft) NW 311 ° 1 min 0,000 mm 2,9 UV-I 457 W/m² -0,2 °C 14,7 °C 8,0 km/h (2 Bft)
03.03.2017 13:58 14,6 °C 14,7 °C 41 % 1010,6 hPa 0,0 mm 5,7 km/h (1 Bft) N-NW 332 ° 1 min 0,000 mm 2,8 UV-I 450 W/m² 1,5 °C 14,6 °C 9,7 km/h (2 Bft)
03.03.2017 13:59 14,5 °C 14,6 °C 40 % 1010,6 hPa 0,0 mm 4,9 km/h (1 Bft) N 360 ° 1 min 0,000 mm 2,8 UV-I 464 W/m² 1,1 °C 14,5 °C 8,0 km/h (2 Bft)
03.03.2017 14:00 14,5 °C 14,6 °C 39 % 1010,5 hPa 0,0 mm 6,8 km/h (2 Bft) NW 323 ° 1 min 0,000 mm 2,7 UV-I 454 W/m² 0,7 °C 14,5 °C 14,5 km/h (3 Bft)
03.03.2017 14:01 14,4 °C 14,5 °C 38 % 1010,6 hPa 0,0 mm 6,8 km/h (2 Bft) N 350 ° 1 min 0,330 mm 2,7 UV-I 448 W/m² 0,3 °C 14,4 °C 9,7 km/h (2 Bft)
03.03.2017 14:02 14,4 °C 14,5 °C 40 % 1010,6 hPa 0,0 mm 8,9 km/h (2 Bft) NW 317 ° 1 min 0,000 mm 2,6 UV-I 424 W/m² 1,0 °C 14,4 °C 12,9 km/h (3 Bft)
03.03.2017 14:03 14,4 °C 14,5 °C 40 % 1010,6 hPa 0,0 mm 7,5 km/h (2 Bft) NW 305 ° 1 min 0,000 mm 2,6 UV-I 422 W/m² 1,0 °C 14,4 °C 12,9 km/h (3 Bft)
03.03.2017 14:04 14,3 °C 14,4 °C 40 % 1010,6 hPa 0,0 mm 10,6 km/h (2 Bft) NW 313 ° 1 min 0,000 mm 2,6 UV-I 425 W/m² 0,9 °C 14,3 °C 14,5 km/h (3 Bft)
03.03.2017 14:05 14,2 °C 14,3 °C 40 % 1010,5 hPa 0,0 mm 7,2 km/h (2 Bft) N 5 ° 1 min 0,000 mm 2,5 UV-I 403 W/m² 0,8 °C 14,2 °C 11,3 km/h (2 Bft)
03.03.2017 14:06 14,1 °C 14,2 °C 41 % 1010,6 hPa 0,0 mm 6,0 km/h (2 Bft) NW 324 ° 1 min 0,000 mm 2,6 UV-I 459 W/m² 1,1 °C 14,1 °C 8,0 km/h (2 Bft)
03.03.2017 14:07 14,1 °C 14,1 °C 41 % 1010,6 hPa 0,0 mm 7,4 km/h (2 Bft) NW 316 ° 1 min 0,000 mm 2,6 UV-I 436 W/m² 1,1 °C 14,1 °C 11,3 km/h (2 Bft)
03.03.2017 14:08 13,9 °C 14,1 °C 40 % 1010,6 hPa 0,0 mm 6,9 km/h (2 Bft) NW 315 ° 1 min 0,000 mm 2,5 UV-I 396 W/m² 0,5 °C 13,9 °C 9,7 km/h (2 Bft)
03.03.2017 14:09 13,9 °C 13,9 °C 43 % 1010,5 hPa 0,0 mm 6,8 km/h (2 Bft) W-NW 301 ° 1 min 0,000 mm 2,6 UV-I 396 W/m² 1,5 °C 13,9 °C 11,3 km/h (2 Bft)
03.03.2017 14:10 13,8 °C 13,9 °C 43 % 1010,5 hPa 0,0 mm 6,8 km/h (2 Bft) NW 309 ° 1 min 0,000 mm 2,4 UV-I 432 W/m² 1,4 °C 13,8 °C 8,0 km/h (2 Bft)
03.03.2017 14:11 13,8 °C 13,8 °C 42 % 1010,6 hPa 0,0 mm 4,8 km/h (1 Bft) W-NW 295 ° 1 min 0,000 mm 2,4 UV-I 332 W/m² 1,1 °C 13,8 °C 8,0 km/h (2 Bft)
03.03.2017 14:12 13,8 °C 13,8 °C 41 % 1010,5 hPa 0,0 mm 5,8 km/h (2 Bft) W-NW 303 ° 1 min 0,000 mm 2,4 UV-I 399 W/m² 0,8 °C 13,8 °C 9,7 km/h (2 Bft)
03.03.2017 14:13 13,7 °C 13,8 °C 41 % 1010,5 hPa 0,0 mm 7,6 km/h (2 Bft) N-NW 339 ° 1 min 0,000 mm 2,5 UV-I 399 W/m² 0,7 °C 13,7 °C 11,3 km/h (2 Bft)
03.03.2017 14:14 13,7 °C 13,7 °C 43 % 1010,5 hPa 0,0 mm 5,4 km/h (1 Bft) NW 311 ° 1 min 0,000 mm 2,5 UV-I 424 W/m² 1,4 °C 13,7 °C 9,7 km/h (2 Bft)
03.03.2017 14:15 13,8 °C 13,8 °C 43 % 1010,5 hPa 0,0 mm 3,8 km/h (1 Bft) N-NW 332 ° 1 min 0,000 mm 2,5 UV-I 434 W/m² 1,4 °C 13,8 °C 4,8 km/h (1 Bft)
03.03.2017 14:16 13,9 °C 13,9 °C 43 % 1010,4 hPa 0,0 mm 5,4 km/h (1 Bft) N-NW 338 ° 1 min 0,000 mm 2,5 UV-I 431 W/m² 1,5 °C 13,9 °C 6,4 km/h (2 Bft)
03.03.2017 14:17 14,0 °C 14,0 °C 41 % 1010,5 hPa 0,0 mm 7,2 km/h (2 Bft) N 360 ° 1 min 0,000 mm 2,5 UV-I 446 W/m² 1,0 °C 14,0 °C 9,7 km/h (2 Bft)
03.03.2017 14:18 14,1 °C 14,1 °C 39 % 1010,4 hPa 0,0 mm 6,6 km/h (2 Bft) N 355 ° 1 min 0,000 mm 2,4 UV-I 396 W/m² 0,4 °C 14,1 °C 9,7 km/h (2 Bft)
03.03.2017 14:19 14,1 °C 14,1 °C 38 % 1010,4 hPa 0,0 mm 5,9 km/h (2 Bft) N 351 ° 1 min 0,000 mm 2,4 UV-I 385 W/m² 0,0 °C 14,1 °C 9,7 km/h (2 Bft)
03.03.2017 14:20 14,1 °C 14,1 °C 38 % 1010,4 hPa 0,0 mm 6,9 km/h (2 Bft) N-NW 327 ° 1 min 0,000 mm 2,3 UV-I 385 W/m² 0,0 °C 14,1 °C 9,7 km/h (2 Bft)
03.03.2017 14:21 14,1 °C 14,1 °C 38 % 1010,4 hPa 0,0 mm 6,8 km/h (2 Bft) NW 308 ° 1 min 0,000 mm 2,2 UV-I 320 W/m² 0,0 °C 14,1 °C 9,7 km/h (2 Bft)
03.03.2017 14:22 14,1 °C 14,1 °C 38 % 1010,4 hPa 0,0 mm 5,6 km/h (1 Bft) NW 317 ° 1 min 0,000 mm 2,3 UV-I 338 W/m² 0,0 °C 14,1 °C 8,0 km/h (2 Bft)
03.03.2017 14:23 13,9 °C 14,1 °C 38 % 1010,3 hPa 0,0 mm 5,0 km/h (1 Bft) N-NW 347 ° 1 min 0,000 mm 2,3 UV-I 338 W/m² -0,2 °C 13,9 °C 8,0 km/h (2 Bft)
03.03.2017 14:24 13,9 °C 13,9 °C 39 % 1010,3 hPa 0,0 mm 5,0 km/h (1 Bft) NW 311 ° 1 min 0,000 mm 2,3 UV-I 403 W/m² 0,2 °C 13,9 °C 6,4 km/h (2 Bft)
03.03.2017 14:25 13,9 °C 13,9 °C 40 % 1010,3 hPa 0,0 mm 4,1 km/h (1 Bft) W-NW 297 ° 1 min 0,000 mm 2,2 UV-I 360 W/m² 0,5 °C 13,9 °C 6,4 km/h (2 Bft)
03.03.2017 14:26 13,9 °C 13,9 °C 39 % 1010,3 hPa 0,0 mm 1,8 km/h (1 Bft) W-NW 297 ° 1 min 0,000 mm 2,2 UV-I 350 W/m² 0,2 °C 13,9 °C 3,2 km/h (1 Bft)
03.03.2017 14:27 13,9 °C 13,9 °C 40 % 1010,3 hPa 0,0 mm 5,2 km/h (1 Bft) NW 324 ° 1 min 0,000 mm 2,3 UV-I 383 W/m² 0,5 °C 13,9 °C 6,4 km/h (2 Bft)
03.03.2017 14:28 14,0 °C 14,0 °C 40 % 1010,2 hPa 0,0 mm 3,0 km/h (1 Bft) NW 321 ° 1 min 0,000 mm 2,3 UV-I 373 W/m² 0,6 °C 14,0 °C 4,8 km/h (1 Bft)
03.03.2017 14:29 14,1 °C 14,1 °C 39 % 1010,3 hPa 0,0 mm 3,4 km/h (1 Bft) NW 321 ° 1 min 0,000 mm 2,3 UV-I 360 W/m² 0,4 °C 14,1 °C 4,8 km/h (1 Bft)
03.03.2017 14:30 14,2 °C 14,2 °C 39 % 1010,2 hPa 0,0 mm 2,2 km/h (1 Bft) NW 321 ° 1 min 0,000 mm 2,4 UV-I 417 W/m² 0,5 °C 14,2 °C 4,8 km/h (1 Bft)
03.03.2017 14:31 14,2 °C 14,2 °C 37 % 1010,1 hPa 0,0 mm 3,1 km/h (1 Bft) NW 321 ° 1 min 0,000 mm 2,4 UV-I 441 W/m² -0,3 °C 14,2 °C 4,8 km/h (1 Bft)
03.03.2017 14:32 14,2 °C 14,3 °C 38 % 1010,1 hPa 0,0 mm 3,3 km/h (1 Bft) NW 321 ° 1 min 0,000 mm 2,4 UV-I 427 W/m² 0,1 °C 14,2 °C 4,8 km/h (1 Bft)
03.03.2017 14:33 14,3 °C 14,3 °C 35 % 1010,2 hPa 0,0 mm 2,3 km/h (1 Bft) N-NW 340 ° 1 min 0,000 mm 2,4 UV-I 424 W/m² -0,9 °C 14,3 °C 4,8 km/h (1 Bft)
03.03.2017 14:34 14,4 °C 14,4 °C 37 % 1010,1 hPa 0,0 mm 4,8 km/h (1 Bft) N 5 ° 1 min 0,000 mm 2,3 UV-I 432 W/m² -0,1 °C 14,4 °C 6,4 km/h (2 Bft)
03.03.2017 14:35 14,4 °C 14,4 °C 36 % 1010,1 hPa 0,0 mm 3,3 km/h (1 Bft) W-NW 302 ° 1 min 0,000 mm 2,3 UV-I 425 W/m² -0,5 °C 14,4 °C 4,8 km/h (1 Bft)
03.03.2017 14:36 14,6 °C 14,6 °C 39 % 1010,1 hPa 0,0 mm 5,0 km/h (1 Bft) N 355 ° 1 min 0,000 mm 2,3 UV-I 418 W/m² 0,8 °C 14,6 °C 6,4 km/h (2 Bft)
03.03.2017 14:37 14,6 °C 14,6 °C 35 % 1010,1 hPa 0,0 mm 4,5 km/h (1 Bft) N 360 ° 1 min 0,000 mm 2,3 UV-I 427 W/m² -0,7 °C 14,6 °C 6,4 km/h (2 Bft)
03.03.2017 14:38 14,6 °C 14,6 °C 34 % 1010,0 hPa 0,0 mm 4,2 km/h (1 Bft) N 5 ° 1 min 0,000 mm 2,3 UV-I 434 W/m² -1,1 °C 14,6 °C 6,4 km/h (2 Bft)
03.03.2017 14:39 14,6 °C 14,6 °C 33 % 1010,0 hPa 0,0 mm 4,0 km/h (1 Bft) NO 41 ° 1 min 0,000 mm 2,2 UV-I 417 W/m² -1,5 °C 14,6 °C 6,4 km/h (2 Bft)
03.03.2017 14:40 14,6 °C 14,6 °C 33 % 1010,0 hPa 0,0 mm 5,6 km/h (1 Bft) O-NO 75 ° 1 min 0,000 mm 2,2 UV-I 408 W/m² -1,5 °C 14,6 °C 8,0 km/h (2 Bft)
03.03.2017 14:41 14,4 °C 14,6 °C 32 % 1010,0 hPa 0,0 mm 3,8 km/h (1 Bft) O-NO 78 ° 1 min 0,000 mm 2,2 UV-I 388 W/m² -2,1 °C 14,4 °C 6,4 km/h (2 Bft)
03.03.2017 14:42 14,3 °C 14,4 °C 33 % 1010,0 hPa 0,0 mm 3,4 km/h (1 Bft) O-NO 74 ° 1 min 0,000 mm 2,2 UV-I 404 W/m² -1,7 °C 14,3 °C 6,4 km/h (2 Bft)
03.03.2017 14:43 14,3 °C 14,3 °C 34 % 1010,0 hPa 0,0 mm 3,6 km/h (1 Bft) O-NO 65 ° 1 min 0,000 mm 2,2 UV-I 408 W/m² -1,3 °C 14,3 °C 6,4 km/h (2 Bft)
03.03.2017 14:44 14,3 °C 14,3 °C 34 % 1010,0 hPa 0,0 mm 8,5 km/h (2 Bft) N-NO 30 ° 1 min 0,000 mm 2,2 UV-I 401 W/m² -1,3 °C 14,3 °C 12,9 km/h (3 Bft)
03.03.2017 14:45 14,3 °C 14,3 °C 33 % 1010,0 hPa 0,0 mm 6,4 km/h (2 Bft) NO 43 ° 1 min 0,000 mm 2,1 UV-I 376 W/m² -1,7 °C 14,3 °C 8,0 km/h (2 Bft)
03.03.2017 14:46 14,3 °C 14,3 °C 33 % 1010,0 hPa 0,0 mm 6,2 km/h (2 Bft) NO 42 ° 1 min 0,000 mm 2,1 UV-I 380 W/m² -1,7 °C 14,3 °C 9,7 km/h (2 Bft)
03.03.2017 14:47 14,2 °C 14,3 °C 31 % 1010,0 hPa 0,0 mm 5,3 km/h (1 Bft) N-NO 15 ° 1 min 0,000 mm 2,1 UV-I 378 W/m² -2,7 °C 14,2 °C 8,0 km/h (2 Bft)
03.03.2017 14:48 14,2 °C 14,2 °C 31 % 1010,0 hPa 0,0 mm 4,7 km/h (1 Bft) N 5 ° 1 min 0,000 mm 2,1 UV-I 390 W/m² -2,7 °C 14,2 °C 6,4 km/h (2 Bft)
03.03.2017 14:49 14,3 °C 14,3 °C 33 % 1009,9 hPa 0,0 mm 2,7 km/h (1 Bft) O-NO 59 ° 1 min 0,000 mm 2,0 UV-I 369 W/m² -1,7 °C 14,3 °C 4,8 km/h (1 Bft)
03.03.2017 14:50 14,2 °C 14,3 °C 39 % 1010,0 hPa 0,0 mm 2,3 km/h (1 Bft) O-NO 59 ° 1 min 0,000 mm 2,0 UV-I 378 W/m² 0,5 °C 14,2 °C 3,2 km/h (1 Bft)
03.03.2017 14:51 14,1 °C 14,2 °C 35 % 1009,9 hPa 0,0 mm 2,3 km/h (1 Bft) O-NO 59 ° 1 min 0,000 mm 2,0 UV-I 413 W/m² -1,1 °C 14,1 °C 3,2 km/h (1 Bft)
03.03.2017 14:52 14,2 °C 14,2 °C 34 % 1009,9 hPa 0,0 mm 4,2 km/h (1 Bft) N-NO 22 ° 1 min 0,000 mm 2,0 UV-I 404 W/m² -1,4 °C 14,2 °C 6,4 km/h (2 Bft)
03.03.2017 14:53 14,2 °C 14,2 °C 31 % 1009,8 hPa 0,0 mm 4,2 km/h (1 Bft) N 11 ° 1 min 0,000 mm 2,0 UV-I 422 W/m² -2,7 °C 14,2 °C 6,4 km/h (2 Bft)
03.03.2017 14:54 14,3 °C 14,3 °C 34 % 1009,9 hPa 0,0 mm 3,6 km/h (1 Bft) NO 53 ° 1 min 0,000 mm 2,0 UV-I 413 W/m² -1,3 °C 14,3 °C 6,4 km/h (2 Bft)
03.03.2017 14:55 14,3 °C 14,3 °C 34 % 1009,8 hPa 0,0 mm 3,4 km/h (1 Bft) NO 39 ° 1 min 0,000 mm 2,0 UV-I 413 W/m² -1,3 °C 14,3 °C 4,8 km/h (1 Bft)
03.03.2017 14:56 14,4 °C 14,4 °C 35 % 1009,8 hPa 0,0 mm 6,4 km/h (2 Bft) O 80 ° 1 min 0,000 mm 1,9 UV-I 380 W/m² -0,9 °C 14,4 °C 12,9 km/h (3 Bft)
03.03.2017 14:57 14,4 °C 14,4 °C 33 % 1009,8 hPa 0,0 mm 6,3 km/h (2 Bft) NO 56 ° 1 min 0,000 mm 1,9 UV-I 366 W/m² -1,7 °C 14,4 °C 11,3 km/h (2 Bft)
03.03.2017 14:58 14,3 °C 14,4 °C 33 % 1009,8 hPa 0,0 mm 5,0 km/h (1 Bft) N-NO 26 ° 1 min 0,000 mm 1,9 UV-I 367 W/m² -1,7 °C 14,3 °C 6,4 km/h (2 Bft)
03.03.2017 14:59 14,3 °C 14,3 °C 32 % 1009,9 hPa 0,0 mm 7,3 km/h (2 Bft) N-NO 28 ° 1 min 0,000 mm 1,9 UV-I 355 W/m² -2,2 °C 14,3 °C 9,7 km/h (2 Bft)
03.03.2017 15:00 14,3 °C 14,4 °C 32 % 1009,8 hPa 0,0 mm 7,6 km/h (2 Bft) N-NO 26 ° 1 min 0,000 mm 1,9 UV-I 352 W/m² -2,2 °C 14,3 °C 9,7 km/h (2 Bft)
03.03.2017 15:01 14,3 °C 14,4 °C 33 % 1009,8 hPa 0,0 mm 5,2 km/h (1 Bft) O-NO 73 ° 1 min 0,254 mm 1,8 UV-I 339 W/m² -1,7 °C 14,3 °C 6,4 km/h (2 Bft)
03.03.2017 15:02 14,3 °C 14,3 °C 33 % 1009,9 hPa 0,0 mm 5,5 km/h (1 Bft) N-NO 19 ° 1 min 0,000 mm 1,8 UV-I 336 W/m² -1,7 °C 14,3 °C 8,0 km/h (2 Bft)
03.03.2017 15:03 14,3 °C 14,3 °C 34 % 1009,7 hPa 0,0 mm 5,6 km/h (1 Bft) NO 44 ° 1 min 0,000 mm 1,8 UV-I 313 W/m² -1,3 °C 14,3 °C 9,7 km/h (2 Bft)
03.03.2017 15:04 14,3 °C 14,3 °C 32 % 1009,8 hPa 0,0 mm 7,5 km/h (2 Bft) O-NO 66 ° 1 min 0,000 mm 1,8 UV-I 338 W/m² -2,2 °C 14,3 °C 9,7 km/h (2 Bft)
03.03.2017 15:05 14,3 °C 14,3 °C 32 % 1009,7 hPa 0,0 mm 8,2 km/h (2 Bft) NO 51 ° 1 min 0,000 mm 1,8 UV-I 318 W/m² -2,2 °C 14,3 °C 14,5 km/h (3 Bft)
03.03.2017 15:06 14,3 °C 14,3 °C 33 % 1009,7 hPa 0,0 mm 5,8 km/h (2 Bft) N-NO 24 ° 1 min 0,000 mm 1,7 UV-I 304 W/m² -1,7 °C 14,3 °C 8,0 km/h (2 Bft)
03.03.2017 15:07 14,3 °C 14,3 °C 33 % 1009,7 hPa 0,0 mm 7,7 km/h (2 Bft) N-NO 33 ° 1 min 0,000 mm 1,8 UV-I 345 W/m² -1,7 °C 14,3 °C 11,3 km/h (2 Bft)
03.03.2017 15:08 14,3 °C 14,3 °C 33 % 1009,7 hPa 0,0 mm 8,0 km/h (2 Bft) NO 38 ° 1 min 0,000 mm 1,8 UV-I 348 W/m² -1,7 °C 14,3 °C 14,5 km/h (3 Bft)
03.03.2017 15:09 14,3 °C 14,3 °C 33 % 1009,7 hPa 0,0 mm 9,1 km/h (2 Bft) O-NO 59 ° 1 min 0,000 mm 1,8 UV-I 348 W/m² -1,7 °C 14,3 °C 14,5 km/h (3 Bft)
03.03.2017 15:10 14,3 °C 14,3 °C 33 % 1009,7 hPa 0,0 mm 7,8 km/h (2 Bft) NO 56 ° 1 min 0,000 mm 1,8 UV-I 320 W/m² -1,7 °C 14,3 °C 11,3 km/h (2 Bft)
03.03.2017 15:11 14,3 °C 14,3 °C 33 % 1009,7 hPa 0,0 mm 5,8 km/h (2 Bft) O 81 ° 1 min 0,000 mm 1,7 UV-I 330 W/m² -1,7 °C 14,3 °C 6,4 km/h (2 Bft)
03.03.2017 15:12 14,2 °C 14,3 °C 40 % 1009,7 hPa 0,0 mm 5,8 km/h (2 Bft) NO 53 ° 1 min 0,000 mm 1,7 UV-I 343 W/m² 0,8 °C 14,2 °C 8,0 km/h (2 Bft)
03.03.2017 15:13 14,2 °C 14,2 °C 40 % 1009,7 hPa 0,0 mm 4,5 km/h (1 Bft) O 87 ° 1 min 0,000 mm 1,7 UV-I 350 W/m² 0,8 °C 14,2 °C 9,7 km/h (2 Bft)
03.03.2017 15:14 14,1 °C 14,2 °C 37 % 1009,7 hPa 0,0 mm 6,7 km/h (2 Bft) O-NO 57 ° 1 min 0,000 mm 1,7 UV-I 343 W/m² -0,4 °C 14,1 °C 8,0 km/h (2 Bft)
03.03.2017 15:15 14,1 °C 14,1 °C 40 % 1009,7 hPa 0,0 mm 7,7 km/h (2 Bft) O-NO 69 ° 1 min 0,000 mm 1,7 UV-I 341 W/m² 0,7 °C 14,1 °C 9,7 km/h (2 Bft)
03.03.2017 15:16 14,0 °C 14,1 °C 39 % 1009,7 hPa 0,0 mm 6,4 km/h (2 Bft) O-NO 65 ° 1 min 0,000 mm 1,7 UV-I 318 W/m² 0,3 °C 14,0 °C 8,0 km/h (2 Bft)
03.03.2017 15:17 13,9 °C 14,0 °C 35 % 1009,6 hPa 0,0 mm 3,6 km/h (1 Bft) O 94 ° 1 min 0,000 mm 1,6 UV-I 315 W/m² -1,3 °C 13,9 °C 4,8 km/h (1 Bft)
03.03.2017 15:18 14,0 °C 14,0 °C 35 % 1009,6 hPa 0,0 mm 1,9 km/h (1 Bft) O 94 ° 1 min 0,000 mm 1,6 UV-I 309 W/m² -1,2 °C 14,0 °C 4,8 km/h (1 Bft)
03.03.2017 15:19 14,0 °C 14,0 °C 33 % 1009,7 hPa 0,0 mm 1,2 km/h (1 Bft) O 94 ° 1 min 0,000 mm 1,6 UV-I 304 W/m² -2,0 °C 14,0 °C 3,2 km/h (1 Bft)
03.03.2017 15:20 14,1 °C 14,1 °C 30 % 1009,5 hPa 0,0 mm 0,9 km/h (0 Bft) O 94 ° 1 min 0,000 mm 1,6 UV-I 304 W/m² -3,2 °C 14,1 °C 1,6 km/h (1 Bft)
03.03.2017 15:21 14,2 °C 14,2 °C 32 % 1009,5 hPa 0,0 mm 2,3 km/h (1 Bft) O 94 ° 1 min 0,000 mm 1,6 UV-I 285 W/m² -2,2 °C 14,2 °C 3,2 km/h (1 Bft)
03.03.2017 15:22 14,1 °C 14,2 °C 34 % 1009,5 hPa 0,0 mm 5,8 km/h (2 Bft) O-NO 63 ° 1 min 0,000 mm 1,5 UV-I 262 W/m² -1,5 °C 14,1 °C 6,4 km/h (2 Bft)
03.03.2017 15:23 13,9 °C 14,1 °C 40 % 1009,5 hPa 0,0 mm 4,6 km/h (1 Bft) N-NW 338 ° 1 min 0,000 mm 1,5 UV-I 260 W/m² 0,5 °C 13,9 °C 9,7 km/h (2 Bft)
03.03.2017 15:24 13,8 °C 13,9 °C 36 % 1009,5 hPa 0,0 mm 4,8 km/h (1 Bft) N 360 ° 1 min 0,000 mm 1,5 UV-I 260 W/m² -1,0 °C 13,8 °C 8,0 km/h (2 Bft)
03.03.2017 15:25 13,9 °C 13,9 °C 37 % 1009,4 hPa 0,0 mm 4,2 km/h (1 Bft) NO 36 ° 1 min 0,000 mm 1,5 UV-I 269 W/m² -0,5 °C 13,9 °C 6,4 km/h (2 Bft)
03.03.2017 15:26 14,1 °C 14,1 °C 39 % 1009,5 hPa 0,0 mm 5,3 km/h (1 Bft) NO 53 ° 1 min 0,000 mm 1,5 UV-I 278 W/m² 0,4 °C 14,1 °C 8,0 km/h (2 Bft)
03.03.2017 15:27 13,9 °C 14,1 °C 40 % 1009,4 hPa 0,0 mm 7,0 km/h (2 Bft) O 80 ° 1 min 0,000 mm 1,5 UV-I 269 W/m² 0,5 °C 13,9 °C 11,3 km/h (2 Bft)
03.03.2017 15:28 13,8 °C 13,9 °C 40 % 1009,5 hPa 0,0 mm 5,7 km/h (1 Bft) O-NO 67 ° 1 min 0,000 mm 1,4 UV-I 260 W/m² 0,4 °C 13,8 °C 9,7 km/h (2 Bft)
03.03.2017 15:29 13,7 °C 13,8 °C 39 % 1009,4 hPa 0,0 mm 4,5 km/h (1 Bft) O-NO 76 ° 1 min 0,000 mm 1,5 UV-I 278 W/m² 0,0 °C 13,7 °C 6,4 km/h (2 Bft)
03.03.2017 15:30 13,7 °C 13,7 °C 37 % 1009,3 hPa 0,0 mm 4,5 km/h (1 Bft) O-NO 59 ° 1 min 0,000 mm 1,5 UV-I 285 W/m² -0,7 °C 13,7 °C 4,8 km/h (1 Bft)
03.03.2017 15:31 13,7 °C 13,7 °C 39 % 1009,3 hPa 0,0 mm 5,0 km/h (1 Bft) O-NO 76 ° 1 min 0,000 mm 1,5 UV-I 272 W/m² 0,0 °C 13,7 °C 9,7 km/h (2 Bft)
03.03.2017 15:32 13,7 °C 13,7 °C 38 % 1009,3 hPa 0,0 mm 5,1 km/h (1 Bft) O-NO 72 ° 1 min 0,000 mm 1,5 UV-I 251 W/m² -0,4 °C 13,7 °C 6,4 km/h (2 Bft)
03.03.2017 15:33 13,5 °C 13,7 °C 41 % 1009,3 hPa 0,0 mm 4,3 km/h (1 Bft) O-NO 76 ° 1 min 0,000 mm 1,4 UV-I 234 W/m² 0,5 °C 13,5 °C 6,4 km/h (2 Bft)
03.03.2017 15:34 13,5 °C 13,5 °C 39 % 1009,3 hPa 0,0 mm 4,8 km/h (1 Bft) O-NO 77 ° 1 min 0,000 mm 1,4 UV-I 223 W/m² -0,2 °C 13,5 °C 8,0 km/h (2 Bft)
03.03.2017 15:35 13,6 °C 13,6 °C 40 % 1009,3 hPa 0,0 mm 6,5 km/h (2 Bft) O-NO 63 ° 1 min 0,000 mm 1,3 UV-I 227 W/m² 0,3 °C 13,6 °C 8,0 km/h (2 Bft)
03.03.2017 15:36 13,6 °C 13,6 °C 40 % 1009,3 hPa 0,0 mm 4,6 km/h (1 Bft) O-NO 61 ° 1 min 0,000 mm 1,3 UV-I 230 W/m² 0,3 °C 13,6 °C 6,4 km/h (2 Bft)
03.03.2017 15:37 13,6 °C 13,6 °C 43 % 1009,3 hPa 0,0 mm 3,2 km/h (1 Bft) NO 46 ° 1 min 0,000 mm 1,3 UV-I 239 W/m² 1,3 °C 13,6 °C 6,4 km/h (2 Bft)
03.03.2017 15:38 13,5 °C 13,6 °C 39 % 1009,3 hPa 0,0 mm 5,6 km/h (1 Bft) NO 34 ° 1 min 0,000 mm 1,3 UV-I 251 W/m² -0,2 °C 13,5 °C 8,0 km/h (2 Bft)
03.03.2017 15:39 13,6 °C 13,6 °C 43 % 1009,2 hPa 0,0 mm 6,9 km/h (2 Bft) O-NO 66 ° 1 min 0,000 mm 1,3 UV-I 244 W/m² 1,3 °C 13,6 °C 8,0 km/h (2 Bft)
03.03.2017 15:40 13,4 °C 13,6 °C 47 % 1009,2 hPa 0,0 mm 4,3 km/h (1 Bft) O-NO 68 ° 1 min 0,000 mm 1,3 UV-I 227 W/m² 2,3 °C 13,4 °C 6,4 km/h (2 Bft)
03.03.2017 15:41 13,3 °C 13,4 °C 44 % 1009,2 hPa 0,0 mm 4,8 km/h (1 Bft) O-NO 58 ° 1 min 0,000 mm 1,3 UV-I 218 W/m² 1,3 °C 13,3 °C 8,0 km/h (2 Bft)
03.03.2017 15:42 13,3 °C 13,3 °C 42 % 1009,2 hPa 0,0 mm 4,6 km/h (1 Bft) NO 53 ° 0 min 0,000 mm 1,2 UV-I 190 W/m² 0,7 °C 13,3 °C 8,0 km/h (2 Bft)
03.03.2017 15:43 13,3 °C 13,3 °C 45 % 1009,2 hPa 0,0 mm 5,3 km/h (1 Bft) O-NO 67 ° 0 min 0,000 mm 1,2 UV-I 185 W/m² 1,6 °C 13,3 °C 8,0 km/h (2 Bft)
03.03.2017 15:44 13,3 °C 13,3 °C 41 % 1009,2 hPa 0,0 mm 4,0 km/h (1 Bft) O-NO 78 ° 0 min 0,000 mm 1,2 UV-I 181 W/m² 0,3 °C 13,3 °C 6,4 km/h (2 Bft)
03.03.2017 15:45 13,4 °C 13,4 °C 39 % 1009,2 hPa 0,0 mm 6,6 km/h (2 Bft) O-NO 73 ° 0 min 0,000 mm 1,2 UV-I 171 W/m² -0,3 °C 13,4 °C 11,3 km/h (2 Bft)
03.03.2017 15:46 13,3 °C 13,4 °C 42 % 1009,2 hPa 0,0 mm 4,0 km/h (1 Bft) O-NO 73 ° 0 min 0,000 mm 1,2 UV-I 167 W/m² 0,7 °C 13,3 °C 6,4 km/h (2 Bft)
03.03.2017 15:47 13,3 °C 13,3 °C 42 % 1009,1 hPa 0,0 mm 4,7 km/h (1 Bft) O 80 ° 0 min 0,000 mm 1,1 UV-I 158 W/m² 0,7 °C 13,3 °C 8,0 km/h (2 Bft)
03.03.2017 15:48 13,2 °C 13,3 °C 46 % 1009,2 hPa 0,0 mm 2,7 km/h (1 Bft) O 80 ° 0 min 0,000 mm 1,1 UV-I 135 W/m² 1,8 °C 13,2 °C 4,8 km/h (1 Bft)
03.03.2017 15:49 13,3 °C 13,3 °C 38 % 1009,1 hPa 0,0 mm 0,1 km/h (0 Bft) O 80 ° 0 min 0,000 mm 1,0 UV-I 128 W/m² -0,7 °C 13,3 °C 1,6 km/h (1 Bft)
03.03.2017 15:50 13,4 °C 13,4 °C 38 % 1009,1 hPa 0,0 mm 0,7 km/h (0 Bft) O 80 ° 0 min 0,000 mm 1,0 UV-I 123 W/m² -0,6 °C 13,4 °C 3,2 km/h (1 Bft)
03.03.2017 15:51 13,5 °C 13,5 °C 38 % 1009,1 hPa 0,0 mm 0,8 km/h (0 Bft) O 80 ° 0 min 0,000 mm 1,0 UV-I 121 W/m² -0,5 °C 13,5 °C 1,6 km/h (1 Bft)
03.03.2017 15:52 13,6 °C 13,6 °C 39 % 1009,1 hPa 0,0 mm 1,3 km/h (1 Bft) O 80 ° 0 min 0,000 mm 1,0 UV-I 121 W/m² -0,1 °C 13,6 °C 3,2 km/h (1 Bft)
03.03.2017 15:53 13,4 °C 13,6 °C 41 % 1009,1 hPa 0,0 mm 1,9 km/h (1 Bft) O 80 ° 0 min 0,000 mm 1,0 UV-I 121 W/m² 0,4 °C 13,4 °C 3,2 km/h (1 Bft)
03.03.2017 15:54 13,4 °C 13,4 °C 39 % 1009,1 hPa 0,0 mm 1,0 km/h (0 Bft) O 80 ° 0 min 0,000 mm 1,0 UV-I 120 W/m² -0,3 °C 13,4 °C 4,8 km/h (1 Bft)
03.03.2017 15:55 13,4 °C 13,4 °C 41 % 1009,1 hPa 0,0 mm 3,4 km/h (1 Bft) SO 134 ° 0 min 0,000 mm 1,0 UV-I 120 W/m² 0,4 °C 13,4 °C 4,8 km/h (1 Bft)
03.03.2017 15:56 13,5 °C 13,5 °C 38 % 1009,1 hPa 0,0 mm 2,0 km/h (1 Bft) O-NO 77 ° 0 min 0,000 mm 1,0 UV-I 120 W/m² -0,5 °C 13,5 °C 4,8 km/h (1 Bft)
03.03.2017 15:57 13,4 °C 13,5 °C 38 % 1009,1 hPa 0,0 mm 2,5 km/h (1 Bft) O-NO 77 ° 0 min 0,000 mm 0,9 UV-I 120 W/m² -0,6 °C 13,4 °C 4,8 km/h (1 Bft)
03.03.2017 15:58 13,2 °C 13,4 °C 45 % 1009,1 hPa 0,0 mm 5,0 km/h (1 Bft) NO 50 ° 0 min 0,000 mm 0,9 UV-I 120 W/m² 1,5 °C 13,2 °C 6,4 km/h (2 Bft)
03.03.2017 15:59 13,0 °C 13,2 °C 43 % 1009,1 hPa 0,0 mm 4,9 km/h (1 Bft) O-NO 65 ° 0 min 0,000 mm 0,9 UV-I 118 W/m² 0,7 °C 13,0 °C 6,4 km/h (2 Bft)
03.03.2017 16:00 13,1 °C 13,1 °C 39 % 1009,1 hPa 0,0 mm 6,0 km/h (2 Bft) O 96 ° 0 min 0,000 mm 0,9 UV-I 118 W/m² -0,5 °C 13,1 °C 8,0 km/h (2 Bft)
03.03.2017 16:01 13,0 °C 13,1 °C 43 % 1009,1 hPa 0,0 mm 3,3 km/h (1 Bft) O 88 ° 0 min 0,153 mm 0,9 UV-I 116 W/m² 0,7 °C 13,0 °C 4,8 km/h (1 Bft)
03.03.2017 16:02 12,9 °C 13,0 °C 43 % 1009,1 hPa 0,0 mm 3,9 km/h (1 Bft) O-NO 67 ° 0 min 0,000 mm 0,9 UV-I 116 W/m² 0,6 °C 12,9 °C 6,4 km/h (2 Bft)
03.03.2017 16:03 12,8 °C 12,9 °C 43 % 1009,1 hPa 0,0 mm 2,5 km/h (1 Bft) O-NO 67 ° 0 min 0,000 mm 0,9 UV-I 113 W/m² 0,5 °C 12,8 °C 4,8 km/h (1 Bft)
03.03.2017 16:04 12,8 °C 12,8 °C 42 % 1009,0 hPa 0,0 mm 0,8 km/h (0 Bft) O-NO 67 ° 0 min 0,000 mm 0,8 UV-I 109 W/m² 0,2 °C 12,8 °C 1,6 km/h (1 Bft)
03.03.2017 16:05 12,9 °C 12,9 °C 42 % 1009,0 hPa 0,0 mm 1,7 km/h (1 Bft) O-NO 67 ° 0 min 0,000 mm 0,8 UV-I 109 W/m² 0,3 °C 12,9 °C 3,2 km/h (1 Bft)
03.03.2017 16:06 12,9 °C 12,9 °C 44 % 1009,0 hPa 0,0 mm 1,5 km/h (1 Bft) O-NO 67 ° 0 min 0,000 mm 0,8 UV-I 107 W/m² 1,0 °C 12,9 °C 3,2 km/h (1 Bft)
03.03.2017 16:07 13,0 °C 13,0 °C 41 % 1008,9 hPa 0,0 mm 0,3 km/h (0 Bft) O-NO 67 ° 0 min 0,000 mm 0,8 UV-I 105 W/m² 0,1 °C 13,0 °C 1,6 km/h (1 Bft)
03.03.2017 16:08 13,1 °C 13,1 °C 44 % 1008,9 hPa 0,0 mm 1,9 km/h (1 Bft) O-NO 67 ° 0 min 0,000 mm 0,8 UV-I 105 W/m² 1,1 °C 13,1 °C 3,2 km/h (1 Bft)
03.03.2017 16:09 12,9 °C 13,1 °C 43 % 1008,9 hPa 0,0 mm 1,9 km/h (1 Bft) O-SO 109 ° 0 min 0,000 mm 0,8 UV-I 102 W/m² 0,6 °C 12,9 °C 4,8 km/h (1 Bft)
03.03.2017 16:10 12,9 °C 12,9 °C 37 % 1008,9 hPa 0,0 mm 1,8 km/h (1 Bft) O-SO 121 ° 0 min 0,000 mm 0,8 UV-I 102 W/m² -1,4 °C 12,9 °C 4,8 km/h (1 Bft)
03.03.2017 16:11 12,8 °C 12,9 °C 43 % 1008,9 hPa 0,0 mm 5,4 km/h (1 Bft) O-NO 67 ° 0 min 0,000 mm 0,7 UV-I 100 W/m² 0,5 °C 12,8 °C 8,0 km/h (2 Bft)
03.03.2017 16:12 12,7 °C 12,8 °C 43 % 1008,9 hPa 0,0 mm 6,0 km/h (2 Bft) O-NO 71 ° 0 min 0,000 mm 0,7 UV-I 98 W/m² 0,5 °C 12,7 °C 8,0 km/h (2 Bft)
03.03.2017 16:13 12,6 °C 12,7 °C 42 % 1008,9 hPa 0,0 mm 2,5 km/h (1 Bft) O-NO 71 ° 0 min 0,000 mm 0,7 UV-I 97 W/m² 0,0 °C 12,6 °C 4,8 km/h (1 Bft)
03.03.2017 16:14 12,6 °C 12,6 °C 40 % 1008,9 hPa 0,0 mm 1,5 km/h (1 Bft) O-NO 71 ° 0 min 0,000 mm 0,7 UV-I 95 W/m² -0,6 °C 12,6 °C 3,2 km/h (1 Bft)
03.03.2017 16:15 12,7 °C 12,7 °C 41 % 1008,8 hPa 0,0 mm 2,3 km/h (1 Bft) O-NO 71 ° 0 min 0,000 mm 0,7 UV-I 91 W/m² -0,2 °C 12,7 °C 3,2 km/h (1 Bft)
03.03.2017 16:16 12,8 °C 12,8 °C 40 % 1008,9 hPa 0,0 mm 1,7 km/h (1 Bft) O-NO 71 ° 0 min 0,000 mm 0,7 UV-I 91 W/m² -0,5 °C 12,8 °C 3,2 km/h (1 Bft)
03.03.2017 16:17 12,8 °C 12,8 °C 38 % 1008,8 hPa 0,0 mm 1,5 km/h (1 Bft) O-NO 71 ° 0 min 0,000 mm 0,7 UV-I 91 W/m² -1,2 °C 12,8 °C 1,6 km/h (1 Bft)
03.03.2017 16:18 12,8 °C 12,8 °C 37 % 1008,8 hPa 0,0 mm 0,1 km/h (0 Bft) O-NO 71 ° 0 min 0,000 mm 0,7 UV-I 91 W/m² -1,5 °C 12,8 °C 1,6 km/h (1 Bft)
03.03.2017 16:19 12,9 °C 12,9 °C 35 % 1008,8 hPa 0,0 mm 0,0 km/h (0 Bft) O-NO 71 ° 0 min 0,000 mm 0,7 UV-I 93 W/m² -2,2 °C 12,9 °C 0,0 km/h (0 Bft)
03.03.2017 16:20 12,9 °C 12,9 °C 37 % 1008,8 hPa 0,0 mm 0,0 km/h (0 Bft) O-NO 71 ° 0 min 0,000 mm 0,7 UV-I 95 W/m² -1,4 °C 12,9 °C 0,0 km/h (0 Bft)
03.03.2017 16:21 12,9 °C 12,9 °C 35 % 1008,8 hPa 0,0 mm 0,0 km/h (0 Bft) O-NO 71 ° 0 min 0,000 mm 0,7 UV-I 97 W/m² -2,2 °C 12,9 °C 0,0 km/h (0 Bft)
03.03.2017 16:22 12,9 °C 12,9 °C 35 % 1008,8 hPa 0,0 mm 0,0 km/h (0 Bft) O-NO 71 ° 0 min 0,000 mm 0,6 UV-I 98 W/m² -2,2 °C 12,9 °C 0,0 km/h (0 Bft)
03.03.2017 16:23 12,8 °C 12,9 °C 38 % 1008,7 hPa 0,0 mm 0,0 km/h (0 Bft) O-NO 71 ° 0 min 0,000 mm 0,6 UV-I 98 W/m² -1,2 °C 12,8 °C 0,0 km/h (0 Bft)
03.03.2017 16:24 12,8 °C 12,8 °C 36 % 1008,7 hPa 0,0 mm 2,3 km/h (1 Bft) O-NO 74 ° 0 min 0,000 mm 0,6 UV-I 98 W/m² -1,9 °C 12,8 °C 4,8 km/h (1 Bft)
03.03.2017 16:25 12,8 °C 12,8 °C 36 % 1008,7 hPa 0,0 mm 2,5 km/h (1 Bft) O-NO 74 ° 0 min 0,000 mm 0,6 UV-I 98 W/m² -1,9 °C 12,8 °C 4,8 km/h (1 Bft)
03.03.2017 16:26 12,7 °C 12,8 °C 36 % 1008,7 hPa 0,0 mm 3,4 km/h (1 Bft) O 88 ° 0 min 0,000 mm 0,6 UV-I 98 W/m² -2,0 °C 12,7 °C 4,8 km/h (1 Bft)
03.03.2017 16:27 12,7 °C 12,7 °C 36 % 1008,7 hPa 0,0 mm 1,9 km/h (1 Bft) O 88 ° 0 min 0,000 mm 0,6 UV-I 95 W/m² -2,0 °C 12,7 °C 4,8 km/h (1 Bft)
03.03.2017 16:28 12,7 °C 12,7 °C 37 % 1008,6 hPa 0,0 mm 1,8 km/h (1 Bft) O 88 ° 0 min 0,000 mm 0,6 UV-I 93 W/m² -1,6 °C 12,7 °C 3,2 km/h (1 Bft)
03.03.2017 16:29 12,6 °C 12,7 °C 44 % 1008,6 hPa 0,0 mm 2,4 km/h (1 Bft) O 86 ° 0 min 0,000 mm 0,6 UV-I 90 W/m² 0,7 °C 12,6 °C 3,2 km/h (1 Bft)
03.03.2017 16:30 12,6 °C 12,7 °C 35 % 1008,6 hPa 0,0 mm 2,7 km/h (1 Bft) O 86 ° 0 min 0,000 mm 0,6 UV-I 86 W/m² -2,4 °C 12,6 °C 4,8 km/h (1 Bft)
03.03.2017 16:31 12,6 °C 12,6 °C 36 % 1008,6 hPa 0,0 mm 1,9 km/h (1 Bft) O 86 ° 0 min 0,000 mm 0,6 UV-I 84 W/m² -2,1 °C 12,6 °C 3,2 km/h (1 Bft)
03.03.2017 16:32 12,6 °C 12,6 °C 39 % 1008,6 hPa 0,0 mm 0,8 km/h (0 Bft) O 86 ° 0 min 0,000 mm 0,5 UV-I 81 W/m² -1,0 °C 12,6 °C 3,2 km/h (1 Bft)
03.03.2017 16:33 12,6 °C 12,6 °C 35 % 1008,6 hPa 0,0 mm 2,1 km/h (1 Bft) SO 132 ° 0 min 0,000 mm 0,5 UV-I 81 W/m² -2,4 °C 12,6 °C 4,8 km/h (1 Bft)
03.03.2017 16:34 12,6 °C 12,6 °C 38 % 1008,6 hPa 0,0 mm 3,2 km/h (1 Bft) O-SO 102 ° 0 min 0,000 mm 0,5 UV-I 81 W/m² -1,3 °C 12,6 °C 4,8 km/h (1 Bft)
03.03.2017 16:35 12,6 °C 12,6 °C 37 % 1008,6 hPa 0,0 mm 2,6 km/h (1 Bft) O 101 ° 0 min 0,000 mm 0,5 UV-I 83 W/m² -1,7 °C 12,6 °C 3,2 km/h (1 Bft)
03.03.2017 16:36 12,6 °C 12,6 °C 39 % 1008,5 hPa 0,0 mm 1,0 km/h (0 Bft) O 101 ° 0 min 0,000 mm 0,5 UV-I 83 W/m² -1,0 °C 12,6 °C 1,6 km/h (1 Bft)
03.03.2017 16:37 12,5 °C 12,6 °C 36 % 1008,4 hPa 0,0 mm 1,5 km/h (1 Bft) O 101 ° 0 min 0,000 mm 0,5 UV-I 83 W/m² -2,2 °C 12,5 °C 3,2 km/h (1 Bft)
03.03.2017 16:38 12,4 °C 12,5 °C 37 % 1008,4 hPa 0,0 mm 0,1 km/h (0 Bft) O 101 ° 0 min 0,000 mm 0,5 UV-I 83 W/m² -1,9 °C 12,4 °C 1,6 km/h (1 Bft)
03.03.2017 16:39 12,4 °C 12,4 °C 38 % 1008,4 hPa 0,0 mm 0,1 km/h (0 Bft) O 101 ° 0 min 0,000 mm 0,5 UV-I 84 W/m² -1,5 °C 12,4 °C 1,6 km/h (1 Bft)
03.03.2017 16:40 12,3 °C 12,4 °C 40 % 1008,4 hPa 0,0 mm 0,0 km/h (0 Bft) O 101 ° 0 min 0,000 mm 0,5 UV-I 83 W/m² -0,9 °C 12,3 °C 0,0 km/h (0 Bft)
03.03.2017 16:41 12,2 °C 12,3 °C 39 % 1008,4 hPa 0,0 mm 0,5 km/h (0 Bft) O 101 ° 0 min 0,000 mm 0,5 UV-I 83 W/m² -1,3 °C 12,2 °C 1,6 km/h (1 Bft)
03.03.2017 16:42 12,2 °C 12,2 °C 38 % 1008,4 hPa 0,0 mm 0,6 km/h (0 Bft) O 101 ° 0 min 0,000 mm 0,5 UV-I 83 W/m² -1,7 °C 12,2 °C 1,6 km/h (1 Bft)
03.03.2017 16:43 12,2 °C 12,2 °C 38 % 1008,4 hPa 0,0 mm 0,0 km/h (0 Bft) O 101 ° 0 min 0,000 mm 0,5 UV-I 83 W/m² -1,7 °C 12,2 °C 0,0 km/h (0 Bft)
03.03.2017 16:44 12,3 °C 12,3 °C 38 % 1008,4 hPa 0,0 mm 0,6 km/h (0 Bft) O 101 ° 0 min 0,000 mm 0,5 UV-I 81 W/m² -1,6 °C 12,3 °C 3,2 km/h (1 Bft)
03.03.2017 16:45 12,2 °C 12,3 °C 41 % 1008,4 hPa 0,0 mm 0,0 km/h (0 Bft) O 101 ° 0 min 0,000 mm 0,5 UV-I 81 W/m² -0,7 °C 12,2 °C 0,0 km/h (0 Bft)
03.03.2017 16:46 12,1 °C 12,2 °C 40 % 1008,4 hPa 0,0 mm 0,1 km/h (0 Bft) O 101 ° 0 min 0,000 mm 0,5 UV-I 79 W/m² -1,1 °C 12,1 °C 1,6 km/h (1 Bft)
03.03.2017 16:47 12,0 °C 12,1 °C 39 % 1008,4 hPa 0,0 mm 0,3 km/h (0 Bft) O 101 ° 0 min 0,000 mm 0,5 UV-I 79 W/m² -1,5 °C 12,0 °C 1,6 km/h (1 Bft)
03.03.2017 16:48 12,1 °C 12,1 °C 38 % 1008,4 hPa 0,0 mm 0,7 km/h (0 Bft) O 101 ° 0 min 0,000 mm 0,5 UV-I 79 W/m² -1,8 °C 12,1 °C 1,6 km/h (1 Bft)
03.03.2017 16:49 12,1 °C 12,1 °C 38 % 1008,4 hPa 0,0 mm 0,3 km/h (0 Bft) O 101 ° 0 min 0,000 mm 0,5 UV-I 79 W/m² -1,8 °C 12,1 °C 1,6 km/h (1 Bft)
03.03.2017 16:50 12,2 °C 12,2 °C 38 % 1008,3 hPa 0,0 mm 1,2 km/h (1 Bft) O 101 ° 0 min 0,000 mm 0,0 UV-I 79 W/m² -1,7 °C 12,2 °C 3,2 km/h (1 Bft)
03.03.2017 16:51 12,0 °C 12,2 °C 43 % 1008,3 hPa 0,0 mm 1,9 km/h (1 Bft) O-SO 105 ° 0 min 0,000 mm 0,0 UV-I 77 W/m² -0,2 °C 12,0 °C 3,2 km/h (1 Bft)
03.03.2017 16:52 11,9 °C 12,0 °C 42 % 1008,2 hPa 0,0 mm 2,9 km/h (1 Bft) SO 138 ° 0 min 0,000 mm 0,0 UV-I 77 W/m² -0,6 °C 11,9 °C 4,8 km/h (1 Bft)
03.03.2017 16:53 12,0 °C 12,0 °C 42 % 1008,2 hPa 0,0 mm 2,2 km/h (1 Bft) NO 38 ° 0 min 0,000 mm 0,0 UV-I 77 W/m² -0,5 °C 12,0 °C 4,8 km/h (1 Bft)
03.03.2017 16:54 11,9 °C 12,0 °C 39 % 1008,2 hPa 0,0 mm 2,2 km/h (1 Bft) O-NO 67 ° 0 min 0,000 mm 0,0 UV-I 76 W/m² -1,6 °C 11,9 °C 4,8 km/h (1 Bft)
03.03.2017 16:55 11,9 °C 11,9 °C 39 % 1008,3 hPa 0,0 mm 1,9 km/h (1 Bft) N 360 ° 0 min 0,000 mm 0,0 UV-I 74 W/m² -1,6 °C 11,9 °C 4,8 km/h (1 Bft)
03.03.2017 16:56 11,9 °C 11,9 °C 39 % 1008,2 hPa 0,0 mm 1,5 km/h (1 Bft) N 360 ° 0 min 0,000 mm 0,0 UV-I 70 W/m² -1,6 °C 11,9 °C 3,2 km/h (1 Bft)
03.03.2017 16:57 11,9 °C 11,9 °C 40 % 1008,2 hPa 0,0 mm 1,6 km/h (1 Bft) N 360 ° 0 min 0,000 mm 0,0 UV-I 70 W/m² -1,3 °C 11,9 °C 3,2 km/h (1 Bft)
03.03.2017 16:58 11,8 °C 11,9 °C 38 % 1008,2 hPa 0,0 mm 1,8 km/h (1 Bft) N 360 ° 0 min 0,000 mm 0,0 UV-I 69 W/m² -2,0 °C 11,8 °C 3,2 km/h (1 Bft)
03.03.2017 16:59 11,8 °C 11,8 °C 40 % 1008,2 hPa 0,0 mm 2,3 km/h (1 Bft) O-NO 64 ° 0 min 0,000 mm 0,0 UV-I 67 W/m² -1,3 °C 11,8 °C 3,2 km/h (1 Bft)
03.03.2017 17:00 11,8 °C 11,8 °C 41 % 1008,2 hPa 0,0 mm 1,5 km/h (1 Bft) O-NO 64 ° 0 min 0,000 mm 0,0 UV-I 67 W/m² -1,0 °C 11,8 °C 3,2 km/h (1 Bft)
03.03.2017 17:01 11,7 °C 11,8 °C 39 % 1008,2 hPa 0,0 mm 0,0 km/h (0 Bft) O-NO 64 ° 0 min 0,076 mm 0,0 UV-I 65 W/m² -1,8 °C 11,7 °C 0,0 km/h (0 Bft)
03.03.2017 17:02 11,7 °C 11,7 °C 39 % 1008,2 hPa 0,0 mm 2,0 km/h (1 Bft) O-NO 65 ° 0 min 0,000 mm 0,0 UV-I 63 W/m² -1,8 °C 11,7 °C 4,8 km/h (1 Bft)
03.03.2017 17:03 11,7 °C 11,7 °C 40 % 1008,1 hPa 0,0 mm 0,8 km/h (0 Bft) O-NO 65 ° 0 min 0,000 mm 0,0 UV-I 62 W/m² -1,4 °C 11,7 °C 1,6 km/h (1 Bft)
03.03.2017 17:04 11,7 °C 11,7 °C 38 % 1008,1 hPa 0,0 mm 2,6 km/h (1 Bft) NW 313 ° 0 min 0,000 mm 0,0 UV-I 60 W/m² -2,1 °C 11,7 °C 6,4 km/h (2 Bft)
03.03.2017 17:05 11,7 °C 11,7 °C 39 % 1008,1 hPa 0,0 mm 1,9 km/h (1 Bft) O-NO 65 ° 0 min 0,000 mm 0,0 UV-I 60 W/m² -1,8 °C 11,7 °C 3,2 km/h (1 Bft)
03.03.2017 17:06 11,7 °C 11,7 °C 36 % 1008,0 hPa 0,0 mm 3,5 km/h (1 Bft) SO 135 ° 0 min 0,000 mm 0,0 UV-I 58 W/m² -2,9 °C 11,7 °C 8,0 km/h (2 Bft)
03.03.2017 17:07 11,7 °C 11,7 °C 39 % 1008,0 hPa 0,0 mm 2,0 km/h (1 Bft) SO 135 ° 0 min 0,000 mm 0,0 UV-I 54 W/m² -1,8 °C 11,7 °C 4,8 km/h (1 Bft)
03.03.2017 17:08 11,7 °C 11,8 °C 38 % 1008,0 hPa 0,0 mm 0,5 km/h (0 Bft) SO 135 ° 0 min 0,000 mm 0,0 UV-I 53 W/m² -2,1 °C 11,7 °C 1,6 km/h (1 Bft)
03.03.2017 17:09 11,7 °C 11,7 °C 38 % 1008,0 hPa 0,0 mm 3,2 km/h (1 Bft) N 355 ° 0 min 0,000 mm 0,0 UV-I 51 W/m² -2,1 °C 11,7 °C 6,4 km/h (2 Bft)
03.03.2017 17:10 11,6 °C 11,7 °C 42 % 1008,0 hPa 0,0 mm 2,5 km/h (1 Bft) N-NW 346 ° 0 min 0,000 mm 0,0 UV-I 51 W/m² -0,9 °C 11,6 °C 4,8 km/h (1 Bft)
03.03.2017 17:11 11,6 °C 11,6 °C 38 % 1008,0 hPa 0,0 mm 2,7 km/h (1 Bft) O 94 ° 0 min 0,000 mm 0,0 UV-I 49 W/m² -2,2 °C 11,6 °C 3,2 km/h (1 Bft)
03.03.2017 17:12 11,5 °C 11,6 °C 39 % 1007,9 hPa 0,0 mm 1,5 km/h (1 Bft) O 94 ° 0 min 0,000 mm 0,0 UV-I 47 W/m² -2,0 °C 11,5 °C 3,2 km/h (1 Bft)
03.03.2017 17:13 11,5 °C 11,5 °C 38 % 1007,9 hPa 0,0 mm 1,7 km/h (1 Bft) O 94 ° 0 min 0,000 mm 0,0 UV-I 47 W/m² -2,3 °C 11,5 °C 3,2 km/h (1 Bft)
03.03.2017 17:14 11,5 °C 11,5 °C 38 % 1007,9 hPa 0,0 mm 1,9 km/h (1 Bft) O 94 ° 0 min 0,000 mm 0,0 UV-I 44 W/m² -2,3 °C 11,5 °C 3,2 km/h (1 Bft)
03.03.2017 17:15 11,5 °C 11,6 °C 39 % 1007,9 hPa 0,0 mm 2,3 km/h (1 Bft) O 94 ° 0 min 0,000 mm 0,0 UV-I 44 W/m² -2,0 °C 11,5 °C 3,2 km/h (1 Bft)
03.03.2017 17:16 11,4 °C 11,5 °C 38 % 1007,8 hPa 0,0 mm 0,8 km/h (0 Bft) O 94 ° 0 min 0,000 mm 0,0 UV-I 42 W/m² -2,4 °C 11,4 °C 3,2 km/h (1 Bft)
03.03.2017 17:17 11,4 °C 11,4 °C 38 % 1007,8 hPa 0,0 mm 2,1 km/h (1 Bft) O 94 ° 0 min 0,000 mm 0,0 UV-I 42 W/m² -2,4 °C 11,4 °C 3,2 km/h (1 Bft)
03.03.2017 17:18 11,3 °C 11,4 °C 40 % 1007,8 hPa 0,0 mm 1,5 km/h (1 Bft) O 94 ° 0 min 0,000 mm 0,0 UV-I 40 W/m² -1,8 °C 11,3 °C 3,2 km/h (1 Bft)
03.03.2017 17:19 11,2 °C 11,3 °C 39 % 1007,8 hPa 0,0 mm 1,0 km/h (0 Bft) O 94 ° 0 min 0,000 mm 0,0 UV-I 39 W/m² -2,2 °C 11,2 °C 3,2 km/h (1 Bft)
03.03.2017 17:20 11,2 °C 11,2 °C 38 % 1007,7 hPa 0,0 mm 1,3 km/h (1 Bft) O 94 ° 0 min 0,000 mm 0,0 UV-I 39 W/m² -2,6 °C 11,2 °C 3,2 km/h (1 Bft)
03.03.2017 17:21 11,2 °C 11,2 °C 39 % 1007,7 hPa 0,0 mm 0,5 km/h (0 Bft) O 94 ° 0 min 0,000 mm 0,0 UV-I 37 W/m² -2,2 °C 11,2 °C 1,6 km/h (1 Bft)
03.03.2017 17:22 11,2 °C 11,2 °C 39 % 1007,7 hPa 0,0 mm 0,9 km/h (0 Bft) O 94 ° 0 min 0,000 mm 0,0 UV-I 35 W/m² -2,2 °C 11,2 °C 1,6 km/h (1 Bft)
03.03.2017 17:23 11,2 °C 11,2 °C 39 % 1007,7 hPa 0,0 mm 0,5 km/h (0 Bft) O 94 ° 0 min 0,000 mm 0,0 UV-I 35 W/m² -2,2 °C 11,2 °C 1,6 km/h (1 Bft)
03.03.2017 17:24 11,1 °C 11,2 °C 41 % 1007,7 hPa 0,0 mm 1,1 km/h (1 Bft) O 94 ° 0 min 0,000 mm 0,0 UV-I 33 W/m² -1,6 °C 11,1 °C 1,6 km/h (1 Bft)
03.03.2017 17:25 11,0 °C 11,1 °C 39 % 1007,7 hPa 0,0 mm 1,1 km/h (1 Bft) O 94 ° 0 min 0,000 mm 0,0 UV-I 32 W/m² -2,4 °C 11,0 °C 1,6 km/h (1 Bft)
03.03.2017 17:26 11,0 °C 11,0 °C 39 % 1007,7 hPa 0,0 mm 0,1 km/h (0 Bft) O 94 ° 0 min 0,000 mm 0,0 UV-I 30 W/m² -2,4 °C 11,0 °C 1,6 km/h (1 Bft)
03.03.2017 17:27 10,9 °C 11,0 °C 39 % 1007,7 hPa 0,0 mm 0,1 km/h (0 Bft) O 94 ° 0 min 0,000 mm 0,0 UV-I 30 W/m² -2,5 °C 10,9 °C 1,6 km/h (1 Bft)
03.03.2017 17:28 10,9 °C 10,9 °C 39 % 1007,7 hPa 0,0 mm 0,7 km/h (0 Bft) O 94 ° 0 min 0,000 mm 0,0 UV-I 28 W/m² -2,5 °C 10,9 °C 3,2 km/h (1 Bft)
03.03.2017 17:29 10,9 °C 10,9 °C 39 % 1007,7 hPa 0,0 mm 0,8 km/h (0 Bft) O 94 ° 0 min 0,000 mm 0,0 UV-I 28 W/m² -2,5 °C 10,9 °C 1,6 km/h (1 Bft)
03.03.2017 17:30 10,9 °C 10,9 °C 39 % 1007,7 hPa 0,0 mm 1,1 km/h (1 Bft) O 94 ° 0 min 0,000 mm 0,0 UV-I 26 W/m² -2,5 °C 10,9 °C 1,6 km/h (1 Bft)
03.03.2017 17:31 10,9 °C 10,9 °C 40 % 1007,7 hPa 0,0 mm 0,0 km/h (0 Bft) O 94 ° 0 min 0,000 mm 0,0 UV-I 25 W/m² -2,2 °C 10,9 °C 0,0 km/h (0 Bft)
03.03.2017 17:32 10,9 °C 10,9 °C 39 % 1007,8 hPa 0,0 mm 0,0 km/h (0 Bft) O 94 ° 0 min 0,000 mm 0,0 UV-I 23 W/m² -2,5 °C 10,9 °C 0,0 km/h (0 Bft)
03.03.2017 17:33 10,8 °C 10,9 °C 39 % 1007,8 hPa 0,0 mm 0,0 km/h (0 Bft) O 94 ° 0 min 0,000 mm 0,0 UV-I 21 W/m² -2,6 °C 10,8 °C 0,0 km/h (0 Bft)
03.03.2017 17:34 10,8 °C 10,9 °C 39 % 1007,7 hPa 0,0 mm 0,6 km/h (0 Bft) O 94 ° 0 min 0,000 mm 0,0 UV-I 21 W/m² -2,6 °C 10,8 °C 3,2 km/h (1 Bft)
03.03.2017 17:35 10,9 °C 10,9 °C 39 % 1007,8 hPa 0,0 mm 1,5 km/h (1 Bft) O 94 ° 0 min 0,000 mm 0,0 UV-I 19 W/m² -2,5 °C 10,9 °C 3,2 km/h (1 Bft)
03.03.2017 17:36 10,9 °C 10,9 °C 38 % 1007,8 hPa 0,0 mm 2,3 km/h (1 Bft) O 94 ° 0 min 0,000 mm 0,0 UV-I 19 W/m² -2,8 °C 10,9 °C 3,2 km/h (1 Bft)
03.03.2017 17:37 10,9 °C 10,9 °C 41 % 1007,8 hPa 0,0 mm 1,5 km/h (1 Bft) O 94 ° 0 min 0,000 mm 0,0 UV-I 16 W/m² -1,8 °C 10,9 °C 3,2 km/h (1 Bft)
03.03.2017 17:38 10,8 °C 10,9 °C 39 % 1007,8 hPa 0,0 mm 2,2 km/h (1 Bft) O 94 ° 0 min 0,000 mm 0,0 UV-I 16 W/m² -2,6 °C 10,8 °C 3,2 km/h (1 Bft)
03.03.2017 17:39 10,7 °C 10,8 °C 41 % 1007,7 hPa 0,0 mm 1,1 km/h (1 Bft) O 94 ° 0 min 0,000 mm 0,0 UV-I 14 W/m² -2,0 °C 10,7 °C 1,6 km/h (1 Bft)
03.03.2017 17:40 10,7 °C 10,7 °C 38 % 1007,7 hPa 0,0 mm 1,0 km/h (0 Bft) O 94 ° 0 min 0,000 mm 0,0 UV-I 14 W/m² -3,0 °C 10,7 °C 1,6 km/h (1 Bft)
03.03.2017 17:41 10,7 °C 10,7 °C 39 % 1007,7 hPa 0,0 mm 2,7 km/h (1 Bft) O 94 ° 0 min 0,000 mm 0,0 UV-I 12 W/m² -2,7 °C 10,7 °C 3,2 km/h (1 Bft)
03.03.2017 17:42 10,8 °C 10,8 °C 38 % 1007,7 hPa 0,0 mm 1,7 km/h (1 Bft) O 94 ° 0 min 0,000 mm 0,0 UV-I 12 W/m² -2,9 °C 10,8 °C 3,2 km/h (1 Bft)
03.03.2017 17:43 10,8 °C 10,8 °C 39 % 1007,7 hPa 0,0 mm 1,2 km/h (1 Bft) O 94 ° 0 min 0,000 mm 0,0 UV-I 11 W/m² -2,6 °C 10,8 °C 1,6 km/h (1 Bft)
03.03.2017 17:44 10,9 °C 10,9 °C 38 % 1007,7 hPa 0,0 mm 2,3 km/h (1 Bft) O 94 ° 0 min 0,000 mm 0,0 UV-I 11 W/m² -2,8 °C 10,9 °C 3,2 km/h (1 Bft)
03.03.2017 17:45 10,9 °C 10,9 °C 37 % 1007,6 hPa 0,0 mm 3,2 km/h (1 Bft) O 94 ° 0 min 0,000 mm 0,0 UV-I 11 W/m² -3,2 °C 10,9 °C 4,8 km/h (1 Bft)
03.03.2017 17:46 10,9 °C 10,9 °C 39 % 1007,6 hPa 0,0 mm 2,3 km/h (1 Bft) O 94 ° 0 min 0,000 mm 0,0 UV-I 9 W/m² -2,5 °C 10,9 °C 3,2 km/h (1 Bft)
03.03.2017 17:47 10,9 °C 10,9 °C 40 % 1007,7 hPa 0,0 mm 2,2 km/h (1 Bft) O 94 ° 0 min 0,000 mm 0,0 UV-I 9 W/m² -2,2 °C 10,9 °C 3,2 km/h (1 Bft)
03.03.2017 17:48 10,9 °C 10,9 °C 37 % 1007,7 hPa 0,0 mm 3,1 km/h (1 Bft) O 94 ° 0 min 0,000 mm 0,0 UV-I 9 W/m² -3,2 °C 10,9 °C 4,8 km/h (1 Bft)
03.03.2017 17:49 10,9 °C 10,9 °C 38 % 1007,6 hPa 0,0 mm 2,2 km/h (1 Bft) O 94 ° 0 min 0,000 mm 0,0 UV-I 7 W/m² -2,8 °C 10,9 °C 3,2 km/h (1 Bft)
03.03.2017 17:50 10,9 °C 11,0 °C 36 % 1007,7 hPa 0,0 mm 2,6 km/h (1 Bft) O 94 ° 0 min 0,000 mm 0,0 UV-I 7 W/m² -3,6 °C 10,9 °C 3,2 km/h (1 Bft)
03.03.2017 17:51 10,9 °C 11,0 °C 40 % 1007,6 hPa 0,0 mm 1,8 km/h (1 Bft) O 94 ° 0 min 0,000 mm 0,0 UV-I 7 W/m² -2,2 °C 10,9 °C 3,2 km/h (1 Bft)
03.03.2017 17:52 10,9 °C 10,9 °C 38 % 1007,6 hPa 0,0 mm 1,1 km/h (1 Bft) O 94 ° 0 min 0,000 mm 0,0 UV-I 5 W/m² -2,8 °C 10,9 °C 1,6 km/h (1 Bft)
03.03.2017 17:53 11,0 °C 11,0 °C 38 % 1007,6 hPa 0,0 mm 2,5 km/h (1 Bft) O 94 ° 0 min 0,000 mm 0,0 UV-I 5 W/m² -2,8 °C 11,0 °C 3,2 km/h (1 Bft)
03.03.2017 17:54 10,9 °C 11,0 °C 39 % 1007,5 hPa 0,0 mm 3,4 km/h (1 Bft) O 94 ° 0 min 0,000 mm 0,0 UV-I 5 W/m² -2,5 °C 10,9 °C 4,8 km/h (1 Bft)
03.03.2017 17:55 10,9 °C 10,9 °C 39 % 1007,5 hPa 0,0 mm 2,8 km/h (1 Bft) O 94 ° 0 min 0,000 mm 0,0 UV-I 0 W/m² -2,5 °C 10,9 °C 4,8 km/h (1 Bft)
03.03.2017 17:56 10,9 °C 10,9 °C 39 % 1007,5 hPa 0,0 mm 4,7 km/h (1 Bft) SO 126 ° 0 min 0,000 mm 0,0 UV-I 0 W/m² -2,5 °C 10,9 °C 6,4 km/h (2 Bft)
03.03.2017 17:57 10,8 °C 10,9 °C 39 % 1007,5 hPa 0,0 mm 2,9 km/h (1 Bft) SO 126 ° 0 min 0,000 mm 0,0 UV-I 0 W/m² -2,6 °C 10,8 °C 4,8 km/h (1 Bft)
03.03.2017 17:58 10,7 °C 10,8 °C 39 % 1007,5 hPa 0,0 mm 1,5 km/h (1 Bft) SO 126 ° 0 min 0,000 mm 0,0 UV-I 0 W/m² -2,7 °C 10,7 °C 1,6 km/h (1 Bft)
03.03.2017 17:59 10,6 °C 10,7 °C 42 % 1007,5 hPa 0,0 mm 4,4 km/h (1 Bft) S 176 ° 0 min 0,000 mm 0,0 UV-I 0 W/m² -1,8 °C 10,6 °C 6,4 km/h (2 Bft)
03.03.2017 18:00 10,5 °C 10,6 °C 41 % 1007,5 hPa 0,0 mm 3,2 km/h (1 Bft) S 175 ° 0 min 0,000 mm 0,0 UV-I 0 W/m² -2,2 °C 10,5 °C 4,8 km/h (1 Bft)
03.03.2017 18:01 10,4 °C 10,5 °C 39 % 1007,4 hPa 0,0 mm 3,2 km/h (1 Bft) S 175 ° 0 min 0,025 mm 0,0 UV-I 0 W/m² -2,9 °C 10,4 °C 4,8 km/h (1 Bft)
03.03.2017 18:02 10,4 °C 10,4 °C 40 % 1007,5 hPa 0,0 mm 1,7 km/h (1 Bft) S 175 ° 0 min 0,000 mm 0,0 UV-I 0 W/m² -2,6 °C 10,4 °C 3,2 km/h (1 Bft)
03.03.2017 18:03 10,3 °C 10,4 °C 41 % 1007,4 hPa 0,0 mm 3,2 km/h (1 Bft) S 175 ° 0 min 0,000 mm 0,0 UV-I 0 W/m² -2,4 °C 10,3 °C 4,8 km/h (1 Bft)
03.03.2017 18:04 10,3 °C 10,4 °C 41 % 1007,4 hPa 0,0 mm 2,2 km/h (1 Bft) S 175 ° 0 min 0,000 mm 0,0 UV-I 0 W/m² -2,4 °C 10,3 °C 4,8 km/h (1 Bft)
03.03.2017 18:05 10,1 °C 10,3 °C 46 % 1007,3 hPa 0,0 mm 3,1 km/h (1 Bft) SO 141 ° 0 min 0,000 mm 0,0 UV-I 0 W/m² -1,0 °C 10,1 °C 4,8 km/h (1 Bft)
03.03.2017 18:06 9,8 °C 10,1 °C 42 % 1007,3 hPa 0,0 mm 3,4 km/h (1 Bft) SO 141 ° 0 min 0,000 mm 0,0 UV-I 0 W/m² -2,5 °C 9,8 °C 4,8 km/h (1 Bft)
03.03.2017 18:07 9,8 °C 9,8 °C 41 % 1007,3 hPa 0,0 mm 2,0 km/h (1 Bft) SO 141 ° 0 min 0,000 mm 0,0 UV-I 0 W/m² -2,8 °C 9,8 °C 3,2 km/h (1 Bft)
03.03.2017 18:08 9,8 °C 9,8 °C 41 % 1007,3 hPa 0,0 mm 1,1 km/h (1 Bft) SO 141 ° 0 min 0,000 mm 0,0 UV-I 0 W/m² -2,8 °C 9,8 °C 3,2 km/h (1 Bft)
03.03.2017 18:09 9,9 °C 9,9 °C 41 % 1007,3 hPa 0,0 mm 0,6 km/h (0 Bft) SO 141 ° 0 min 0,000 mm 0,0 UV-I 0 W/m² -2,7 °C 9,9 °C 3,2 km/h (1 Bft)
03.03.2017 18:10 10,0 °C 10,0 °C 42 % 1007,3 hPa 0,0 mm 3,1 km/h (1 Bft) SO 141 ° 0 min 0,000 mm 0,0 UV-I 0 W/m² -2,3 °C 10,0 °C 4,8 km/h (1 Bft)
03.03.2017 18:11 10,1 °C 10,1 °C 40 % 1007,3 hPa 0,0 mm 1,8 km/h (1 Bft) SO 141 ° 0 min 0,000 mm 0,0 UV-I 0 W/m² -2,9 °C 10,1 °C 3,2 km/h (1 Bft)
03.03.2017 18:12 10,2 °C 10,2 °C 40 % 1007,3 hPa 0,0 mm 2,5 km/h (1 Bft) SO 141 ° 0 min 0,000 mm 0,0 UV-I 0 W/m² -2,8 °C 10,2 °C 3,2 km/h (1 Bft)
03.03.2017 18:13 10,2 °C 10,2 °C 39 % 1007,3 hPa 0,0 mm 2,6 km/h (1 Bft) SO 141 ° 0 min 0,000 mm 0,0 UV-I 0 W/m² -3,1 °C 10,2 °C 3,2 km/h (1 Bft)
03.03.2017 18:14 10,2 °C 10,3 °C 42 % 1007,2 hPa 0,0 mm 1,9 km/h (1 Bft) SO 141 ° 0 min 0,000 mm 0,0 UV-I 0 W/m² -2,1 °C 10,2 °C 3,2 km/h (1 Bft)
03.03.2017 18:15 10,0 °C 10,2 °C 43 % 1007,2 hPa 0,0 mm 1,7 km/h (1 Bft) SO 141 ° 0 min 0,000 mm 0,0 UV-I 0 W/m² -2,0 °C 10,0 °C 3,2 km/h (1 Bft)
03.03.2017 18:16 9,8 °C 10,0 °C 40 % 1007,2 hPa 0,0 mm 2,1 km/h (1 Bft) SO 140 ° 0 min 0,000 mm 0,0 UV-I 0 W/m² -3,1 °C 9,8 °C 4,8 km/h (1 Bft)
03.03.2017 18:17 9,5 °C 9,8 °C 46 % 1007,1 hPa 0,0 mm 4,7 km/h (1 Bft) SO 140 ° 0 min 0,000 mm 0,0 UV-I 0 W/m² -1,5 °C 9,3 °C 6,4 km/h (2 Bft)
03.03.2017 18:18 9,4 °C 9,5 °C 43 % 1007,1 hPa 0,0 mm 2,1 km/h (1 Bft) SO 140 ° 0 min 0,000 mm 0,0 UV-I 0 W/m² -2,5 °C 9,4 °C 3,2 km/h (1 Bft)
03.03.2017 18:19 9,5 °C 9,5 °C 42 % 1007,1 hPa 0,0 mm 2,5 km/h (1 Bft) SO 138 ° 0 min 0,000 mm 0,0 UV-I 0 W/m² -2,8 °C 9,5 °C 3,2 km/h (1 Bft)
03.03.2017 18:20 9,3 °C 9,5 °C 49 % 1007,1 hPa 0,0 mm 4,5 km/h (1 Bft) O-SO 111 ° 0 min 0,000 mm 0,0 UV-I 0 W/m² -0,9 °C 9,3 °C 6,4 km/h (2 Bft)
03.03.2017 18:21 9,3 °C 9,3 °C 44 % 1007,1 hPa 0,0 mm 2,7 km/h (1 Bft) O-SO 111 ° 0 min 0,000 mm 0,0 UV-I 0 W/m² -2,3 °C 9,3 °C 3,2 km/h (1 Bft)
03.03.2017 18:22 9,6 °C 9,6 °C 41 % 1007,1 hPa 0,0 mm 1,2 km/h (1 Bft) O-SO 111 ° 0 min 0,000 mm 0,0 UV-I 0 W/m² -3,0 °C 9,6 °C 1,6 km/h (1 Bft)
03.03.2017 18:23 9,7 °C 9,7 °C 42 % 1007,1 hPa 0,0 mm 1,0 km/h (0 Bft) O-SO 111 ° 0 min 0,000 mm 0,0 UV-I 0 W/m² -2,6 °C 9,7 °C 3,2 km/h (1 Bft)
03.03.2017 18:24 9,8 °C 9,8 °C 42 % 1007,1 hPa 0,0 mm 1,4 km/h (1 Bft) O-SO 111 ° 0 min 0,000 mm 0,0 UV-I 0 W/m² -2,5 °C 9,8 °C 3,2 km/h (1 Bft)
03.03.2017 18:25 9,9 °C 9,9 °C 41 % 1007,1 hPa 0,0 mm 0,5 km/h (0 Bft) O-SO 111 ° 0 min 0,000 mm 0,0 UV-I 0 W/m² -2,7 °C 9,9 °C 1,6 km/h (1 Bft)
03.03.2017 18:26 9,8 °C 9,9 °C 44 % 1007,1 hPa 0,0 mm 1,4 km/h (1 Bft) O-SO 111 ° 0 min 0,000 mm 0,0 UV-I 0 W/m² -1,9 °C 9,8 °C 3,2 km/h (1 Bft)
03.03.2017 18:27 9,7 °C 9,8 °C 41 % 1007,0 hPa 0,0 mm 2,4 km/h (1 Bft) O-SO 111 ° 0 min 0,000 mm 0,0 UV-I 0 W/m² -2,9 °C 9,7 °C 3,2 km/h (1 Bft)
03.03.2017 18:28 9,7 °C 9,7 °C 43 % 1007,0 hPa 0,0 mm 0,5 km/h (0 Bft) O-SO 111 ° 0 min 0,000 mm 0,0 UV-I 0 W/m² -2,3 °C 9,7 °C 1,6 km/h (1 Bft)
03.03.2017 18:29 9,5 °C 9,7 °C 43 % 1007,0 hPa 0,0 mm 1,3 km/h (1 Bft) O-SO 111 ° 0 min 0,000 mm 0,0 UV-I 0 W/m² -2,4 °C 9,5 °C 3,2 km/h (1 Bft)
03.03.2017 18:30 9,3 °C 9,5 °C 45 % 1006,9 hPa 0,0 mm 0,5 km/h (0 Bft) O-SO 111 ° 0 min 0,000 mm 0,0 UV-I 0 W/m² -2,0 °C 9,3 °C 1,6 km/h (1 Bft)
03.03.2017 18:31 9,0 °C 9,3 °C 50 % 1006,9 hPa 0,0 mm 0,0 km/h (0 Bft) O-SO 111 ° 0 min 0,000 mm 0,0 UV-I 0 W/m² -0,9 °C 9,0 °C 0,0 km/h (0 Bft)
03.03.2017 18:32 8,6 °C 9,0 °C 49 % 1006,9 hPa 0,0 mm 0,9 km/h (0 Bft) O-SO 111 ° 0 min 0,000 mm 0,0 UV-I 0 W/m² -1,5 °C 8,6 °C 1,6 km/h (1 Bft)
03.03.2017 18:33 8,4 °C 8,6 °C 50 % 1007,0 hPa 0,0 mm 1,3 km/h (1 Bft) O-SO 111 ° 0 min 0,000 mm 0,0 UV-I 0 W/m² -1,4 °C 8,4 °C 3,2 km/h (1 Bft)
03.03.2017 18:34 8,3 °C 8,4 °C 51 % 1006,9 hPa 0,0 mm 1,5 km/h (1 Bft) O-SO 111 ° 0 min 0,000 mm 0,0 UV-I 0 W/m² -1,2 °C 8,3 °C 1,6 km/h (1 Bft)
03.03.2017 18:35 8,2 °C 8,3 °C 52 % 1006,9 hPa 0,0 mm 2,5 km/h (1 Bft) O-SO 111 ° 0 min 0,000 mm 0,0 UV-I 0 W/m² -1,1 °C 8,2 °C 3,2 km/h (1 Bft)
03.03.2017 18:36 8,2 °C 8,2 °C 50 % 1006,9 hPa 0,0 mm 2,3 km/h (1 Bft) O-SO 111 ° 0 min 0,000 mm 0,0 UV-I 0 W/m² -1,6 °C 8,2 °C 3,2 km/h (1 Bft)
03.03.2017 18:37 8,2 °C 8,2 °C 50 % 1006,9 hPa 0,0 mm 2,3 km/h (1 Bft) O-SO 111 ° 0 min 0,000 mm 0,0 UV-I 0 W/m² -1,6 °C 8,2 °C 3,2 km/h (1 Bft)
03.03.2017 18:38 8,2 °C 8,2 °C 51 % 1006,9 hPa 0,0 mm 3,5 km/h (1 Bft) O-SO 111 ° 0 min 0,000 mm 0,0 UV-I 0 W/m² -1,3 °C 8,2 °C 4,8 km/h (1 Bft)
03.03.2017 18:39 8,3 °C 8,3 °C 48 % 1006,9 hPa 0,0 mm 2,5 km/h (1 Bft) O-SO 111 ° 0 min 0,000 mm 0,0 UV-I 0 W/m² -2,1 °C 8,3 °C 4,8 km/h (1 Bft)
03.03.2017 18:40 8,3 °C 8,3 °C 46 % 1006,9 hPa 0,0 mm 3,1 km/h (1 Bft) O-SO 111 ° 0 min 0,000 mm 0,0 UV-I 0 W/m² -2,6 °C 8,3 °C 4,8 km/h (1 Bft)
03.03.2017 18:41 8,7 °C 8,7 °C 45 % 1006,9 hPa 0,0 mm 3,9 km/h (1 Bft) O-SO 111 ° 0 min 0,000 mm 0,0 UV-I 0 W/m² -2,6 °C 8,7 °C 4,8 km/h (1 Bft)
03.03.2017 18:42 9,0 °C 9,0 °C 44 % 1006,9 hPa 0,0 mm 3,7 km/h (1 Bft) O-SO 111 ° 0 min 0,000 mm 0,0 UV-I 0 W/m² -2,6 °C 9,0 °C 4,8 km/h (1 Bft)
03.03.2017 18:43 9,2 °C 9,2 °C 47 % 1006,9 hPa 0,0 mm 3,6 km/h (1 Bft) O-SO 111 ° 0 min 0,000 mm 0,0 UV-I 0 W/m² -1,5 °C 9,2 °C 4,8 km/h (1 Bft)
03.03.2017 18:44 9,4 °C 9,4 °C 42 % 1006,8 hPa 0,0 mm 3,8 km/h (1 Bft) O-SO 111 ° 0 min 0,000 mm 0,0 UV-I 0 W/m² -2,8 °C 9,4 °C 4,8 km/h (1 Bft)
03.03.2017 18:45 9,6 °C 9,6 °C 42 % 1006,8 hPa 0,0 mm 3,7 km/h (1 Bft) O-SO 111 ° 0 min 0,000 mm 0,0 UV-I 0 W/m² -2,7 °C 9,6 °C 4,8 km/h (1 Bft)
03.03.2017 18:46 9,5 °C 9,6 °C 48 % 1006,8 hPa 0,0 mm 4,4 km/h (1 Bft) S 172 ° 0 min 0,000 mm 0,0 UV-I 0 W/m² -1,0 °C 9,5 °C 6,4 km/h (2 Bft)
03.03.2017 18:47 9,3 °C 9,5 °C 45 % 1006,8 hPa 0,0 mm 2,8 km/h (1 Bft) S 172 ° 0 min 0,000 mm 0,0 UV-I 0 W/m² -2,0 °C 9,3 °C 4,8 km/h (1 Bft)
03.03.2017 18:48 9,3 °C 9,3 °C 44 % 1006,8 hPa 0,0 mm 3,2 km/h (1 Bft) O 95 ° 0 min 0,000 mm 0,0 UV-I 0 W/m² -2,3 °C 9,3 °C 4,8 km/h (1 Bft)
03.03.2017 18:49 9,3 °C 9,4 °C 43 % 1006,8 hPa 0,0 mm 3,0 km/h (1 Bft) O 95 ° 0 min 0,000 mm 0,0 UV-I 0 W/m² -2,6 °C 9,3 °C 3,2 km/h (1 Bft)
03.03.2017 18:50 9,3 °C 9,4 °C 45 % 1006,8 hPa 0,0 mm 1,7 km/h (1 Bft) O 95 ° 0 min 0,000 mm 0,0 UV-I 0 W/m² -2,0 °C 9,3 °C 3,2 km/h (1 Bft)
03.03.2017 18:51 9,4 °C 9,4 °C 43 % 1006,8 hPa 0,0 mm 0,4 km/h (0 Bft) O 95 ° 0 min 0,000 mm 0,0 UV-I 0 W/m² -2,5 °C 9,4 °C 1,6 km/h (1 Bft)
03.03.2017 18:52 9,4 °C 9,4 °C 44 % 1006,8 hPa 0,0 mm 0,8 km/h (0 Bft) O 95 ° 0 min 0,000 mm 0,0 UV-I 0 W/m² -2,2 °C 9,4 °C 3,2 km/h (1 Bft)
03.03.2017 18:53 9,3 °C 9,4 °C 44 % 1006,8 hPa 0,0 mm 1,5 km/h (1 Bft) O 95 ° 0 min 0,000 mm 0,0 UV-I 0 W/m² -2,3 °C 9,3 °C 3,2 km/h (1 Bft)
03.03.2017 18:54 9,3 °C 9,3 °C 45 % 1006,8 hPa 0,0 mm 0,7 km/h (0 Bft) O 95 ° 0 min 0,000 mm 0,0 UV-I 0 W/m² -2,0 °C 9,3 °C 1,6 km/h (1 Bft)
03.03.2017 18:55 9,4 °C 9,4 °C 42 % 1006,9 hPa 0,0 mm 1,2 km/h (1 Bft) O 95 ° 0 min 0,000 mm 0,0 UV-I 0 W/m² -2,8 °C 9,4 °C 3,2 km/h (1 Bft)
03.03.2017 18:56 9,5 °C 9,5 °C 43 % 1006,9 hPa 0,0 mm 0,1 km/h (0 Bft) O 95 ° 0 min 0,000 mm 0,0 UV-I 0 W/m² -2,4 °C 9,5 °C 1,6 km/h (1 Bft)
03.03.2017 18:57 9,6 °C 9,6 °C 43 % 1006,8 hPa 0,0 mm 3,3 km/h (1 Bft) O 95 ° 0 min 0,000 mm 0,0 UV-I 0 W/m² -2,4 °C 9,6 °C 4,8 km/h (1 Bft)
03.03.2017 18:58 9,6 °C 9,6 °C 43 % 1006,8 hPa 0,0 mm 3,5 km/h (1 Bft) O 95 ° 0 min 0,000 mm 0,0 UV-I 0 W/m² -2,4 °C 9,6 °C 4,8 km/h (1 Bft)
03.03.2017 18:59 9,7 °C 9,7 °C 43 % 1006,8 hPa 0,0 mm 5,9 km/h (2 Bft) O-NO 78 ° 0 min 0,000 mm 0,0 UV-I 0 W/m² -2,3 °C 9,2 °C 9,7 km/h (2 Bft)
03.03.2017 19:00 9,7 °C 9,7 °C 45 % 1006,8 hPa 0,0 mm 4,4 km/h (1 Bft) W-SW 238 ° 0 min 0,000 mm 0,0 UV-I 0 W/m² -1,6 °C 9,7 °C 6,4 km/h (2 Bft)
03.03.2017 19:01 9,8 °C 9,9 °C 41 % 1006,7 hPa 0,0 mm 0,4 km/h (0 Bft) W-SW 238 ° 0 min 0,026 mm 0,0 UV-I 0 W/m² -2,8 °C 9,8 °C 1,6 km/h (1 Bft)
03.03.2017 19:02 9,8 °C 9,9 °C 45 % 1006,7 hPa 0,0 mm 1,0 km/h (0 Bft) SW 224 ° 0 min 0,000 mm 0,0 UV-I 0 W/m² -1,6 °C 9,8 °C 3,2 km/h (1 Bft)
03.03.2017 19:03 9,7 °C 9,8 °C 47 % 1006,7 hPa 0,0 mm 2,2 km/h (1 Bft) S-SO 162 ° 0 min 0,000 mm 0,0 UV-I 0 W/m² -1,1 °C 9,7 °C 3,2 km/h (1 Bft)
03.03.2017 19:04 9,4 °C 9,7 °C 49 % 1006,7 hPa 0,0 mm 2,5 km/h (1 Bft) S-SO 162 ° 0 min 0,000 mm 0,0 UV-I 0 W/m² -0,8 °C 9,4 °C 6,4 km/h (2 Bft)
03.03.2017 19:05 9,0 °C 9,4 °C 50 % 1006,6 hPa 0,0 mm 2,4 km/h (1 Bft) S-SO 163 ° 0 min 0,000 mm 0,0 UV-I 0 W/m² -0,9 °C 9,0 °C 3,2 km/h (1 Bft)
03.03.2017 19:06 8,8 °C 9,0 °C 49 % 1006,6 hPa 0,0 mm 2,5 km/h (1 Bft) S-SO 162 ° 0 min 0,000 mm 0,0 UV-I 0 W/m² -1,3 °C 8,8 °C 3,2 km/h (1 Bft)
03.03.2017 19:07 8,9 °C 8,9 °C 45 % 1006,6 hPa 0,0 mm 2,8 km/h (1 Bft) S-SO 162 ° 0 min 0,000 mm 0,0 UV-I 0 W/m² -2,4 °C 8,9 °C 6,4 km/h (2 Bft)
03.03.2017 19:08 9,1 °C 9,1 °C 45 % 1006,6 hPa 0,0 mm 2,8 km/h (1 Bft) S-SO 162 ° 0 min 0,000 mm 0,0 UV-I 0 W/m² -2,2 °C 9,1 °C 6,4 km/h (2 Bft)
03.03.2017 19:09 9,2 °C 9,2 °C 46 % 1006,5 hPa 0,0 mm 3,8 km/h (1 Bft) S-SO 162 ° 0 min 0,000 mm 0,0 UV-I 0 W/m² -1,8 °C 9,2 °C 6,4 km/h (2 Bft)
03.03.2017 19:10 9,3 °C 9,3 °C 45 % 1006,6 hPa 0,0 mm 1,3 km/h (1 Bft) S-SO 162 ° 0 min 0,000 mm 0,0 UV-I 0 W/m² -2,0 °C 9,3 °C 3,2 km/h (1 Bft)
03.03.2017 19:11 9,4 °C 9,4 °C 43 % 1006,6 hPa 0,0 mm 0,9 km/h (0 Bft) S-SO 162 ° 0 min 0,000 mm 0,0 UV-I 0 W/m² -2,5 °C 9,4 °C 3,2 km/h (1 Bft)
03.03.2017 19:12 9,5 °C 9,5 °C 43 % 1006,6 hPa 0,0 mm 0,9 km/h (0 Bft) S-SO 162 ° 0 min 0,000 mm 0,0 UV-I 0 W/m² -2,4 °C 9,5 °C 1,6 km/h (1 Bft)
03.03.2017 19:13 9,7 °C 9,7 °C 42 % 1006,6 hPa 0,0 mm 0,9 km/h (0 Bft) S-SO 162 ° 0 min 0,000 mm 0,0 UV-I 0 W/m² -2,6 °C 9,7 °C 1,6 km/h (1 Bft)
03.03.2017 19:14 9,8 °C 9,8 °C 41 % 1006,6 hPa 0,0 mm 0,5 km/h (0 Bft) S-SO 162 ° 0 min 0,000 mm 0,0 UV-I 0 W/m² -2,8 °C 9,8 °C 1,6 km/h (1 Bft)
03.03.2017 19:15 9,8 °C 9,8 °C 42 % 1006,6 hPa 0,0 mm 1,0 km/h (0 Bft) S-SO 162 ° 0 min 0,000 mm 0,0 UV-I 0 W/m² -2,5 °C 9,8 °C 1,6 km/h (1 Bft)
03.03.2017 19:16 9,8 °C 9,9 °C 44 % 1006,6 hPa 0,0 mm 0,3 km/h (0 Bft) S-SO 162 ° 0 min 0,000 mm 0,0 UV-I 0 W/m² -1,9 °C 9,8 °C 1,6 km/h (1 Bft)
03.03.2017 19:17 9,9 °C 9,9 °C 42 % 1006,6 hPa 0,0 mm 2,2 km/h (1 Bft) S-SO 162 ° 0 min 0,000 mm 0,0 UV-I 0 W/m² -2,4 °C 9,9 °C 3,2 km/h (1 Bft)
03.03.2017 19:18 9,9 °C 9,9 °C 41 % 1006,5 hPa 0,0 mm 1,4 km/h (1 Bft) S-SO 162 ° 0 min 0,000 mm 0,0 UV-I 0 W/m² -2,7 °C 9,9 °C 3,2 km/h (1 Bft)
03.03.2017 19:19 10,1 °C 10,1 °C 40 % 1006,5 hPa 0,0 mm 1,5 km/h (1 Bft) S-SO 162 ° 0 min 0,000 mm 0,0 UV-I 0 W/m² -2,9 °C 10,1 °C 3,2 km/h (1 Bft)
03.03.2017 19:20 10,2 °C 10,2 °C 40 % 1006,5 hPa 0,0 mm 1,4 km/h (1 Bft) S-SO 162 ° 0 min 0,000 mm 0,0 UV-I 0 W/m² -2,8 °C 10,2 °C 3,2 km/h (1 Bft)
03.03.2017 19:21 9,9 °C 10,2 °C 45 % 1006,5 hPa 0,0 mm 2,3 km/h (1 Bft) S-SO 162 ° 0 min 0,000 mm 0,0 UV-I 0 W/m² -1,5 °C 9,9 °C 6,4 km/h (2 Bft)
03.03.2017 19:22 9,6 °C 9,9 °C 45 % 1006,5 hPa 0,0 mm 1,9 km/h (1 Bft) S-SO 162 ° 0 min 0,000 mm 0,0 UV-I 0 W/m² -1,7 °C 9,6 °C 3,2 km/h (1 Bft)
03.03.2017 19:23 9,3 °C 9,6 °C 46 % 1006,5 hPa 0,0 mm 2,3 km/h (1 Bft) S-SO 162 ° 0 min 0,000 mm 0,0 UV-I 0 W/m² -1,7 °C 9,3 °C 3,2 km/h (1 Bft)
03.03.2017 19:24 9,1 °C 9,3 °C 48 % 1006,5 hPa 0,0 mm 3,0 km/h (1 Bft) S-SO 162 ° 0 min 0,000 mm 0,0 UV-I 0 W/m² -1,3 °C 9,1 °C 6,4 km/h (2 Bft)
03.03.2017 19:25 9,1 °C 9,2 °C 48 % 1006,5 hPa 0,0 mm 0,2 km/h (0 Bft) S-SO 162 ° 0 min 0,000 mm 0,0 UV-I 0 W/m² -1,3 °C 9,1 °C 1,6 km/h (1 Bft)
03.03.2017 19:26 9,2 °C 9,2 °C 43 % 1006,5 hPa 0,0 mm 0,0 km/h (0 Bft) S-SO 162 ° 0 min 0,000 mm 0,0 UV-I 0 W/m² -2,7 °C 9,2 °C 0,0 km/h (0 Bft)
03.03.2017 19:27 9,3 °C 9,3 °C 43 % 1006,5 hPa 0,0 mm 0,1 km/h (0 Bft) S-SO 162 ° 0 min 0,000 mm 0,0 UV-I 0 W/m² -2,6 °C 9,3 °C 1,6 km/h (1 Bft)
03.03.2017 19:28 9,6 °C 9,6 °C 41 % 1006,5 hPa 0,0 mm 0,5 km/h (0 Bft) S-SO 162 ° 0 min 0,000 mm 0,0 UV-I 0 W/m² -3,0 °C 9,6 °C 3,2 km/h (1 Bft)
03.03.2017 19:29 9,7 °C 9,7 °C 42 % 1006,5 hPa 0,0 mm 2,2 km/h (1 Bft) S-SO 162 ° 0 min 0,000 mm 0,0 UV-I 0 W/m² -2,6 °C 9,7 °C 3,2 km/h (1 Bft)
03.03.2017 19:30 9,7 °C 9,8 °C 45 % 1006,5 hPa 0,0 mm 2,3 km/h (1 Bft) S-SO 162 ° 0 min 0,000 mm 0,0 UV-I 0 W/m² -1,6 °C 9,7 °C 3,2 km/h (1 Bft)
03.03.2017 19:31 9,6 °C 9,7 °C 46 % 1006,5 hPa 0,0 mm 3,6 km/h (1 Bft) S-SO 162 ° 0 min 0,000 mm 0,0 UV-I 0 W/m² -1,4 °C 9,6 °C 6,4 km/h (2 Bft)
03.03.2017 19:32 9,7 °C 9,7 °C 42 % 1006,5 hPa 0,0 mm 3,9 km/h (1 Bft) S-SO 162 ° 0 min 0,000 mm 0,0 UV-I 0 W/m² -2,6 °C 9,7 °C 6,4 km/h (2 Bft)
03.03.2017 19:33 9,5 °C 9,7 °C 47 % 1006,5 hPa 0,0 mm 3,4 km/h (1 Bft) O 80 ° 0 min 0,000 mm 0,0 UV-I 0 W/m² -1,2 °C 9,5 °C 6,4 km/h (2 Bft)
03.03.2017 19:34 9,3 °C 9,5 °C 48 % 1006,5 hPa 0,0 mm 4,8 km/h (1 Bft) O-NO 61 ° 0 min 0,000 mm 0,0 UV-I 0 W/m² -1,1 °C 9,0 °C 6,4 km/h (2 Bft)
03.03.2017 19:35 9,0 °C 9,3 °C 48 % 1006,4 hPa 0,0 mm 2,9 km/h (1 Bft) SO 134 ° 0 min 0,000 mm 0,0 UV-I 0 W/m² -1,4 °C 9,0 °C 4,8 km/h (1 Bft)
03.03.2017 19:36 9,0 °C 9,0 °C 44 % 1006,5 hPa 0,0 mm 2,5 km/h (1 Bft) SO 136 ° 0 min 0,000 mm 0,0 UV-I 0 W/m² -2,6 °C 9,0 °C 3,2 km/h (1 Bft)
03.03.2017 19:37 9,2 °C 9,2 °C 44 % 1006,5 hPa 0,0 mm 1,3 km/h (1 Bft) SO 136 ° 0 min 0,000 mm 0,0 UV-I 0 W/m² -2,4 °C 9,2 °C 1,6 km/h (1 Bft)
03.03.2017 19:38 9,4 °C 9,4 °C 42 % 1006,5 hPa 0,0 mm 1,8 km/h (1 Bft) SO 136 ° 0 min 0,000 mm 0,0 UV-I 0 W/m² -2,8 °C 9,4 °C 3,2 km/h (1 Bft)
03.03.2017 19:39 9,7 °C 9,7 °C 42 % 1006,5 hPa 0,0 mm 0,4 km/h (0 Bft) SO 136 ° 0 min 0,000 mm 0,0 UV-I 0 W/m² -2,6 °C 9,7 °C 1,6 km/h (1 Bft)
03.03.2017 19:40 9,5 °C 9,7 °C 47 % 1006,4 hPa 0,0 mm 2,4 km/h (1 Bft) SO 136 ° 0 min 0,000 mm 0,0 UV-I 0 W/m² -1,2 °C 9,5 °C 3,2 km/h (1 Bft)
03.03.2017 19:41 9,4 °C 9,5 °C 46 % 1006,4 hPa 0,0 mm 4,3 km/h (1 Bft) SO 135 ° 0 min 0,000 mm 0,0 UV-I 0 W/m² -1,6 °C 9,4 °C 6,4 km/h (2 Bft)
03.03.2017 19:42 9,6 °C 9,6 °C 43 % 1006,4 hPa 0,0 mm 4,2 km/h (1 Bft) SO 136 ° 0 min 0,000 mm 0,0 UV-I 0 W/m² -2,4 °C 9,6 °C 6,4 km/h (2 Bft)
03.03.2017 19:43 9,7 °C 9,7 °C 44 % 1006,3 hPa 0,0 mm 2,9 km/h (1 Bft) O 92 ° 0 min 0,000 mm 0,0 UV-I 0 W/m² -2,0 °C 9,7 °C 4,8 km/h (1 Bft)
03.03.2017 19:44 9,7 °C 9,8 °C 44 % 1006,2 hPa 0,0 mm 3,8 km/h (1 Bft) O-NO 74 ° 0 min 0,000 mm 0,0 UV-I 0 W/m² -2,0 °C 9,7 °C 4,8 km/h (1 Bft)
03.03.2017 19:45 9,8 °C 9,8 °C 43 % 1006,3 hPa 0,0 mm 4,9 km/h (1 Bft) O-SO 107 ° 0 min 0,000 mm 0,0 UV-I 0 W/m² -2,2 °C 9,6 °C 8,0 km/h (2 Bft)
03.03.2017 19:46 9,8 °C 9,8 °C 44 % 1006,2 hPa 0,0 mm 3,2 km/h (1 Bft) O 97 ° 0 min 0,000 mm 0,0 UV-I 0 W/m² -1,9 °C 9,8 °C 4,8 km/h (1 Bft)
03.03.2017 19:47 9,8 °C 9,8 °C 43 % 1006,2 hPa 0,0 mm 0,7 km/h (0 Bft) O 97 ° 0 min 0,000 mm 0,0 UV-I 0 W/m² -2,2 °C 9,8 °C 1,6 km/h (1 Bft)
03.03.2017 19:48 9,9 °C 9,9 °C 42 % 1006,3 hPa 0,0 mm 1,5 km/h (1 Bft) O 97 ° 0 min 0,000 mm 0,0 UV-I 0 W/m² -2,4 °C 9,9 °C 3,2 km/h (1 Bft)
03.03.2017 19:49 9,9 °C 9,9 °C 41 % 1006,2 hPa 0,0 mm 0,0 km/h (0 Bft) O 97 ° 0 min 0,000 mm 0,0 UV-I 0 W/m² -2,7 °C 9,9 °C 0,0 km/h (0 Bft)
03.03.2017 19:50 9,9 °C 10,0 °C 44 % 1006,2 hPa 0,0 mm 1,2 km/h (1 Bft) O 98 ° 0 min 0,000 mm 0,0 UV-I 0 W/m² -1,8 °C 9,9 °C 6,4 km/h (2 Bft)
03.03.2017 19:51 9,9 °C 9,9 °C 43 % 1006,2 hPa 0,0 mm 6,3 km/h (2 Bft) O 88 ° 0 min 0,000 mm 0,0 UV-I 0 W/m² -2,1 °C 9,3 °C 9,7 km/h (2 Bft)
03.03.2017 19:52 9,9 °C 9,9 °C 42 % 1006,2 hPa 0,0 mm 3,1 km/h (1 Bft) SO 144 ° 0 min 0,000 mm 0,0 UV-I 0 W/m² -2,4 °C 9,9 °C 4,8 km/h (1 Bft)
03.03.2017 19:53 10,0 °C 10,0 °C 41 % 1006,2 hPa 0,0 mm 2,5 km/h (1 Bft) SO 144 ° 0 min 0,000 mm 0,0 UV-I 0 W/m² -2,6 °C 10,0 °C 4,8 km/h (1 Bft)
03.03.2017 19:54 10,2 °C 10,2 °C 41 % 1006,2 hPa 0,0 mm 1,4 km/h (1 Bft) SO 144 ° 0 min 0,000 mm 0,0 UV-I 0 W/m² -2,5 °C 10,2 °C 1,6 km/h (1 Bft)
03.03.2017 19:55 9,9 °C 10,2 °C 41 % 1006,1 hPa 0,0 mm 2,3 km/h (1 Bft) SO 144 ° 0 min 0,000 mm 0,0 UV-I 0 W/m² -2,7 °C 9,9 °C 3,2 km/h (1 Bft)
03.03.2017 19:56 9,8 °C 9,9 °C 43 % 1006,1 hPa 0,0 mm 2,5 km/h (1 Bft) SO 144 ° 0 min 0,000 mm 0,0 UV-I 0 W/m² -2,2 °C 9,8 °C 4,8 km/h (1 Bft)
03.03.2017 19:57 9,7 °C 9,8 °C 44 % 1006,1 hPa 0,0 mm 1,1 km/h (1 Bft) SO 144 ° 0 min 0,000 mm 0,0 UV-I 0 W/m² -2,0 °C 9,7 °C 3,2 km/h (1 Bft)
03.03.2017 19:58 9,7 °C 9,8 °C 43 % 1006,1 hPa 0,0 mm 2,5 km/h (1 Bft) S-SO 150 ° 0 min 0,000 mm 0,0 UV-I 0 W/m² -2,3 °C 9,7 °C 4,8 km/h (1 Bft)
03.03.2017 19:59 9,7 °C 9,7 °C 44 % 1006,1 hPa 0,0 mm 1,9 km/h (1 Bft) S-SO 150 ° 0 min 0,000 mm 0,0 UV-I 0 W/m² -2,0 °C 9,7 °C 3,2 km/h (1 Bft)
03.03.2017 20:00 9,7 °C 9,7 °C 42 % 1006,1 hPa 0,0 mm 2,5 km/h (1 Bft) O-NO 66 ° 0 min 0,000 mm 0,0 UV-I 0 W/m² -2,6 °C 9,7 °C 4,8 km/h (1 Bft)
03.03.2017 20:01 9,7 °C 9,7 °C 45 % 1006,0 hPa 0,0 mm 3,8 km/h (1 Bft) O-SO 104 ° 0 min 0,050 mm 0,0 UV-I 0 W/m² -1,6 °C 9,7 °C 6,4 km/h (2 Bft)
03.03.2017 20:02 9,6 °C 9,7 °C 46 % 1006,0 hPa 0,0 mm 3,0 km/h (1 Bft) O-SO 104 ° 0 min 0,000 mm 0,0 UV-I 0 W/m² -1,4 °C 9,6 °C 4,8 km/h (1 Bft)
03.03.2017 20:03 9,5 °C 9,6 °C 44 % 1006,0 hPa 0,0 mm 2,5 km/h (1 Bft) O-SO 104 ° 0 min 0,000 mm 0,0 UV-I 0 W/m² -2,1 °C 9,5 °C 4,8 km/h (1 Bft)
03.03.2017 20:04 9,5 °C 9,6 °C 44 % 1006,0 hPa 0,0 mm 1,0 km/h (0 Bft) O-SO 104 ° 0 min 0,000 mm 0,0 UV-I 0 W/m² -2,1 °C 9,5 °C 3,2 km/h (1 Bft)
03.03.2017 20:05 9,4 °C 9,5 °C 45 % 1006,0 hPa 0,0 mm 1,7 km/h (1 Bft) O-SO 104 ° 0 min 0,000 mm 0,0 UV-I 0 W/m² -1,9 °C 9,4 °C 3,2 km/h (1 Bft)
03.03.2017 20:06 9,4 °C 9,4 °C 45 % 1006,1 hPa 0,0 mm 1,8 km/h (1 Bft) O-SO 104 ° 0 min 0,000 mm 0,0 UV-I 0 W/m² -1,9 °C 9,4 °C 3,2 km/h (1 Bft)
03.03.2017 20:07 9,5 °C 9,5 °C 44 % 1006,0 hPa 0,0 mm 2,7 km/h (1 Bft) O 80 ° 0 min 0,000 mm 0,0 UV-I 0 W/m² -2,1 °C 9,5 °C 4,8 km/h (1 Bft)
03.03.2017 20:08 9,6 °C 9,6 °C 43 % 1005,9 hPa 0,0 mm 2,1 km/h (1 Bft) SO 143 ° 0 min 0,000 mm 0,0 UV-I 0 W/m² -2,4 °C 9,6 °C 4,8 km/h (1 Bft)
03.03.2017 20:09 9,6 °C 9,7 °C 46 % 1005,9 hPa 0,0 mm 2,3 km/h (1 Bft) SO 136 ° 0 min 0,000 mm 0,0 UV-I 0 W/m² -1,4 °C 9,6 °C 3,2 km/h (1 Bft)
03.03.2017 20:10 9,7 °C 9,7 °C 44 % 1005,9 hPa 0,0 mm 2,4 km/h (1 Bft) NO 40 ° 0 min 0,000 mm 0,0 UV-I 0 W/m² -2,0 °C 9,7 °C 4,8 km/h (1 Bft)
03.03.2017 20:11 9,4 °C 9,7 °C 48 % 1005,9 hPa 0,0 mm 6,0 km/h (2 Bft) O-SO 117 ° 0 min 0,000 mm 0,0 UV-I 0 W/m² -1,0 °C 8,8 °C 9,7 km/h (2 Bft)
03.03.2017 20:12 9,3 °C 9,4 °C 47 % 1005,8 hPa 0,0 mm 5,5 km/h (1 Bft) O-NO 62 ° 0 min 0,000 mm 0,0 UV-I 0 W/m² -1,4 °C 8,8 °C 11,3 km/h (2 Bft)
03.03.2017 20:13 9,3 °C 9,3 °C 46 % 1005,9 hPa 0,0 mm 4,7 km/h (1 Bft) NO 40 ° 0 min 0,000 mm 0,0 UV-I 0 W/m² -1,7 °C 9,1 °C 8,0 km/h (2 Bft)
03.03.2017 20:14 9,2 °C 9,3 °C 45 % 1005,9 hPa 0,0 mm 3,4 km/h (1 Bft) S 178 ° 0 min 0,000 mm 0,0 UV-I 0 W/m² -2,1 °C 9,2 °C 4,8 km/h (1 Bft)
03.03.2017 20:15 9,3 °C 9,3 °C 45 % 1005,9 hPa 0,0 mm 1,6 km/h (1 Bft) S 178 ° 0 min 0,000 mm 0,0 UV-I 0 W/m² -2,0 °C 9,3 °C 3,2 km/h (1 Bft)
03.03.2017 20:16 9,4 °C 9,4 °C 44 % 1005,8 hPa 0,0 mm 0,8 km/h (0 Bft) S 178 ° 0 min 0,000 mm 0,0 UV-I 0 W/m² -2,2 °C 9,4 °C 1,6 km/h (1 Bft)
03.03.2017 20:17 9,6 °C 9,6 °C 45 % 1005,8 hPa 0,0 mm 4,5 km/h (1 Bft) O-NO 69 ° 0 min 0,000 mm 0,0 UV-I 0 W/m² -1,7 °C 9,6 °C 8,0 km/h (2 Bft)
03.03.2017 20:18 9,6 °C 9,6 °C 46 % 1005,8 hPa 0,0 mm 4,9 km/h (1 Bft) SO 141 ° 0 min 0,000 mm 0,0 UV-I 0 W/m² -1,4 °C 9,3 °C 6,4 km/h (2 Bft)
03.03.2017 20:19 9,5 °C 9,6 °C 46 % 1005,8 hPa 0,0 mm 3,6 km/h (1 Bft) S 171 ° 0 min 0,000 mm 0,0 UV-I 0 W/m² -1,5 °C 9,5 °C 6,4 km/h (2 Bft)
03.03.2017 20:20 9,4 °C 9,5 °C 45 % 1005,7 hPa 0,0 mm 3,2 km/h (1 Bft) SO 133 ° 0 min 0,000 mm 0,0 UV-I 0 W/m² -1,9 °C 9,4 °C 6,4 km/h (2 Bft)
03.03.2017 20:21 9,5 °C 9,5 °C 45 % 1005,7 hPa 0,0 mm 2,4 km/h (1 Bft) NO 51 ° 0 min 0,000 mm 0,0 UV-I 0 W/m² -1,8 °C 9,5 °C 3,2 km/h (1 Bft)
03.03.2017 20:22 9,4 °C 9,5 °C 44 % 1005,8 hPa 0,0 mm 2,3 km/h (1 Bft) O-NO 70 ° 0 min 0,000 mm 0,0 UV-I 0 W/m² -2,2 °C 9,4 °C 4,8 km/h (1 Bft)
03.03.2017 20:23 9,5 °C 9,5 °C 46 % 1005,7 hPa 0,0 mm 3,3 km/h (1 Bft) N-NW 337 ° 0 min 0,000 mm 0,0 UV-I 0 W/m² -1,5 °C 9,5 °C 4,8 km/h (1 Bft)
03.03.2017 20:24 9,6 °C 9,6 °C 43 % 1005,7 hPa 0,0 mm 1,8 km/h (1 Bft) N-NW 337 ° 0 min 0,000 mm 0,0 UV-I 0 W/m² -2,4 °C 9,6 °C 3,2 km/h (1 Bft)
03.03.2017 20:25 9,6 °C 9,6 °C 45 % 1005,8 hPa 0,0 mm 2,8 km/h (1 Bft) N-NO 22 ° 0 min 0,000 mm 0,0 UV-I 0 W/m² -1,7 °C 9,6 °C 4,8 km/h (1 Bft)
03.03.2017 20:26 9,5 °C 9,6 °C 45 % 1005,7 hPa 0,0 mm 2,5 km/h (1 Bft) N-NO 27 ° 0 min 0,000 mm 0,0 UV-I 0 W/m² -1,8 °C 9,5 °C 6,4 km/h (2 Bft)
03.03.2017 20:27 9,6 °C 9,6 °C 44 % 1005,8 hPa 0,0 mm 2,2 km/h (1 Bft) S-SO 159 ° 0 min 0,000 mm 0,0 UV-I 0 W/m² -2,0 °C 9,6 °C 3,2 km/h (1 Bft)
03.03.2017 20:28 9,7 °C 9,7 °C 45 % 1005,8 hPa 0,0 mm 1,5 km/h (1 Bft) N-NW 336 ° 0 min 0,000 mm 0,0 UV-I 0 W/m² -1,6 °C 9,7 °C 3,2 km/h (1 Bft)
03.03.2017 20:29 9,7 °C 9,7 °C 47 % 1005,7 hPa 0,0 mm 2,8 km/h (1 Bft) S-SO 150 ° 0 min 0,000 mm 0,0 UV-I 0 W/m² -1,1 °C 9,7 °C 6,4 km/h (2 Bft)
03.03.2017 20:30 9,7 °C 9,7 °C 43 % 1005,7 hPa 0,0 mm 6,0 km/h (2 Bft) S 171 ° 0 min 0,000 mm 0,0 UV-I 0 W/m² -2,3 °C 9,1 °C 12,9 km/h (3 Bft)
03.03.2017 20:31 9,8 °C 9,8 °C 44 % 1005,7 hPa 0,0 mm 5,7 km/h (1 Bft) SO 140 ° 0 min 0,000 mm 0,0 UV-I 0 W/m² -1,9 °C 9,3 °C 9,7 km/h (2 Bft)
03.03.2017 20:32 10,0 °C 10,0 °C 43 % 1005,7 hPa 0,0 mm 4,6 km/h (1 Bft) O 91 ° 0 min 0,000 mm 0,0 UV-I 0 W/m² -2,0 °C 9,9 °C 11,3 km/h (2 Bft)
03.03.2017 20:33 10,1 °C 10,1 °C 44 % 1005,6 hPa 0,0 mm 5,1 km/h (1 Bft) N 10 ° 0 min 0,000 mm 0,0 UV-I 0 W/m² -1,6 °C 10,1 °C 9,7 km/h (2 Bft)
03.03.2017 20:34 10,1 °C 10,1 °C 44 % 1005,6 hPa 0,0 mm 3,2 km/h (1 Bft) NO 38 ° 0 min 0,000 mm 0,0 UV-I 0 W/m² -1,6 °C 10,1 °C 6,4 km/h (2 Bft)
03.03.2017 20:35 10,0 °C 10,1 °C 44 % 1005,6 hPa 0,0 mm 7,8 km/h (2 Bft) SO 137 ° 0 min 0,000 mm 0,0 UV-I 0 W/m² -1,7 °C 9,0 °C 14,5 km/h (3 Bft)
03.03.2017 20:36 10,1 °C 10,1 °C 45 % 1005,6 hPa 0,0 mm 4,8 km/h (1 Bft) O-NO 71 ° 0 min 0,000 mm 0,0 UV-I 0 W/m² -1,3 °C 10,1 °C 8,0 km/h (2 Bft)
03.03.2017 20:37 10,0 °C 10,1 °C 44 % 1005,6 hPa 0,0 mm 2,7 km/h (1 Bft) NO 44 ° 0 min 0,000 mm 0,0 UV-I 0 W/m² -1,7 °C 10,0 °C 6,4 km/h (2 Bft)
03.03.2017 20:38 10,0 °C 10,0 °C 44 % 1005,6 hPa 0,0 mm 2,0 km/h (1 Bft) O 95 ° 0 min 0,000 mm 0,0 UV-I 0 W/m² -1,7 °C 10,0 °C 4,8 km/h (1 Bft)
03.03.2017 20:39 9,9 °C 10,0 °C 44 % 1005,6 hPa 0,0 mm 2,6 km/h (1 Bft) NO 42 ° 0 min 0,000 mm 0,0 UV-I 0 W/m² -1,8 °C 9,9 °C 4,8 km/h (1 Bft)
03.03.2017 20:40 9,8 °C 9,9 °C 45 % 1005,5 hPa 0,0 mm 5,7 km/h (1 Bft) S-SO 159 ° 0 min 0,000 mm 0,0 UV-I 0 W/m² -1,6 °C 9,3 °C 8,0 km/h (2 Bft)
03.03.2017 20:41 9,8 °C 9,8 °C 45 % 1005,5 hPa 0,0 mm 1,5 km/h (1 Bft) SO 140 ° 0 min 0,000 mm 0,0 UV-I 0 W/m² -1,6 °C 9,8 °C 3,2 km/h (1 Bft)
03.03.2017 20:42 9,8 °C 9,8 °C 45 % 1005,5 hPa 0,0 mm 1,9 km/h (1 Bft) O 92 ° 0 min 0,000 mm 0,0 UV-I 0 W/m² -1,6 °C 9,8 °C 4,8 km/h (1 Bft)
03.03.2017 20:43 9,8 °C 9,8 °C 45 % 1005,5 hPa 0,0 mm 3,1 km/h (1 Bft) SW 226 ° 0 min 0,000 mm 0,0 UV-I 0 W/m² -1,6 °C 9,8 °C 6,4 km/h (2 Bft)
03.03.2017 20:44 9,7 °C 9,8 °C 46 % 1005,5 hPa 0,0 mm 3,6 km/h (1 Bft) N-NO 22 ° 0 min 0,000 mm 0,0 UV-I 0 W/m² -1,3 °C 9,7 °C 8,0 km/h (2 Bft)
03.03.2017 20:45 9,6 °C 9,7 °C 45 % 1005,5 hPa 0,0 mm 4,0 km/h (1 Bft) O-NO 71 ° 0 min 0,000 mm 0,0 UV-I 0 W/m² -1,7 °C 9,6 °C 6,4 km/h (2 Bft)
03.03.2017 20:46 9,6 °C 9,6 °C 48 % 1005,5 hPa 0,0 mm 6,0 km/h (2 Bft) NO 56 ° 0 min 0,000 mm 0,0 UV-I 0 W/m² -0,9 °C 9,0 °C 9,7 km/h (2 Bft)
03.03.2017 20:47 9,3 °C 9,6 °C 49 % 1005,4 hPa 0,0 mm 3,6 km/h (1 Bft) NO 48 ° 0 min 0,000 mm 0,0 UV-I 0 W/m² -0,9 °C 9,3 °C 8,0 km/h (2 Bft)
03.03.2017 20:48 9,2 °C 9,3 °C 49 % 1005,4 hPa 0,0 mm 4,1 km/h (1 Bft) O-NO 77 ° 0 min 0,000 mm 0,0 UV-I 0 W/m² -0,9 °C 9,2 °C 6,4 km/h (2 Bft)
03.03.2017 20:49 9,2 °C 9,2 °C 48 % 1005,4 hPa 0,0 mm 4,5 km/h (1 Bft) O-NO 57 ° 0 min 0,000 mm 0,0 UV-I 0 W/m² -1,2 °C 9,2 °C 6,4 km/h (2 Bft)
03.03.2017 20:50 9,2 °C 9,2 °C 48 % 1005,3 hPa 0,0 mm 4,4 km/h (1 Bft) O-NO 61 ° 0 min 0,000 mm 0,0 UV-I 0 W/m² -1,2 °C 9,2 °C 8,0 km/h (2 Bft)
03.03.2017 20:51 9,2 °C 9,2 °C 47 % 1005,4 hPa 0,0 mm 2,9 km/h (1 Bft) O 84 ° 0 min 0,000 mm 0,0 UV-I 0 W/m² -1,5 °C 9,2 °C 4,8 km/h (1 Bft)
03.03.2017 20:52 9,3 °C 9,3 °C 47 % 1005,4 hPa 0,0 mm 4,2 km/h (1 Bft) N-NO 17 ° 0 min 0,000 mm 0,0 UV-I 0 W/m² -1,4 °C 9,3 °C 6,4 km/h (2 Bft)
03.03.2017 20:53 9,3 °C 9,3 °C 49 % 1005,4 hPa 0,0 mm 1,3 km/h (1 Bft) N-NO 17 ° 0 min 0,000 mm 0,0 UV-I 0 W/m² -0,9 °C 9,3 °C 3,2 km/h (1 Bft)
03.03.2017 20:54 9,3 °C 9,3 °C 46 % 1005,4 hPa 0,0 mm 1,7 km/h (1 Bft) W-NW 296 ° 0 min 0,000 mm 0,0 UV-I 0 W/m² -1,7 °C 9,3 °C 4,8 km/h (1 Bft)
03.03.2017 20:55 9,4 °C 9,4 °C 45 % 1005,4 hPa 0,0 mm 2,4 km/h (1 Bft) N-NW 327 ° 0 min 0,000 mm 0,0 UV-I 0 W/m² -1,9 °C 9,4 °C 4,8 km/h (1 Bft)
03.03.2017 20:56 9,6 °C 9,6 °C 44 % 1005,5 hPa 0,0 mm 4,7 km/h (1 Bft) S 186 ° 0 min 0,000 mm 0,0 UV-I 0 W/m² -2,0 °C 9,4 °C 9,7 km/h (2 Bft)
03.03.2017 20:57 9,8 °C 9,8 °C 44 % 1005,4 hPa 0,0 mm 3,2 km/h (1 Bft) W 271 ° 0 min 0,000 mm 0,0 UV-I 0 W/m² -1,9 °C 9,8 °C 6,4 km/h (2 Bft)
03.03.2017 20:58 10,0 °C 10,0 °C 45 % 1005,3 hPa 0,0 mm 2,9 km/h (1 Bft) N 360 ° 0 min 0,000 mm 0,0 UV-I 0 W/m² -1,4 °C 10,0 °C 4,8 km/h (1 Bft)
03.03.2017 20:59 10,1 °C 10,1 °C 44 % 1005,3 hPa 0,0 mm 3,5 km/h (1 Bft) O-NO 71 ° 0 min 0,000 mm 0,0 UV-I 0 W/m² -1,6 °C 10,1 °C 4,8 km/h (1 Bft)
03.03.2017 21:00 10,1 °C 10,1 °C 45 % 1005,4 hPa 0,0 mm 2,6 km/h (1 Bft) O-NO 71 ° 0 min 0,000 mm 0,0 UV-I 0 W/m² -1,3 °C 10,1 °C 4,8 km/h (1 Bft)
03.03.2017 21:01 10,1 °C 10,1 °C 45 % 1005,3 hPa 0,0 mm 1,2 km/h (1 Bft) O-NO 71 ° 0 min 0,051 mm 0,0 UV-I 0 W/m² -1,3 °C 10,1 °C 3,2 km/h (1 Bft)
03.03.2017 21:02 10,0 °C 10,1 °C 45 % 1005,4 hPa 0,0 mm 0,9 km/h (0 Bft) O-NO 71 ° 0 min 0,000 mm 0,0 UV-I 0 W/m² -1,4 °C 10,0 °C 1,6 km/h (1 Bft)
03.03.2017 21:03 9,9 °C 10,0 °C 45 % 1005,3 hPa 0,0 mm 2,3 km/h (1 Bft) O-NO 71 ° 0 min 0,000 mm 0,0 UV-I 0 W/m² -1,5 °C 9,9 °C 3,2 km/h (1 Bft)
03.03.2017 21:04 9,8 °C 9,9 °C 45 % 1005,3 hPa 0,0 mm 2,3 km/h (1 Bft) NO 40 ° 0 min 0,000 mm 0,0 UV-I 0 W/m² -1,6 °C 9,8 °C 4,8 km/h (1 Bft)
03.03.2017 21:05 9,7 °C 9,8 °C 46 % 1005,2 hPa 0,0 mm 3,4 km/h (1 Bft) NO 52 ° 0 min 0,000 mm 0,0 UV-I 0 W/m² -1,3 °C 9,7 °C 4,8 km/h (1 Bft)
03.03.2017 21:06 9,7 °C 9,7 °C 46 % 1005,2 hPa 0,0 mm 3,5 km/h (1 Bft) O 97 ° 0 min 0,000 mm 0,0 UV-I 0 W/m² -1,3 °C 9,7 °C 6,4 km/h (2 Bft)
03.03.2017 21:07 9,7 °C 9,7 °C 46 % 1005,2 hPa 0,0 mm 2,1 km/h (1 Bft) O 97 ° 0 min 0,000 mm 0,0 UV-I 0 W/m² -1,3 °C 9,7 °C 3,2 km/h (1 Bft)
03.03.2017 21:08 9,7 °C 9,7 °C 45 % 1005,2 hPa 0,0 mm 3,6 km/h (1 Bft) O-NO 71 ° 0 min 0,000 mm 0,0 UV-I 0 W/m² -1,6 °C 9,7 °C 6,4 km/h (2 Bft)
03.03.2017 21:09 9,7 °C 9,7 °C 47 % 1005,2 hPa 0,0 mm 4,5 km/h (1 Bft) O-NO 57 ° 0 min 0,000 mm 0,0 UV-I 0 W/m² -1,1 °C 9,7 °C 6,4 km/h (2 Bft)
03.03.2017 21:10 9,5 °C 9,7 °C 48 % 1005,1 hPa 0,0 mm 5,7 km/h (1 Bft) N-NO 24 ° 0 min 0,000 mm 0,0 UV-I 0 W/m² -1,0 °C 9,0 °C 9,7 km/h (2 Bft)
03.03.2017 21:11 9,3 °C 9,5 °C 47 % 1005,2 hPa 0,0 mm 2,7 km/h (1 Bft) W-SW 240 ° 0 min 0,000 mm 0,0 UV-I 0 W/m² -1,4 °C 9,3 °C 6,4 km/h (2 Bft)
03.03.2017 21:12 9,4 °C 9,4 °C 45 % 1005,2 hPa 0,0 mm 5,2 km/h (1 Bft) N-NW 332 ° 0 min 0,000 mm 0,0 UV-I 0 W/m² -1,9 °C 9,0 °C 8,0 km/h (2 Bft)
03.03.2017 21:13 9,6 °C 9,6 °C 45 % 1005,2 hPa 0,0 mm 2,7 km/h (1 Bft) N-NO 12 ° 0 min 0,000 mm 0,0 UV-I 0 W/m² -1,7 °C 9,6 °C 4,8 km/h (1 Bft)
03.03.2017 21:14 9,8 °C 9,8 °C 44 % 1005,2 hPa 0,0 mm 2,8 km/h (1 Bft) NO 42 ° 0 min 0,000 mm 0,0 UV-I 0 W/m² -1,9 °C 9,8 °C 4,8 km/h (1 Bft)
03.03.2017 21:15 9,9 °C 9,9 °C 44 % 1005,2 hPa 0,0 mm 3,5 km/h (1 Bft) O 100 ° 0 min 0,000 mm 0,0 UV-I 0 W/m² -1,8 °C 9,9 °C 4,8 km/h (1 Bft)
03.03.2017 21:16 9,9 °C 9,9 °C 46 % 1005,1 hPa 0,0 mm 5,0 km/h (1 Bft) O-SO 119 ° 0 min 0,000 mm 0,0 UV-I 0 W/m² -1,2 °C 9,6 °C 6,4 km/h (2 Bft)
03.03.2017 21:17 9,9 °C 9,9 °C 48 % 1005,2 hPa 0,0 mm 4,4 km/h (1 Bft) O-NO 68 ° 0 min 0,000 mm 0,0 UV-I 0 W/m² -0,6 °C 9,9 °C 6,4 km/h (2 Bft)
03.03.2017 21:18 9,8 °C 9,9 °C 46 % 1005,1 hPa 0,0 mm 2,8 km/h (1 Bft) O-NO 68 ° 0 min 0,000 mm 0,0 UV-I 0 W/m² -1,3 °C 9,8 °C 4,8 km/h (1 Bft)
03.03.2017 21:19 9,8 °C 9,8 °C 44 % 1005,1 hPa 0,0 mm 2,0 km/h (1 Bft) O-NO 67 ° 0 min 0,000 mm 0,0 UV-I 0 W/m² -1,9 °C 9,8 °C 3,2 km/h (1 Bft)
03.03.2017 21:20 9,8 °C 9,8 °C 44 % 1005,2 hPa 0,0 mm 1,3 km/h (1 Bft) O-NO 68 ° 0 min 0,000 mm 0,0 UV-I 0 W/m² -1,9 °C 9,8 °C 3,2 km/h (1 Bft)
03.03.2017 21:21 9,7 °C 9,8 °C 45 % 1005,2 hPa 0,0 mm 1,3 km/h (1 Bft) O-NO 68 ° 0 min 0,000 mm 0,0 UV-I 0 W/m² -1,6 °C 9,7 °C 3,2 km/h (1 Bft)
03.03.2017 21:22 9,6 °C 9,7 °C 45 % 1005,1 hPa 0,0 mm 1,1 km/h (1 Bft) O-NO 68 ° 0 min 0,000 mm 0,0 UV-I 0 W/m² -1,7 °C 9,6 °C 3,2 km/h (1 Bft)
03.03.2017 21:23 9,7 °C 9,7 °C 45 % 1005,2 hPa 0,0 mm 2,7 km/h (1 Bft) O 92 ° 0 min 0,000 mm 0,0 UV-I 0 W/m² -1,6 °C 9,7 °C 4,8 km/h (1 Bft)
03.03.2017 21:24 9,6 °C 9,7 °C 46 % 1005,2 hPa 0,0 mm 2,3 km/h (1 Bft) O 92 ° 0 min 0,000 mm 0,0 UV-I 0 W/m² -1,4 °C 9,6 °C 3,2 km/h (1 Bft)
03.03.2017 21:25 9,6 °C 9,6 °C 48 % 1005,1 hPa 0,0 mm 2,1 km/h (1 Bft) O 90 ° 0 min 0,000 mm 0,0 UV-I 0 W/m² -0,9 °C 9,6 °C 3,2 km/h (1 Bft)
03.03.2017 21:26 9,5 °C 9,6 °C 47 % 1005,1 hPa 0,0 mm 3,0 km/h (1 Bft) O 85 ° 0 min 0,000 mm 0,0 UV-I 0 W/m² -1,2 °C 9,5 °C 6,4 km/h (2 Bft)
03.03.2017 21:27 9,5 °C 9,5 °C 47 % 1005,1 hPa 0,0 mm 5,4 km/h (1 Bft) O-NO 71 ° 0 min 0,000 mm 0,0 UV-I 0 W/m² -1,2 °C 9,1 °C 6,4 km/h (2 Bft)
03.03.2017 21:28 9,4 °C 9,5 °C 48 % 1005,1 hPa 0,0 mm 4,8 km/h (1 Bft) S-SW 200 ° 0 min 0,000 mm 0,0 UV-I 0 W/m² -1,0 °C 9,1 °C 9,7 km/h (2 Bft)
03.03.2017 21:29 9,5 °C 9,5 °C 46 % 1005,1 hPa 0,0 mm 1,0 km/h (0 Bft) S-SW 200 ° 0 min 0,000 mm 0,0 UV-I 0 W/m² -1,5 °C 9,5 °C 3,2 km/h (1 Bft)
03.03.2017 21:30 9,4 °C 9,5 °C 47 % 1005,0 hPa 0,0 mm 2,6 km/h (1 Bft) O-SO 114 ° 0 min 0,000 mm 0,0 UV-I 0 W/m² -1,3 °C 9,4 °C 3,2 km/h (1 Bft)
03.03.2017 21:31 9,4 °C 9,4 °C 46 % 1005,1 hPa 0,0 mm 2,3 km/h (1 Bft) O-NO 69 ° 0 min 0,000 mm 0,0 UV-I 0 W/m² -1,6 °C 9,4 °C 4,8 km/h (1 Bft)
03.03.2017 21:32 9,4 °C 9,4 °C 47 % 1005,1 hPa 0,0 mm 2,9 km/h (1 Bft) O-NO 69 ° 0 min 0,000 mm 0,0 UV-I 0 W/m² -1,3 °C 9,4 °C 4,8 km/h (1 Bft)
03.03.2017 21:33 9,6 °C 9,6 °C 46 % 1005,1 hPa 0,0 mm 1,1 km/h (1 Bft) O-NO 69 ° 0 min 0,000 mm 0,0 UV-I 0 W/m² -1,4 °C 9,6 °C 3,2 km/h (1 Bft)
03.03.2017 21:34 9,6 °C 9,6 °C 46 % 1005,1 hPa 0,0 mm 0,3 km/h (0 Bft) O-NO 69 ° 0 min 0,000 mm 0,0 UV-I 0 W/m² -1,4 °C 9,6 °C 1,6 km/h (1 Bft)
03.03.2017 21:35 9,6 °C 9,6 °C 45 % 1005,0 hPa 0,0 mm 2,0 km/h (1 Bft) O-NO 70 ° 0 min 0,000 mm 0,0 UV-I 0 W/m² -1,7 °C 9,6 °C 4,8 km/h (1 Bft)
03.03.2017 21:36 9,6 °C 9,6 °C 46 % 1005,0 hPa 0,0 mm 1,4 km/h (1 Bft) O-NO 70 ° 0 min 0,000 mm 0,0 UV-I 0 W/m² -1,4 °C 9,6 °C 3,2 km/h (1 Bft)
03.03.2017 21:37 9,5 °C 9,6 °C 47 % 1005,1 hPa 0,0 mm 0,1 km/h (0 Bft) O-NO 70 ° 0 min 0,000 mm 0,0 UV-I 0 W/m² -1,2 °C 9,5 °C 1,6 km/h (1 Bft)
03.03.2017 21:38 9,4 °C 9,5 °C 48 % 1005,0 hPa 0,0 mm 2,2 km/h (1 Bft) O-NO 76 ° 0 min 0,000 mm 0,0 UV-I 0 W/m² -1,0 °C 9,4 °C 3,2 km/h (1 Bft)
03.03.2017 21:39 9,3 °C 9,4 °C 47 % 1005,0 hPa 0,0 mm 2,7 km/h (1 Bft) O 92 ° 0 min 0,000 mm 0,0 UV-I 0 W/m² -1,4 °C 9,3 °C 4,8 km/h (1 Bft)
03.03.2017 21:40 9,4 °C 9,4 °C 46 % 1005,0 hPa 0,0 mm 2,3 km/h (1 Bft) O-NO 75 ° 0 min 0,000 mm 0,0 UV-I 0 W/m² -1,6 °C 9,4 °C 3,2 km/h (1 Bft)
03.03.2017 21:41 9,3 °C 9,4 °C 47 % 1005,0 hPa 0,0 mm 1,3 km/h (1 Bft) O-NO 75 ° 0 min 0,000 mm 0,0 UV-I 0 W/m² -1,4 °C 9,3 °C 3,2 km/h (1 Bft)
03.03.2017 21:42 9,3 °C 9,3 °C 47 % 1004,9 hPa 0,0 mm 7,8 km/h (2 Bft) O 101 ° 0 min 0,000 mm 0,0 UV-I 0 W/m² -1,4 °C 8,2 °C 12,9 km/h (3 Bft)
03.03.2017 21:43 9,3 °C 9,3 °C 49 % 1004,9 hPa 0,0 mm 9,5 km/h (2 Bft) O-SO 111 ° 0 min 0,000 mm 0,0 UV-I 0 W/m² -0,9 °C 7,9 °C 16,1 km/h (3 Bft)
03.03.2017 21:44 9,3 °C 9,3 °C 49 % 1004,9 hPa 0,0 mm 12,3 km/h (3 Bft) NO 49 ° 0 min 0,000 mm 0,0 UV-I 0 W/m² -0,9 °C 7,4 °C 17,7 km/h (3 Bft)
03.03.2017 21:45 9,4 °C 9,4 °C 48 % 1004,8 hPa 0,0 mm 4,6 km/h (1 Bft) NO 46 ° 0 min 0,000 mm 0,0 UV-I 0 W/m² -1,0 °C 9,2 °C 8,0 km/h (2 Bft)
03.03.2017 21:46 9,4 °C 9,4 °C 48 % 1004,9 hPa 0,0 mm 4,4 km/h (1 Bft) O-NO 65 ° 0 min 0,000 mm 0,0 UV-I 0 W/m² -1,0 °C 9,4 °C 6,4 km/h (2 Bft)
03.03.2017 21:47 9,4 °C 9,4 °C 46 % 1004,9 hPa 0,0 mm 2,3 km/h (1 Bft) O-SO 113 ° 0 min 0,000 mm 0,0 UV-I 0 W/m² -1,6 °C 9,4 °C 4,8 km/h (1 Bft)
03.03.2017 21:48 9,4 °C 9,4 °C 47 % 1004,8 hPa 0,0 mm 2,7 km/h (1 Bft) O-SO 113 ° 0 min 0,000 mm 0,0 UV-I 0 W/m² -1,3 °C 9,4 °C 3,2 km/h (1 Bft)
03.03.2017 21:49 9,6 °C 9,6 °C 47 % 1004,9 hPa 0,0 mm 2,6 km/h (1 Bft) O-SO 113 ° 0 min 0,000 mm 0,0 UV-I 0 W/m² -1,1 °C 9,6 °C 3,2 km/h (1 Bft)
03.03.2017 21:50 9,6 °C 9,6 °C 46 % 1005,0 hPa 0,0 mm 5,9 km/h (2 Bft) NO 40 ° 0 min 0,000 mm 0,0 UV-I 0 W/m² -1,4 °C 9,0 °C 14,5 km/h (3 Bft)
03.03.2017 21:51 9,5 °C 9,6 °C 48 % 1004,9 hPa 0,0 mm 3,6 km/h (1 Bft) O-NO 72 ° 0 min 0,000 mm 0,0 UV-I 0 W/m² -1,0 °C 9,5 °C 6,4 km/h (2 Bft)
03.03.2017 21:52 9,4 °C 9,6 °C 50 % 1004,8 hPa 0,0 mm 7,1 km/h (2 Bft) O-NO 76 ° 0 min 0,000 mm 0,0 UV-I 0 W/m² -0,5 °C 8,5 °C 9,7 km/h (2 Bft)
03.03.2017 21:53 9,3 °C 9,4 °C 49 % 1004,7 hPa 0,0 mm 13,7 km/h (3 Bft) SO 139 ° 0 min 0,000 mm 0,0 UV-I 0 W/m² -0,9 °C 7,2 °C 17,7 km/h (3 Bft)
03.03.2017 21:54 9,4 °C 9,4 °C 47 % 1004,8 hPa 0,0 mm 3,6 km/h (1 Bft) N-NW 336 ° 0 min 0,000 mm 0,0 UV-I 0 W/m² -1,3 °C 9,4 °C 6,4 km/h (2 Bft)
03.03.2017 21:55 9,4 °C 9,4 °C 48 % 1004,8 hPa 0,0 mm 4,5 km/h (1 Bft) W-SW 255 ° 0 min 0,000 mm 0,0 UV-I 0 W/m² -1,0 °C 9,4 °C 12,9 km/h (3 Bft)
03.03.2017 21:56 9,6 °C 9,6 °C 45 % 1004,8 hPa 0,0 mm 3,4 km/h (1 Bft) O-NO 66 ° 0 min 0,000 mm 0,0 UV-I 0 W/m² -1,7 °C 9,6 °C 12,9 km/h (3 Bft)
03.03.2017 21:57 9,7 °C 9,7 °C 46 % 1004,8 hPa 0,0 mm 5,6 km/h (1 Bft) N 360 ° 0 min 0,000 mm 0,0 UV-I 0 W/m² -1,3 °C 9,2 °C 6,4 km/h (2 Bft)
03.03.2017 21:58 9,8 °C 9,8 °C 46 % 1004,8 hPa 0,0 mm 6,3 km/h (2 Bft) S 176 ° 0 min 0,000 mm 0,0 UV-I 0 W/m² -1,3 °C 9,2 °C 12,9 km/h (3 Bft)
03.03.2017 21:59 9,9 °C 9,9 °C 47 % 1004,8 hPa 0,0 mm 4,8 km/h (1 Bft) O 94 ° 0 min 0,000 mm 0,0 UV-I 0 W/m² -0,9 °C 9,7 °C 8,0 km/h (2 Bft)
03.03.2017 22:00 9,9 °C 9,9 °C 48 % 1004,8 hPa 0,0 mm 4,9 km/h (1 Bft) O-NO 59 ° 0 min 0,000 mm 0,0 UV-I 0 W/m² -0,6 °C 9,7 °C 8,0 km/h (2 Bft)
03.03.2017 22:01 9,9 °C 9,9 °C 46 % 1004,8 hPa 0,0 mm 3,7 km/h (1 Bft) O 101 ° 0 min 0,051 mm 0,0 UV-I 0 W/m² -1,2 °C 9,9 °C 9,7 km/h (2 Bft)
03.03.2017 22:02 10,0 °C 10,0 °C 46 % 1004,8 hPa 0,0 mm 2,7 km/h (1 Bft) O 90 ° 0 min 0,000 mm 0,0 UV-I 0 W/m² -1,1 °C 10,0 °C 6,4 km/h (2 Bft)
03.03.2017 22:03 9,9 °C 10,0 °C 46 % 1004,9 hPa 0,0 mm 1,5 km/h (1 Bft) NO 36 ° 0 min 0,000 mm 0,0 UV-I 0 W/m² -1,2 °C 9,9 °C 4,8 km/h (1 Bft)
03.03.2017 22:04 9,9 °C 10,0 °C 45 % 1004,7 hPa 0,0 mm 3,6 km/h (1 Bft) O 99 ° 0 min 0,000 mm 0,0 UV-I 0 W/m² -1,5 °C 9,9 °C 4,8 km/h (1 Bft)
03.03.2017 22:05 9,9 °C 9,9 °C 46 % 1004,8 hPa 0,0 mm 3,6 km/h (1 Bft) O 96 ° 0 min 0,000 mm 0,0 UV-I 0 W/m² -1,2 °C 9,9 °C 4,8 km/h (1 Bft)
03.03.2017 22:06 9,8 °C 9,9 °C 46 % 1004,8 hPa 0,0 mm 2,1 km/h (1 Bft) O 96 ° 0 min 0,000 mm 0,0 UV-I 0 W/m² -1,3 °C 9,8 °C 3,2 km/h (1 Bft)
03.03.2017 22:07 9,8 °C 9,8 °C 47 % 1004,7 hPa 0,0 mm 4,8 km/h (1 Bft) O 101 ° 0 min 0,000 mm 0,0 UV-I 0 W/m² -1,0 °C 9,6 °C 9,7 km/h (2 Bft)
03.03.2017 22:08 9,7 °C 9,8 °C 49 % 1004,8 hPa 0,0 mm 5,6 km/h (1 Bft) N-NW 336 ° 0 min 0,000 mm 0,0 UV-I 0 W/m² -0,5 °C 9,2 °C 8,0 km/h (2 Bft)
03.03.2017 22:09 9,6 °C 9,7 °C 47 % 1004,8 hPa 0,0 mm 2,2 km/h (1 Bft) O-NO 72 ° 0 min 0,000 mm 0,0 UV-I 0 W/m² -1,1 °C 9,6 °C 4,8 km/h (1 Bft)
03.03.2017 22:10 9,4 °C 9,6 °C 48 % 1004,7 hPa 0,0 mm 6,0 km/h (2 Bft) O 82 ° 0 min 0,000 mm 0,0 UV-I 0 W/m² -1,0 °C 8,8 °C 8,0 km/h (2 Bft)
03.03.2017 22:11 9,4 °C 9,4 °C 50 % 1004,7 hPa 0,0 mm 8,6 km/h (2 Bft) S-SO 155 ° 0 min 0,000 mm 0,0 UV-I 0 W/m² -0,5 °C 8,2 °C 12,9 km/h (3 Bft)
03.03.2017 22:12 9,4 °C 9,4 °C 47 % 1004,7 hPa 0,0 mm 4,9 km/h (1 Bft) O 93 ° 0 min 0,000 mm 0,0 UV-I 0 W/m² -1,3 °C 9,1 °C 12,9 km/h (3 Bft)
03.03.2017 22:13 9,6 °C 9,6 °C 46 % 1004,7 hPa 0,0 mm 4,0 km/h (1 Bft) O-NO 77 ° 0 min 0,000 mm 0,0 UV-I 0 W/m² -1,4 °C 9,6 °C 6,4 km/h (2 Bft)
03.03.2017 22:14 9,6 °C 9,7 °C 48 % 1004,6 hPa 0,0 mm 4,0 km/h (1 Bft) S-SO 155 ° 0 min 0,000 mm 0,0 UV-I 0 W/m² -0,9 °C 9,6 °C 6,4 km/h (2 Bft)
03.03.2017 22:15 9,7 °C 9,7 °C 46 % 1004,5 hPa 0,0 mm 2,0 km/h (1 Bft) O-SO 122 ° 0 min 0,000 mm 0,0 UV-I 0 W/m² -1,3 °C 9,7 °C 3,2 km/h (1 Bft)
03.03.2017 22:16 9,8 °C 9,8 °C 45 % 1004,5 hPa 0,0 mm 3,3 km/h (1 Bft) O-NO 68 ° 0 min 0,000 mm 0,0 UV-I 0 W/m² -1,6 °C 9,8 °C 6,4 km/h (2 Bft)
03.03.2017 22:17 9,7 °C 9,8 °C 45 % 1004,6 hPa 0,0 mm 4,0 km/h (1 Bft) W 281 ° 0 min 0,000 mm 0,0 UV-I 0 W/m² -1,6 °C 9,7 °C 6,4 km/h (2 Bft)
03.03.2017 22:18 9,8 °C 9,8 °C 44 % 1004,5 hPa 0,0 mm 3,4 km/h (1 Bft) SW 221 ° 0 min 0,000 mm 0,0 UV-I 0 W/m² -1,9 °C 9,8 °C 4,8 km/h (1 Bft)
03.03.2017 22:19 10,0 °C 10,0 °C 44 % 1004,7 hPa 0,0 mm 8,7 km/h (2 Bft) O-SO 104 ° 0 min 0,000 mm 0,0 UV-I 0 W/m² -1,7 °C 8,9 °C 11,3 km/h (2 Bft)
03.03.2017 22:20 10,2 °C 10,2 °C 44 % 1004,6 hPa 0,0 mm 5,0 km/h (1 Bft) N-NO 15 ° 0 min 0,000 mm 0,0 UV-I 0 W/m² -1,5 °C 10,2 °C 11,3 km/h (2 Bft)
03.03.2017 22:21 10,4 °C 10,4 °C 41 % 1004,5 hPa 0,0 mm 2,4 km/h (1 Bft) NO 51 ° 0 min 0,000 mm 0,0 UV-I 0 W/m² -2,3 °C 10,4 °C 4,8 km/h (1 Bft)
03.03.2017 22:22 10,6 °C 10,6 °C 43 % 1004,4 hPa 0,0 mm 5,7 km/h (1 Bft) O 81 ° 0 min 0,000 mm 0,0 UV-I 0 W/m² -1,4 °C 10,6 °C 12,9 km/h (3 Bft)
03.03.2017 22:23 10,6 °C 10,6 °C 43 % 1004,4 hPa 0,0 mm 4,0 km/h (1 Bft) SO 136 ° 0 min 0,000 mm 0,0 UV-I 0 W/m² -1,4 °C 10,6 °C 8,0 km/h (2 Bft)
03.03.2017 22:24 10,5 °C 10,6 °C 45 % 1004,5 hPa 0,0 mm 3,6 km/h (1 Bft) N-NO 27 ° 0 min 0,000 mm 0,0 UV-I 0 W/m² -0,9 °C 10,5 °C 6,4 km/h (2 Bft)
03.03.2017 22:25 10,4 °C 10,5 °C 44 % 1004,5 hPa 0,0 mm 3,5 km/h (1 Bft) NW 310 ° 0 min 0,000 mm 0,0 UV-I 0 W/m² -1,3 °C 10,4 °C 6,4 km/h (2 Bft)
03.03.2017 22:26 10,7 °C 10,7 °C 41 % 1004,5 hPa 0,0 mm 6,1 km/h (2 Bft) N-NO 30 ° 0 min 0,000 mm 0,0 UV-I 0 W/m² -2,0 °C 10,7 °C 8,0 km/h (2 Bft)
03.03.2017 22:27 10,7 °C 10,7 °C 43 % 1004,5 hPa 0,0 mm 4,2 km/h (1 Bft) NO 38 ° 0 min 0,000 mm 0,0 UV-I 0 W/m² -1,4 °C 10,7 °C 6,4 km/h (2 Bft)
03.03.2017 22:28 10,7 °C 10,7 °C 42 % 1004,4 hPa 0,0 mm 4,7 km/h (1 Bft) W 268 ° 0 min 0,000 mm 0,0 UV-I 0 W/m² -1,7 °C 10,7 °C 6,4 km/h (2 Bft)
03.03.2017 22:29 10,7 °C 10,7 °C 42 % 1004,5 hPa 0,0 mm 4,6 km/h (1 Bft) O-SO 109 ° 0 min 0,000 mm 0,0 UV-I 0 W/m² -1,7 °C 10,7 °C 9,7 km/h (2 Bft)
03.03.2017 22:30 10,7 °C 10,7 °C 43 % 1004,4 hPa 0,0 mm 4,5 km/h (1 Bft) SO 129 ° 0 min 0,000 mm 0,0 UV-I 0 W/m² -1,4 °C 10,7 °C 8,0 km/h (2 Bft)
03.03.2017 22:31 10,8 °C 10,8 °C 41 % 1004,5 hPa 0,0 mm 0,8 km/h (0 Bft) SO 129 ° 0 min 0,000 mm 0,0 UV-I 0 W/m² -1,9 °C 10,8 °C 3,2 km/h (1 Bft)
03.03.2017 22:32 10,7 °C 10,8 °C 45 % 1004,5 hPa 0,0 mm 4,0 km/h (1 Bft) W-NW 294 ° 0 min 0,000 mm 0,0 UV-I 0 W/m² -0,7 °C 10,7 °C 6,4 km/h (2 Bft)
03.03.2017 22:33 10,8 °C 10,8 °C 42 % 1004,5 hPa 0,0 mm 4,2 km/h (1 Bft) N-NO 15 ° 0 min 0,000 mm 0,0 UV-I 0 W/m² -1,6 °C 10,8 °C 11,3 km/h (2 Bft)
03.03.2017 22:34 10,8 °C 10,8 °C 43 % 1004,3 hPa 0,0 mm 4,4 km/h (1 Bft) O-SO 103 ° 0 min 0,000 mm 0,0 UV-I 0 W/m² -1,3 °C 10,8 °C 11,3 km/h (2 Bft)
03.03.2017 22:35 10,7 °C 10,8 °C 44 % 1004,5 hPa 0,0 mm 5,2 km/h (1 Bft) N 355 ° 0 min 0,000 mm 0,0 UV-I 0 W/m² -1,0 °C 10,7 °C 12,9 km/h (3 Bft)
03.03.2017 22:36 10,7 °C 10,7 °C 43 % 1004,4 hPa 0,0 mm 4,8 km/h (1 Bft) O 83 ° 0 min 0,000 mm 0,0 UV-I 0 W/m² -1,4 °C 10,7 °C 6,4 km/h (2 Bft)
03.03.2017 22:37 10,7 °C 10,7 °C 44 % 1004,4 hPa 0,0 mm 4,2 km/h (1 Bft) N-NO 31 ° 0 min 0,000 mm 0,0 UV-I 0 W/m² -1,0 °C 10,7 °C 6,4 km/h (2 Bft)
03.03.2017 22:38 10,6 °C 10,7 °C 46 % 1004,4 hPa 0,0 mm 3,6 km/h (1 Bft) O-NO 58 ° 0 min 0,000 mm 0,0 UV-I 0 W/m² -0,5 °C 10,6 °C 8,0 km/h (2 Bft)
03.03.2017 22:39 10,5 °C 10,6 °C 44 % 1004,3 hPa 0,0 mm 4,4 km/h (1 Bft) O-NO 76 ° 0 min 0,000 mm 0,0 UV-I 0 W/m² -1,2 °C 10,5 °C 8,0 km/h (2 Bft)
03.03.2017 22:40 10,4 °C 10,5 °C 45 % 1004,3 hPa 0,0 mm 2,8 km/h (1 Bft) N-NW 341 ° 0 min 0,000 mm 0,0 UV-I 0 W/m² -1,0 °C 10,4 °C 6,4 km/h (2 Bft)
03.03.2017 22:41 10,6 °C 10,6 °C 42 % 1004,3 hPa 0,0 mm 6,3 km/h (2 Bft) O-NO 75 ° 0 min 0,000 mm 0,0 UV-I 0 W/m² -1,8 °C 10,6 °C 12,9 km/h (3 Bft)
03.03.2017 22:42 10,6 °C 10,6 °C 45 % 1004,3 hPa 0,0 mm 4,5 km/h (1 Bft) N-NO 13 ° 0 min 0,000 mm 0,0 UV-I 0 W/m² -0,8 °C 10,6 °C 8,0 km/h (2 Bft)
03.03.2017 22:43 10,6 °C 10,6 °C 43 % 1004,3 hPa 0,0 mm 4,6 km/h (1 Bft) W-NW 283 ° 0 min 0,000 mm 0,0 UV-I 0 W/m² -1,4 °C 10,6 °C 8,0 km/h (2 Bft)
03.03.2017 22:44 10,7 °C 10,7 °C 43 % 1004,3 hPa 0,0 mm 6,4 km/h (2 Bft) S-SW 201 ° 0 min 0,000 mm 0,0 UV-I 0 W/m² -1,4 °C 10,7 °C 12,9 km/h (3 Bft)
03.03.2017 22:45 10,7 °C 10,7 °C 44 % 1004,2 hPa 0,0 mm 2,5 km/h (1 Bft) S 175 ° 0 min 0,000 mm 0,0 UV-I 0 W/m² -1,0 °C 10,7 °C 4,8 km/h (1 Bft)
03.03.2017 22:46 10,7 °C 10,7 °C 44 % 1004,3 hPa 0,0 mm 6,3 km/h (2 Bft) O-NO 78 ° 0 min 0,000 mm 0,0 UV-I 0 W/m² -1,0 °C 10,7 °C 16,1 km/h (3 Bft)
03.03.2017 22:47 11,0 °C 11,0 °C 40 % 1004,1 hPa 0,0 mm 9,4 km/h (2 Bft) O-SO 113 ° 0 min 0,000 mm 0,0 UV-I 0 W/m² -2,1 °C 11,0 °C 12,9 km/h (3 Bft)
03.03.2017 22:48 11,1 °C 11,1 °C 42 % 1004,2 hPa 0,0 mm 4,2 km/h (1 Bft) S-SO 161 ° 0 min 0,000 mm 0,0 UV-I 0 W/m² -1,3 °C 11,1 °C 12,9 km/h (3 Bft)
03.03.2017 22:49 11,2 °C 11,2 °C 41 % 1004,3 hPa 0,0 mm 2,8 km/h (1 Bft) O-SO 107 ° 0 min 0,000 mm 0,0 UV-I 0 W/m² -1,6 °C 11,2 °C 4,8 km/h (1 Bft)
03.03.2017 22:50 11,2 °C 11,2 °C 42 % 1004,3 hPa 0,0 mm 9,4 km/h (2 Bft) O-NO 76 ° 0 min 0,000 mm 0,0 UV-I 0 W/m² -1,2 °C 11,2 °C 16,1 km/h (3 Bft)
03.03.2017 22:51 11,2 °C 11,2 °C 41 % 1004,1 hPa 0,0 mm 5,2 km/h (1 Bft) N 355 ° 0 min 0,000 mm 0,0 UV-I 0 W/m² -1,6 °C 11,2 °C 9,7 km/h (2 Bft)
03.03.2017 22:52 11,2 °C 11,2 °C 43 % 1004,1 hPa 0,0 mm 3,6 km/h (1 Bft) S-SW 204 ° 0 min 0,000 mm 0,0 UV-I 0 W/m² -0,9 °C 11,2 °C 8,0 km/h (2 Bft)
03.03.2017 22:53 11,1 °C 11,2 °C 43 % 1004,1 hPa 0,0 mm 3,6 km/h (1 Bft) O 82 ° 0 min 0,000 mm 0,0 UV-I 0 W/m² -1,0 °C 11,1 °C 8,0 km/h (2 Bft)
03.03.2017 22:54 11,1 °C 11,2 °C 43 % 1004,1 hPa 0,0 mm 5,4 km/h (1 Bft) N-NW 339 ° 0 min 0,000 mm 0,0 UV-I 0 W/m² -1,0 °C 11,1 °C 9,7 km/h (2 Bft)
03.03.2017 22:55 10,8 °C 11,1 °C 45 % 1004,3 hPa 0,0 mm 8,0 km/h (2 Bft) N-NW 333 ° 0 min 0,000 mm 0,0 UV-I 0 W/m² -0,6 °C 10,8 °C 14,5 km/h (3 Bft)
03.03.2017 22:56 10,9 °C 10,9 °C 41 % 1004,1 hPa 0,0 mm 8,1 km/h (2 Bft) SO 141 ° 0 min 0,000 mm 0,0 UV-I 0 W/m² -1,8 °C 10,9 °C 14,5 km/h (3 Bft)
03.03.2017 22:57 11,0 °C 11,0 °C 43 % 1004,0 hPa 0,0 mm 7,1 km/h (2 Bft) N 10 ° 0 min 0,000 mm 0,0 UV-I 0 W/m² -1,1 °C 11,0 °C 11,3 km/h (2 Bft)
03.03.2017 22:58 11,0 °C 11,0 °C 43 % 1003,9 hPa 0,0 mm 8,0 km/h (2 Bft) SW 236 ° 0 min 0,000 mm 0,0 UV-I 0 W/m² -1,1 °C 11,0 °C 12,9 km/h (3 Bft)
03.03.2017 22:59 10,9 °C 11,0 °C 43 % 1004,0 hPa 0,0 mm 7,2 km/h (2 Bft) S-SO 157 ° 0 min 0,000 mm 0,0 UV-I 0 W/m² -1,2 °C 10,9 °C 11,3 km/h (2 Bft)
03.03.2017 23:00 11,1 °C 11,1 °C 41 % 1004,0 hPa 0,0 mm 5,3 km/h (1 Bft) O-NO 59 ° 0 min 0,000 mm 0,0 UV-I 0 W/m² -1,6 °C 11,1 °C 9,7 km/h (2 Bft)
03.03.2017 23:01 11,4 °C 11,4 °C 40 % 1003,9 hPa 0,0 mm 6,5 km/h (2 Bft) S-SW 194 ° 0 min 0,051 mm 0,0 UV-I 0 W/m² -1,7 °C 11,4 °C 17,7 km/h (3 Bft)
03.03.2017 23:02 11,6 °C 11,6 °C 40 % 1003,9 hPa 0,0 mm 5,8 km/h (2 Bft) SO 144 ° 0 min 0,000 mm 0,0 UV-I 0 W/m² -1,5 °C 11,6 °C 9,7 km/h (2 Bft)
03.03.2017 23:03 11,6 °C 11,6 °C 39 % 1003,9 hPa 0,0 mm 4,8 km/h (1 Bft) W-SW 246 ° 0 min 0,000 mm 0,0 UV-I 0 W/m² -1,9 °C 11,6 °C 8,0 km/h (2 Bft)
03.03.2017 23:04 11,7 °C 11,7 °C 39 % 1003,9 hPa 0,0 mm 8,4 km/h (2 Bft) W-SW 242 ° 0 min 0,000 mm 0,0 UV-I 0 W/m² -1,8 °C 11,7 °C 17,7 km/h (3 Bft)
03.03.2017 23:05 11,8 °C 11,8 °C 39 % 1003,8 hPa 0,0 mm 6,2 km/h (2 Bft) W-SW 238 ° 0 min 0,000 mm 0,0 UV-I 0 W/m² -1,7 °C 11,8 °C 11,3 km/h (2 Bft)
03.03.2017 23:06 11,8 °C 11,9 °C 40 % 1003,9 hPa 0,0 mm 8,2 km/h (2 Bft) N-NO 15 ° 0 min 0,000 mm 0,0 UV-I 0 W/m² -1,3 °C 11,8 °C 14,5 km/h (3 Bft)
03.03.2017 23:07 11,7 °C 11,8 °C 41 % 1003,9 hPa 0,0 mm 6,4 km/h (2 Bft) W-SW 250 ° 0 min 0,000 mm 0,0 UV-I 0 W/m² -1,1 °C 11,7 °C 12,9 km/h (3 Bft)
03.03.2017 23:08 11,7 °C 11,7 °C 39 % 1003,9 hPa 0,0 mm 8,2 km/h (2 Bft) S 172 ° 0 min 0,000 mm 0,0 UV-I 0 W/m² -1,8 °C 11,7 °C 16,1 km/h (3 Bft)
03.03.2017 23:09 11,7 °C 11,8 °C 40 % 1003,8 hPa 0,0 mm 6,6 km/h (2 Bft) SO 134 ° 0 min 0,000 mm 0,0 UV-I 0 W/m² -1,4 °C 11,7 °C 11,3 km/h (2 Bft)
03.03.2017 23:10 11,7 °C 11,8 °C 40 % 1003,7 hPa 0,0 mm 10,3 km/h (2 Bft) S-SO 157 ° 0 min 0,000 mm 0,0 UV-I 0 W/m² -1,4 °C 11,7 °C 25,7 km/h (4 Bft)
03.03.2017 23:11 11,7 °C 11,7 °C 39 % 1003,8 hPa 0,0 mm 7,4 km/h (2 Bft) W 271 ° 0 min 0,000 mm 0,0 UV-I 0 W/m² -1,8 °C 11,7 °C 14,5 km/h (3 Bft)
03.03.2017 23:12 11,8 °C 11,8 °C 41 % 1003,8 hPa 0,0 mm 7,7 km/h (2 Bft) SW 222 ° 0 min 0,000 mm 0,0 UV-I 0 W/m² -1,0 °C 11,8 °C 14,5 km/h (3 Bft)
03.03.2017 23:13 11,7 °C 11,8 °C 41 % 1003,8 hPa 0,0 mm 6,0 km/h (2 Bft) NW 315 ° 0 min 0,000 mm 0,0 UV-I 0 W/m² -1,1 °C 11,7 °C 11,3 km/h (2 Bft)
03.03.2017 23:14 11,8 °C 11,8 °C 40 % 1003,7 hPa 0,0 mm 9,0 km/h (2 Bft) SW 221 ° 0 min 0,000 mm 0,0 UV-I 0 W/m² -1,3 °C 11,8 °C 16,1 km/h (3 Bft)
03.03.2017 23:15 11,9 °C 11,9 °C 39 % 1003,6 hPa 0,0 mm 8,3 km/h (2 Bft) S-SW 192 ° 0 min 0,000 mm 0,0 UV-I 0 W/m² -1,6 °C 11,9 °C 17,7 km/h (3 Bft)
03.03.2017 23:16 12,0 °C 12,0 °C 39 % 1003,8 hPa 0,0 mm 15,1 km/h (3 Bft) O 98 ° 0 min 0,000 mm 0,0 UV-I 0 W/m² -1,5 °C 12,0 °C 20,9 km/h (4 Bft)
03.03.2017 23:17 11,9 °C 12,0 °C 40 % 1003,6 hPa 0,0 mm 9,1 km/h (2 Bft) W-SW 254 ° 0 min 0,000 mm 0,0 UV-I 0 W/m² -1,3 °C 11,9 °C 19,3 km/h (3 Bft)
03.03.2017 23:18 12,0 °C 12,0 °C 38 % 1003,7 hPa 0,0 mm 8,6 km/h (2 Bft) S-SW 200 ° 0 min 0,000 mm 0,0 UV-I 0 W/m² -1,9 °C 12,0 °C 12,9 km/h (3 Bft)
03.03.2017 23:19 12,0 °C 12,1 °C 40 % 1003,7 hPa 0,0 mm 6,8 km/h (2 Bft) SW 217 ° 0 min 0,000 mm 0,0 UV-I 0 W/m² -1,2 °C 12,0 °C 12,9 km/h (3 Bft)
03.03.2017 23:20 11,9 °C 12,0 °C 40 % 1003,8 hPa 0,0 mm 8,4 km/h (2 Bft) W-NW 284 ° 0 min 0,000 mm 0,0 UV-I 0 W/m² -1,3 °C 11,9 °C 14,5 km/h (3 Bft)
03.03.2017 23:21 11,7 °C 11,9 °C 44 % 1003,7 hPa 0,0 mm 5,4 km/h (1 Bft) N-NW 336 ° 0 min 0,000 mm 0,0 UV-I 0 W/m² -0,1 °C 11,7 °C 9,7 km/h (2 Bft)
03.03.2017 23:22 11,6 °C 11,7 °C 40 % 1003,6 hPa 0,0 mm 5,1 km/h (1 Bft) SO 130 ° 0 min 0,000 mm 0,0 UV-I 0 W/m² -1,5 °C 11,6 °C 8,0 km/h (2 Bft)
03.03.2017 23:23 11,6 °C 11,6 °C 39 % 1003,7 hPa 0,0 mm 4,7 km/h (1 Bft) S-SW 209 ° 0 min 0,000 mm 0,0 UV-I 0 W/m² -1,9 °C 11,6 °C 11,3 km/h (2 Bft)
03.03.2017 23:24 11,7 °C 11,7 °C 39 % 1003,7 hPa 0,0 mm 4,7 km/h (1 Bft) W 280 ° 0 min 0,000 mm 0,0 UV-I 0 W/m² -1,8 °C 11,7 °C 9,7 km/h (2 Bft)
03.03.2017 23:25 11,8 °C 11,8 °C 40 % 1003,7 hPa 0,0 mm 16,9 km/h (3 Bft) W-SW 238 ° 0 min 0,000 mm 0,0 UV-I 0 W/m² -1,3 °C 11,8 °C 27,4 km/h (4 Bft)
03.03.2017 23:26 11,8 °C 11,8 °C 39 % 1003,6 hPa 0,0 mm 6,8 km/h (2 Bft) N-NW 333 ° 0 min 0,000 mm 0,0 UV-I 0 W/m² -1,7 °C 11,8 °C 12,9 km/h (3 Bft)
03.03.2017 23:27 11,9 °C 11,9 °C 39 % 1003,5 hPa 0,0 mm 7,3 km/h (2 Bft) S-SW 199 ° 0 min 0,000 mm 0,0 UV-I 0 W/m² -1,6 °C 11,9 °C 12,9 km/h (3 Bft)
03.03.2017 23:28 12,0 °C 12,0 °C 38 % 1003,8 hPa 0,0 mm 9,1 km/h (2 Bft) NW 309 ° 0 min 0,000 mm 0,0 UV-I 0 W/m² -1,9 °C 12,0 °C 16,1 km/h (3 Bft)
03.03.2017 23:29 12,1 °C 12,1 °C 38 % 1003,6 hPa 0,0 mm 13,1 km/h (3 Bft) W-SW 245 ° 0 min 0,000 mm 0,0 UV-I 0 W/m² -1,8 °C 12,1 °C 19,3 km/h (3 Bft)
03.03.2017 23:30 12,1 °C 12,1 °C 38 % 1003,7 hPa 0,0 mm 13,1 km/h (3 Bft) W 267 ° 0 min 0,000 mm 0,0 UV-I 0 W/m² -1,8 °C 12,1 °C 17,7 km/h (3 Bft)
03.03.2017 23:31 12,1 °C 12,2 °C 39 % 1003,5 hPa 0,0 mm 4,0 km/h (1 Bft) W-NW 301 ° 0 min 0,000 mm 0,0 UV-I 0 W/m² -1,4 °C 12,1 °C 6,4 km/h (2 Bft)
03.03.2017 23:32 12,2 °C 12,2 °C 37 % 1003,6 hPa 0,0 mm 5,5 km/h (1 Bft) N-NW 336 ° 0 min 0,000 mm 0,0 UV-I 0 W/m² -2,0 °C 12,2 °C 12,9 km/h (3 Bft)
03.03.2017 23:33 12,2 °C 12,2 °C 39 % 1003,5 hPa 0,0 mm 8,6 km/h (2 Bft) S 191 ° 0 min 0,000 mm 0,0 UV-I 0 W/m² -1,3 °C 12,2 °C 17,7 km/h (3 Bft)
03.03.2017 23:34 12,2 °C 12,2 °C 39 % 1003,5 hPa 0,0 mm 7,9 km/h (2 Bft) S 178 ° 0 min 0,000 mm 0,0 UV-I 0 W/m² -1,3 °C 12,2 °C 11,3 km/h (2 Bft)
03.03.2017 23:35 12,1 °C 12,2 °C 39 % 1003,6 hPa 0,0 mm 5,5 km/h (1 Bft) S 170 ° 0 min 0,000 mm 0,0 UV-I 0 W/m² -1,4 °C 12,1 °C 11,3 km/h (2 Bft)
03.03.2017 23:36 12,2 °C 12,2 °C 39 % 1003,5 hPa 0,0 mm 14,1 km/h (3 Bft) SW 217 ° 0 min 0,000 mm 0,0 UV-I 0 W/m² -1,3 °C 12,2 °C 22,5 km/h (4 Bft)
03.03.2017 23:37 12,2 °C 12,2 °C 38 % 1003,6 hPa 0,0 mm 10,1 km/h (2 Bft) S-SW 201 ° 0 min 0,000 mm 0,0 UV-I 0 W/m² -1,7 °C 12,2 °C 20,9 km/h (4 Bft)
03.03.2017 23:38 12,2 °C 12,2 °C 38 % 1003,6 hPa 0,0 mm 6,3 km/h (2 Bft) W 268 ° 0 min 0,000 mm 0,0 UV-I 0 W/m² -1,7 °C 12,2 °C 12,9 km/h (3 Bft)
03.03.2017 23:39 12,1 °C 12,3 °C 41 % 1003,6 hPa 0,0 mm 5,3 km/h (1 Bft) S-SW 198 ° 0 min 0,000 mm 0,0 UV-I 0 W/m² -0,7 °C 12,1 °C 8,0 km/h (2 Bft)
03.03.2017 23:40 12,0 °C 12,1 °C 38 % 1003,6 hPa 0,0 mm 13,2 km/h (3 Bft) W-SW 249 ° 0 min 0,000 mm 0,0 UV-I 0 W/m² -1,9 °C 12,0 °C 24,1 km/h (4 Bft)
03.03.2017 23:41 12,1 °C 12,1 °C 38 % 1003,6 hPa 0,0 mm 6,4 km/h (2 Bft) W-NW 299 ° 0 min 0,000 mm 0,0 UV-I 0 W/m² -1,8 °C 12,1 °C 9,7 km/h (2 Bft)
03.03.2017 23:42 12,0 °C 12,1 °C 40 % 1003,4 hPa 0,0 mm 12,0 km/h (2 Bft) SW 227 ° 0 min 0,000 mm 0,0 UV-I 0 W/m² -1,2 °C 12,0 °C 25,7 km/h (4 Bft)
03.03.2017 23:43 12,1 °C 12,1 °C 39 % 1003,6 hPa 0,0 mm 8,0 km/h (2 Bft) S 184 ° 0 min 0,000 mm 0,0 UV-I 0 W/m² -1,4 °C 12,1 °C 22,5 km/h (4 Bft)
03.03.2017 23:44 12,1 °C 12,1 °C 40 % 1003,6 hPa 0,0 mm 9,1 km/h (2 Bft) SW 219 ° 0 min 0,000 mm 0,0 UV-I 0 W/m² -1,1 °C 12,1 °C 16,1 km/h (3 Bft)
03.03.2017 23:45 11,9 °C 12,1 °C 40 % 1003,6 hPa 0,0 mm 7,8 km/h (2 Bft) W-NW 296 ° 0 min 0,000 mm 0,0 UV-I 0 W/m² -1,3 °C 11,9 °C 14,5 km/h (3 Bft)
03.03.2017 23:46 11,9 °C 12,0 °C 41 % 1003,5 hPa 0,0 mm 7,5 km/h (2 Bft) O-NO 59 ° 0 min 0,000 mm 0,0 UV-I 0 W/m² -0,9 °C 11,9 °C 11,3 km/h (2 Bft)
03.03.2017 23:47 11,9 °C 11,9 °C 40 % 1003,5 hPa 0,0 mm 5,4 km/h (1 Bft) W-NW 294 ° 0 min 0,000 mm 0,0 UV-I 0 W/m² -1,3 °C 11,9 °C 11,3 km/h (2 Bft)
03.03.2017 23:48 11,9 °C 11,9 °C 39 % 1003,6 hPa 0,0 mm 10,9 km/h (2 Bft) SW 226 ° 0 min 0,000 mm 0,0 UV-I 0 W/m² -1,6 °C 11,9 °C 22,5 km/h (4 Bft)
03.03.2017 23:49 11,9 °C 12,0 °C 39 % 1003,5 hPa 0,0 mm 16,9 km/h (3 Bft) W-SW 254 ° 0 min 0,000 mm 0,0 UV-I 0 W/m² -1,6 °C 11,9 °C 29,0 km/h (5 Bft)
03.03.2017 23:50 12,1 °C 12,1 °C 38 % 1003,5 hPa 0,0 mm 9,6 km/h (2 Bft) W-SW 248 ° 0 min 0,000 mm 0,0 UV-I 0 W/m² -1,8 °C 12,1 °C 14,5 km/h (3 Bft)
03.03.2017 23:51 12,2 °C 12,2 °C 37 % 1003,5 hPa 0,0 mm 4,5 km/h (1 Bft) NW 305 ° 0 min 0,000 mm 0,0 UV-I 0 W/m² -2,0 °C 12,2 °C 6,4 km/h (2 Bft)
03.03.2017 23:52 12,2 °C 12,2 °C 39 % 1003,5 hPa 0,0 mm 3,8 km/h (1 Bft) W-SW 246 ° 0 min 0,000 mm 0,0 UV-I 0 W/m² -1,3 °C 12,2 °C 9,7 km/h (2 Bft)
03.03.2017 23:53 12,2 °C 12,2 °C 38 % 1003,5 hPa 0,0 mm 8,5 km/h (2 Bft) W-SW 248 ° 0 min 0,000 mm 0,0 UV-I 0 W/m² -1,7 °C 12,2 °C 11,3 km/h (2 Bft)
03.03.2017 23:54 12,2 °C 12,2 °C 38 % 1003,5 hPa 0,0 mm 4,8 km/h (1 Bft) SW 232 ° 0 min 0,000 mm 0,0 UV-I 0 W/m² -1,7 °C 12,2 °C 19,3 km/h (3 Bft)
03.03.2017 23:55 12,2 °C 12,2 °C 38 % 1003,5 hPa 0,0 mm 7,3 km/h (2 Bft) W 260 ° 0 min 0,000 mm 0,0 UV-I 0 W/m² -1,7 °C 12,2 °C 22,5 km/h (4 Bft)
03.03.2017 23:56 12,2 °C 12,2 °C 37 % 1003,4 hPa 0,0 mm 15,2 km/h (3 Bft) SO 144 ° 0 min 0,000 mm 0,0 UV-I 0 W/m² -2,0 °C 12,2 °C 22,5 km/h (4 Bft)
03.03.2017 23:57 12,2 °C 12,2 °C 38 % 1003,3 hPa 0,0 mm 11,7 km/h (2 Bft) W-SW 250 ° 0 min 0,000 mm 0,0 UV-I 0 W/m² -1,7 °C 12,2 °C 17,7 km/h (3 Bft)
03.03.2017 23:58 12,3 °C 12,3 °C 38 % 1003,3 hPa 0,0 mm 10,8 km/h (2 Bft) S 186 ° 0 min 0,000 mm 0,0 UV-I 0 W/m² -1,6 °C 12,3 °C 25,7 km/h (4 Bft)
03.03.2017 23:59 12,3 °C 12,3 °C 38 % 1003,2 hPa 0,0 mm 8,9 km/h (2 Bft) S-SW 210 ° 0 min 0,000 mm 0,0 UV-I 0 W/m² -1,6 °C 12,3 °C 16,1 km/h (3 Bft)
_ Min-Zeit 06:29 06:29 13:25 23:59 - 19:49 - - - - - - 06:17 06:37 19:49
Minimum _ -4,7 °C -4,7 °C 29 % 1003,2 hPa - 0,0 km/h (0 Bft) - - - - - - -7,9 °C -6,0 °C 0,0 km/h (0 Bft)
_ Max-Zeit 13:26 13:27 07:57 00:58 23:59 23:49 - - 15:41 14:01 12:46 12:39 15:40 13:26 23:49
Maximum _ 15,1 °C 15,1 °C 82 % 1019,6 hPa 0,0 mm 16,9 km/h
W-SW (3 Bft)
- - 1 min 0,330 mm 3,8 UV-I 629 W/m² 2,3 °C 15,1 °C 29,0 km/h
SW (5 Bft)
Durchschnitt _ 5,1 °C 5,1 °C 56 % 1012,0 hPa #0,0 mm 2,2 km/h (1 Bft) O-NO - #6:04 h #1,829 mm 2,0 UV-I 125 W/m² -3,7 °C 5,1 °C 3,9 km/h (1 Bft)